GFSCGP_prec_pwat_000.txt.gz
Precipitable_Water
0.31 0.29 0.28 0.33 0.37 0.37 0.38 0.46 0.53 0.59 0.68 0.72 0.69 0.73 0.81 0.88 0.85 0.83 0.75 0.80 0.88 0.91 1.02 1.07 1.15 1.14 1.15 1.16 1.20 1.24 1.22 1.27 1.30 1.24 1.19 1.22 1.18 1.27 1.35 1.39 1.43 1.44 1.60 1.54
0.24 0.24 0.32 0.36 0.40 0.39 0.42 0.41 0.53 0.63 0.70 0.66 0.72 0.72 0.84 0.88 0.70 0.80 0.87 0.90 0.91 1.00 1.04 1.04 1.07 1.07 1.06 1.11 1.14 1.18 1.11 1.18 1.16 1.17 1.14 1.11 1.08 1.08 1.16 1.24 1.25 1.40 1.40 1.42
0.19 0.22 0.35 0.34 0.37 0.39 0.41 0.42 0.48 0.52 0.65 0.71 0.75 0.73 0.81 0.89 0.99 1.10 1.08 1.00 0.98 0.92 0.98 1.05 1.08 1.05 1.05 1.09 1.04 1.06 1.15 1.16 1.20 1.18 1.13 1.12 1.13 1.04 0.96 0.98 1.11 1.25 1.24 1.12
0.21 0.25 0.31 0.34 0.33 0.38 0.35 0.41 0.42 0.45 0.55 0.53 0.70 0.49 0.68 0.76 0.83 1.00 1.06 1.07 1.02 0.92 0.98 1.08 1.09 1.06 1.06 1.07 1.15 1.16 1.15 1.15 1.20 1.22 1.07 1.03 0.94 0.84 0.81 0.93 1.09 1.07 0.96 0.86
0.17 0.20 0.27 0.30 0.32 0.37 0.34 0.38 0.36 0.39 0.48 0.53 0.57 0.53 0.54 0.76 0.70 0.77 0.94 1.03 1.10 1.13 1.12 1.05 1.07 1.04 1.12 1.19 1.16 1.13 1.12 1.19 1.22 1.21 1.05 1.05 0.98 0.87 0.90 0.90 0.84 0.83 0.84 0.86
0.18 0.23 0.28 0.29 0.35 0.35 0.37 0.34 0.33 0.40 0.44 0.42 0.48 0.50 0.49 0.57 0.57 0.67 0.85 1.00 1.09 1.16 1.16 1.16 1.21 1.16 1.03 1.25 1.19 1.19 1.10 1.17 1.26 1.19 1.15 1.01 0.80 0.81 0.88 0.90 0.80 0.77 0.72 0.75
0.18 0.20 0.23 0.31 0.29 0.32 0.33 0.30 0.24 0.23 0.30 0.27 0.40 0.45 0.41 0.56 0.63 0.65 0.72 0.85 0.96 1.02 1.08 1.11 1.15 1.10 1.15 1.19 1.24 1.23 1.16 1.14 1.22 1.17 1.09 0.84 0.78 0.73 0.80 0.91 0.89 0.78 0.68 0.77
0.16 0.16 0.22 0.31 0.30 0.27 0.27 0.28 0.22 0.18 0.21 0.23 0.33 0.26 0.31 0.48 0.57 0.69 0.80 0.83 0.88 0.89 1.00 1.05 1.15 1.18 1.19 1.26 1.27 1.23 1.14 1.17 1.21 1.13 1.10 0.89 0.93 0.88 0.84 0.92 0.93 0.88 0.86 0.81
0.18 0.17 0.26 0.29 0.30 0.27 0.25 0.24 0.29 0.22 0.29 0.29 0.30 0.35 0.43 0.52 0.59 0.68 0.74 0.83 0.82 0.89 0.99 1.03 1.12 1.18 1.28 1.33 1.33 1.27 1.15 1.16 1.23 1.19 1.00 0.97 1.01 0.96 0.93 1.07 1.11 1.01 0.98 0.87
0.21 0.17 0.25 0.27 0.29 0.28 0.26 0.26 0.22 0.24 0.21 0.24 0.31 0.34 0.35 0.50 0.56 0.66 0.70 0.73 0.74 0.89 0.97 1.02 1.03 1.03 1.15 1.22 1.33 1.42 1.35 1.19 1.22 1.23 1.05 1.04 1.06 1.03 1.01 1.09 1.07 0.98 0.97 0.92
0.21 0.20 0.20 0.28 0.26 0.25 0.28 0.26 0.29 0.30 0.30 0.26 0.26 0.30 0.45 0.51 0.58 0.64 0.70 0.71 0.77 0.82 0.88 0.93 0.94 1.05 1.12 1.20 1.29 1.38 1.44 1.41 1.36 1.34 1.18 1.21 1.23 1.13 1.09 1.07 1.02 0.95 0.98 0.95
0.22 0.22 0.20 0.23 0.30 0.32 0.34 0.28 0.32 0.28 0.27 0.30 0.30 0.30 0.53 0.56 0.61 0.66 0.67 0.71 0.72 0.80 0.88 0.91 0.96 0.97 1.05 1.12 1.22 1.32 1.44 1.48 1.47 1.51 1.34 1.32 1.33 1.20 1.13 1.12 1.09 1.04 0.99 0.98
0.23 0.22 0.19 0.23 0.29 0.34 0.32 0.35 0.37 0.37 0.36 0.30 0.27 0.31 0.53 0.58 0.57 0.61 0.61 0.63 0.64 0.72 0.79 0.84 0.94 0.99 1.01 1.06 1.17 1.26 1.37 1.45 1.52 1.56 1.48 1.35 1.36 1.29 1.12 1.08 1.10 1.06 1.00 0.91
0.30 0.22 0.21 0.21 0.26 0.33 0.30 0.34 0.38 0.36 0.30 0.31 0.32 0.34 0.47 0.52 0.55 0.58 0.58 0.63 0.68 0.66 0.74 0.84 0.89 0.93 0.94 0.98 1.10 1.22 1.28 1.41 1.49 1.52 1.41 1.34 1.29 1.23 1.19 1.06 1.08 1.01 0.97 0.92
0.31 0.22 0.25 0.29 0.33 0.36 0.35 0.33 0.35 0.35 0.35 0.34 0.35 0.35 0.45 0.49 0.50 0.55 0.62 0.68 0.69 0.72 0.79 0.82 0.85 0.89 0.95 1.00 1.08 1.29 1.40 1.37 1.48 1.44 1.46 1.40 1.32 1.31 1.24 1.13 1.04 1.00 0.94 0.95
0.34 0.25 0.26 0.29 0.35 0.37 0.36 0.36 0.39 0.39 0.40 0.42 0.41 0.37 0.49 0.54 0.59 0.61 0.63 0.65 0.64 0.76 0.82 0.85 0.87 0.94 0.93 1.05 1.12 1.13 1.27 1.39 1.48 1.47 1.45 1.49 1.48 1.40 1.33 1.16 1.02 0.95 0.89 0.98
0.33 0.30 0.29 0.28 0.34 0.34 0.34 0.38 0.41 0.44 0.47 0.46 0.40 0.41 0.50 0.52 0.57 0.60 0.65 0.70 0.70 0.73 0.73 0.79 0.90 0.99 1.09 1.19 1.24 1.20 1.33 1.49 1.51 1.47 1.49 1.56 1.47 1.41 1.26 1.12 0.99 0.92 0.90 1.01
0.39 0.32 0.32 0.32 0.33 0.26 0.38 0.48 0.49 0.47 0.52 0.54 0.48 0.45 0.45 0.51 0.61 0.70 0.72 0.68 0.70 0.74 0.72 0.69 0.69 0.79 0.94 1.11 1.22 1.29 1.33 1.42 1.60 1.56 1.55 1.45 1.42 1.36 1.20 1.07 0.95 0.95 1.00 1.04
0.57 0.39 0.35 0.30 0.30 0.33 0.38 0.49 0.50 0.50 0.50 0.60 0.53 0.52 0.53 0.59 0.64 0.65 0.73 0.74 0.71 0.72 0.72 0.71 0.73 0.75 0.74 0.90 1.06 1.15 1.23 1.44 1.51 1.41 1.41 1.42 1.40 1.29 1.12 1.00 0.95 0.98 1.08 1.20
0.57 0.55 0.39 0.39 0.29 0.26 0.41 0.57 0.61 0.57 0.46 0.66 0.66 0.60 0.61 0.63 0.52 0.62 0.72 0.73 0.75 0.84 0.86 0.84 0.79 0.76 0.75 0.86 0.98 1.01 1.10 1.26 1.31 1.37 1.38 1.39 1.33 1.21 1.08 1.01 1.01 1.10 1.23 1.41
0.53 0.50 0.43 0.41 0.37 0.40 0.57 0.61 0.60 0.36 0.49 0.67 0.68 0.70 0.73 0.66 0.76 0.85 0.88 0.87 0.91 0.93 0.87 0.90 0.87 0.79 0.82 0.91 0.93 1.00 1.14 1.22 1.35 1.44 1.39 1.35 1.30 1.21 1.19 1.15 1.20 1.25 1.45 1.44
0.56 0.58 0.56 0.51 0.41 0.37 0.71 0.67 0.51 0.66 0.74 0.75 0.76 0.79 0.81 0.84 0.87 0.85 0.88 0.85 0.87 0.92 1.00 1.03 0.93 0.95 0.97 0.97 1.02 1.05 1.16 1.33 1.44 1.48 1.44 1.41 1.43 1.50 1.60 1.35 1.33 1.42 1.36 1.24
0.58 0.72 0.66 0.70 0.66 0.83 0.86 0.80 0.85 0.84 0.78 0.81 0.83 0.85 0.85 0.83 0.89 0.89 0.87 0.88 0.89 0.87 0.77 0.92 1.04 1.03 1.15 1.13 1.18 1.18 1.42 1.54 1.49 1.49 1.52 1.31 1.36 1.45 1.54 1.71 1.39 1.28 1.20 1.18
0.66 0.82 0.73 0.76 0.83 0.85 0.87 0.89 0.94 0.93 0.90 0.91 0.94 0.94 0.91 0.84 0.85 0.80 0.82 0.86 0.88 0.88 0.81 0.85 1.00 1.07 1.07 1.23 1.29 1.36 1.44 1.51 1.49 1.45 1.42 1.38 1.23 1.23 1.30 1.34 1.26 1.20 1.11 1.03
0.73 0.83 0.72 0.79 0.83 0.89 0.90 0.92 0.89 0.90 0.89 0.93 0.97 0.97 0.93 0.90 0.94 1.02 0.99 1.04 1.01 0.99 0.99 1.02 1.06 1.07 1.23 1.40 1.45 1.43 1.40 1.37 1.34 1.32 1.22 1.19 1.13 1.06 1.15 1.17 1.11 1.03 1.03 0.96
0.81 0.80 0.73 0.68 0.81 0.77 0.80 0.85 0.86 0.81 0.83 0.84 0.84 0.82 0.85 0.85 1.00 0.97 0.96 1.06 1.10 1.04 1.07 1.13 1.22 1.34 1.36 1.41 1.42 1.38 1.30 1.24 1.25 1.16 1.17 1.14 1.06 1.08 1.09 1.00 1.02 1.04 0.98 1.00

GFSCGP_prec_pwat_003.txt.gz
Precipitable_Water
0.31 0.30 0.28 0.33 0.42 0.42 0.58 0.55 0.51 0.54 0.70 0.69 0.67 0.71 0.80 0.92 0.79 0.70 0.67 0.70 0.79 0.87 1.00 1.09 1.16 1.25 1.22 1.23 1.24 1.30 1.34 1.39 1.38 1.32 1.31 1.29 1.29 1.38 1.42 1.47 1.53 1.53 1.47 1.47
0.27 0.25 0.32 0.38 0.43 0.44 0.49 0.40 0.49 0.58 0.68 0.70 0.72 0.70 0.79 0.87 0.74 0.72 0.70 0.69 0.74 0.86 0.92 0.97 1.03 1.15 1.14 1.14 1.18 1.23 1.26 1.29 1.24 1.18 1.18 1.21 1.21 1.19 1.20 1.29 1.32 1.35 1.31 1.35
0.22 0.27 0.34 0.34 0.38 0.40 0.43 0.38 0.40 0.44 0.63 0.76 0.74 0.70 0.76 0.90 0.89 0.92 0.94 0.95 0.93 0.85 0.88 0.93 0.95 1.03 1.09 1.09 1.13 1.18 1.17 1.12 1.11 1.14 1.18 1.20 1.19 1.10 1.01 1.09 1.14 1.13 1.32 1.30
0.21 0.30 0.32 0.33 0.34 0.37 0.31 0.38 0.43 0.43 0.51 0.45 0.67 0.45 0.68 0.81 0.83 0.92 0.97 1.01 0.97 0.89 0.95 0.94 0.96 1.04 1.06 1.05 1.15 1.12 1.14 1.13 1.16 1.23 1.11 1.01 0.94 0.88 0.89 0.89 1.01 1.13 1.20 1.04
0.18 0.24 0.28 0.29 0.31 0.37 0.34 0.42 0.41 0.40 0.40 0.47 0.55 0.49 0.56 0.79 0.71 0.74 0.87 1.01 1.07 1.04 1.08 1.03 0.94 1.04 1.08 1.06 1.08 1.05 1.12 1.20 1.25 1.28 1.20 1.04 0.96 1.01 1.01 0.98 1.06 1.07 0.92 0.86
0.19 0.27 0.29 0.29 0.32 0.38 0.41 0.39 0.39 0.38 0.37 0.33 0.43 0.48 0.46 0.55 0.62 0.62 0.82 0.96 1.07 1.13 1.22 1.29 1.28 1.15 1.11 1.12 1.11 1.08 1.10 1.19 1.28 1.26 1.27 1.13 1.04 0.93 0.83 0.98 1.06 0.99 0.90 0.82
0.16 0.21 0.25 0.28 0.29 0.36 0.37 0.35 0.27 0.26 0.29 0.30 0.42 0.46 0.48 0.52 0.60 0.61 0.66 0.81 0.96 1.07 1.16 1.19 1.19 1.20 1.21 1.10 1.07 1.09 1.08 1.14 1.22 1.24 1.22 1.15 1.10 0.95 0.84 0.89 0.97 0.95 0.93 0.85
0.12 0.12 0.21 0.26 0.27 0.28 0.31 0.33 0.26 0.20 0.22 0.27 0.38 0.39 0.40 0.51 0.63 0.68 0.76 0.80 0.91 0.95 1.04 1.06 1.11 1.18 1.23 1.22 1.21 1.14 1.13 1.13 1.20 1.25 1.20 1.22 1.12 0.86 0.84 0.92 0.98 0.98 0.93 0.91
0.14 0.13 0.20 0.24 0.29 0.30 0.30 0.28 0.33 0.26 0.29 0.24 0.29 0.34 0.40 0.49 0.49 0.61 0.65 0.75 0.80 0.86 0.94 0.98 1.10 1.23 1.34 1.40 1.34 1.28 1.20 1.15 1.14 1.21 1.22 1.18 1.07 0.98 0.82 0.91 0.98 0.98 0.99 0.99
0.18 0.14 0.17 0.20 0.28 0.30 0.32 0.34 0.27 0.26 0.19 0.18 0.24 0.28 0.29 0.38 0.42 0.56 0.60 0.65 0.73 0.81 0.87 0.97 1.12 1.12 1.26 1.30 1.34 1.35 1.34 1.29 1.20 1.14 1.22 1.13 1.12 1.07 1.10 1.09 1.02 1.05 1.08 1.03
0.19 0.18 0.16 0.21 0.20 0.22 0.28 0.26 0.27 0.27 0.25 0.18 0.15 0.19 0.35 0.39 0.44 0.48 0.58 0.63 0.70 0.75 0.79 0.89 0.98 1.01 1.06 1.16 1.29 1.31 1.40 1.44 1.37 1.27 1.26 1.22 1.16 1.12 1.23 1.15 1.07 1.04 1.02 1.00
0.25 0.19 0.16 0.17 0.23 0.29 0.30 0.25 0.25 0.21 0.20 0.24 0.22 0.22 0.42 0.46 0.49 0.60 0.61 0.67 0.72 0.74 0.79 0.89 0.96 0.96 1.04 1.06 1.16 1.22 1.34 1.42 1.50 1.49 1.40 1.32 1.29 1.19 1.28 1.23 1.16 1.03 0.94 0.98
0.28 0.19 0.16 0.18 0.22 0.27 0.25 0.27 0.28 0.29 0.28 0.24 0.21 0.25 0.44 0.48 0.53 0.60 0.62 0.68 0.68 0.73 0.80 0.87 0.97 0.97 1.01 1.01 1.05 1.12 1.26 1.32 1.46 1.53 1.53 1.46 1.37 1.31 1.34 1.30 1.22 1.17 1.02 1.01
0.33 0.21 0.16 0.14 0.18 0.25 0.24 0.27 0.32 0.30 0.26 0.27 0.28 0.30 0.37 0.42 0.47 0.54 0.59 0.68 0.68 0.68 0.72 0.77 0.86 0.92 1.00 1.02 1.09 1.15 1.21 1.34 1.42 1.43 1.49 1.44 1.41 1.34 1.41 1.34 1.26 1.17 1.08 1.05
0.34 0.25 0.22 0.15 0.22 0.26 0.27 0.29 0.32 0.30 0.30 0.27 0.31 0.33 0.36 0.43 0.47 0.50 0.56 0.62 0.60 0.61 0.64 0.69 0.75 0.83 0.93 0.96 1.06 1.17 1.25 1.35 1.43 1.42 1.45 1.46 1.52 1.42 1.46 1.36 1.30 1.13 1.09 1.05
0.38 0.27 0.27 0.18 0.22 0.27 0.27 0.31 0.33 0.36 0.35 0.36 0.36 0.34 0.43 0.48 0.53 0.55 0.57 0.57 0.57 0.60 0.64 0.69 0.76 0.81 0.85 0.88 0.95 1.02 1.18 1.19 1.32 1.42 1.46 1.53 1.70 1.47 1.49 1.37 1.25 1.09 1.04 1.02
0.44 0.32 0.27 0.21 0.23 0.27 0.29 0.35 0.37 0.37 0.40 0.38 0.34 0.36 0.44 0.47 0.51 0.53 0.56 0.58 0.58 0.65 0.69 0.73 0.80 0.83 0.86 0.92 1.01 1.09 1.22 1.39 1.41 1.31 1.59 1.67 1.39 1.54 1.49 1.38 1.38 1.00 0.98 1.04
0.56 0.37 0.31 0.22 0.25 0.23 0.35 0.45 0.43 0.44 0.47 0.50 0.48 0.44 0.46 0.49 0.52 0.57 0.62 0.60 0.66 0.70 0.78 0.88 0.86 0.84 0.84 0.86 0.94 1.04 1.11 1.28 1.42 1.50 1.51 1.81 1.74 1.56 1.47 1.36 1.24 1.03 1.07 1.08
0.68 0.50 0.32 0.25 0.23 0.32 0.44 0.49 0.48 0.43 0.46 0.54 0.50 0.52 0.53 0.54 0.57 0.57 0.67 0.72 0.75 0.81 0.84 0.84 0.78 0.75 0.76 0.80 0.88 0.93 1.04 1.12 1.21 1.27 1.40 1.80 1.71 1.53 1.42 1.34 1.13 1.05 1.09 1.16
0.69 0.64 0.40 0.33 0.25 0.27 0.44 0.61 0.64 0.57 0.42 0.62 0.57 0.58 0.58 0.58 0.44 0.55 0.76 0.82 0.84 0.85 0.84 0.80 0.84 0.82 0.84 0.83 0.96 0.94 0.95 1.07 1.18 1.34 1.57 1.68 1.69 1.55 1.37 1.29 1.05 1.10 1.16 1.23
0.54 0.57 0.47 0.40 0.34 0.44 0.63 0.69 0.69 0.40 0.43 0.62 0.64 0.66 0.59 0.58 0.66 0.76 0.84 0.84 0.90 0.92 0.91 0.94 0.92 0.89 0.87 0.96 0.97 0.94 0.97 0.99 1.21 1.43 1.49 1.61 1.61 1.48 1.45 1.41 1.30 1.34 1.42 1.45
0.52 0.57 0.53 0.53 0.41 0.37 0.73 0.72 0.55 0.70 0.76 0.74 0.71 0.70 0.70 0.75 0.78 0.82 0.86 0.87 0.91 0.91 0.92 0.97 1.06 1.08 1.13 1.12 1.08 1.06 1.01 1.15 1.37 1.45 1.55 1.54 1.51 1.48 1.46 1.35 1.33 1.30 1.30 1.38
0.55 0.67 0.66 0.68 0.60 0.78 0.81 0.74 0.83 0.82 0.74 0.76 0.76 0.81 0.81 0.78 0.77 0.83 0.86 0.88 0.91 0.87 0.92 0.96 0.88 0.96 1.06 1.19 1.17 1.13 1.22 1.31 1.35 1.38 1.43 1.45 1.48 1.47 1.40 1.35 1.26 1.22 1.18 1.19
0.66 0.80 0.71 0.71 0.77 0.81 0.80 0.83 0.86 0.88 0.83 0.84 0.84 0.80 0.78 0.75 0.77 0.84 0.87 0.91 0.91 0.93 0.93 1.00 0.98 0.98 0.93 1.10 1.32 1.40 1.42 1.38 1.44 1.41 1.46 1.51 1.46 1.43 1.45 1.39 1.37 1.16 1.12 1.11
0.71 0.76 0.73 0.73 0.83 0.81 0.79 0.84 0.86 0.88 0.91 0.87 0.90 0.92 0.90 0.92 0.89 0.92 0.94 1.00 1.05 1.07 1.08 1.07 1.06 1.12 1.18 1.27 1.42 1.50 1.51 1.55 1.52 1.48 1.51 1.36 1.34 1.34 1.27 1.31 1.27 1.18 1.20 1.22
0.81 0.78 0.65 0.61 0.76 0.76 0.78 0.84 0.86 0.84 0.83 0.84 0.85 0.83 0.84 0.85 0.86 0.93 0.89 1.04 1.14 1.00 1.07 1.05 1.08 1.13 1.21 1.30 1.38 1.36 1.77 1.59 1.39 1.31 1.22 1.20 1.29 1.28 1.24 1.02 1.04 1.11 1.15 1.14

GFSCGP_prec_pwat_006.txt.gz
Precipitable_Water
0.26 0.25 0.28 0.37 0.41 0.44 0.51 0.55 0.53 0.65 0.79 0.70 0.69 0.74 0.85 0.94 0.89 0.79 0.74 0.70 0.70 0.73 0.90 1.09 1.19 1.28 1.27 1.29 1.33 1.33 1.35 1.45 1.47 1.34 1.28 1.31 1.25 1.36 1.44 1.48 1.50 1.48 1.49 1.51
0.20 0.21 0.34 0.43 0.44 0.41 0.47 0.51 0.54 0.67 0.74 0.78 0.76 0.73 0.87 0.95 0.86 0.80 0.74 0.68 0.68 0.73 0.86 0.98 1.11 1.21 1.18 1.14 1.21 1.27 1.32 1.35 1.32 1.27 1.27 1.32 1.35 1.37 1.38 1.37 1.36 1.38 1.39 1.38
0.17 0.25 0.35 0.39 0.41 0.40 0.42 0.42 0.50 0.54 0.67 0.77 0.76 0.68 0.76 0.94 0.98 0.91 0.89 0.89 0.87 0.81 0.81 0.88 0.96 1.03 1.11 1.07 1.11 1.17 1.23 1.25 1.23 1.24 1.27 1.30 1.32 1.21 1.07 1.06 1.09 1.18 1.20 1.25
0.19 0.27 0.33 0.34 0.37 0.41 0.36 0.44 0.50 0.46 0.46 0.40 0.68 0.44 0.66 0.79 0.83 0.85 0.82 0.87 0.88 0.91 0.90 0.90 0.91 0.93 1.02 1.05 1.15 1.18 1.19 1.15 1.22 1.27 1.20 1.13 1.03 0.95 1.01 1.00 1.07 1.07 1.10 1.15
0.19 0.23 0.28 0.31 0.32 0.40 0.36 0.45 0.46 0.45 0.42 0.45 0.53 0.47 0.48 0.74 0.71 0.74 0.77 0.88 0.89 0.96 0.95 0.97 1.00 1.03 1.04 1.12 1.11 1.14 1.11 1.10 1.21 1.27 1.24 1.16 1.06 1.10 1.11 1.08 1.08 1.13 1.21 1.15
0.22 0.27 0.30 0.30 0.37 0.40 0.41 0.41 0.42 0.44 0.42 0.32 0.37 0.41 0.36 0.51 0.58 0.65 0.81 0.88 0.95 0.91 0.99 1.00 1.11 1.16 1.11 1.14 1.10 1.07 1.07 1.08 1.21 1.28 1.29 1.21 1.10 1.05 1.01 0.97 0.94 1.03 1.15 1.03
0.22 0.20 0.29 0.34 0.32 0.39 0.37 0.37 0.29 0.26 0.30 0.28 0.38 0.40 0.37 0.48 0.61 0.61 0.69 0.79 0.92 1.03 1.00 1.04 1.13 1.12 1.06 1.05 1.06 1.00 1.00 1.02 1.16 1.23 1.24 1.21 1.16 1.12 1.03 0.94 0.92 1.01 1.00 0.95
0.14 0.14 0.22 0.31 0.31 0.32 0.32 0.34 0.26 0.22 0.24 0.28 0.41 0.30 0.34 0.46 0.60 0.74 0.78 0.81 0.89 0.93 1.02 1.06 1.12 1.17 1.21 1.18 1.13 1.05 0.99 1.00 1.14 1.21 1.19 1.21 1.25 1.15 1.13 1.01 0.99 1.04 1.01 1.01
0.12 0.12 0.20 0.28 0.32 0.33 0.30 0.28 0.37 0.32 0.31 0.26 0.31 0.34 0.41 0.48 0.49 0.58 0.66 0.75 0.77 0.85 0.90 0.97 1.07 1.14 1.21 1.28 1.30 1.23 1.12 1.08 1.09 1.15 1.20 1.20 1.25 1.24 1.16 1.04 1.10 1.13 1.06 1.01
0.16 0.11 0.15 0.20 0.30 0.33 0.31 0.33 0.29 0.31 0.23 0.21 0.25 0.26 0.26 0.34 0.37 0.43 0.54 0.60 0.69 0.80 0.86 0.92 1.04 1.14 1.26 1.30 1.35 1.42 1.33 1.14 1.11 1.19 1.17 1.16 1.21 1.23 1.12 1.00 1.05 1.11 1.09 1.04
0.31 0.19 0.15 0.17 0.17 0.21 0.26 0.26 0.29 0.31 0.30 0.23 0.20 0.23 0.33 0.33 0.37 0.40 0.46 0.55 0.61 0.71 0.77 0.84 0.96 1.07 1.12 1.23 1.30 1.32 1.33 1.30 1.23 1.22 1.23 1.25 1.38 1.31 1.12 1.01 1.03 1.12 1.17 1.16
0.34 0.27 0.17 0.15 0.20 0.21 0.24 0.24 0.26 0.25 0.24 0.29 0.25 0.22 0.34 0.32 0.36 0.43 0.49 0.55 0.63 0.70 0.76 0.79 0.87 0.96 1.04 1.08 1.14 1.20 1.30 1.37 1.33 1.37 1.36 1.39 1.21 1.45 1.15 1.08 1.11 1.20 1.19 1.15
0.43 0.30 0.20 0.16 0.20 0.22 0.20 0.23 0.26 0.29 0.29 0.26 0.23 0.22 0.32 0.36 0.42 0.51 0.54 0.59 0.64 0.71 0.73 0.80 0.89 0.91 0.96 0.99 1.09 1.19 1.32 1.35 1.43 1.50 1.49 1.48 1.42 1.36 1.33 1.21 1.20 1.19 1.23 1.06
0.55 0.39 0.26 0.17 0.14 0.19 0.18 0.21 0.27 0.26 0.24 0.24 0.23 0.23 0.26 0.34 0.39 0.48 0.51 0.58 0.62 0.67 0.70 0.76 0.84 0.90 0.93 1.00 1.08 1.13 1.20 1.36 1.46 1.49 1.50 1.53 1.55 1.53 1.54 1.36 1.28 1.24 1.26 1.07
0.45 0.31 0.29 0.24 0.22 0.20 0.20 0.19 0.23 0.23 0.26 0.23 0.21 0.25 0.29 0.36 0.41 0.44 0.51 0.56 0.60 0.62 0.67 0.73 0.75 0.81 0.88 0.94 1.02 1.10 1.19 1.28 1.36 1.37 1.35 1.39 1.46 1.59 1.55 1.49 1.48 1.46 1.28 1.20
0.59 0.29 0.28 0.24 0.24 0.20 0.21 0.24 0.24 0.25 0.29 0.27 0.29 0.30 0.37 0.39 0.49 0.46 0.50 0.55 0.57 0.59 0.60 0.65 0.74 0.77 0.84 0.91 0.95 1.04 1.14 1.20 1.28 1.31 1.23 1.36 1.52 1.63 1.67 1.73 1.70 1.49 1.32 1.27
0.63 0.45 0.28 0.22 0.26 0.22 0.18 0.21 0.24 0.27 0.30 0.30 0.29 0.33 0.39 0.42 0.45 0.46 0.50 0.56 0.56 0.56 0.60 0.66 0.69 0.71 0.77 0.84 0.92 1.01 1.14 1.31 1.40 1.39 1.41 1.48 1.54 1.61 1.76 1.94 1.74 1.64 1.39 1.28
0.66 0.56 0.49 0.28 0.27 0.20 0.21 0.26 0.28 0.29 0.34 0.39 0.39 0.39 0.42 0.44 0.47 0.53 0.58 0.56 0.55 0.59 0.66 0.73 0.74 0.79 0.88 0.93 0.92 0.92 0.95 1.02 1.11 1.18 1.35 1.58 1.61 1.65 1.68 1.62 1.54 1.65 1.48 1.14
0.80 0.64 0.52 0.36 0.26 0.27 0.33 0.36 0.34 0.33 0.38 0.52 0.46 0.47 0.50 0.50 0.52 0.54 0.64 0.65 0.67 0.72 0.78 0.84 0.90 1.02 0.86 0.75 0.80 0.83 0.88 0.98 1.05 1.08 1.17 1.30 1.57 1.60 1.65 1.61 1.41 1.65 1.48 1.19
0.76 0.75 0.59 0.41 0.30 0.24 0.33 0.47 0.55 0.53 0.40 0.60 0.59 0.53 0.52 0.52 0.42 0.51 0.65 0.68 0.74 0.83 0.91 0.95 0.96 0.92 0.92 0.82 0.86 0.92 0.95 1.03 1.02 1.13 1.22 1.43 1.53 1.58 1.60 1.68 1.53 1.57 1.47 1.33
0.67 0.67 0.56 0.50 0.35 0.39 0.54 0.60 0.65 0.39 0.41 0.68 0.66 0.59 0.57 0.52 0.58 0.71 0.77 0.76 0.83 0.88 0.91 0.97 1.03 0.99 0.98 1.03 1.02 0.96 1.03 1.05 1.20 1.29 1.46 1.48 1.50 1.54 1.63 1.66 1.68 1.58 1.40 1.35
0.57 0.63 0.65 0.62 0.42 0.37 0.69 0.62 0.45 0.56 0.74 0.75 0.72 0.69 0.66 0.73 0.77 0.79 0.80 0.76 0.79 0.82 0.88 0.91 0.88 0.95 1.04 1.01 1.05 1.10 1.05 1.31 1.28 1.37 1.48 1.48 1.45 1.53 1.62 1.65 1.66 1.56 1.40 1.32
0.55 0.68 0.66 0.68 0.58 0.77 0.82 0.76 0.82 0.80 0.71 0.73 0.74 0.77 0.79 0.75 0.76 0.79 0.77 0.81 0.86 0.90 0.95 1.00 0.97 0.97 1.02 1.09 1.12 1.04 1.16 1.27 1.38 1.48 1.48 1.46 1.51 1.49 1.60 1.56 1.54 1.49 1.42 1.30
0.78 0.80 0.71 0.73 0.78 0.77 0.79 0.83 0.85 0.83 0.79 0.82 0.85 0.82 0.85 0.86 0.89 0.92 0.96 0.96 0.95 0.99 0.99 1.07 1.07 1.07 1.11 1.12 1.21 1.26 1.31 1.33 1.43 1.41 1.49 1.52 1.51 1.44 1.45 1.43 1.42 1.41 1.32 1.20
0.80 0.80 0.69 0.73 0.82 0.83 0.83 0.87 0.87 0.86 0.86 0.86 0.87 0.89 0.88 0.88 0.91 0.94 0.96 1.05 1.05 1.07 1.07 1.08 1.04 1.02 1.05 1.13 1.21 1.32 1.32 1.40 1.39 1.37 1.41 1.38 1.39 1.45 1.41 1.41 1.37 1.37 1.33 1.20
0.85 0.79 0.64 0.58 0.79 0.80 0.86 0.98 0.97 0.92 0.90 0.88 0.86 0.83 0.84 0.85 0.84 0.86 0.84 0.92 1.00 0.98 0.97 0.95 0.97 0.93 0.93 1.01 1.08 1.20 1.25 1.26 1.24 1.22 1.21 1.24 1.31 1.30 1.19 1.11 1.13 1.20 1.11 1.07

GFSCGP_prec_pwat_009.txt.gz
Precipitable_Water
0.23 0.23 0.24 0.33 0.42 0.44 0.45 0.51 0.51 0.63 0.74 0.71 0.72 0.73 0.84 0.98 0.99 0.91 0.82 0.79 0.75 0.75 0.93 1.08 1.19 1.28 1.32 1.33 1.28 1.31 1.32 1.39 1.54 1.44 1.37 1.33 1.29 1.43 1.45 1.51 1.56 1.59 1.59 1.52
0.17 0.16 0.29 0.36 0.42 0.42 0.46 0.50 0.53 0.66 0.78 0.74 0.74 0.70 0.83 0.94 0.95 0.95 0.88 0.83 0.75 0.79 0.90 0.97 1.11 1.19 1.22 1.26 1.26 1.28 1.30 1.34 1.41 1.42 1.36 1.32 1.28 1.31 1.33 1.38 1.36 1.38 1.39 1.40
0.13 0.17 0.28 0.33 0.37 0.38 0.43 0.42 0.50 0.53 0.71 0.78 0.72 0.63 0.71 0.87 0.99 1.03 0.98 0.90 0.91 0.85 0.79 0.86 0.99 1.09 1.17 1.18 1.21 1.23 1.25 1.24 1.31 1.36 1.35 1.29 1.27 1.21 1.15 1.20 1.21 1.25 1.32 1.30
0.16 0.17 0.24 0.29 0.34 0.40 0.33 0.42 0.48 0.56 0.59 0.50 0.71 0.42 0.61 0.75 0.82 0.89 0.88 0.89 0.83 0.88 0.87 0.89 0.96 1.03 1.09 1.10 1.21 1.25 1.28 1.24 1.26 1.35 1.28 1.21 1.10 1.07 1.19 1.19 1.17 1.19 1.26 1.16
0.17 0.14 0.22 0.25 0.31 0.42 0.38 0.46 0.44 0.51 0.57 0.51 0.50 0.46 0.49 0.68 0.66 0.75 0.82 0.84 0.86 0.82 0.86 0.89 0.95 0.98 1.04 1.10 1.12 1.21 1.24 1.24 1.26 1.29 1.30 1.23 1.16 1.21 1.25 1.16 1.08 1.18 1.23 1.24
0.22 0.20 0.20 0.27 0.36 0.42 0.47 0.45 0.44 0.50 0.53 0.37 0.40 0.40 0.38 0.45 0.48 0.57 0.80 0.86 0.84 0.89 0.84 0.89 0.98 1.06 1.08 1.15 1.14 1.15 1.16 1.14 1.22 1.28 1.29 1.23 1.14 1.15 1.09 1.07 1.02 1.11 1.16 1.20
0.23 0.19 0.22 0.24 0.32 0.41 0.43 0.40 0.32 0.31 0.35 0.30 0.40 0.39 0.37 0.46 0.50 0.56 0.67 0.81 0.87 0.93 0.92 0.82 0.88 0.94 1.04 1.05 1.05 1.07 1.09 1.06 1.18 1.23 1.27 1.26 1.23 1.22 1.11 1.04 1.04 1.04 1.05 1.11
0.18 0.15 0.20 0.25 0.27 0.34 0.36 0.36 0.31 0.25 0.26 0.30 0.41 0.30 0.35 0.48 0.52 0.58 0.69 0.81 0.92 0.93 0.95 0.92 0.87 0.90 0.99 1.05 1.03 1.02 1.00 1.02 1.13 1.21 1.26 1.27 1.29 1.27 1.20 1.16 1.14 1.08 1.11 1.09
0.19 0.16 0.22 0.25 0.32 0.35 0.36 0.33 0.40 0.34 0.34 0.28 0.31 0.36 0.41 0.45 0.44 0.49 0.58 0.71 0.76 0.86 0.94 0.95 0.98 1.02 1.04 1.06 1.01 1.02 1.02 1.02 1.08 1.17 1.23 1.27 1.32 1.29 1.21 1.21 1.26 1.13 1.23 1.27
0.24 0.14 0.17 0.22 0.29 0.35 0.33 0.39 0.32 0.33 0.25 0.25 0.28 0.27 0.27 0.34 0.37 0.42 0.50 0.56 0.67 0.79 0.90 0.93 0.97 1.06 1.16 1.16 1.15 1.17 1.15 1.05 1.08 1.18 1.21 1.22 1.25 1.25 1.27 1.30 1.22 1.07 1.12 1.21
0.35 0.22 0.14 0.19 0.21 0.25 0.31 0.30 0.35 0.35 0.31 0.24 0.24 0.25 0.36 0.34 0.36 0.37 0.42 0.47 0.58 0.71 0.81 0.85 0.93 1.05 1.10 1.17 1.21 1.19 1.28 1.26 1.17 1.13 1.20 1.27 1.30 1.33 1.38 1.33 1.27 1.09 1.10 1.20
0.37 0.32 0.23 0.18 0.21 0.23 0.30 0.31 0.32 0.29 0.25 0.27 0.27 0.27 0.36 0.37 0.38 0.39 0.36 0.42 0.58 0.68 0.74 0.86 0.91 1.00 1.06 1.14 1.19 1.23 1.32 1.35 1.37 1.31 1.27 1.31 1.32 1.27 1.30 1.33 1.39 1.18 0.97 1.13
0.36 0.30 0.25 0.22 0.24 0.23 0.20 0.24 0.31 0.33 0.33 0.27 0.23 0.24 0.37 0.39 0.38 0.39 0.38 0.46 0.58 0.67 0.75 0.84 0.87 0.92 0.99 1.08 1.12 1.14 1.23 1.29 1.40 1.56 1.50 1.38 1.32 1.32 1.31 1.47 1.31 1.22 1.16 1.12
0.52 0.41 0.34 0.24 0.21 0.21 0.18 0.20 0.23 0.27 0.25 0.26 0.26 0.26 0.30 0.35 0.36 0.37 0.39 0.47 0.59 0.69 0.73 0.79 0.82 0.85 0.91 0.93 0.96 1.05 1.14 1.31 1.46 1.53 1.53 1.52 1.49 1.44 1.39 1.36 1.41 1.39 1.32 1.24
0.56 0.38 0.41 0.36 0.32 0.29 0.22 0.18 0.19 0.19 0.21 0.22 0.24 0.24 0.26 0.33 0.35 0.37 0.40 0.53 0.56 0.68 0.72 0.75 0.73 0.78 0.88 0.89 0.96 1.10 1.23 1.34 1.41 1.43 1.49 1.46 1.55 1.62 1.69 1.71 1.75 1.70 1.57 1.58
0.58 0.44 0.45 0.35 0.38 0.37 0.25 0.20 0.20 0.21 0.21 0.24 0.23 0.26 0.30 0.35 0.40 0.41 0.45 0.55 0.54 0.60 0.64 0.70 0.73 0.77 0.83 0.92 0.96 1.08 1.18 1.24 1.36 1.38 1.35 1.44 1.53 1.55 1.64 1.71 1.66 1.72 1.71 1.57
0.57 0.54 0.51 0.36 0.34 0.31 0.26 0.24 0.21 0.22 0.24 0.23 0.20 0.25 0.30 0.29 0.35 0.40 0.46 0.53 0.57 0.58 0.62 0.62 0.65 0.73 0.84 0.91 1.01 1.04 1.11 1.22 1.28 1.33 1.36 1.41 1.47 1.50 1.60 1.66 1.68 1.65 1.70 1.69
0.57 0.55 0.57 0.46 0.43 0.26 0.25 0.31 0.29 0.22 0.25 0.28 0.26 0.27 0.29 0.32 0.40 0.51 0.57 0.57 0.59 0.62 0.71 0.70 0.74 0.82 0.93 0.95 1.00 1.07 1.12 1.08 1.06 1.07 1.12 1.22 1.30 1.41 1.54 1.63 1.65 1.67 1.74 1.57
0.67 0.57 0.52 0.50 0.44 0.38 0.34 0.34 0.28 0.25 0.21 0.28 0.26 0.29 0.32 0.42 0.50 0.51 0.61 0.61 0.63 0.67 0.74 0.80 0.89 0.94 0.90 0.90 0.96 0.97 0.94 0.94 0.97 1.01 1.09 1.20 1.26 1.31 1.35 1.41 1.49 1.55 1.58 1.56
0.62 0.65 0.56 0.59 0.48 0.31 0.40 0.52 0.54 0.44 0.23 0.39 0.38 0.38 0.41 0.49 0.41 0.50 0.64 0.68 0.68 0.73 0.76 0.84 0.93 0.90 0.85 0.88 0.89 0.85 0.87 0.89 0.96 1.12 1.24 1.37 1.42 1.49 1.50 1.57 1.52 1.55 1.56 1.59
0.46 0.50 0.50 0.59 0.58 0.50 0.58 0.63 0.62 0.30 0.29 0.45 0.49 0.50 0.53 0.53 0.62 0.69 0.76 0.77 0.82 0.83 0.93 0.99 0.95 0.90 0.91 0.96 0.96 0.91 0.96 0.96 1.17 1.32 1.38 1.41 1.49 1.47 1.48 1.50 1.52 1.52 1.57 1.62
0.42 0.40 0.48 0.65 0.58 0.46 0.74 0.71 0.51 0.54 0.61 0.61 0.61 0.67 0.67 0.73 0.73 0.76 0.79 0.82 0.80 0.78 0.82 0.90 0.91 0.91 0.98 1.01 1.01 1.01 1.01 1.15 1.26 1.35 1.40 1.42 1.48 1.48 1.46 1.44 1.49 1.54 1.59 1.59
0.40 0.44 0.47 0.71 0.68 0.84 0.84 0.81 0.84 0.82 0.73 0.77 0.76 0.74 0.81 0.81 0.84 0.84 0.84 0.88 0.90 0.92 0.89 0.98 0.97 1.00 1.05 1.11 1.09 0.98 1.06 1.21 1.25 1.29 1.35 1.39 1.48 1.49 1.49 1.43 1.45 1.51 1.59 1.42
0.60 0.65 0.54 0.64 0.78 0.90 0.89 0.89 0.86 0.87 0.83 0.88 0.87 0.84 0.84 0.81 0.91 0.91 0.93 0.95 0.95 1.01 1.00 1.03 1.01 1.03 1.07 1.16 1.17 1.20 1.28 1.38 1.30 1.30 1.45 1.49 1.44 1.41 1.46 1.41 1.43 1.47 1.46 1.35
0.72 0.76 0.65 0.69 0.81 0.91 0.90 0.92 0.91 0.88 0.87 0.84 0.86 0.88 0.87 0.89 0.91 0.98 1.02 1.04 1.05 1.06 1.07 1.07 1.01 0.99 1.02 1.12 1.16 1.21 1.31 1.38 1.31 1.39 1.37 1.32 1.30 1.32 1.31 1.29 1.32 1.33 1.33 1.29
0.85 0.79 0.71 0.66 0.84 0.91 0.92 0.98 0.96 0.89 0.88 0.90 0.88 0.89 0.91 0.89 0.93 0.92 0.92 0.96 0.97 1.04 1.12 1.10 1.07 1.06 1.05 1.05 1.07 1.15 1.26 1.29 1.26 1.21 1.22 1.19 1.16 1.21 1.22 1.18 1.15 1.23 1.22 1.28

GFSCGP_prec_pwat_012.txt.gz
Precipitable_Water
0.19 0.21 0.24 0.33 0.38 0.43 0.47 0.49 0.51 0.57 0.76 0.73 0.70 0.70 0.79 0.94 0.99 0.94 0.88 0.83 0.79 0.76 0.89 1.05 1.14 1.22 1.25 1.32 1.34 1.38 1.37 1.41 1.67 1.67 1.56 1.52 1.47 1.52 1.57 1.63 1.64 1.61 1.62 1.62
0.16 0.15 0.25 0.34 0.39 0.42 0.44 0.45 0.48 0.59 0.77 0.71 0.70 0.70 0.78 0.88 0.93 0.97 0.99 0.86 0.85 0.80 0.88 0.99 1.08 1.15 1.19 1.26 1.31 1.34 1.36 1.41 1.53 1.56 1.56 1.49 1.42 1.40 1.45 1.45 1.58 1.53 1.48 1.48
0.15 0.14 0.24 0.29 0.30 0.38 0.43 0.41 0.48 0.60 0.68 0.72 0.70 0.65 0.69 0.80 0.92 0.99 1.05 1.02 0.94 0.90 0.86 0.90 0.97 1.07 1.16 1.20 1.26 1.27 1.31 1.39 1.46 1.51 1.53 1.47 1.47 1.40 1.35 1.31 1.32 1.35 1.37 1.39
0.15 0.16 0.17 0.24 0.27 0.37 0.36 0.43 0.50 0.59 0.61 0.51 0.67 0.47 0.57 0.69 0.76 0.86 0.95 1.00 0.93 0.98 1.04 0.99 0.98 1.01 1.10 1.14 1.25 1.28 1.31 1.34 1.41 1.45 1.38 1.28 1.17 1.10 1.18 1.20 1.22 1.23 1.25 1.31
0.17 0.14 0.15 0.16 0.22 0.32 0.35 0.46 0.48 0.52 0.56 0.57 0.64 0.55 0.54 0.66 0.65 0.73 0.84 0.94 0.96 0.92 0.99 0.98 1.02 1.04 1.10 1.18 1.21 1.21 1.26 1.33 1.37 1.35 1.34 1.31 1.27 1.27 1.28 1.24 1.17 1.09 1.24 1.23
0.22 0.22 0.16 0.15 0.20 0.33 0.41 0.44 0.47 0.49 0.48 0.41 0.53 0.54 0.44 0.51 0.57 0.62 0.78 0.88 0.99 0.94 0.95 0.98 0.99 1.05 1.12 1.22 1.22 1.17 1.17 1.24 1.32 1.32 1.34 1.31 1.27 1.24 1.20 1.14 1.10 1.13 1.21 1.27
0.21 0.20 0.17 0.15 0.16 0.29 0.39 0.41 0.36 0.34 0.35 0.35 0.51 0.48 0.44 0.51 0.57 0.56 0.62 0.78 0.94 0.99 0.95 0.94 0.94 0.92 1.00 1.08 1.11 1.12 1.14 1.12 1.23 1.26 1.29 1.32 1.33 1.28 1.23 1.22 1.13 1.10 1.13 1.17
0.20 0.15 0.20 0.18 0.15 0.25 0.32 0.37 0.33 0.28 0.30 0.35 0.46 0.39 0.38 0.56 0.58 0.55 0.62 0.69 0.91 0.94 0.89 0.88 0.93 0.92 0.91 0.95 1.03 1.04 1.04 1.06 1.15 1.21 1.28 1.36 1.35 1.35 1.35 1.37 1.25 1.20 1.22 1.29
0.24 0.21 0.26 0.20 0.19 0.24 0.30 0.33 0.42 0.38 0.40 0.34 0.35 0.43 0.44 0.52 0.54 0.54 0.53 0.63 0.77 0.86 0.86 0.90 0.93 0.93 0.92 0.93 1.01 1.04 1.01 1.05 1.14 1.22 1.29 1.34 1.38 1.37 1.36 1.39 1.34 1.28 1.24 1.28
0.32 0.24 0.27 0.25 0.22 0.21 0.30 0.39 0.35 0.36 0.31 0.30 0.32 0.35 0.37 0.43 0.42 0.46 0.54 0.55 0.66 0.80 0.88 0.88 0.96 0.93 0.93 0.97 1.03 1.09 1.09 1.07 1.12 1.17 1.23 1.29 1.33 1.37 1.36 1.36 1.36 1.31 1.33 1.31
0.38 0.31 0.23 0.26 0.18 0.16 0.21 0.30 0.36 0.39 0.35 0.30 0.31 0.31 0.42 0.41 0.46 0.46 0.50 0.55 0.60 0.71 0.80 0.89 0.94 0.99 1.03 1.00 1.06 1.11 1.11 1.11 1.11 1.13 1.20 1.27 1.31 1.37 1.39 1.38 1.37 1.39 1.39 1.28
0.42 0.37 0.25 0.18 0.19 0.20 0.24 0.26 0.35 0.32 0.31 0.35 0.32 0.30 0.44 0.46 0.45 0.43 0.46 0.50 0.55 0.62 0.77 0.87 0.97 1.03 1.05 1.04 1.09 1.08 1.13 1.14 1.17 1.19 1.23 1.25 1.36 1.39 1.40 1.37 1.41 1.42 1.43 1.32
0.41 0.35 0.30 0.26 0.22 0.21 0.18 0.23 0.29 0.35 0.37 0.33 0.32 0.32 0.44 0.44 0.42 0.45 0.47 0.47 0.50 0.57 0.67 0.85 0.95 1.00 1.02 1.05 1.11 1.10 1.19 1.23 1.33 1.39 1.34 1.29 1.33 1.40 1.40 1.42 1.44 1.47 1.36 1.39
0.41 0.34 0.30 0.24 0.25 0.26 0.22 0.20 0.23 0.28 0.28 0.31 0.32 0.39 0.41 0.37 0.39 0.39 0.41 0.44 0.49 0.62 0.69 0.83 0.92 0.98 1.03 1.04 1.10 1.09 1.17 1.32 1.38 1.44 1.47 1.49 1.50 1.48 1.53 1.54 1.55 1.41 1.42 1.26
0.37 0.39 0.43 0.36 0.34 0.34 0.29 0.26 0.22 0.21 0.24 0.27 0.32 0.33 0.41 0.41 0.39 0.39 0.42 0.44 0.53 0.62 0.63 0.78 0.86 0.94 0.98 1.04 1.11 1.18 1.23 1.29 1.33 1.35 1.44 1.58 1.75 1.82 1.81 1.76 1.60 1.50 1.50 1.36
0.47 0.45 0.48 0.42 0.42 0.40 0.36 0.36 0.30 0.23 0.20 0.24 0.27 0.29 0.38 0.42 0.42 0.40 0.39 0.43 0.47 0.58 0.62 0.77 0.92 0.99 0.96 0.99 1.03 1.08 1.11 1.18 1.33 1.40 1.49 1.64 1.71 1.73 1.69 1.73 1.73 1.67 1.56 1.50
0.45 0.47 0.50 0.38 0.42 0.43 0.36 0.36 0.37 0.34 0.25 0.18 0.18 0.23 0.29 0.31 0.34 0.36 0.36 0.41 0.48 0.56 0.64 0.73 0.84 0.88 0.96 1.02 1.07 1.01 1.10 1.25 1.30 1.34 1.38 1.46 1.57 1.59 1.54 1.63 1.63 1.66 1.65 1.68
0.54 0.54 0.54 0.45 0.55 0.37 0.36 0.42 0.43 0.38 0.32 0.24 0.21 0.24 0.27 0.29 0.35 0.40 0.38 0.40 0.47 0.62 0.69 0.79 0.85 0.90 0.96 1.03 1.11 1.19 1.19 1.16 1.20 1.24 1.26 1.34 1.38 1.36 1.35 1.33 1.36 1.49 1.54 1.57
0.54 0.54 0.50 0.42 0.43 0.44 0.47 0.57 0.46 0.40 0.32 0.31 0.26 0.28 0.30 0.33 0.40 0.45 0.53 0.50 0.54 0.69 0.79 0.89 0.91 0.95 0.99 1.02 1.11 1.09 1.09 1.09 1.09 1.09 1.15 1.20 1.22 1.25 1.34 1.33 1.36 1.47 1.52 1.51
0.57 0.57 0.51 0.51 0.38 0.35 0.60 0.68 0.69 0.63 0.34 0.37 0.34 0.32 0.32 0.34 0.33 0.26 0.50 0.51 0.58 0.72 0.85 0.88 0.92 0.98 0.98 1.02 1.05 1.02 0.94 0.95 0.99 1.08 1.16 1.26 1.35 1.37 1.38 1.45 1.47 1.54 1.52 1.46
0.54 0.51 0.42 0.49 0.45 0.50 0.66 0.70 0.74 0.45 0.37 0.58 0.38 0.34 0.32 0.33 0.46 0.58 0.65 0.64 0.75 0.82 0.87 0.94 0.96 0.99 1.04 1.05 1.01 0.94 0.98 1.00 1.11 1.17 1.21 1.27 1.40 1.44 1.50 1.58 1.57 1.56 1.51 1.51
0.48 0.47 0.44 0.49 0.49 0.42 0.73 0.70 0.59 0.79 0.81 0.66 0.61 0.51 0.51 0.60 0.64 0.68 0.79 0.84 0.89 0.94 0.98 1.05 1.02 0.98 1.03 1.07 1.07 1.05 1.03 1.14 1.20 1.23 1.27 1.37 1.44 1.54 1.56 1.50 1.53 1.55 1.54 1.51
0.55 0.55 0.53 0.51 0.50 0.70 0.80 0.78 0.89 0.96 0.94 0.83 0.78 0.76 0.74 0.72 0.72 0.82 0.88 0.95 0.97 0.95 0.93 0.99 0.97 1.00 1.08 1.13 1.12 1.03 1.06 1.13 1.19 1.22 1.31 1.37 1.49 1.56 1.54 1.48 1.47 1.45 1.47 1.48
0.66 0.78 0.60 0.54 0.62 0.67 0.74 0.87 0.98 1.02 1.05 1.03 1.01 0.97 0.93 0.91 0.92 0.90 0.96 1.02 0.96 0.96 0.95 0.99 0.99 0.98 0.99 1.08 1.11 1.15 1.22 1.30 1.31 1.29 1.32 1.41 1.48 1.50 1.47 1.49 1.50 1.39 1.38 1.39
0.74 0.70 0.60 0.60 0.62 0.66 0.81 0.96 1.01 0.99 1.01 0.98 0.99 1.02 1.06 1.10 1.07 1.06 1.05 1.06 1.03 1.04 1.06 1.04 0.99 0.98 1.02 1.10 1.13 1.20 1.25 1.31 1.32 1.38 1.45 1.46 1.44 1.42 1.40 1.36 1.32 1.38 1.44 1.41
0.80 0.75 0.65 0.59 0.69 0.68 0.78 0.90 1.01 0.96 0.93 0.94 0.92 0.93 0.93 0.95 0.94 0.98 0.96 1.08 1.12 1.10 1.15 1.11 1.08 1.07 1.11 1.16 1.20 1.27 1.35 1.39 1.34 1.30 1.28 1.24 1.19 1.21 1.25 1.26 1.28 1.35 1.32 1.34

GFSCGP_prec_pwat_015.txt.gz
Precipitable_Water
0.20 0.19 0.23 0.33 0.39 0.43 0.48 0.52 0.50 0.63 0.65 0.61 0.64 0.73 0.73 0.90 0.93 0.87 0.85 0.78 0.76 0.80 0.95 1.06 1.15 1.22 1.26 1.31 1.33 1.35 1.36 1.43 1.45 1.56 1.65 1.67 1.61 1.61 1.62 1.59 1.81 1.71 1.70 1.68
0.18 0.14 0.21 0.35 0.40 0.41 0.43 0.48 0.50 0.63 0.66 0.66 0.67 0.72 0.80 0.88 0.89 0.95 0.93 0.87 0.82 0.81 0.87 0.98 1.09 1.15 1.21 1.23 1.28 1.31 1.33 1.36 1.41 1.56 1.62 1.61 1.62 1.47 1.51 1.46 1.54 1.61 1.62 1.60
0.14 0.14 0.19 0.27 0.36 0.38 0.40 0.43 0.48 0.53 0.69 0.85 0.68 0.73 0.72 0.81 0.91 0.95 0.97 1.04 0.97 0.87 0.80 0.91 0.99 1.09 1.17 1.18 1.22 1.29 1.31 1.37 1.43 1.51 1.59 1.69 1.70 1.48 1.51 1.39 1.46 1.42 1.44 1.45
0.19 0.17 0.15 0.19 0.26 0.35 0.34 0.44 0.48 0.51 0.63 0.63 0.59 0.49 0.69 0.66 0.76 0.84 0.95 0.97 1.03 0.97 0.94 0.96 1.03 1.07 1.12 1.17 1.31 1.35 1.37 1.34 1.45 1.54 1.50 1.50 1.36 1.17 1.23 1.26 1.33 1.39 1.35 1.29
0.19 0.18 0.16 0.15 0.18 0.30 0.32 0.44 0.47 0.49 0.54 0.72 0.55 0.49 0.61 0.73 0.64 0.74 0.83 0.94 1.01 1.04 1.06 1.02 1.07 1.10 1.14 1.23 1.30 1.38 1.40 1.35 1.40 1.42 1.44 1.44 1.33 1.25 1.33 1.29 1.31 1.25 1.28 1.26
0.22 0.25 0.19 0.16 0.18 0.27 0.33 0.39 0.46 0.45 0.48 0.46 0.59 0.55 0.55 0.73 0.68 0.75 0.80 0.87 0.99 1.05 1.03 1.14 1.14 1.19 1.17 1.28 1.33 1.37 1.41 1.34 1.36 1.38 1.37 1.35 1.43 1.26 1.28 1.28 1.25 1.12 1.19 1.23
0.24 0.22 0.24 0.18 0.17 0.20 0.27 0.31 0.33 0.34 0.35 0.35 0.54 0.51 0.72 0.68 0.67 0.70 0.69 0.81 0.91 1.02 1.01 1.00 1.11 1.10 1.15 1.15 1.28 1.33 1.36 1.28 1.32 1.31 1.32 1.29 1.34 1.41 1.34 1.36 1.19 1.16 1.19 1.26
0.22 0.18 0.23 0.22 0.16 0.16 0.18 0.25 0.26 0.28 0.32 0.36 0.45 0.44 0.49 0.76 0.69 0.70 0.69 0.66 0.78 0.98 1.02 0.98 0.99 1.03 1.09 1.12 1.15 1.23 1.26 1.21 1.27 1.29 1.27 1.36 1.40 1.38 1.30 1.32 1.33 1.21 1.28 1.35
0.24 0.24 0.30 0.25 0.21 0.17 0.16 0.18 0.30 0.34 0.41 0.38 0.41 0.45 0.60 0.67 0.68 0.66 0.63 0.60 0.66 0.91 0.98 0.94 0.91 0.98 1.04 1.02 1.05 1.12 1.21 1.18 1.19 1.23 1.28 1.36 1.43 1.37 1.32 1.36 1.39 1.42 1.38 1.44
0.28 0.26 0.32 0.26 0.25 0.20 0.15 0.20 0.22 0.33 0.30 0.32 0.37 0.40 0.45 0.52 0.58 0.57 0.60 0.57 0.63 0.81 0.95 0.94 0.93 0.99 1.05 1.07 1.07 1.09 1.19 1.19 1.16 1.24 1.27 1.31 1.37 1.45 1.41 1.46 1.44 1.41 1.43 1.38
0.30 0.30 0.31 0.34 0.23 0.19 0.17 0.15 0.25 0.32 0.35 0.32 0.34 0.41 0.48 0.55 0.62 0.52 0.55 0.55 0.61 0.73 0.92 0.97 0.94 0.99 1.06 1.08 1.05 1.06 1.12 1.17 1.16 1.18 1.21 1.22 1.31 1.43 1.43 1.38 1.42 1.43 1.41 1.49
0.34 0.33 0.31 0.28 0.33 0.29 0.23 0.17 0.21 0.28 0.30 0.35 0.36 0.38 0.57 0.53 0.55 0.55 0.56 0.58 0.65 0.66 0.84 0.93 0.98 1.00 1.02 1.05 1.06 1.04 1.08 1.10 1.15 1.14 1.18 1.21 1.30 1.36 1.38 1.42 1.53 1.55 1.37 1.44
0.38 0.33 0.29 0.33 0.29 0.28 0.23 0.20 0.18 0.22 0.35 0.33 0.34 0.34 0.53 0.59 0.54 0.57 0.56 0.54 0.56 0.71 0.79 0.90 0.93 0.97 1.00 1.05 1.05 1.02 1.06 1.05 1.15 1.22 1.23 1.25 1.24 1.31 1.32 1.48 1.51 1.57 1.50 1.42
0.46 0.41 0.33 0.29 0.31 0.29 0.23 0.21 0.21 0.22 0.21 0.30 0.35 0.41 0.48 0.51 0.52 0.54 0.54 0.56 0.60 0.60 0.69 0.73 0.88 0.92 0.99 1.07 1.09 1.05 1.04 1.08 1.17 1.26 1.31 1.33 1.32 1.29 1.41 1.50 1.56 1.62 1.61 1.45
0.36 0.34 0.39 0.38 0.42 0.39 0.27 0.21 0.20 0.20 0.24 0.24 0.31 0.38 0.47 0.52 0.54 0.53 0.53 0.52 0.52 0.53 0.68 0.73 0.81 0.89 1.00 1.08 1.14 1.12 1.09 1.12 1.20 1.26 1.31 1.33 1.44 1.51 1.51 1.53 1.63 1.69 1.68 1.59
0.38 0.32 0.38 0.36 0.38 0.36 0.34 0.34 0.29 0.25 0.22 0.23 0.27 0.30 0.42 0.48 0.60 0.59 0.50 0.50 0.50 0.52 0.57 0.77 0.80 0.89 1.07 1.11 1.16 1.19 1.18 1.21 1.28 1.34 1.32 1.40 1.52 1.57 1.62 1.71 1.75 1.80 1.77 1.73
0.39 0.41 0.36 0.33 0.43 0.45 0.36 0.32 0.34 0.34 0.33 0.28 0.23 0.24 0.34 0.42 0.47 0.50 0.53 0.54 0.52 0.51 0.52 0.65 0.79 0.89 1.03 1.13 1.22 1.21 1.28 1.31 1.33 1.34 1.42 1.44 1.57 1.57 1.68 1.75 1.75 1.72 1.73 1.73
0.39 0.41 0.43 0.40 0.46 0.36 0.41 0.50 0.44 0.39 0.40 0.43 0.39 0.34 0.29 0.30 0.37 0.46 0.50 0.51 0.49 0.47 0.46 0.56 0.81 0.94 1.10 1.25 1.24 1.24 1.32 1.27 1.29 1.28 1.31 1.48 1.58 1.67 1.68 1.65 1.56 1.53 1.61 1.58
0.48 0.45 0.42 0.39 0.37 0.47 0.49 0.60 0.61 0.58 0.50 0.47 0.41 0.49 0.43 0.33 0.31 0.34 0.37 0.41 0.45 0.50 0.50 0.63 0.88 0.97 1.17 1.23 1.23 1.22 1.22 1.23 1.23 1.25 1.33 1.45 1.53 1.53 1.53 1.42 1.45 1.51 1.49 1.55
0.57 0.62 0.56 0.48 0.38 0.37 0.50 0.77 0.90 0.71 0.42 0.50 0.59 0.56 0.46 0.38 0.28 0.30 0.34 0.38 0.45 0.65 0.66 0.73 0.91 1.00 1.16 1.21 1.25 1.21 1.17 1.22 1.26 1.36 1.41 1.43 1.38 1.36 1.39 1.43 1.43 1.52 1.61 1.56
0.38 0.42 0.40 0.44 0.44 0.45 0.72 0.74 0.75 0.56 0.46 0.76 0.73 0.65 0.60 0.47 0.34 0.39 0.59 0.47 0.58 0.69 0.67 0.92 0.95 1.06 1.21 1.25 1.24 1.17 1.19 1.21 1.27 1.29 1.25 1.28 1.38 1.40 1.45 1.45 1.50 1.55 1.60 1.59
0.37 0.38 0.39 0.45 0.41 0.38 0.84 0.73 0.59 0.78 0.84 0.83 0.81 0.75 0.64 0.62 0.46 0.68 0.80 0.79 0.74 0.76 0.77 0.85 0.93 1.10 1.22 1.25 1.28 1.26 1.20 1.25 1.20 1.25 1.32 1.38 1.44 1.47 1.49 1.47 1.54 1.57 1.56 1.52
0.40 0.45 0.44 0.52 0.47 0.80 0.84 0.84 0.81 0.77 0.81 0.89 0.84 0.83 0.84 0.75 0.81 0.88 0.82 0.85 0.91 1.03 0.99 1.02 1.10 1.21 1.19 1.27 1.35 1.27 1.32 1.33 1.34 1.33 1.34 1.41 1.49 1.47 1.49 1.49 1.51 1.50 1.53 1.45
0.68 0.65 0.58 0.73 0.86 0.85 0.90 0.90 0.86 0.83 0.92 1.03 1.07 0.98 1.01 0.99 0.99 0.97 0.97 1.01 1.07 1.16 1.21 1.27 1.26 1.32 1.27 1.39 1.43 1.39 1.34 1.38 1.36 1.36 1.36 1.39 1.37 1.41 1.48 1.55 1.58 1.53 1.41 1.33
0.73 0.92 0.79 0.77 0.89 0.84 0.80 0.74 0.78 0.84 0.94 1.01 1.14 1.19 1.20 1.17 1.14 1.15 1.14 1.16 1.15 1.18 1.22 1.25 1.23 1.25 1.21 1.27 1.25 1.31 1.35 1.40 1.33 1.27 1.28 1.33 1.39 1.43 1.44 1.45 1.44 1.42 1.36 1.33
0.97 0.94 0.77 0.77 0.87 0.78 0.70 0.77 0.83 0.83 0.92 0.97 1.07 1.14 1.27 1.24 1.22 1.21 1.23 1.30 1.31 1.27 1.24 1.15 1.15 1.16 1.20 1.21 1.22 1.30 1.40 1.37 1.29 1.25 1.31 1.34 1.38 1.37 1.34 1.31 1.27 1.34 1.31 1.35

GFSCGP_prec_pwat_018.txt.gz
Precipitable_Water
0.30 0.23 0.23 0.32 0.36 0.37 0.36 0.45 0.45 0.62 0.78 0.69 0.79 0.78 0.85 0.94 0.92 0.80 0.79 0.78 0.85 0.88 0.96 1.08 1.10 1.17 1.21 1.29 1.31 1.29 1.29 1.37 1.56 1.50 1.49 1.55 1.68 1.65 1.59 1.60 1.80 1.71 1.92 1.63
0.23 0.17 0.21 0.32 0.39 0.37 0.38 0.42 0.48 0.60 0.75 0.77 0.71 0.74 0.78 0.96 0.85 0.82 0.81 0.78 0.77 0.82 0.91 1.00 1.09 1.14 1.16 1.21 1.24 1.26 1.25 1.33 1.35 1.43 1.47 1.49 1.50 1.52 1.49 1.61 1.67 1.61 1.63 1.45
0.18 0.18 0.18 0.22 0.32 0.34 0.37 0.39 0.45 0.54 0.66 0.71 0.67 0.61 0.69 0.87 0.89 0.86 0.86 0.88 0.86 0.79 0.78 0.93 1.00 1.06 1.15 1.16 1.18 1.22 1.27 1.29 1.32 1.36 1.39 1.47 1.73 1.68 1.75 1.51 1.46 1.57 1.63 1.49
0.23 0.21 0.19 0.16 0.21 0.31 0.31 0.40 0.44 0.49 0.60 0.53 0.72 0.57 0.68 0.88 0.88 0.87 0.79 0.88 0.96 0.92 0.85 0.88 0.99 1.05 1.09 1.17 1.27 1.30 1.31 1.32 1.36 1.33 1.42 1.33 1.37 1.44 1.36 1.37 1.37 1.41 1.45 1.30
0.20 0.21 0.17 0.15 0.16 0.27 0.30 0.41 0.41 0.45 0.52 0.63 0.69 0.61 0.65 0.74 0.82 0.86 0.87 0.83 0.90 1.05 1.01 0.95 1.00 1.07 1.15 1.22 1.28 1.33 1.37 1.41 1.38 1.37 1.35 1.45 1.40 1.38 1.22 1.27 1.31 1.38 1.38 1.26
0.23 0.26 0.22 0.17 0.17 0.21 0.31 0.37 0.39 0.41 0.43 0.43 0.60 0.60 0.55 0.65 0.70 0.84 0.93 0.98 0.94 0.95 1.03 1.03 1.09 1.17 1.18 1.26 1.35 1.33 1.40 1.39 1.40 1.37 1.34 1.39 1.36 1.23 1.28 1.34 1.24 1.26 1.28 1.19
0.26 0.23 0.24 0.21 0.17 0.18 0.20 0.24 0.26 0.27 0.31 0.31 0.48 0.58 0.62 0.73 0.79 0.79 0.92 1.03 0.99 0.99 1.05 1.02 1.01 1.08 1.19 1.22 1.30 1.42 1.42 1.36 1.40 1.33 1.38 1.30 1.42 1.28 1.35 1.31 1.22 1.15 0.97 1.24
0.21 0.19 0.23 0.24 0.18 0.17 0.16 0.20 0.22 0.21 0.24 0.32 0.39 0.37 0.53 0.76 0.82 0.91 0.98 0.98 0.93 0.98 1.08 1.06 1.01 1.07 1.15 1.20 1.29 1.31 1.41 1.40 1.42 1.35 1.37 1.37 1.29 1.41 1.33 1.34 1.31 1.25 1.20 1.31
0.22 0.22 0.31 0.25 0.26 0.19 0.16 0.16 0.23 0.25 0.31 0.32 0.36 0.42 0.46 0.61 0.81 0.79 0.84 0.85 0.78 0.92 1.01 1.10 1.04 1.12 1.15 1.20 1.21 1.23 1.31 1.40 1.35 1.33 1.29 1.34 1.24 1.28 1.33 1.31 1.41 1.36 1.32 1.54
0.26 0.24 0.31 0.31 0.28 0.25 0.17 0.20 0.16 0.20 0.21 0.22 0.30 0.38 0.46 0.50 0.68 0.77 0.77 0.77 0.72 0.66 0.95 1.07 1.02 1.05 1.12 1.23 1.24 1.28 1.30 1.35 1.34 1.32 1.29 1.27 1.29 1.21 1.28 1.38 1.36 1.41 1.51 1.45
0.28 0.28 0.30 0.34 0.28 0.23 0.21 0.17 0.17 0.19 0.20 0.21 0.25 0.31 0.48 0.56 0.61 0.66 0.73 0.76 0.73 0.63 0.80 0.95 1.02 1.00 1.10 1.23 1.25 1.24 1.26 1.32 1.34 1.33 1.28 1.27 1.26 1.25 1.29 1.41 1.45 1.50 1.50 1.45
0.33 0.29 0.28 0.30 0.37 0.35 0.27 0.18 0.16 0.15 0.16 0.18 0.25 0.30 0.52 0.57 0.62 0.70 0.68 0.69 0.66 0.58 0.67 0.87 0.99 0.98 1.02 1.09 1.18 1.23 1.21 1.24 1.30 1.32 1.24 1.23 1.25 1.26 1.31 1.33 1.50 1.53 1.50 1.51
0.37 0.30 0.27 0.28 0.34 0.38 0.29 0.25 0.25 0.18 0.18 0.20 0.20 0.26 0.47 0.63 0.69 0.80 0.71 0.65 0.66 0.66 0.73 0.86 0.99 1.04 0.97 1.00 1.10 1.20 1.21 1.19 1.26 1.29 1.19 1.20 1.20 1.22 1.22 1.36 1.37 1.55 1.52 1.41
0.40 0.35 0.29 0.26 0.29 0.36 0.32 0.30 0.28 0.23 0.16 0.15 0.23 0.29 0.40 0.57 0.58 0.67 0.70 0.69 0.68 0.65 0.81 0.90 0.96 1.12 1.03 0.96 1.03 1.13 1.22 1.19 1.18 1.24 1.21 1.15 1.18 1.19 1.21 1.33 1.45 1.42 1.52 1.45
0.40 0.35 0.36 0.34 0.39 0.43 0.38 0.32 0.31 0.26 0.22 0.18 0.17 0.28 0.39 0.45 0.61 0.62 0.68 0.70 0.68 0.66 0.72 0.73 0.79 0.97 0.99 1.00 1.02 1.10 1.18 1.20 1.14 1.15 1.20 1.19 1.26 1.33 1.34 1.35 1.42 1.53 1.57 1.58
0.40 0.35 0.41 0.38 0.41 0.41 0.42 0.41 0.33 0.28 0.25 0.22 0.22 0.21 0.32 0.45 0.55 0.61 0.67 0.70 0.66 0.64 0.66 0.76 0.75 0.74 0.89 1.03 1.03 1.06 1.15 1.19 1.19 1.11 1.16 1.27 1.36 1.40 1.40 1.44 1.49 1.57 1.59 1.67
0.37 0.36 0.39 0.35 0.43 0.44 0.39 0.40 0.39 0.30 0.26 0.24 0.21 0.23 0.30 0.35 0.42 0.53 0.64 0.69 0.69 0.64 0.59 0.63 0.83 0.85 0.87 1.03 1.11 1.12 1.17 1.27 1.21 1.17 1.22 1.26 1.35 1.37 1.44 1.54 1.62 1.64 1.71 1.79
0.40 0.36 0.37 0.34 0.38 0.33 0.38 0.47 0.43 0.39 0.39 0.35 0.31 0.30 0.29 0.30 0.38 0.43 0.50 0.61 0.72 0.72 0.64 0.61 0.62 0.90 0.94 0.92 1.20 1.29 1.33 1.30 1.26 1.22 1.25 1.26 1.33 1.37 1.49 1.58 1.64 1.76 1.82 1.80
0.44 0.39 0.37 0.36 0.34 0.35 0.42 0.47 0.50 0.43 0.38 0.44 0.47 0.53 0.47 0.41 0.35 0.37 0.46 0.46 0.49 0.69 0.79 0.72 0.62 0.64 0.90 0.94 1.08 1.25 1.39 1.34 1.30 1.32 1.31 1.36 1.44 1.47 1.53 1.57 1.70 1.78 1.76 1.72
0.46 0.52 0.45 0.41 0.40 0.32 0.44 0.54 0.70 0.68 0.48 0.70 0.68 0.64 0.62 0.65 0.54 0.51 0.42 0.45 0.47 0.50 0.61 0.63 0.62 0.67 0.86 0.94 1.09 1.18 1.30 1.38 1.28 1.28 1.36 1.47 1.63 1.70 1.65 1.76 1.77 1.73 1.70 1.64
0.46 0.47 0.40 0.41 0.40 0.42 0.59 0.70 0.77 0.50 0.49 0.77 0.80 0.81 0.73 0.62 0.66 0.73 0.76 0.64 0.51 0.54 0.49 0.52 0.63 0.84 1.03 1.07 1.13 1.18 1.26 1.27 1.35 1.44 1.54 1.59 1.65 1.70 1.82 1.83 1.68 1.62 1.55 1.56
0.47 0.47 0.50 0.48 0.42 0.40 0.80 0.77 0.64 0.77 0.83 0.83 0.86 0.80 0.74 0.69 0.67 0.68 0.70 0.77 0.61 0.61 0.55 0.60 0.85 1.02 1.17 1.17 1.19 1.31 1.34 1.48 1.54 1.60 1.60 1.61 1.72 1.77 1.73 1.58 1.57 1.52 1.52 1.49
0.43 0.48 0.48 0.55 0.57 0.87 0.91 0.93 1.00 0.97 0.94 0.97 0.94 0.89 0.79 0.64 0.68 0.68 0.71 0.88 0.83 0.86 0.97 1.09 1.20 1.18 1.26 1.30 1.37 1.37 1.54 1.59 1.56 1.58 1.58 1.65 1.62 1.53 1.55 1.49 1.45 1.47 1.51 1.48
0.57 0.66 0.56 0.47 0.65 0.78 0.88 1.00 1.04 1.07 1.06 1.05 0.96 0.85 0.93 0.94 1.11 1.07 1.11 1.14 1.07 1.04 1.09 1.23 1.21 1.19 1.31 1.43 1.52 1.55 1.62 1.62 1.58 1.57 1.53 1.50 1.42 1.42 1.52 1.54 1.56 1.49 1.50 1.49
0.81 0.82 0.76 0.61 0.79 0.90 0.97 1.01 1.03 1.05 1.06 0.97 0.95 0.86 0.90 1.09 1.22 1.37 1.21 1.26 1.30 1.30 1.30 1.32 1.30 1.28 1.42 1.58 1.61 1.71 1.73 1.72 1.60 1.49 1.40 1.38 1.45 1.46 1.42 1.42 1.48 1.49 1.56 1.54
0.87 0.84 0.82 0.83 1.08 0.90 0.96 1.04 1.03 0.91 0.86 0.88 0.81 0.78 0.97 1.04 1.08 1.42 1.28 1.34 1.33 1.29 1.37 1.38 1.38 1.42 1.59 1.68 1.72 1.79 1.77 1.57 1.40 1.31 1.32 1.35 1.31 1.34 1.36 1.37 1.40 1.48 1.45 1.44

GFSCGP_prec_pwat_021.txt.gz
Precipitable_Water
0.25 0.24 0.22 0.30 0.34 0.40 0.37 0.33 0.35 0.45 0.60 0.68 0.75 0.73 0.79 0.86 0.81 0.74 0.78 0.82 0.83 0.82 0.93 1.11 1.14 1.16 1.23 1.25 1.23 1.25 1.28 1.34 1.40 1.43 1.40 1.42 1.47 1.53 1.58 1.57 1.62 1.62 1.75 1.76
0.22 0.17 0.24 0.30 0.34 0.34 0.37 0.32 0.35 0.47 0.64 0.70 0.76 0.76 0.82 0.79 0.68 0.80 0.79 0.83 0.79 0.83 0.86 0.95 1.05 1.11 1.13 1.15 1.19 1.21 1.24 1.35 1.38 1.38 1.43 1.46 1.46 1.59 1.56 1.53 1.60 1.73 1.68 1.63
0.19 0.22 0.26 0.24 0.27 0.31 0.35 0.32 0.37 0.42 0.63 0.73 0.80 0.70 0.76 0.77 0.82 0.90 0.89 0.91 0.89 0.77 0.79 0.87 0.93 1.00 1.07 1.08 1.11 1.15 1.21 1.30 1.36 1.37 1.43 1.44 1.50 1.51 1.51 1.50 1.50 1.54 1.51 1.56
0.23 0.25 0.24 0.19 0.20 0.26 0.28 0.39 0.41 0.43 0.50 0.55 0.78 0.58 0.74 0.78 0.86 0.95 0.92 0.90 0.89 0.85 0.86 0.87 0.89 0.95 0.98 1.05 1.15 1.19 1.22 1.27 1.32 1.37 1.31 1.27 1.14 1.20 1.44 1.52 1.41 1.41 1.49 1.43
0.18 0.23 0.22 0.20 0.16 0.20 0.22 0.40 0.40 0.45 0.43 0.50 0.59 0.63 0.71 0.83 0.84 0.92 0.94 0.96 0.92 0.91 0.90 0.90 0.94 0.95 1.03 1.12 1.15 1.17 1.22 1.27 1.30 1.32 1.27 1.22 1.11 1.22 1.49 1.46 1.37 1.40 1.46 1.39
0.20 0.26 0.25 0.23 0.23 0.18 0.20 0.28 0.35 0.42 0.41 0.36 0.49 0.62 0.61 0.74 0.83 0.89 0.92 1.01 1.01 1.00 0.94 0.99 1.07 1.13 1.14 1.22 1.26 1.28 1.20 1.23 1.33 1.29 1.27 1.18 1.19 1.28 1.27 1.21 1.18 1.27 1.31 1.27
0.25 0.23 0.25 0.26 0.20 0.21 0.17 0.18 0.20 0.25 0.30 0.29 0.41 0.48 0.52 0.76 0.80 0.83 0.88 1.03 1.10 1.18 1.09 1.01 1.08 1.08 1.10 1.18 1.25 1.34 1.29 1.21 1.32 1.32 1.24 1.18 1.23 1.30 1.18 1.21 1.25 1.19 1.22 1.16
0.17 0.18 0.24 0.25 0.23 0.17 0.16 0.16 0.15 0.15 0.19 0.26 0.36 0.34 0.44 0.65 0.74 0.86 0.98 1.01 1.10 1.15 1.16 1.09 1.06 1.04 1.06 1.18 1.24 1.34 1.34 1.31 1.35 1.35 1.29 1.21 1.24 1.29 1.30 1.27 1.30 1.21 1.17 1.18
0.18 0.17 0.29 0.28 0.26 0.23 0.18 0.13 0.18 0.18 0.23 0.25 0.27 0.34 0.42 0.52 0.62 0.81 0.88 0.89 1.02 1.02 1.25 1.14 1.13 1.09 1.09 1.17 1.23 1.29 1.34 1.35 1.36 1.37 1.34 1.25 1.25 1.27 1.32 1.27 1.33 1.27 1.25 1.28
0.22 0.20 0.25 0.30 0.31 0.27 0.22 0.21 0.16 0.15 0.13 0.14 0.19 0.27 0.29 0.44 0.52 0.67 0.77 0.84 0.90 1.00 1.05 1.16 1.14 1.12 1.10 1.08 1.21 1.33 1.37 1.32 1.38 1.36 1.34 1.24 1.16 1.27 1.31 1.33 1.25 1.38 1.38 1.42
0.30 0.24 0.24 0.31 0.28 0.25 0.23 0.19 0.18 0.18 0.16 0.14 0.16 0.18 0.34 0.42 0.58 0.68 0.76 0.77 0.81 0.90 0.96 1.14 1.13 1.14 1.09 1.09 1.20 1.28 1.33 1.35 1.39 1.39 1.29 1.23 1.19 1.25 1.28 1.27 1.31 1.39 1.47 1.39
0.35 0.29 0.21 0.24 0.33 0.35 0.29 0.23 0.21 0.16 0.15 0.18 0.18 0.17 0.33 0.44 0.57 0.69 0.68 0.72 0.78 0.82 0.97 1.06 1.10 1.14 1.14 1.02 1.10 1.19 1.30 1.33 1.34 1.39 1.32 1.19 1.25 1.25 1.23 1.22 1.32 1.40 1.43 1.49
0.37 0.29 0.24 0.20 0.28 0.33 0.30 0.30 0.27 0.22 0.19 0.16 0.16 0.13 0.23 0.39 0.54 0.67 0.78 0.89 0.82 0.82 0.87 0.96 1.06 1.10 1.07 1.03 1.06 1.17 1.27 1.31 1.35 1.37 1.30 1.20 1.17 1.20 1.17 1.19 1.25 1.37 1.38 1.39
0.45 0.34 0.27 0.21 0.22 0.32 0.32 0.32 0.33 0.28 0.19 0.16 0.14 0.16 0.20 0.34 0.43 0.48 0.77 0.87 0.83 0.89 0.84 0.97 1.03 1.05 1.07 1.11 1.05 1.13 1.22 1.34 1.34 1.30 1.24 1.15 1.12 1.15 1.15 1.22 1.22 1.30 1.42 1.41
0.37 0.33 0.31 0.29 0.31 0.32 0.33 0.37 0.34 0.30 0.25 0.20 0.19 0.17 0.19 0.26 0.45 0.59 0.66 0.69 0.75 0.76 0.78 0.85 0.98 1.05 1.08 1.10 1.11 1.07 1.16 1.28 1.36 1.22 1.14 1.10 1.15 1.23 1.26 1.28 1.30 1.26 1.35 1.43
0.43 0.34 0.34 0.31 0.32 0.32 0.29 0.35 0.38 0.34 0.32 0.28 0.27 0.22 0.25 0.27 0.41 0.54 0.59 0.64 0.67 0.73 0.83 0.83 1.01 1.06 1.05 1.00 0.97 1.00 1.09 1.20 1.34 1.32 1.08 1.11 1.20 1.28 1.28 1.30 1.31 1.38 1.36 1.43
0.43 0.40 0.36 0.27 0.34 0.37 0.31 0.29 0.37 0.41 0.37 0.34 0.28 0.26 0.28 0.25 0.31 0.43 0.69 0.72 0.66 0.72 0.78 0.87 0.94 1.01 1.03 1.03 1.00 0.94 0.96 1.13 1.23 1.29 1.30 1.12 1.15 1.22 1.30 1.35 1.37 1.40 1.45 1.54
0.43 0.43 0.43 0.30 0.35 0.29 0.35 0.43 0.44 0.44 0.47 0.40 0.36 0.35 0.31 0.26 0.30 0.38 0.42 0.52 0.65 0.68 0.80 0.88 0.86 0.92 1.05 1.08 1.10 1.07 1.04 1.06 1.13 1.21 1.29 1.31 1.14 1.15 1.32 1.41 1.41 1.45 1.55 1.58
0.49 0.44 0.39 0.34 0.31 0.33 0.39 0.42 0.45 0.47 0.45 0.51 0.46 0.39 0.42 0.41 0.31 0.30 0.40 0.42 0.42 0.59 0.75 0.75 0.94 0.89 0.95 1.01 1.07 1.11 1.09 1.03 1.09 1.18 1.22 1.28 1.30 1.18 1.26 1.37 1.47 1.57 1.65 1.74
0.44 0.46 0.42 0.38 0.31 0.26 0.35 0.48 0.54 0.60 0.44 0.62 0.59 0.58 0.57 0.53 0.36 0.38 0.57 0.65 0.60 0.54 0.50 0.68 0.83 0.89 1.00 1.00 1.08 1.03 0.98 1.05 1.02 1.14 1.21 1.30 1.35 1.31 1.26 1.39 1.54 1.64 1.75 1.84
0.40 0.44 0.44 0.38 0.32 0.35 0.48 0.47 0.64 0.47 0.52 0.73 0.70 0.70 0.67 0.59 0.63 0.66 0.62 0.62 0.68 0.67 0.60 0.52 0.57 0.68 0.86 0.96 1.08 1.03 1.00 0.96 1.04 1.19 1.37 1.42 1.44 1.40 1.43 1.54 1.68 1.75 1.85 1.95
0.54 0.53 0.48 0.44 0.36 0.34 0.53 0.58 0.53 0.68 0.86 0.86 0.83 0.79 0.74 0.73 0.71 0.67 0.62 0.62 0.59 0.65 0.79 0.66 0.56 0.54 0.65 0.79 0.97 1.04 1.11 1.18 1.26 1.40 1.51 1.56 1.58 1.61 1.67 1.72 1.82 1.92 2.00 1.72
0.51 0.67 0.64 0.61 0.61 0.72 0.80 0.85 0.93 1.03 0.94 1.00 0.92 0.93 0.88 0.87 0.85 0.88 0.91 0.93 0.90 0.86 0.89 0.89 0.72 0.70 0.79 0.85 0.98 1.13 1.30 1.40 1.46 1.56 1.66 1.72 1.80 1.81 1.86 1.87 1.91 1.88 1.81 1.63
0.66 0.82 0.68 0.68 0.72 0.69 0.84 0.93 1.10 1.15 1.04 1.09 1.08 1.03 0.99 0.89 0.98 1.01 1.05 1.05 1.16 1.21 1.09 1.15 1.11 1.08 1.23 1.30 1.38 1.38 1.42 1.50 1.50 1.60 1.78 1.81 1.82 1.85 1.93 1.94 1.91 1.73 1.50 1.43
0.72 0.81 0.77 0.68 0.73 0.92 0.96 1.11 1.09 1.10 1.15 1.12 1.10 1.06 1.02 1.02 1.02 1.09 1.11 1.13 1.22 1.31 1.41 1.36 1.25 1.28 1.40 1.66 1.71 1.70 1.66 1.66 1.52 1.62 1.83 1.89 1.90 1.85 1.82 1.72 1.57 1.48 1.50 1.50
0.84 0.81 0.71 0.69 0.86 1.14 1.01 1.16 1.16 1.03 1.08 1.05 1.04 1.00 1.02 1.00 0.97 1.03 0.95 1.04 1.16 1.31 1.38 1.79 1.48 1.32 1.39 1.53 1.62 1.75 1.78 1.63 1.69 1.74 1.85 1.92 1.77 1.57 1.48 1.45 1.43 1.47 1.49 1.50

GFSCGP_prec_pwat_024.txt.gz
Precipitable_Water
0.27 0.25 0.21 0.28 0.36 0.40 0.46 0.42 0.38 0.43 0.46 0.54 0.68 0.74 0.80 1.02 1.04 0.99 0.96 0.91 0.87 0.74 0.75 0.98 1.16 1.24 1.30 1.33 1.33 1.33 1.33 1.35 1.43 1.43 1.41 1.39 1.30 1.46 1.48 1.58 1.65 1.67 1.68 1.70
0.19 0.16 0.25 0.32 0.34 0.37 0.42 0.39 0.35 0.40 0.42 0.52 0.69 0.71 0.81 0.92 0.93 0.93 0.91 0.93 0.87 0.91 0.77 0.85 1.00 1.10 1.15 1.17 1.23 1.27 1.30 1.34 1.37 1.40 1.38 1.40 1.38 1.39 1.43 1.59 1.56 1.54 1.60 1.71
0.13 0.17 0.22 0.25 0.29 0.29 0.34 0.37 0.36 0.37 0.41 0.63 0.70 0.68 0.78 0.88 0.93 0.96 0.97 0.94 0.94 0.91 0.85 0.79 0.87 1.00 1.08 1.10 1.13 1.17 1.22 1.28 1.31 1.37 1.38 1.44 1.50 1.40 1.41 1.47 1.45 1.48 1.63 1.50
0.17 0.21 0.21 0.19 0.22 0.28 0.24 0.37 0.41 0.41 0.39 0.43 0.73 0.53 0.71 0.79 0.81 0.85 0.91 0.95 0.96 0.94 0.96 0.94 0.89 0.85 0.97 1.01 1.13 1.16 1.21 1.25 1.31 1.36 1.29 1.24 1.17 1.17 1.26 1.45 1.48 1.38 1.41 1.51
0.18 0.20 0.19 0.19 0.20 0.25 0.21 0.35 0.42 0.41 0.39 0.42 0.46 0.56 0.57 0.72 0.70 0.78 0.86 0.92 0.98 1.02 1.02 0.98 0.95 0.98 0.96 1.02 1.06 1.13 1.18 1.24 1.27 1.30 1.27 1.20 1.15 1.20 1.24 1.36 1.46 1.38 1.42 1.45
0.24 0.29 0.27 0.21 0.24 0.24 0.22 0.25 0.34 0.40 0.40 0.32 0.38 0.42 0.47 0.56 0.71 0.78 0.89 0.94 0.97 1.02 1.04 1.07 1.05 1.15 1.15 1.17 1.21 1.23 1.22 1.20 1.24 1.28 1.26 1.19 1.12 1.12 1.11 1.19 1.34 1.31 1.32 1.31
0.26 0.25 0.25 0.27 0.23 0.25 0.22 0.17 0.16 0.22 0.27 0.24 0.38 0.38 0.44 0.61 0.74 0.78 0.85 0.90 0.95 1.06 1.07 1.11 1.07 1.10 1.14 1.15 1.20 1.25 1.28 1.25 1.25 1.22 1.25 1.25 1.15 1.12 1.06 1.14 1.29 1.18 1.14 1.18
0.22 0.17 0.25 0.24 0.22 0.20 0.20 0.18 0.12 0.13 0.18 0.25 0.35 0.30 0.33 0.55 0.69 0.82 0.87 0.93 0.98 1.07 1.12 1.18 1.21 1.10 1.07 1.13 1.21 1.23 1.28 1.30 1.36 1.25 1.23 1.30 1.27 1.11 1.11 1.26 1.29 1.13 1.09 1.16
0.20 0.19 0.25 0.28 0.27 0.23 0.19 0.18 0.19 0.13 0.18 0.20 0.23 0.33 0.37 0.46 0.60 0.66 0.78 0.94 0.95 1.03 1.11 1.12 1.16 1.16 1.11 1.12 1.20 1.20 1.25 1.28 1.36 1.31 1.25 1.30 1.30 1.17 1.11 1.34 1.25 1.22 1.19 1.27
0.26 0.19 0.23 0.22 0.29 0.29 0.24 0.24 0.16 0.15 0.09 0.10 0.15 0.22 0.24 0.33 0.41 0.57 0.62 0.77 0.92 1.01 1.04 1.04 1.13 1.19 1.21 1.15 1.23 1.28 1.28 1.23 1.29 1.35 1.28 1.27 1.24 1.21 1.18 1.35 1.20 1.20 1.23 1.40
0.29 0.26 0.23 0.22 0.22 0.22 0.23 0.22 0.20 0.18 0.15 0.10 0.10 0.11 0.21 0.27 0.38 0.44 0.56 0.65 0.80 0.91 0.97 1.04 1.08 1.13 1.23 1.21 1.23 1.27 1.34 1.30 1.29 1.36 1.35 1.26 1.23 1.21 1.18 1.19 1.22 1.26 1.35 1.37
0.31 0.28 0.21 0.20 0.22 0.29 0.28 0.24 0.22 0.17 0.14 0.15 0.13 0.09 0.20 0.22 0.36 0.44 0.49 0.66 0.83 0.92 0.97 1.06 1.05 1.10 1.21 1.24 1.22 1.23 1.31 1.33 1.30 1.35 1.40 1.27 1.23 1.22 1.16 1.13 1.18 1.34 1.37 1.41
0.38 0.26 0.21 0.22 0.23 0.27 0.27 0.27 0.25 0.22 0.20 0.15 0.13 0.13 0.19 0.20 0.29 0.49 0.65 0.69 0.87 0.96 0.99 1.02 1.05 1.08 1.16 1.25 1.20 1.17 1.24 1.27 1.37 1.36 1.37 1.38 1.18 1.16 1.14 1.09 1.19 1.26 1.37 1.40
0.42 0.32 0.25 0.19 0.22 0.23 0.23 0.25 0.28 0.25 0.19 0.17 0.14 0.16 0.19 0.21 0.25 0.37 0.44 0.43 0.63 0.87 0.97 0.96 1.06 1.07 1.12 1.22 1.21 1.16 1.18 1.32 1.38 1.37 1.31 1.29 1.18 1.07 1.10 1.16 1.19 1.23 1.30 1.36
0.44 0.29 0.29 0.27 0.29 0.29 0.23 0.25 0.27 0.25 0.23 0.20 0.19 0.19 0.20 0.20 0.23 0.34 0.39 0.53 0.62 0.79 0.90 0.97 1.04 1.15 1.17 1.23 1.24 1.26 1.24 1.30 1.38 1.36 1.26 1.19 1.18 1.11 1.11 1.16 1.19 1.23 1.26 1.30
0.48 0.32 0.34 0.28 0.30 0.29 0.27 0.27 0.28 0.28 0.27 0.25 0.25 0.25 0.30 0.27 0.23 0.28 0.35 0.46 0.74 0.66 0.77 0.88 0.94 1.00 1.06 1.23 1.18 1.21 1.25 1.25 1.37 1.40 1.28 1.22 1.18 1.15 1.11 1.15 1.20 1.21 1.19 1.27
0.47 0.40 0.34 0.26 0.33 0.31 0.29 0.25 0.28 0.30 0.33 0.29 0.25 0.31 0.34 0.30 0.27 0.27 0.34 0.46 0.55 0.71 0.69 0.81 0.87 0.93 1.05 1.18 1.24 1.19 1.20 1.27 1.30 1.34 1.40 1.37 1.20 1.09 1.12 1.17 1.22 1.20 1.18 1.23
0.48 0.43 0.41 0.31 0.36 0.27 0.26 0.34 0.32 0.32 0.35 0.38 0.35 0.36 0.35 0.32 0.33 0.30 0.34 0.44 0.56 0.70 0.68 0.78 0.86 0.93 1.06 1.15 1.25 1.25 1.20 1.17 1.20 1.22 1.32 1.44 1.37 1.12 1.12 1.17 1.18 1.23 1.30 1.30
0.54 0.47 0.39 0.33 0.36 0.36 0.35 0.35 0.33 0.32 0.31 0.39 0.39 0.41 0.38 0.38 0.39 0.39 0.43 0.39 0.46 0.58 0.72 0.74 0.86 0.96 1.02 1.24 1.23 1.24 1.21 1.19 1.18 1.19 1.25 1.34 1.45 1.38 1.17 1.08 1.16 1.29 1.38 1.42
0.53 0.49 0.43 0.41 0.35 0.31 0.35 0.44 0.45 0.48 0.35 0.53 0.49 0.50 0.47 0.45 0.36 0.41 0.50 0.45 0.43 0.42 0.53 0.66 0.78 0.94 1.17 1.07 1.15 1.16 1.14 1.15 1.12 1.13 1.12 1.21 1.41 1.49 1.43 1.26 1.18 1.30 1.42 1.48
0.51 0.50 0.40 0.43 0.44 0.42 0.47 0.46 0.53 0.34 0.42 0.66 0.65 0.61 0.56 0.49 0.53 0.61 0.63 0.57 0.53 0.49 0.48 0.54 0.62 0.75 0.87 1.06 1.13 1.08 1.09 1.09 1.11 1.13 1.15 1.22 1.33 1.46 1.54 1.59 1.53 1.39 1.41 1.56
0.50 0.51 0.48 0.49 0.49 0.37 0.71 0.60 0.41 0.54 0.74 0.73 0.76 0.76 0.68 0.72 0.76 0.77 0.75 0.68 0.64 0.60 0.58 0.59 0.53 0.50 0.72 0.90 1.01 0.96 1.04 1.08 1.15 1.22 1.23 1.22 1.27 1.44 1.58 1.59 1.64 1.61 1.57 1.60
0.49 0.59 0.51 0.57 0.67 0.86 0.91 0.96 0.84 0.80 0.73 0.82 0.83 0.91 0.87 0.83 0.82 0.84 0.85 0.90 0.90 0.83 0.82 0.82 0.67 0.62 0.57 0.68 0.80 0.80 0.92 1.01 1.13 1.23 1.28 1.30 1.34 1.45 1.54 1.54 1.58 1.59 1.63 1.67
0.60 0.76 0.66 0.62 0.85 0.94 0.97 1.03 1.18 1.01 0.93 0.99 0.99 0.98 0.99 0.92 1.00 0.99 1.00 0.96 0.95 0.99 0.99 1.05 0.91 0.78 0.68 0.72 0.75 0.89 0.88 0.93 1.03 1.14 1.30 1.33 1.35 1.39 1.56 1.59 1.61 1.59 1.66 1.73
0.64 0.68 0.68 0.70 0.87 0.97 1.08 1.07 1.08 1.11 1.10 1.07 1.06 1.00 1.00 1.01 1.03 1.07 1.02 1.04 1.05 1.04 1.11 1.18 1.17 1.14 1.11 1.14 0.87 0.92 0.98 1.09 1.16 1.31 1.47 1.57 1.59 1.60 1.57 1.61 1.72 1.82 1.92 1.95
0.73 0.67 0.61 0.67 0.95 0.96 1.01 1.08 1.09 1.03 1.05 1.11 1.07 1.04 1.13 1.12 1.04 1.08 1.05 1.09 1.08 1.02 1.06 1.08 1.21 1.37 1.45 1.52 1.65 1.37 1.28 1.43 1.57 1.53 1.43 1.60 1.60 1.63 1.67 1.81 1.85 2.07 2.04 2.20

GFSCGP_prec_pwat_027.txt.gz
Precipitable_Water
0.27 0.22 0.18 0.22 0.30 0.41 0.44 0.43 0.44 0.47 0.47 0.44 0.53 0.66 0.85 1.01 1.06 1.03 1.04 1.00 0.99 0.93 0.82 1.03 1.12 1.19 1.27 1.39 1.41 1.40 1.40 1.43 1.43 1.42 1.43 1.40 1.39 1.48 1.53 1.60 1.62 1.63 1.78 1.72
0.23 0.17 0.22 0.28 0.29 0.36 0.42 0.40 0.42 0.47 0.47 0.44 0.47 0.58 0.81 1.01 0.96 0.97 0.95 1.02 0.96 0.96 0.91 0.85 1.01 1.12 1.10 1.12 1.22 1.30 1.32 1.39 1.39 1.40 1.41 1.43 1.43 1.46 1.49 1.57 1.58 1.58 1.65 1.64
0.17 0.18 0.24 0.23 0.25 0.28 0.33 0.37 0.42 0.41 0.45 0.47 0.46 0.56 0.73 0.94 1.06 1.08 1.06 1.05 1.06 0.96 0.90 0.86 0.78 0.91 1.00 1.04 1.09 1.13 1.20 1.30 1.36 1.39 1.40 1.43 1.49 1.47 1.37 1.37 1.43 1.54 1.54 1.54
0.19 0.22 0.18 0.19 0.20 0.26 0.24 0.36 0.44 0.41 0.39 0.31 0.49 0.42 0.62 0.82 0.89 0.94 0.99 1.05 1.07 1.02 1.00 0.98 0.96 0.88 0.83 0.90 1.03 1.12 1.19 1.25 1.34 1.39 1.32 1.25 1.17 1.11 1.18 1.26 1.45 1.47 1.45 1.56
0.17 0.15 0.17 0.16 0.16 0.23 0.20 0.35 0.43 0.41 0.37 0.35 0.35 0.38 0.58 0.77 0.75 0.81 0.88 0.97 1.06 1.10 1.07 1.00 0.97 0.96 0.93 0.85 0.94 1.05 1.15 1.22 1.29 1.31 1.29 1.24 1.19 1.18 1.28 1.26 1.36 1.40 1.39 1.38
0.23 0.24 0.19 0.18 0.21 0.21 0.24 0.28 0.34 0.42 0.38 0.28 0.33 0.34 0.40 0.57 0.68 0.73 0.82 0.94 0.98 1.06 1.11 1.06 1.05 1.13 1.14 1.17 1.05 1.03 1.08 1.15 1.25 1.24 1.24 1.20 1.16 1.18 1.16 1.21 1.19 1.28 1.33 1.35
0.26 0.24 0.28 0.28 0.21 0.24 0.23 0.20 0.20 0.23 0.26 0.21 0.34 0.32 0.34 0.54 0.63 0.66 0.72 0.84 0.94 1.00 1.06 1.10 1.08 1.15 1.13 1.17 1.23 1.19 1.17 1.14 1.23 1.24 1.23 1.21 1.18 1.20 1.14 1.15 1.16 1.18 1.27 1.21
0.22 0.19 0.24 0.27 0.25 0.20 0.20 0.19 0.14 0.13 0.17 0.21 0.30 0.24 0.27 0.48 0.57 0.72 0.78 0.83 0.93 0.97 1.05 1.11 1.15 1.15 1.16 1.15 1.21 1.23 1.18 1.20 1.31 1.32 1.26 1.23 1.25 1.23 1.16 1.15 1.17 1.15 1.24 1.15
0.24 0.23 0.31 0.29 0.26 0.25 0.21 0.18 0.20 0.15 0.18 0.17 0.21 0.25 0.32 0.43 0.50 0.59 0.66 0.77 0.86 0.94 1.02 1.08 1.17 1.21 1.21 1.18 1.19 1.22 1.20 1.23 1.30 1.35 1.38 1.29 1.25 1.25 1.18 1.14 1.19 1.20 1.25 1.15
0.29 0.21 0.28 0.28 0.31 0.28 0.23 0.23 0.17 0.17 0.12 0.11 0.13 0.16 0.20 0.31 0.41 0.48 0.55 0.64 0.78 0.88 0.96 1.03 1.13 1.15 1.23 1.21 1.20 1.28 1.27 1.23 1.27 1.34 1.39 1.35 1.23 1.23 1.23 1.24 1.13 1.19 1.16 1.18
0.37 0.28 0.24 0.27 0.24 0.22 0.23 0.20 0.20 0.19 0.16 0.11 0.09 0.10 0.18 0.22 0.33 0.43 0.52 0.57 0.66 0.76 0.81 0.96 1.09 1.17 1.21 1.26 1.22 1.24 1.28 1.30 1.29 1.34 1.37 1.38 1.30 1.26 1.25 1.23 1.14 1.13 1.14 1.20
0.39 0.31 0.24 0.25 0.27 0.27 0.26 0.23 0.23 0.17 0.14 0.14 0.12 0.11 0.19 0.17 0.21 0.33 0.43 0.47 0.55 0.59 0.69 0.84 1.02 1.13 1.19 1.24 1.26 1.24 1.28 1.33 1.31 1.31 1.35 1.36 1.36 1.28 1.20 1.19 1.18 1.09 1.13 1.28
0.41 0.29 0.20 0.20 0.24 0.28 0.25 0.23 0.24 0.22 0.21 0.15 0.12 0.12 0.18 0.18 0.19 0.25 0.36 0.47 0.55 0.60 0.68 0.82 0.98 1.08 1.11 1.17 1.24 1.26 1.27 1.29 1.36 1.33 1.30 1.35 1.38 1.25 1.14 1.15 1.20 1.08 1.15 1.25
0.46 0.34 0.27 0.19 0.23 0.26 0.23 0.24 0.24 0.22 0.17 0.16 0.15 0.17 0.18 0.19 0.19 0.19 0.24 0.36 0.47 0.58 0.71 0.87 0.96 1.06 1.11 1.15 1.19 1.25 1.25 1.31 1.35 1.33 1.27 1.26 1.32 1.28 1.11 1.11 1.18 1.16 1.12 1.20
0.45 0.32 0.32 0.32 0.32 0.30 0.28 0.25 0.22 0.21 0.21 0.18 0.18 0.18 0.20 0.21 0.20 0.22 0.23 0.32 0.38 0.43 0.57 0.69 0.92 1.08 1.12 1.19 1.22 1.27 1.33 1.31 1.34 1.33 1.29 1.24 1.28 1.31 1.19 1.08 1.12 1.20 1.20 1.19
0.46 0.35 0.37 0.30 0.31 0.30 0.26 0.27 0.23 0.21 0.23 0.23 0.22 0.20 0.24 0.25 0.26 0.24 0.22 0.27 0.32 0.37 0.46 0.64 0.78 0.99 1.03 1.08 1.20 1.27 1.36 1.32 1.38 1.34 1.26 1.34 1.32 1.29 1.19 1.11 1.11 1.17 1.20 1.22
0.39 0.39 0.36 0.27 0.32 0.31 0.25 0.22 0.25 0.25 0.26 0.26 0.21 0.24 0.29 0.28 0.29 0.29 0.27 0.24 0.29 0.35 0.41 0.69 0.81 0.91 0.87 0.98 1.12 1.19 1.27 1.39 1.42 1.35 1.34 1.35 1.34 1.27 1.25 1.20 1.16 1.13 1.16 1.23
0.37 0.39 0.40 0.32 0.33 0.22 0.23 0.33 0.32 0.29 0.28 0.29 0.29 0.30 0.31 0.33 0.33 0.34 0.33 0.26 0.31 0.37 0.48 0.71 0.84 0.85 0.90 0.85 1.05 1.13 1.27 1.37 1.38 1.39 1.36 1.42 1.40 1.29 1.28 1.22 1.13 1.15 1.18 1.15
0.40 0.37 0.36 0.33 0.31 0.31 0.29 0.34 0.34 0.32 0.29 0.34 0.30 0.33 0.36 0.36 0.37 0.35 0.39 0.35 0.33 0.37 0.43 0.59 0.80 0.81 0.83 0.84 0.91 1.07 1.16 1.30 1.38 1.34 1.34 1.36 1.41 1.37 1.31 1.23 1.12 1.17 1.23 1.21
0.33 0.35 0.38 0.39 0.31 0.25 0.33 0.50 0.59 0.48 0.28 0.34 0.33 0.34 0.38 0.39 0.30 0.32 0.42 0.42 0.39 0.45 0.53 0.65 0.75 0.81 0.84 0.90 1.00 1.06 1.12 1.26 1.30 1.29 1.26 1.32 1.37 1.40 1.42 1.37 1.25 1.24 1.25 1.23
0.31 0.37 0.37 0.40 0.36 0.35 0.48 0.62 0.71 0.36 0.27 0.43 0.40 0.36 0.40 0.39 0.41 0.44 0.50 0.51 0.51 0.49 0.49 0.51 0.60 0.75 0.80 0.90 1.01 0.96 1.11 1.18 1.24 1.33 1.28 1.37 1.41 1.39 1.39 1.49 1.61 1.44 1.28 1.29
0.36 0.39 0.38 0.43 0.40 0.30 0.67 0.71 0.63 0.72 0.69 0.63 0.50 0.46 0.45 0.52 0.61 0.63 0.61 0.61 0.59 0.54 0.56 0.61 0.53 0.55 0.72 0.87 0.96 1.00 1.12 1.08 1.22 1.25 1.34 1.33 1.39 1.41 1.46 1.46 1.57 1.65 1.63 1.43
0.28 0.41 0.37 0.48 0.47 0.60 0.79 0.85 1.03 1.01 0.89 0.84 0.62 0.69 0.68 0.66 0.70 0.75 0.74 0.73 0.73 0.74 0.75 0.81 0.77 0.80 0.81 0.70 0.94 0.97 1.03 1.11 1.18 1.26 1.24 1.25 1.39 1.42 1.47 1.45 1.48 1.62 1.67 1.70
0.39 0.54 0.44 0.51 0.62 0.70 0.82 1.01 1.09 1.13 1.06 0.99 0.93 0.86 0.92 0.82 0.88 0.87 0.88 0.86 0.89 0.94 0.91 0.96 0.91 0.89 0.92 1.02 0.98 0.84 0.95 1.15 1.26 1.22 1.14 1.17 1.23 1.32 1.44 1.55 1.69 1.68 1.78 1.70
0.41 0.54 0.48 0.53 0.72 0.76 0.86 0.99 1.08 1.13 1.17 1.10 1.11 1.03 1.01 1.02 1.01 1.02 1.00 1.01 1.02 1.03 1.04 1.01 0.98 1.00 1.01 1.07 1.12 1.18 1.16 1.09 0.95 0.98 1.09 1.22 1.27 1.32 1.46 1.52 1.60 1.67 1.78 1.84
0.54 0.54 0.47 0.49 0.72 0.79 0.85 1.08 1.16 1.19 1.16 1.18 1.15 1.10 1.13 1.11 1.05 1.09 1.02 1.08 1.09 1.08 1.12 1.09 1.08 1.05 1.05 1.02 1.00 0.99 1.20 1.33 1.24 1.13 1.14 1.36 1.42 1.28 1.37 1.58 1.61 1.71 1.84 2.05

GFSCGP_prec_pwat_030.txt.gz
Precipitable_Water
0.27 0.21 0.14 0.21 0.27 0.31 0.38 0.40 0.42 0.47 0.51 0.51 0.56 0.61 0.77 0.94 1.02 1.04 1.07 1.13 1.01 0.96 0.91 1.04 1.10 1.23 1.34 1.38 1.40 1.42 1.40 1.35 1.42 1.34 1.20 1.27 1.32 1.43 1.51 1.56 1.61 1.67 1.75 1.74
0.22 0.14 0.21 0.23 0.26 0.27 0.31 0.36 0.41 0.46 0.49 0.47 0.43 0.55 0.69 0.87 0.90 0.97 1.04 1.08 1.07 0.99 0.94 0.90 1.00 1.12 1.21 1.25 1.30 1.33 1.34 1.39 1.38 1.43 1.38 1.33 1.37 1.41 1.49 1.55 1.60 1.62 1.61 1.71
0.15 0.18 0.24 0.22 0.21 0.22 0.24 0.29 0.40 0.41 0.45 0.49 0.46 0.42 0.53 0.80 0.94 1.05 1.12 1.08 1.11 1.07 0.98 0.87 0.84 0.92 1.06 1.13 1.19 1.21 1.24 1.26 1.33 1.40 1.42 1.40 1.46 1.45 1.40 1.44 1.48 1.53 1.56 1.57
0.21 0.24 0.22 0.19 0.18 0.21 0.18 0.30 0.40 0.42 0.38 0.34 0.48 0.30 0.48 0.65 0.76 0.86 0.96 1.02 1.06 1.11 1.10 1.05 0.96 0.98 0.91 0.97 1.13 1.18 1.25 1.28 1.32 1.41 1.33 1.27 1.19 1.16 1.26 1.28 1.37 1.48 1.51 1.48
0.21 0.20 0.20 0.18 0.16 0.22 0.18 0.28 0.33 0.41 0.40 0.37 0.37 0.32 0.35 0.52 0.67 0.75 0.89 0.92 0.99 1.04 1.07 1.05 1.01 0.93 1.00 0.93 0.96 1.05 1.13 1.20 1.27 1.29 1.29 1.23 1.21 1.25 1.28 1.29 1.33 1.36 1.42 1.45
0.23 0.27 0.24 0.20 0.21 0.21 0.22 0.22 0.27 0.33 0.35 0.28 0.32 0.32 0.28 0.38 0.55 0.73 0.84 0.94 0.98 1.04 1.07 1.07 1.06 1.06 1.06 1.13 0.94 1.01 1.03 1.06 1.19 1.24 1.26 1.22 1.17 1.21 1.21 1.25 1.26 1.21 1.36 1.40
0.25 0.23 0.24 0.22 0.19 0.21 0.21 0.18 0.15 0.17 0.21 0.20 0.33 0.31 0.28 0.41 0.52 0.64 0.73 0.85 0.93 1.00 1.07 1.07 1.10 1.08 1.13 1.13 1.16 0.96 1.00 1.02 1.12 1.17 1.21 1.22 1.21 1.23 1.22 1.24 1.21 1.15 1.18 1.29
0.21 0.19 0.25 0.26 0.19 0.16 0.18 0.17 0.13 0.11 0.14 0.19 0.30 0.21 0.26 0.41 0.55 0.66 0.72 0.76 0.86 0.90 0.98 1.06 1.13 1.13 1.13 1.15 1.20 1.24 1.16 0.98 1.06 1.11 1.14 1.22 1.25 1.23 1.24 1.28 1.28 1.19 1.12 1.18
0.24 0.22 0.31 0.29 0.27 0.23 0.19 0.17 0.19 0.15 0.18 0.16 0.20 0.24 0.31 0.38 0.47 0.58 0.64 0.71 0.74 0.84 0.94 1.04 1.14 1.20 1.18 1.18 1.18 1.25 1.26 1.21 1.16 1.14 1.20 1.25 1.30 1.26 1.22 1.25 1.29 1.22 1.21 1.20
0.31 0.23 0.29 0.31 0.32 0.30 0.24 0.23 0.17 0.17 0.11 0.10 0.13 0.15 0.17 0.25 0.34 0.49 0.59 0.63 0.67 0.77 0.86 0.98 1.09 1.18 1.25 1.26 1.18 1.29 1.32 1.24 1.26 1.24 1.27 1.32 1.36 1.36 1.29 1.30 1.27 1.21 1.20 1.25
0.38 0.29 0.26 0.31 0.28 0.24 0.24 0.21 0.21 0.20 0.16 0.10 0.09 0.11 0.18 0.19 0.27 0.35 0.47 0.60 0.63 0.69 0.74 0.83 0.96 1.12 1.21 1.25 1.26 1.26 1.31 1.27 1.28 1.33 1.33 1.33 1.36 1.40 1.38 1.26 1.28 1.28 1.24 1.22
0.46 0.35 0.27 0.27 0.32 0.34 0.29 0.23 0.22 0.16 0.13 0.15 0.14 0.11 0.18 0.16 0.18 0.27 0.42 0.53 0.58 0.64 0.69 0.75 0.81 0.96 1.14 1.19 1.24 1.21 1.29 1.29 1.27 1.34 1.36 1.31 1.36 1.40 1.36 1.24 1.25 1.31 1.28 1.18
0.44 0.36 0.26 0.27 0.30 0.31 0.28 0.28 0.25 0.22 0.20 0.14 0.12 0.12 0.18 0.19 0.19 0.19 0.23 0.36 0.52 0.53 0.59 0.68 0.76 0.80 0.90 1.12 1.22 1.24 1.24 1.26 1.31 1.35 1.37 1.31 1.30 1.36 1.35 1.28 1.23 1.27 1.30 1.17
0.46 0.38 0.33 0.26 0.29 0.33 0.26 0.26 0.27 0.25 0.18 0.17 0.15 0.15 0.18 0.18 0.18 0.18 0.19 0.23 0.33 0.47 0.50 0.54 0.67 0.75 0.83 0.97 1.13 1.20 1.23 1.33 1.38 1.38 1.36 1.30 1.26 1.28 1.34 1.32 1.22 1.17 1.26 1.20
0.42 0.32 0.35 0.36 0.36 0.34 0.31 0.28 0.27 0.23 0.24 0.19 0.20 0.19 0.21 0.22 0.22 0.23 0.22 0.23 0.28 0.31 0.38 0.46 0.54 0.68 0.85 0.96 1.09 1.17 1.23 1.29 1.34 1.34 1.31 1.21 1.29 1.35 1.31 1.30 1.24 1.12 1.20 1.18
0.42 0.32 0.35 0.30 0.34 0.33 0.28 0.29 0.27 0.26 0.25 0.24 0.23 0.22 0.26 0.26 0.25 0.23 0.23 0.23 0.23 0.23 0.30 0.37 0.50 0.63 0.81 0.96 1.08 1.16 1.21 1.29 1.41 1.34 1.21 1.30 1.33 1.37 1.30 1.27 1.23 1.10 1.09 1.22
0.36 0.32 0.31 0.26 0.33 0.31 0.23 0.25 0.27 0.26 0.27 0.25 0.19 0.23 0.28 0.26 0.24 0.24 0.25 0.26 0.26 0.26 0.29 0.33 0.42 0.52 0.64 0.84 1.05 1.13 1.19 1.30 1.38 1.36 1.31 1.32 1.34 1.33 1.33 1.30 1.25 1.11 1.00 1.14
0.35 0.34 0.31 0.27 0.31 0.20 0.28 0.33 0.34 0.28 0.28 0.29 0.28 0.27 0.27 0.27 0.28 0.29 0.31 0.32 0.32 0.30 0.30 0.34 0.37 0.46 0.66 0.80 0.95 1.05 1.15 1.22 1.27 1.29 1.34 1.38 1.40 1.36 1.39 1.38 1.27 1.19 1.10 1.02
0.37 0.34 0.28 0.24 0.25 0.27 0.30 0.35 0.38 0.38 0.31 0.32 0.30 0.30 0.30 0.31 0.31 0.30 0.35 0.37 0.36 0.34 0.31 0.37 0.42 0.54 0.76 0.86 0.93 1.01 1.05 1.14 1.17 1.27 1.33 1.40 1.44 1.42 1.44 1.38 1.29 1.30 1.20 1.10
0.27 0.33 0.30 0.28 0.23 0.20 0.32 0.46 0.54 0.59 0.29 0.46 0.43 0.31 0.31 0.31 0.25 0.29 0.36 0.39 0.39 0.39 0.36 0.36 0.44 0.58 0.75 0.89 0.97 0.98 0.93 0.99 1.04 1.16 1.28 1.40 1.46 1.47 1.41 1.42 1.45 1.42 1.39 1.28
0.19 0.26 0.24 0.25 0.27 0.31 0.41 0.51 0.63 0.32 0.28 0.51 0.57 0.50 0.38 0.31 0.31 0.37 0.43 0.43 0.47 0.45 0.44 0.48 0.53 0.63 0.75 0.92 1.00 0.98 0.98 0.96 1.02 1.20 1.33 1.42 1.52 1.52 1.53 1.51 1.57 1.57 1.51 1.47
0.21 0.19 0.22 0.26 0.25 0.21 0.42 0.50 0.44 0.58 0.72 0.69 0.65 0.59 0.53 0.41 0.40 0.44 0.51 0.57 0.59 0.57 0.61 0.66 0.59 0.58 0.66 0.85 0.93 0.96 0.99 1.11 1.25 1.34 1.40 1.48 1.55 1.47 1.46 1.44 1.52 1.60 1.65 1.68
0.20 0.26 0.26 0.26 0.23 0.36 0.38 0.46 0.65 0.76 0.80 0.81 0.72 0.69 0.65 0.51 0.48 0.55 0.66 0.79 0.81 0.78 0.77 0.81 0.74 0.76 0.85 0.77 0.87 0.94 1.07 1.19 1.27 1.33 1.41 1.51 1.64 1.61 1.63 1.57 1.59 1.43 1.58 1.78
0.36 0.39 0.33 0.39 0.36 0.35 0.47 0.66 0.74 0.84 0.88 0.99 0.93 0.85 0.81 0.67 0.76 0.77 0.83 0.92 0.96 0.98 0.97 1.01 0.93 0.88 0.88 1.02 1.02 1.01 1.02 1.06 1.06 1.13 1.34 1.42 1.50 1.57 1.61 1.71 1.61 1.61 1.50 1.26
0.37 0.40 0.31 0.39 0.46 0.56 0.58 0.59 0.75 0.92 1.04 1.12 1.09 1.04 0.98 0.96 0.95 0.97 0.97 0.99 1.04 1.02 1.00 0.95 0.87 0.87 0.84 0.90 0.91 0.96 1.00 1.06 1.04 1.04 1.07 1.15 1.24 1.33 1.50 1.64 1.64 1.72 1.75 1.73
0.45 0.35 0.32 0.25 0.41 0.53 0.63 0.70 0.86 0.99 1.13 1.21 1.19 1.16 1.21 1.18 1.05 1.07 1.03 1.05 1.02 0.97 0.98 0.95 0.96 0.97 0.97 0.96 0.93 0.94 1.01 1.01 1.03 1.02 1.04 1.02 1.09 1.21 1.36 1.44 1.45 1.66 1.75 1.80

GFSCGP_prec_pwat_033.txt.gz
Precipitable_Water
0.26 0.20 0.14 0.22 0.28 0.33 0.38 0.38 0.42 0.50 0.52 0.53 0.51 0.54 0.70 0.88 0.97 0.97 1.08 1.13 1.10 1.07 1.00 1.08 1.15 1.23 1.26 1.31 1.29 1.27 1.24 1.22 1.22 1.18 1.12 1.09 1.08 1.23 1.43 1.53 1.63 1.70 1.70 1.74
0.22 0.13 0.18 0.22 0.27 0.29 0.33 0.35 0.38 0.47 0.50 0.47 0.48 0.51 0.61 0.79 0.83 0.95 1.01 1.09 1.09 1.10 1.06 0.97 1.08 1.14 1.14 1.21 1.25 1.29 1.29 1.30 1.24 1.24 1.24 1.19 1.16 1.25 1.45 1.56 1.61 1.61 1.66 1.71
0.14 0.16 0.21 0.19 0.19 0.21 0.26 0.28 0.34 0.40 0.45 0.46 0.46 0.43 0.48 0.66 0.79 0.92 1.03 1.15 1.18 1.09 1.04 0.90 0.97 1.00 1.09 1.16 1.19 1.24 1.30 1.33 1.32 1.33 1.37 1.30 1.30 1.37 1.41 1.47 1.53 1.58 1.64 1.61
0.20 0.23 0.21 0.17 0.15 0.17 0.14 0.27 0.32 0.37 0.37 0.33 0.44 0.29 0.45 0.55 0.62 0.78 0.91 0.98 1.07 1.11 1.13 1.03 0.91 0.95 0.98 1.06 1.20 1.25 1.30 1.32 1.36 1.37 1.31 1.25 1.14 1.13 1.26 1.35 1.46 1.51 1.58 1.58
0.20 0.21 0.21 0.18 0.15 0.21 0.14 0.23 0.25 0.32 0.36 0.37 0.37 0.34 0.42 0.55 0.54 0.62 0.78 0.83 1.01 1.10 1.14 1.06 1.00 0.93 0.99 1.05 1.12 1.22 1.27 1.26 1.31 1.32 1.29 1.26 1.23 1.27 1.38 1.43 1.36 1.40 1.52 1.52
0.23 0.28 0.27 0.22 0.23 0.22 0.23 0.22 0.23 0.27 0.30 0.25 0.33 0.33 0.33 0.41 0.51 0.56 0.70 0.85 0.96 1.03 1.08 1.13 1.18 1.18 1.06 1.08 1.06 1.13 1.19 1.18 1.26 1.29 1.29 1.25 1.19 1.25 1.29 1.31 1.24 1.31 1.36 1.43
0.25 0.24 0.28 0.29 0.23 0.25 0.23 0.19 0.14 0.13 0.16 0.16 0.30 0.31 0.29 0.45 0.52 0.55 0.57 0.72 0.91 0.98 1.06 1.09 1.12 1.11 1.14 1.11 0.98 0.97 1.04 1.06 1.18 1.19 1.23 1.24 1.21 1.23 1.25 1.31 1.31 1.29 1.27 1.24
0.23 0.19 0.24 0.28 0.24 0.19 0.20 0.19 0.13 0.09 0.10 0.14 0.24 0.18 0.26 0.40 0.50 0.58 0.61 0.65 0.82 0.92 1.01 1.03 1.08 1.14 1.15 1.20 1.22 1.15 0.99 0.93 1.07 1.13 1.15 1.22 1.25 1.25 1.28 1.34 1.36 1.35 1.29 1.24
0.26 0.22 0.29 0.28 0.27 0.26 0.21 0.18 0.19 0.13 0.15 0.13 0.16 0.20 0.26 0.35 0.42 0.51 0.57 0.62 0.74 0.82 0.86 0.92 1.01 1.08 1.18 1.24 1.27 1.24 1.22 1.18 1.09 1.04 1.11 1.18 1.23 1.24 1.22 1.29 1.35 1.36 1.39 1.33
0.34 0.26 0.31 0.31 0.30 0.28 0.22 0.23 0.16 0.16 0.10 0.09 0.12 0.14 0.15 0.23 0.32 0.47 0.54 0.56 0.65 0.77 0.77 0.83 1.00 1.09 1.15 1.21 1.28 1.33 1.35 1.30 1.29 1.28 1.14 1.10 1.14 1.21 1.26 1.32 1.28 1.30 1.33 1.37
0.39 0.32 0.29 0.32 0.26 0.24 0.23 0.21 0.21 0.19 0.14 0.10 0.09 0.10 0.17 0.19 0.25 0.35 0.49 0.56 0.63 0.72 0.74 0.80 0.94 1.05 1.17 1.25 1.32 1.31 1.30 1.32 1.32 1.35 1.32 1.23 1.21 1.26 1.36 1.34 1.35 1.32 1.33 1.35
0.45 0.34 0.28 0.28 0.34 0.34 0.30 0.24 0.23 0.16 0.15 0.14 0.13 0.12 0.18 0.19 0.21 0.27 0.39 0.51 0.65 0.72 0.76 0.79 0.81 0.91 1.04 1.18 1.30 1.32 1.30 1.31 1.30 1.33 1.37 1.34 1.34 1.35 1.34 1.33 1.36 1.39 1.28 1.33
0.45 0.36 0.28 0.28 0.31 0.33 0.29 0.30 0.29 0.25 0.22 0.17 0.12 0.13 0.19 0.19 0.19 0.20 0.23 0.37 0.48 0.60 0.68 0.75 0.78 0.82 0.88 0.97 1.16 1.25 1.32 1.28 1.35 1.39 1.36 1.39 1.36 1.33 1.32 1.36 1.40 1.42 1.34 1.27
0.48 0.38 0.33 0.26 0.29 0.34 0.28 0.30 0.31 0.27 0.21 0.18 0.17 0.17 0.20 0.19 0.19 0.20 0.21 0.24 0.34 0.47 0.55 0.64 0.71 0.74 0.81 0.88 0.93 1.12 1.23 1.30 1.31 1.31 1.33 1.34 1.33 1.31 1.33 1.35 1.40 1.40 1.38 1.27
0.42 0.34 0.37 0.37 0.38 0.36 0.34 0.31 0.31 0.28 0.27 0.21 0.20 0.19 0.23 0.23 0.21 0.22 0.23 0.24 0.29 0.34 0.42 0.56 0.62 0.62 0.68 0.78 0.92 0.99 1.17 1.26 1.29 1.30 1.30 1.31 1.36 1.41 1.42 1.40 1.38 1.42 1.39 1.26
0.42 0.34 0.35 0.32 0.37 0.35 0.33 0.33 0.32 0.30 0.28 0.27 0.26 0.24 0.32 0.32 0.33 0.28 0.25 0.24 0.23 0.28 0.32 0.47 0.52 0.56 0.59 0.66 0.77 0.98 1.06 1.22 1.36 1.34 1.32 1.43 1.43 1.38 1.36 1.42 1.41 1.36 1.34 1.27
0.36 0.33 0.31 0.27 0.34 0.33 0.28 0.30 0.31 0.31 0.32 0.29 0.22 0.26 0.30 0.28 0.29 0.28 0.28 0.29 0.27 0.27 0.28 0.31 0.37 0.44 0.48 0.56 0.69 0.81 1.04 1.24 1.29 1.29 1.34 1.40 1.46 1.40 1.35 1.43 1.46 1.37 1.29 1.29
0.35 0.34 0.32 0.25 0.29 0.21 0.28 0.38 0.39 0.36 0.33 0.33 0.30 0.30 0.31 0.31 0.31 0.31 0.30 0.29 0.29 0.30 0.30 0.34 0.34 0.36 0.42 0.49 0.63 0.83 1.03 1.18 1.24 1.27 1.34 1.44 1.53 1.48 1.41 1.42 1.42 1.42 1.37 1.28
0.35 0.33 0.28 0.23 0.23 0.25 0.28 0.32 0.37 0.38 0.34 0.46 0.37 0.32 0.31 0.32 0.34 0.33 0.35 0.33 0.33 0.35 0.39 0.40 0.39 0.37 0.43 0.50 0.62 0.78 0.93 1.15 1.21 1.24 1.29 1.33 1.37 1.43 1.46 1.45 1.43 1.45 1.44 1.38
0.30 0.34 0.30 0.27 0.20 0.18 0.29 0.36 0.48 0.54 0.28 0.51 0.51 0.48 0.39 0.34 0.26 0.30 0.35 0.35 0.36 0.39 0.41 0.42 0.43 0.39 0.44 0.51 0.68 0.84 0.89 1.01 1.06 1.11 1.19 1.28 1.37 1.43 1.42 1.49 1.56 1.59 1.57 1.50
0.20 0.24 0.22 0.23 0.23 0.25 0.33 0.45 0.61 0.31 0.31 0.58 0.60 0.57 0.57 0.47 0.39 0.40 0.43 0.41 0.42 0.44 0.46 0.47 0.47 0.43 0.50 0.64 0.72 0.79 0.92 0.93 1.05 1.23 1.24 1.28 1.38 1.42 1.48 1.63 1.71 1.74 1.75 1.69
0.18 0.19 0.19 0.22 0.20 0.18 0.35 0.36 0.32 0.50 0.61 0.60 0.61 0.63 0.61 0.66 0.64 0.57 0.52 0.45 0.50 0.54 0.58 0.54 0.53 0.52 0.59 0.72 0.73 0.83 0.96 1.12 1.19 1.17 1.22 1.28 1.36 1.43 1.53 1.59 1.70 1.81 1.79 1.71
0.19 0.22 0.25 0.22 0.19 0.28 0.38 0.40 0.43 0.56 0.53 0.56 0.60 0.66 0.73 0.70 0.65 0.67 0.56 0.66 0.72 0.77 0.73 0.83 0.77 0.68 0.71 0.76 0.83 0.84 1.04 1.17 1.18 1.20 1.22 1.30 1.39 1.46 1.56 1.56 1.62 1.70 1.63 1.58
0.33 0.40 0.29 0.25 0.26 0.30 0.34 0.38 0.45 0.56 0.47 0.63 0.73 0.77 0.80 0.75 0.77 0.71 0.77 0.79 0.86 0.90 0.87 0.97 0.93 0.80 0.77 0.84 0.84 0.89 0.97 1.02 1.03 1.04 1.14 1.28 1.34 1.44 1.56 1.63 1.69 1.60 1.68 1.72
0.37 0.40 0.34 0.30 0.32 0.33 0.31 0.37 0.44 0.54 0.59 0.58 0.72 0.86 0.89 0.97 0.89 0.88 0.88 0.93 0.95 0.99 0.96 0.96 0.89 0.81 0.79 0.85 0.87 0.93 0.99 1.03 0.99 1.00 1.05 1.12 1.19 1.25 1.33 1.50 1.55 1.48 1.49 1.74
0.43 0.38 0.34 0.27 0.36 0.37 0.28 0.42 0.57 0.65 0.57 0.60 0.71 0.98 1.11 1.13 1.05 1.09 1.04 1.07 1.08 1.07 1.07 0.97 0.94 0.89 0.86 0.86 0.84 0.87 0.90 0.91 0.92 0.88 0.89 0.92 0.97 1.05 1.15 1.24 1.24 1.44 1.49 1.60

GFSCGP_prec_pwat_036.txt.gz
Precipitable_Water
0.28 0.21 0.17 0.24 0.33 0.39 0.42 0.42 0.43 0.54 0.59 0.53 0.52 0.58 0.63 0.86 0.99 0.98 1.01 1.10 1.13 1.09 1.19 1.07 1.19 1.26 1.28 1.33 1.31 1.32 1.32 1.34 1.35 1.29 1.23 1.22 1.17 1.23 1.30 1.46 1.58 1.66 1.69 1.73
0.22 0.16 0.19 0.24 0.27 0.29 0.33 0.33 0.38 0.51 0.54 0.51 0.53 0.55 0.64 0.77 0.90 0.97 1.02 1.01 1.11 1.19 1.18 1.04 1.10 1.18 1.19 1.24 1.28 1.32 1.30 1.32 1.33 1.31 1.26 1.23 1.21 1.22 1.29 1.44 1.53 1.61 1.71 1.74
0.17 0.18 0.22 0.20 0.21 0.22 0.26 0.28 0.36 0.42 0.50 0.51 0.47 0.45 0.52 0.65 0.80 0.93 1.02 1.08 1.16 1.17 1.19 1.12 0.96 1.06 1.14 1.17 1.23 1.27 1.31 1.32 1.34 1.34 1.34 1.30 1.26 1.23 1.23 1.33 1.48 1.60 1.66 1.68
0.23 0.25 0.21 0.20 0.18 0.19 0.16 0.29 0.36 0.37 0.39 0.35 0.48 0.35 0.48 0.56 0.63 0.73 0.81 0.94 1.04 1.08 1.20 1.17 1.01 0.97 1.04 1.11 1.25 1.28 1.30 1.34 1.42 1.41 1.25 1.17 1.08 1.07 1.18 1.31 1.48 1.55 1.65 1.65
0.23 0.22 0.21 0.17 0.16 0.20 0.15 0.22 0.28 0.35 0.35 0.37 0.39 0.34 0.41 0.53 0.51 0.64 0.75 0.83 1.00 1.07 1.16 1.13 1.05 0.89 0.96 1.14 1.17 1.27 1.34 1.41 1.41 1.37 1.25 1.21 1.20 1.20 1.31 1.38 1.43 1.51 1.56 1.60
0.28 0.30 0.24 0.22 0.23 0.21 0.21 0.20 0.21 0.26 0.29 0.25 0.31 0.34 0.32 0.41 0.50 0.59 0.72 0.78 0.90 1.04 1.11 1.17 1.16 1.15 1.02 1.09 1.16 1.24 1.28 1.34 1.40 1.36 1.32 1.21 1.19 1.21 1.22 1.32 1.38 1.40 1.42 1.50
0.28 0.26 0.29 0.28 0.24 0.26 0.22 0.20 0.14 0.13 0.15 0.16 0.28 0.30 0.30 0.43 0.53 0.59 0.62 0.69 0.81 1.02 1.07 1.06 1.15 1.15 1.09 1.02 1.04 1.14 1.21 1.23 1.33 1.30 1.28 1.25 1.24 1.29 1.26 1.34 1.39 1.36 1.35 1.37
0.26 0.20 0.26 0.28 0.24 0.24 0.21 0.19 0.13 0.10 0.11 0.14 0.23 0.21 0.26 0.42 0.54 0.59 0.62 0.62 0.78 0.95 1.02 1.03 1.09 1.16 1.18 1.10 1.07 1.02 1.00 1.07 1.23 1.23 1.20 1.24 1.29 1.30 1.32 1.35 1.41 1.39 1.36 1.38
0.28 0.26 0.31 0.30 0.29 0.27 0.24 0.18 0.19 0.15 0.17 0.15 0.16 0.20 0.28 0.36 0.42 0.52 0.55 0.59 0.62 0.81 0.97 1.02 1.09 1.18 1.22 1.23 1.24 1.21 1.13 1.07 1.14 1.17 1.21 1.21 1.25 1.27 1.24 1.28 1.36 1.39 1.41 1.42
0.37 0.29 0.33 0.33 0.32 0.29 0.26 0.26 0.17 0.16 0.12 0.11 0.12 0.15 0.19 0.25 0.30 0.42 0.48 0.58 0.60 0.66 0.83 0.96 1.04 1.09 1.18 1.28 1.34 1.40 1.37 1.24 1.17 1.24 1.27 1.22 1.21 1.26 1.28 1.32 1.31 1.33 1.37 1.42
0.43 0.36 0.33 0.33 0.27 0.24 0.24 0.23 0.22 0.20 0.16 0.12 0.12 0.12 0.21 0.22 0.30 0.34 0.42 0.53 0.63 0.60 0.76 0.88 0.90 0.99 1.13 1.30 1.39 1.38 1.42 1.40 1.38 1.32 1.24 1.22 1.21 1.23 1.29 1.31 1.32 1.34 1.39 1.41
0.47 0.40 0.33 0.30 0.35 0.33 0.29 0.26 0.24 0.17 0.17 0.17 0.16 0.15 0.22 0.20 0.25 0.35 0.37 0.50 0.62 0.67 0.75 0.88 0.89 0.96 1.08 1.14 1.23 1.33 1.39 1.41 1.42 1.44 1.41 1.30 1.30 1.25 1.19 1.23 1.30 1.40 1.37 1.39
0.50 0.37 0.32 0.32 0.34 0.35 0.28 0.28 0.27 0.25 0.22 0.19 0.15 0.16 0.26 0.23 0.23 0.32 0.41 0.49 0.59 0.68 0.75 0.84 0.89 0.90 1.00 1.13 1.25 1.32 1.40 1.44 1.42 1.45 1.43 1.41 1.35 1.31 1.25 1.27 1.37 1.42 1.43 1.41
0.52 0.42 0.35 0.29 0.32 0.35 0.30 0.29 0.28 0.27 0.20 0.19 0.22 0.21 0.24 0.22 0.24 0.25 0.28 0.38 0.49 0.59 0.64 0.70 0.76 0.80 0.87 0.95 1.02 1.12 1.29 1.43 1.49 1.41 1.36 1.32 1.37 1.36 1.36 1.38 1.40 1.44 1.47 1.47
0.45 0.37 0.41 0.44 0.43 0.39 0.35 0.31 0.30 0.27 0.27 0.21 0.24 0.25 0.27 0.30 0.26 0.28 0.31 0.32 0.41 0.49 0.58 0.63 0.70 0.76 0.86 0.85 0.93 1.06 1.13 1.21 1.41 1.43 1.37 1.34 1.36 1.43 1.47 1.44 1.44 1.50 1.52 1.53
0.44 0.38 0.40 0.36 0.40 0.38 0.34 0.36 0.33 0.32 0.30 0.30 0.29 0.29 0.36 0.38 0.36 0.30 0.31 0.32 0.32 0.40 0.44 0.49 0.60 0.73 0.78 0.78 0.83 0.91 0.97 1.05 1.20 1.32 1.37 1.43 1.43 1.45 1.46 1.48 1.49 1.54 1.53 1.53
0.40 0.37 0.34 0.30 0.37 0.36 0.31 0.33 0.34 0.34 0.35 0.34 0.27 0.35 0.40 0.38 0.38 0.34 0.32 0.32 0.30 0.31 0.34 0.41 0.53 0.64 0.65 0.72 0.75 0.76 0.83 0.99 1.09 1.19 1.39 1.44 1.48 1.45 1.51 1.58 1.59 1.54 1.51 1.57
0.38 0.37 0.35 0.30 0.34 0.23 0.32 0.42 0.41 0.37 0.37 0.37 0.36 0.38 0.39 0.40 0.40 0.39 0.38 0.34 0.32 0.30 0.30 0.38 0.46 0.55 0.59 0.67 0.70 0.75 0.87 0.93 0.99 1.12 1.32 1.43 1.47 1.48 1.59 1.64 1.59 1.52 1.57 1.56
0.37 0.36 0.31 0.29 0.27 0.30 0.34 0.37 0.37 0.37 0.36 0.41 0.40 0.42 0.40 0.40 0.39 0.38 0.41 0.39 0.37 0.36 0.35 0.36 0.41 0.45 0.52 0.56 0.59 0.63 0.76 0.85 0.95 1.05 1.22 1.36 1.45 1.50 1.58 1.59 1.57 1.68 1.70 1.66
0.32 0.36 0.31 0.29 0.25 0.22 0.33 0.38 0.44 0.47 0.37 0.53 0.59 0.56 0.58 0.57 0.34 0.36 0.43 0.42 0.44 0.41 0.44 0.43 0.43 0.44 0.44 0.47 0.55 0.59 0.66 0.77 0.83 1.01 1.22 1.39 1.42 1.47 1.50 1.59 1.65 1.70 1.77 1.74
0.24 0.28 0.26 0.26 0.25 0.28 0.36 0.50 0.64 0.33 0.51 0.67 0.68 0.69 0.67 0.57 0.67 0.69 0.68 0.66 0.65 0.59 0.52 0.51 0.51 0.50 0.50 0.54 0.54 0.48 0.59 0.68 0.90 1.18 1.28 1.38 1.40 1.47 1.54 1.54 1.56 1.59 1.59 1.62
0.24 0.23 0.23 0.25 0.23 0.21 0.35 0.35 0.33 0.49 0.59 0.68 0.68 0.66 0.65 0.65 0.69 0.71 0.73 0.70 0.70 0.65 0.55 0.57 0.58 0.54 0.59 0.71 0.65 0.58 0.63 0.80 1.03 1.17 1.22 1.31 1.35 1.37 1.41 1.43 1.48 1.48 1.56 1.55
0.21 0.25 0.23 0.25 0.24 0.32 0.41 0.38 0.47 0.50 0.53 0.59 0.62 0.64 0.70 0.67 0.65 0.72 0.73 0.78 0.77 0.67 0.65 0.74 0.64 0.66 0.69 0.75 0.73 0.67 0.79 0.93 1.06 1.14 1.23 1.34 1.38 1.38 1.39 1.39 1.42 1.47 1.53 1.48
0.28 0.35 0.31 0.28 0.30 0.33 0.38 0.42 0.44 0.45 0.48 0.60 0.61 0.59 0.62 0.63 0.66 0.66 0.77 0.90 0.81 0.87 0.89 0.91 0.90 0.81 0.80 0.86 0.88 0.89 0.95 1.02 1.06 1.13 1.27 1.36 1.40 1.40 1.44 1.49 1.55 1.50 1.47 1.47
0.33 0.35 0.31 0.30 0.33 0.36 0.35 0.36 0.38 0.41 0.44 0.44 0.49 0.57 0.57 0.61 0.67 0.71 0.82 0.99 0.99 1.08 1.06 1.08 1.04 0.99 0.95 1.02 1.03 1.07 1.05 1.04 1.02 1.08 1.21 1.28 1.28 1.30 1.34 1.36 1.41 1.45 1.53 1.56
0.43 0.37 0.31 0.27 0.36 0.39 0.39 0.43 0.43 0.32 0.27 0.48 0.49 0.55 0.59 0.67 0.75 0.84 0.92 1.10 1.16 1.07 1.05 1.02 1.02 1.01 0.99 1.00 1.01 1.04 1.14 1.18 1.08 1.02 1.04 1.09 1.14 1.23 1.24 1.28 1.31 1.41 1.41 1.43

GFSCGP_prec_pwat_039.txt.gz
Precipitable_Water
0.46 0.39 0.33 0.35 0.54 0.50 0.43 0.49 0.49 0.62 0.70 0.65 0.62 0.64 0.65 0.79 0.96 1.05 1.18 1.11 1.15 1.13 1.20 1.16 1.21 1.26 1.28 1.33 1.33 1.35 1.34 1.40 1.44 1.40 1.35 1.34 1.32 1.39 1.40 1.44 1.51 1.64 1.70 1.69
0.41 0.32 0.36 0.36 0.38 0.48 0.48 0.47 0.50 0.55 0.63 0.61 0.60 0.60 0.65 0.73 0.91 1.05 1.11 1.09 1.14 1.22 1.18 1.17 1.15 1.20 1.19 1.22 1.27 1.31 1.33 1.38 1.38 1.37 1.38 1.36 1.34 1.35 1.36 1.39 1.51 1.61 1.68 1.73
0.24 0.27 0.34 0.26 0.31 0.38 0.38 0.39 0.42 0.47 0.56 0.59 0.55 0.53 0.60 0.70 0.85 1.06 1.12 1.14 1.17 1.12 1.15 1.15 1.10 1.10 1.20 1.20 1.24 1.27 1.32 1.35 1.36 1.39 1.37 1.34 1.33 1.30 1.29 1.31 1.40 1.52 1.62 1.72
0.26 0.28 0.25 0.23 0.21 0.25 0.22 0.34 0.40 0.40 0.45 0.42 0.52 0.37 0.50 0.56 0.68 0.89 1.04 1.09 1.11 1.17 1.28 1.25 1.12 1.08 1.12 1.17 1.28 1.34 1.33 1.33 1.35 1.37 1.33 1.27 1.13 1.05 1.14 1.23 1.33 1.53 1.61 1.66
0.27 0.23 0.22 0.20 0.18 0.21 0.20 0.27 0.32 0.35 0.38 0.42 0.44 0.42 0.44 0.57 0.54 0.69 0.84 1.00 1.07 1.12 1.20 1.14 1.13 1.07 1.05 1.19 1.24 1.34 1.39 1.39 1.37 1.36 1.29 1.25 1.17 1.13 1.22 1.27 1.31 1.42 1.71 1.63
0.35 0.32 0.28 0.24 0.23 0.23 0.24 0.23 0.24 0.28 0.31 0.28 0.33 0.36 0.39 0.43 0.54 0.64 0.74 0.82 0.99 1.09 1.09 1.16 1.27 1.15 1.09 1.15 1.24 1.32 1.34 1.31 1.38 1.39 1.28 1.28 1.18 1.15 1.18 1.22 1.33 1.43 1.49 1.57
0.31 0.31 0.31 0.29 0.24 0.24 0.22 0.20 0.15 0.15 0.18 0.19 0.32 0.32 0.35 0.46 0.51 0.60 0.66 0.78 0.87 1.02 1.09 1.18 1.22 1.18 1.00 1.00 1.11 1.20 1.26 1.25 1.35 1.35 1.33 1.22 1.18 1.19 1.26 1.23 1.26 1.40 1.43 1.37
0.26 0.23 0.29 0.30 0.24 0.22 0.21 0.18 0.14 0.11 0.12 0.16 0.25 0.22 0.29 0.44 0.53 0.57 0.66 0.75 0.85 0.92 1.01 1.16 1.21 1.13 1.08 0.96 0.95 1.01 1.12 1.16 1.26 1.28 1.27 1.28 1.22 1.21 1.25 1.28 1.28 1.30 1.39 1.37
0.28 0.27 0.35 0.32 0.30 0.27 0.25 0.18 0.20 0.17 0.19 0.15 0.17 0.22 0.28 0.39 0.45 0.52 0.59 0.69 0.72 0.84 1.01 1.04 1.07 1.10 1.12 1.10 1.01 0.97 0.99 1.03 1.12 1.16 1.23 1.25 1.26 1.20 1.21 1.27 1.31 1.39 1.36 1.39
0.39 0.34 0.36 0.34 0.34 0.30 0.27 0.29 0.18 0.19 0.14 0.14 0.17 0.20 0.22 0.28 0.37 0.45 0.50 0.60 0.65 0.74 0.93 0.99 1.08 1.17 1.23 1.22 1.16 1.15 1.16 1.17 1.10 1.14 1.20 1.23 1.23 1.25 1.25 1.31 1.30 1.32 1.38 1.38
0.44 0.41 0.39 0.40 0.28 0.26 0.24 0.26 0.23 0.21 0.18 0.15 0.18 0.19 0.25 0.30 0.36 0.37 0.47 0.56 0.61 0.68 0.90 0.98 1.05 1.14 1.26 1.32 1.34 1.31 1.33 1.34 1.35 1.31 1.34 1.34 1.28 1.26 1.31 1.30 1.32 1.35 1.37 1.42
0.44 0.43 0.37 0.34 0.35 0.36 0.31 0.26 0.28 0.18 0.18 0.18 0.19 0.22 0.28 0.26 0.32 0.39 0.44 0.52 0.60 0.70 0.84 0.96 0.99 1.14 1.18 1.25 1.35 1.38 1.45 1.45 1.48 1.48 1.44 1.38 1.37 1.33 1.26 1.24 1.31 1.38 1.36 1.39
0.53 0.41 0.34 0.38 0.38 0.35 0.31 0.29 0.28 0.29 0.24 0.21 0.17 0.23 0.35 0.32 0.28 0.38 0.44 0.52 0.61 0.71 0.79 0.87 0.99 1.04 1.03 1.13 1.26 1.37 1.46 1.52 1.61 1.64 1.56 1.50 1.39 1.36 1.30 1.29 1.25 1.29 1.34 1.40
0.57 0.45 0.39 0.32 0.32 0.35 0.30 0.31 0.30 0.29 0.23 0.23 0.24 0.24 0.31 0.31 0.32 0.38 0.45 0.51 0.58 0.67 0.77 0.85 0.91 0.95 0.99 1.08 1.19 1.25 1.39 1.56 1.64 1.66 1.65 1.56 1.47 1.38 1.39 1.39 1.40 1.31 1.33 1.34
0.52 0.43 0.45 0.46 0.50 0.43 0.36 0.32 0.30 0.28 0.28 0.24 0.26 0.29 0.34 0.34 0.33 0.34 0.40 0.49 0.54 0.61 0.68 0.76 0.80 0.89 1.00 1.03 1.12 1.25 1.28 1.34 1.48 1.58 1.60 1.58 1.59 1.58 1.53 1.47 1.44 1.40 1.38 1.40
0.50 0.40 0.49 0.46 0.49 0.48 0.39 0.38 0.34 0.32 0.31 0.31 0.30 0.31 0.39 0.44 0.40 0.38 0.38 0.40 0.45 0.48 0.54 0.65 0.72 0.82 0.91 0.95 1.01 1.12 1.20 1.20 1.31 1.35 1.46 1.60 1.66 1.61 1.59 1.57 1.51 1.49 1.45 1.49
0.43 0.41 0.44 0.39 0.49 0.46 0.37 0.37 0.38 0.35 0.35 0.34 0.30 0.36 0.42 0.43 0.45 0.42 0.42 0.44 0.42 0.47 0.51 0.55 0.63 0.68 0.84 0.94 1.01 1.00 1.04 1.10 1.11 1.13 1.28 1.38 1.56 1.59 1.61 1.64 1.62 1.57 1.52 1.57
0.41 0.43 0.43 0.37 0.44 0.32 0.39 0.48 0.45 0.42 0.42 0.41 0.41 0.45 0.46 0.48 0.51 0.51 0.50 0.45 0.42 0.40 0.42 0.46 0.52 0.59 0.80 0.82 0.83 0.96 1.02 1.08 1.04 1.09 1.09 1.27 1.37 1.55 1.66 1.65 1.61 1.61 1.71 1.67
0.41 0.40 0.37 0.33 0.34 0.38 0.40 0.44 0.46 0.42 0.40 0.47 0.45 0.47 0.49 0.50 0.50 0.49 0.50 0.45 0.41 0.40 0.43 0.46 0.52 0.55 0.61 0.65 0.72 0.84 0.97 1.05 1.10 1.03 1.03 1.13 1.37 1.45 1.61 1.57 1.56 1.62 1.68 1.71
0.37 0.40 0.36 0.36 0.31 0.31 0.41 0.50 0.51 0.54 0.39 0.51 0.49 0.48 0.48 0.50 0.40 0.43 0.55 0.64 0.70 0.68 0.68 0.66 0.54 0.52 0.56 0.60 0.64 0.68 0.70 0.76 0.95 0.99 1.03 1.13 1.26 1.41 1.48 1.58 1.60 1.66 1.73 1.74
0.29 0.33 0.32 0.32 0.33 0.37 0.48 0.58 0.53 0.37 0.59 0.63 0.63 0.64 0.68 0.70 0.79 0.89 0.88 0.77 0.78 0.78 0.78 0.75 0.71 0.61 0.62 0.62 0.60 0.62 0.64 0.67 0.74 0.96 1.06 1.16 1.20 1.35 1.49 1.53 1.67 1.68 1.69 1.72
0.33 0.28 0.29 0.32 0.29 0.29 0.48 0.44 0.47 0.59 0.76 0.79 0.83 0.86 0.82 0.84 0.86 0.82 0.79 0.78 0.81 0.81 0.82 0.79 0.69 0.57 0.67 0.68 0.62 0.61 0.62 0.64 0.75 0.82 0.93 1.06 1.25 1.32 1.51 1.55 1.65 1.66 1.67 1.62
0.25 0.33 0.31 0.31 0.32 0.42 0.48 0.47 0.48 0.53 0.60 0.66 0.66 0.70 0.74 0.72 0.71 0.70 0.75 0.75 0.76 0.84 0.91 0.87 0.71 0.68 0.77 0.75 0.81 0.76 0.80 0.88 0.85 0.88 0.97 1.09 1.30 1.38 1.48 1.58 1.58 1.55 1.59 1.48
0.28 0.32 0.30 0.34 0.37 0.39 0.42 0.46 0.47 0.49 0.52 0.57 0.59 0.64 0.63 0.57 0.63 0.66 0.68 0.76 0.78 0.92 1.01 1.03 1.01 0.91 0.93 0.97 0.95 0.93 0.96 1.02 0.98 0.98 1.04 1.16 1.30 1.41 1.49 1.58 1.57 1.50 1.46 1.47
0.34 0.36 0.31 0.28 0.33 0.41 0.44 0.46 0.48 0.48 0.49 0.51 0.57 0.60 0.55 0.53 0.57 0.67 0.67 0.77 0.83 0.96 1.14 1.21 1.15 1.14 1.07 1.13 1.14 1.17 1.15 1.14 1.07 1.13 1.16 1.22 1.36 1.44 1.51 1.58 1.63 1.60 1.65 1.63
0.42 0.37 0.32 0.28 0.37 0.39 0.41 0.47 0.50 0.48 0.47 0.48 0.50 0.51 0.52 0.62 0.63 0.70 0.69 0.85 0.91 1.04 1.28 1.16 1.13 1.11 1.06 1.12 1.17 1.28 1.33 1.26 1.23 1.17 1.18 1.23 1.30 1.41 1.45 1.55 1.56 1.64 1.66 1.68

GFSCGP_prec_pwat_042.txt.gz
Precipitable_Water
0.47 0.38 0.28 0.34 0.50 0.59 0.61 0.54 0.48 0.65 0.76 0.70 0.65 0.65 0.74 0.88 0.97 1.30 1.15 1.33 1.11 1.15 1.18 1.21 1.21 1.26 1.31 1.32 1.33 1.31 1.31 1.36 1.43 1.36 1.32 1.35 1.28 1.39 1.45 1.53 1.51 1.62 1.61 1.64
0.45 0.30 0.37 0.44 0.50 0.54 0.55 0.49 0.42 0.57 0.68 0.72 0.64 0.63 0.66 0.79 0.90 1.22 1.10 1.42 1.12 1.20 1.19 1.16 1.18 1.20 1.21 1.26 1.28 1.30 1.30 1.36 1.42 1.39 1.40 1.37 1.39 1.39 1.42 1.42 1.46 1.49 1.52 1.58
0.35 0.34 0.45 0.44 0.44 0.41 0.49 0.46 0.43 0.49 0.66 0.80 0.71 0.60 0.64 0.77 0.88 0.98 1.23 1.16 1.19 1.20 1.15 1.13 1.10 1.13 1.16 1.23 1.23 1.27 1.27 1.36 1.38 1.38 1.40 1.40 1.40 1.39 1.36 1.31 1.30 1.41 1.47 1.64
0.42 0.48 0.40 0.39 0.39 0.37 0.38 0.51 0.50 0.53 0.52 0.49 0.58 0.47 0.56 0.58 0.71 0.88 1.00 1.12 1.21 1.18 1.26 1.28 1.24 1.14 1.11 1.16 1.25 1.29 1.29 1.31 1.37 1.36 1.30 1.23 1.12 1.07 1.20 1.24 1.28 1.36 1.41 1.46
0.39 0.39 0.36 0.36 0.34 0.36 0.28 0.38 0.48 0.52 0.47 0.51 0.51 0.46 0.48 0.56 0.61 0.77 0.92 0.95 1.36 1.23 1.21 1.23 1.24 1.13 1.12 1.16 1.20 1.26 1.30 1.31 1.36 1.28 1.34 1.21 1.16 1.14 1.18 1.23 1.22 1.31 1.47 1.59
0.50 0.48 0.37 0.29 0.33 0.29 0.29 0.36 0.36 0.37 0.40 0.31 0.40 0.47 0.46 0.46 0.53 0.61 0.82 1.02 1.04 1.20 1.26 1.28 1.29 1.26 1.18 1.23 1.27 1.27 1.30 1.28 1.32 1.31 1.23 1.31 1.16 1.12 1.08 1.11 1.18 1.27 1.49 1.57
0.49 0.47 0.37 0.30 0.26 0.27 0.25 0.24 0.20 0.19 0.21 0.22 0.33 0.37 0.41 0.53 0.61 0.65 0.72 0.85 1.07 1.17 1.22 1.29 1.22 1.21 1.18 1.12 1.17 1.21 1.24 1.21 1.28 1.30 1.24 1.18 1.27 1.17 1.12 1.15 1.14 1.25 1.37 1.44
0.31 0.29 0.39 0.30 0.25 0.23 0.21 0.19 0.16 0.13 0.16 0.20 0.27 0.25 0.30 0.48 0.56 0.62 0.73 0.80 0.88 1.03 1.21 1.22 1.27 1.27 1.18 1.12 1.08 1.14 1.16 1.17 1.26 1.25 1.21 1.16 1.20 1.22 1.07 1.16 1.21 1.17 1.29 1.40
0.31 0.30 0.44 0.37 0.31 0.30 0.23 0.18 0.22 0.19 0.21 0.19 0.22 0.26 0.32 0.42 0.47 0.54 0.58 0.71 0.79 0.91 1.05 1.15 1.25 1.24 1.23 1.08 1.04 1.00 1.05 1.11 1.18 1.14 1.18 1.19 1.12 1.16 1.07 1.08 1.19 1.26 1.25 1.38
0.37 0.33 0.37 0.38 0.38 0.31 0.27 0.28 0.18 0.19 0.15 0.15 0.18 0.21 0.22 0.27 0.39 0.47 0.53 0.61 0.71 0.85 0.97 1.14 1.24 1.19 1.09 1.08 1.07 1.08 1.02 0.99 1.05 1.12 1.11 1.11 1.10 1.11 1.13 1.11 1.16 1.19 1.35 1.25
0.40 0.38 0.36 0.40 0.33 0.28 0.25 0.26 0.24 0.21 0.18 0.17 0.20 0.24 0.28 0.31 0.32 0.41 0.46 0.55 0.64 0.82 0.93 1.07 1.22 1.16 1.13 1.19 1.22 1.14 1.09 1.12 1.08 1.12 1.12 1.13 1.20 1.24 1.18 1.15 1.20 1.29 1.31 1.45
0.47 0.37 0.33 0.39 0.40 0.39 0.33 0.26 0.29 0.22 0.18 0.20 0.24 0.27 0.36 0.35 0.35 0.37 0.45 0.51 0.61 0.73 0.91 1.04 1.18 1.13 1.21 1.20 1.22 1.22 1.27 1.26 1.33 1.34 1.30 1.25 1.25 1.28 1.25 1.19 1.19 1.27 1.33 1.37
0.56 0.40 0.30 0.38 0.46 0.40 0.32 0.31 0.29 0.33 0.26 0.21 0.20 0.24 0.39 0.37 0.39 0.42 0.41 0.51 0.57 0.68 0.81 1.01 1.14 1.10 1.14 1.21 1.25 1.28 1.35 1.37 1.50 1.58 1.57 1.52 1.45 1.42 1.36 1.31 1.26 1.28 1.24 1.29
0.56 0.45 0.41 0.34 0.38 0.41 0.33 0.33 0.32 0.29 0.26 0.23 0.25 0.31 0.37 0.36 0.37 0.42 0.41 0.49 0.59 0.66 0.71 0.91 1.04 1.15 1.10 1.23 1.27 1.30 1.36 1.44 1.52 1.64 1.69 1.65 1.58 1.52 1.50 1.51 1.46 1.35 1.36 1.27
0.54 0.44 0.48 0.46 0.48 0.50 0.38 0.34 0.33 0.27 0.31 0.26 0.29 0.30 0.38 0.39 0.39 0.44 0.45 0.53 0.60 0.69 0.78 0.93 0.97 1.15 1.18 1.20 1.26 1.28 1.31 1.42 1.53 1.56 1.63 1.64 1.73 1.68 1.62 1.57 1.57 1.55 1.43 1.40
0.53 0.43 0.51 0.47 0.51 0.56 0.49 0.39 0.36 0.34 0.31 0.34 0.33 0.36 0.45 0.46 0.44 0.45 0.51 0.57 0.61 0.69 0.76 0.83 0.90 1.01 1.18 1.28 1.24 1.26 1.26 1.36 1.47 1.49 1.51 1.69 1.73 1.75 1.71 1.62 1.59 1.61 1.57 1.49
0.48 0.48 0.47 0.40 0.54 0.52 0.46 0.45 0.40 0.38 0.39 0.34 0.32 0.38 0.47 0.46 0.45 0.45 0.45 0.50 0.55 0.59 0.63 0.70 0.76 0.86 1.01 1.08 1.21 1.29 1.25 1.31 1.37 1.41 1.49 1.53 1.59 1.65 1.70 1.74 1.63 1.60 1.55 1.60
0.45 0.44 0.47 0.43 0.53 0.42 0.52 0.58 0.51 0.44 0.40 0.40 0.41 0.43 0.50 0.53 0.53 0.53 0.54 0.49 0.52 0.57 0.59 0.61 0.62 0.67 0.75 0.84 0.96 1.12 1.29 1.31 1.22 1.27 1.29 1.39 1.47 1.47 1.60 1.66 1.69 1.67 1.65 1.60
0.43 0.42 0.40 0.42 0.47 0.52 0.54 0.53 0.49 0.46 0.45 0.47 0.43 0.45 0.51 0.58 0.62 0.60 0.62 0.60 0.56 0.54 0.57 0.58 0.65 0.62 0.67 0.77 1.02 1.12 1.04 1.05 1.07 1.06 1.15 1.19 1.31 1.34 1.43 1.48 1.59 1.72 1.72 1.67
0.43 0.44 0.40 0.42 0.41 0.38 0.51 0.57 0.61 0.57 0.43 0.60 0.56 0.55 0.55 0.56 0.49 0.67 0.83 0.85 0.82 0.84 0.88 0.86 0.85 0.78 0.76 0.83 0.81 0.92 0.96 1.06 1.05 1.04 1.04 1.20 1.19 1.27 1.28 1.41 1.52 1.64 1.71 1.71
0.31 0.39 0.35 0.38 0.38 0.47 0.63 0.63 0.63 0.46 0.61 0.78 0.74 0.65 0.59 0.60 0.78 0.91 0.92 0.91 0.92 0.87 0.85 0.85 0.79 0.73 0.72 0.75 0.76 0.80 0.90 0.84 0.99 1.06 1.10 1.12 1.21 1.19 1.26 1.35 1.49 1.56 1.58 1.67
0.32 0.32 0.35 0.36 0.35 0.41 0.65 0.60 0.56 0.76 0.86 0.78 0.79 0.80 0.79 0.83 0.87 0.85 0.87 0.86 0.87 0.83 0.83 0.92 0.86 0.79 0.74 0.68 0.70 0.71 0.72 0.80 0.78 0.80 0.95 1.05 1.13 1.19 1.23 1.31 1.41 1.54 1.60 1.55
0.31 0.42 0.38 0.39 0.38 0.53 0.59 0.58 0.65 0.64 0.70 0.78 0.75 0.72 0.76 0.77 0.76 0.75 0.78 0.82 0.80 0.85 0.83 1.00 1.05 0.85 0.76 0.76 0.83 0.73 0.67 0.79 0.80 0.86 0.95 0.95 1.04 1.11 1.18 1.25 1.37 1.46 1.60 1.60
0.41 0.44 0.40 0.38 0.43 0.48 0.53 0.57 0.58 0.60 0.59 0.68 0.70 0.68 0.66 0.69 0.71 0.69 0.72 0.79 0.80 0.80 0.85 1.03 1.16 1.21 1.11 1.11 1.09 1.00 0.93 0.94 0.95 0.88 0.95 1.03 1.05 1.13 1.25 1.31 1.46 1.51 1.55 1.58
0.37 0.41 0.40 0.41 0.44 0.45 0.48 0.51 0.54 0.56 0.58 0.59 0.64 0.66 0.67 0.69 0.71 0.70 0.73 0.75 0.78 0.87 1.00 1.27 1.37 1.37 1.43 1.43 1.27 1.24 1.23 1.12 1.04 1.06 1.09 1.11 1.17 1.24 1.30 1.36 1.51 1.57 1.66 1.72
0.39 0.36 0.34 0.35 0.47 0.49 0.50 0.56 0.59 0.55 0.52 0.55 0.57 0.61 0.70 0.71 0.68 0.67 0.65 0.76 0.84 0.91 1.01 1.30 1.46 1.32 1.33 1.33 1.28 1.30 1.33 1.28 1.20 1.14 1.15 1.18 1.26 1.36 1.40 1.48 1.46 1.65 1.73 1.71

GFSCGP_prec_pwat_045.txt.gz
Precipitable_Water
0.33 0.26 0.19 0.19 0.35 0.43 0.57 0.57 0.56 0.64 0.85 0.77 0.67 0.69 0.86 1.05 1.19 1.20 1.25 1.30 1.29 1.15 1.20 1.24 1.24 1.30 1.30 1.32 1.30 1.28 1.27 1.31 1.33 1.33 1.20 1.20 1.13 1.30 1.41 1.50 1.60 1.59 1.63 1.65
0.35 0.23 0.26 0.30 0.33 0.40 0.50 0.56 0.58 0.60 0.71 0.83 0.78 0.66 0.74 0.99 1.07 1.10 1.28 1.35 1.40 1.29 1.09 1.17 1.15 1.23 1.21 1.22 1.21 1.24 1.26 1.27 1.27 1.29 1.26 1.24 1.25 1.25 1.30 1.42 1.50 1.55 1.59 1.64
0.30 0.29 0.37 0.36 0.30 0.33 0.42 0.49 0.53 0.51 0.54 0.64 0.72 0.64 0.68 0.90 1.07 1.15 1.24 1.32 1.46 1.29 1.08 1.11 1.08 1.09 1.18 1.17 1.16 1.19 1.21 1.26 1.25 1.27 1.33 1.30 1.32 1.34 1.28 1.29 1.30 1.51 1.50 1.54
0.37 0.44 0.44 0.37 0.34 0.36 0.33 0.49 0.53 0.53 0.52 0.49 0.74 0.52 0.67 0.72 0.84 0.99 1.23 1.31 1.18 1.32 1.25 1.16 1.15 1.11 1.11 1.14 1.22 1.22 1.24 1.24 1.25 1.29 1.27 1.19 1.06 1.03 1.15 1.22 1.30 1.30 1.45 1.41
0.35 0.42 0.43 0.39 0.33 0.41 0.38 0.44 0.48 0.52 0.53 0.56 0.61 0.55 0.59 0.66 0.69 0.88 1.01 1.18 1.19 1.35 1.32 1.12 1.21 1.12 1.12 1.18 1.20 1.21 1.23 1.24 1.28 1.26 1.22 1.15 1.06 1.11 1.16 1.26 1.23 1.24 1.30 1.42
0.45 0.62 0.52 0.44 0.44 0.46 0.51 0.44 0.43 0.52 0.55 0.43 0.50 0.55 0.54 0.58 0.59 0.76 0.93 1.09 1.19 1.29 1.30 1.24 1.26 1.22 1.15 1.20 1.25 1.26 1.22 1.22 1.25 1.22 1.20 1.12 1.07 1.08 1.09 1.08 1.13 1.17 1.27 1.37
0.46 0.45 0.59 0.51 0.44 0.46 0.46 0.40 0.27 0.28 0.34 0.34 0.48 0.45 0.50 0.59 0.62 0.69 0.82 0.97 1.13 1.17 1.15 1.19 1.27 1.22 1.16 1.15 1.13 1.19 1.20 1.16 1.20 1.15 1.13 1.18 1.11 1.11 1.02 1.03 1.04 1.14 1.22 1.29
0.36 0.34 0.48 0.57 0.42 0.38 0.34 0.32 0.21 0.16 0.23 0.27 0.40 0.32 0.38 0.53 0.58 0.67 0.80 1.01 1.12 1.09 1.20 1.18 1.27 1.27 1.14 1.18 1.10 1.13 1.13 1.11 1.16 1.16 1.10 1.14 1.25 1.16 1.10 1.05 1.03 1.04 1.16 1.25
0.34 0.34 0.60 0.57 0.44 0.37 0.30 0.23 0.29 0.25 0.26 0.23 0.26 0.31 0.39 0.45 0.50 0.53 0.66 0.92 0.96 1.05 1.19 1.22 1.28 1.27 1.20 1.17 1.12 1.03 1.12 1.16 1.20 1.18 1.18 1.09 1.07 1.16 1.05 1.02 1.08 1.15 1.19 1.26
0.37 0.34 0.53 0.55 0.56 0.38 0.29 0.31 0.21 0.22 0.16 0.15 0.18 0.19 0.17 0.25 0.38 0.47 0.52 0.62 0.84 1.00 1.12 1.21 1.22 1.26 1.21 1.21 1.15 1.08 1.11 1.10 1.14 1.20 1.18 1.06 0.98 1.03 1.15 1.07 0.97 1.05 1.18 1.16
0.50 0.38 0.36 0.48 0.45 0.35 0.26 0.26 0.24 0.21 0.21 0.17 0.17 0.17 0.27 0.29 0.29 0.36 0.48 0.53 0.75 0.94 1.06 1.11 1.18 1.27 1.23 1.03 1.14 1.08 1.04 1.09 1.15 1.17 1.16 1.16 1.11 1.06 1.09 1.14 1.01 1.00 1.16 1.22
0.56 0.44 0.34 0.36 0.42 0.44 0.39 0.27 0.27 0.19 0.16 0.19 0.18 0.19 0.35 0.37 0.35 0.34 0.46 0.52 0.63 0.88 1.01 1.11 1.16 1.25 1.18 1.04 1.12 1.06 1.01 1.00 1.07 1.13 1.13 1.13 1.18 1.18 1.11 1.08 1.11 1.00 1.05 1.17
0.59 0.43 0.34 0.34 0.38 0.44 0.38 0.33 0.30 0.30 0.25 0.18 0.16 0.22 0.35 0.37 0.38 0.36 0.39 0.49 0.59 0.83 0.98 1.08 1.16 1.21 1.17 1.07 1.06 1.16 1.18 1.17 1.14 1.17 1.14 1.14 1.17 1.18 1.15 1.11 1.10 1.13 1.02 1.10
0.66 0.44 0.40 0.34 0.33 0.39 0.36 0.35 0.32 0.29 0.24 0.20 0.19 0.27 0.35 0.41 0.39 0.38 0.43 0.50 0.50 0.67 0.96 1.08 1.14 1.19 1.21 1.10 1.06 1.19 1.26 1.34 1.35 1.35 1.33 1.32 1.30 1.26 1.24 1.23 1.21 1.18 1.20 1.15
0.57 0.38 0.43 0.46 0.45 0.43 0.43 0.40 0.36 0.29 0.28 0.27 0.23 0.29 0.36 0.44 0.46 0.43 0.44 0.45 0.53 0.59 0.78 1.04 1.09 1.17 1.22 1.16 1.00 1.20 1.27 1.35 1.39 1.45 1.47 1.48 1.53 1.50 1.44 1.41 1.40 1.35 1.29 1.30
0.56 0.44 0.48 0.44 0.47 0.48 0.50 0.48 0.39 0.35 0.30 0.30 0.32 0.28 0.42 0.45 0.51 0.52 0.53 0.52 0.57 0.67 0.74 0.97 1.11 1.15 1.19 1.20 1.02 1.25 1.32 1.33 1.42 1.43 1.49 1.60 1.63 1.68 1.62 1.53 1.49 1.48 1.44 1.35
0.50 0.47 0.42 0.36 0.49 0.55 0.48 0.49 0.42 0.39 0.37 0.32 0.28 0.35 0.48 0.46 0.49 0.48 0.53 0.54 0.57 0.64 0.74 0.89 1.01 1.22 1.33 1.38 1.30 1.22 1.28 1.29 1.30 1.34 1.40 1.50 1.63 1.70 1.72 1.73 1.66 1.53 1.50 1.55
0.50 0.46 0.43 0.42 0.52 0.40 0.53 0.63 0.59 0.45 0.41 0.40 0.37 0.47 0.48 0.51 0.60 0.61 0.60 0.57 0.62 0.69 0.73 0.80 0.90 0.97 1.12 1.40 1.59 1.48 1.49 1.42 1.35 1.34 1.40 1.44 1.51 1.52 1.61 1.67 1.65 1.68 1.65 1.57
0.53 0.45 0.40 0.44 0.48 0.52 0.58 0.64 0.58 0.51 0.53 0.65 0.57 0.51 0.56 0.66 0.66 0.73 0.79 0.78 0.78 0.81 0.85 0.88 0.94 0.95 0.97 1.05 1.19 1.48 1.53 1.51 1.46 1.36 1.36 1.41 1.47 1.47 1.52 1.47 1.51 1.63 1.69 1.73
0.48 0.47 0.43 0.47 0.45 0.43 0.62 0.67 0.66 0.62 0.52 0.70 0.74 0.68 0.64 0.66 0.56 0.72 0.86 0.83 0.80 0.87 0.90 0.90 0.90 0.92 0.90 0.96 1.00 1.07 1.11 1.21 1.32 1.40 1.36 1.42 1.46 1.43 1.39 1.40 1.42 1.50 1.59 1.62
0.38 0.44 0.41 0.43 0.46 0.59 0.72 0.69 0.74 0.51 0.60 0.76 0.80 0.83 0.87 0.69 0.76 0.85 0.89 0.86 0.87 0.84 0.84 0.92 0.92 0.92 0.98 0.93 0.96 0.96 1.15 1.22 1.26 1.23 1.23 1.22 1.24 1.25 1.29 1.35 1.45 1.48 1.47 1.51
0.39 0.38 0.39 0.44 0.42 0.47 0.78 0.69 0.59 0.70 0.79 0.79 0.80 0.84 0.77 0.77 0.77 0.78 0.81 0.85 0.85 0.84 0.83 0.89 0.82 0.79 0.92 0.97 0.86 0.79 0.88 1.03 1.10 1.26 1.29 1.19 1.19 1.19 1.24 1.25 1.33 1.43 1.46 1.44
0.41 0.47 0.46 0.49 0.49 0.64 0.72 0.74 0.73 0.72 0.72 0.75 0.75 0.79 0.75 0.73 0.74 0.75 0.76 0.84 0.87 0.87 0.88 0.94 0.93 0.90 0.92 0.95 0.88 0.74 0.82 0.96 1.02 0.94 1.06 1.12 1.12 1.10 1.12 1.15 1.20 1.28 1.38 1.37
0.43 0.51 0.46 0.48 0.56 0.59 0.67 0.75 0.78 0.76 0.77 0.75 0.74 0.71 0.69 0.69 0.72 0.74 0.76 0.85 0.87 0.89 0.87 1.03 1.08 1.06 1.12 1.22 1.15 1.09 1.08 1.07 0.98 0.92 0.98 0.99 0.97 0.99 1.09 1.17 1.19 1.21 1.27 1.30
0.43 0.45 0.44 0.43 0.51 0.57 0.61 0.66 0.73 0.78 0.77 0.79 0.76 0.72 0.68 0.68 0.71 0.74 0.76 0.81 0.83 0.82 0.95 1.03 1.11 1.17 1.27 1.46 1.48 1.45 1.33 1.18 1.06 0.93 0.95 0.96 0.93 1.01 1.12 1.22 1.24 1.28 1.39 1.48
0.46 0.43 0.38 0.35 0.49 0.51 0.56 0.64 0.68 0.71 0.72 0.74 0.74 0.73 0.75 0.73 0.71 0.77 0.77 0.79 0.78 0.80 0.79 0.98 1.06 1.20 1.35 1.40 1.39 1.46 1.45 1.38 1.25 1.18 1.15 1.14 1.10 1.14 1.20 1.19 1.18 1.33 1.46 1.54

GFSCGP_prec_pwat_048.txt.gz
Precipitable_Water
0.30 0.19 0.13 0.17 0.32 0.39 0.48 0.54 0.56 0.68 0.81 0.91 0.83 0.89 0.94 1.11 1.21 1.19 1.18 1.22 1.18 1.11 1.11 1.26 1.27 1.24 1.27 1.31 1.29 1.35 1.35 1.41 1.41 1.36 1.26 1.19 1.22 1.28 1.36 1.47 1.58 1.61 1.58 1.62
0.29 0.19 0.18 0.23 0.31 0.33 0.42 0.47 0.51 0.61 0.74 0.79 0.82 0.81 0.96 1.11 1.07 1.09 1.17 1.28 1.28 1.24 1.16 1.17 1.22 1.24 1.25 1.26 1.27 1.35 1.36 1.40 1.35 1.32 1.26 1.19 1.22 1.27 1.33 1.44 1.51 1.58 1.61 1.66
0.30 0.29 0.30 0.24 0.25 0.26 0.34 0.43 0.45 0.46 0.67 0.74 0.74 0.75 0.91 1.11 1.15 1.16 1.22 1.30 1.28 1.24 1.09 1.09 1.17 1.17 1.26 1.26 1.26 1.29 1.33 1.33 1.31 1.29 1.30 1.22 1.19 1.23 1.20 1.30 1.35 1.48 1.60 1.67
0.38 0.39 0.39 0.26 0.22 0.24 0.23 0.41 0.46 0.47 0.60 0.56 0.66 0.54 0.75 0.89 0.97 1.08 1.11 1.19 1.24 1.26 1.22 1.07 1.18 1.23 1.18 1.22 1.30 1.32 1.33 1.34 1.29 1.30 1.20 1.12 1.00 0.95 1.05 1.13 1.27 1.38 1.53 1.59
0.31 0.38 0.36 0.34 0.23 0.28 0.20 0.39 0.48 0.49 0.56 0.57 0.58 0.52 0.60 0.83 0.89 0.93 0.99 1.06 1.10 1.28 1.23 1.11 1.07 1.23 1.19 1.26 1.29 1.28 1.33 1.32 1.30 1.27 1.23 1.14 1.08 1.05 1.12 1.17 1.22 1.31 1.43 1.47
0.37 0.47 0.45 0.38 0.46 0.40 0.35 0.31 0.47 0.50 0.54 0.43 0.52 0.54 0.57 0.73 0.84 0.90 0.92 0.97 1.05 1.20 1.25 1.20 1.17 1.25 1.24 1.25 1.28 1.26 1.28 1.27 1.30 1.28 1.23 1.13 1.06 1.03 0.99 1.09 1.14 1.21 1.28 1.38
0.34 0.39 0.47 0.55 0.46 0.52 0.45 0.36 0.27 0.33 0.39 0.36 0.51 0.51 0.53 0.75 0.87 0.85 0.89 0.97 1.04 1.12 1.19 1.23 1.15 1.14 1.23 1.17 1.18 1.19 1.19 1.21 1.26 1.25 1.19 1.13 1.07 1.06 0.98 1.01 1.05 1.08 1.16 1.25
0.23 0.26 0.39 0.51 0.52 0.46 0.43 0.41 0.30 0.25 0.29 0.35 0.40 0.39 0.47 0.64 0.74 0.88 0.95 0.95 1.05 1.06 1.18 1.28 1.20 1.16 1.17 1.18 1.20 1.19 1.13 1.11 1.21 1.21 1.16 1.14 1.11 1.11 1.07 1.04 1.05 1.08 1.13 1.21
0.34 0.23 0.46 0.54 0.54 0.57 0.45 0.36 0.44 0.35 0.31 0.31 0.32 0.41 0.49 0.60 0.54 0.73 0.83 1.00 1.05 1.08 1.10 1.19 1.23 1.22 1.19 1.17 1.21 1.17 1.12 1.09 1.16 1.15 1.17 1.18 1.14 1.08 1.03 1.04 1.06 1.05 1.11 1.17
0.50 0.30 0.41 0.50 0.58 0.57 0.47 0.48 0.34 0.34 0.23 0.18 0.25 0.28 0.32 0.44 0.47 0.51 0.63 0.77 0.92 1.07 1.09 1.15 1.21 1.19 1.28 1.21 1.27 1.24 1.21 1.05 1.09 1.19 1.19 1.17 1.13 1.15 1.11 1.08 1.02 1.01 1.02 1.11
0.55 0.43 0.33 0.50 0.47 0.43 0.46 0.41 0.38 0.35 0.31 0.20 0.17 0.20 0.31 0.35 0.45 0.48 0.55 0.72 0.81 1.01 1.08 1.11 1.16 1.22 1.26 1.25 1.29 1.23 1.23 1.15 1.12 1.14 1.17 1.18 1.16 1.13 1.15 1.08 1.02 1.00 1.03 1.06
0.60 0.49 0.37 0.42 0.46 0.50 0.56 0.43 0.37 0.26 0.21 0.23 0.19 0.16 0.29 0.29 0.31 0.40 0.43 0.65 0.73 0.83 1.00 1.11 1.15 1.21 1.26 1.25 1.25 1.19 1.18 1.18 1.09 1.08 1.15 1.17 1.16 1.13 1.05 1.07 1.09 1.05 0.98 1.04
0.61 0.50 0.33 0.33 0.45 0.48 0.44 0.48 0.36 0.29 0.26 0.18 0.16 0.12 0.28 0.32 0.36 0.39 0.39 0.44 0.60 0.77 0.88 1.02 1.19 1.23 1.24 1.21 1.14 1.02 1.08 1.10 1.06 1.07 1.07 1.09 1.13 1.16 1.13 1.07 1.06 1.10 1.04 1.02
0.64 0.50 0.42 0.33 0.40 0.49 0.37 0.37 0.42 0.30 0.23 0.20 0.17 0.19 0.26 0.30 0.32 0.35 0.40 0.38 0.50 0.67 0.76 0.95 1.13 1.18 1.25 1.19 1.11 1.01 1.04 1.17 1.05 1.01 1.01 1.02 1.09 1.17 1.18 1.16 1.11 1.08 1.10 1.04
0.58 0.43 0.46 0.45 0.47 0.47 0.43 0.39 0.36 0.33 0.26 0.22 0.19 0.22 0.28 0.33 0.34 0.43 0.42 0.40 0.52 0.67 0.81 0.96 1.06 1.15 1.25 1.22 1.15 1.15 1.14 1.21 1.29 1.19 1.11 1.03 1.07 1.15 1.21 1.19 1.18 1.13 1.10 1.11
0.58 0.47 0.44 0.38 0.47 0.48 0.43 0.43 0.41 0.37 0.31 0.28 0.26 0.27 0.34 0.36 0.58 0.50 0.47 0.43 0.51 0.65 0.82 0.95 1.05 1.14 1.22 1.21 1.11 1.11 1.14 1.25 1.35 1.34 1.31 1.35 1.36 1.31 1.29 1.30 1.27 1.22 1.16 1.12
0.52 0.49 0.41 0.37 0.50 0.50 0.42 0.46 0.47 0.42 0.36 0.32 0.26 0.31 0.42 0.47 0.61 0.59 0.54 0.54 0.58 0.69 0.80 0.92 0.99 1.03 1.12 1.21 1.20 1.10 1.11 1.34 1.36 1.40 1.48 1.50 1.50 1.51 1.52 1.49 1.44 1.41 1.36 1.32
0.50 0.49 0.43 0.41 0.49 0.37 0.53 0.62 0.60 0.52 0.50 0.50 0.46 0.41 0.48 0.62 0.73 0.74 0.80 0.74 0.73 0.79 0.92 0.99 1.08 1.13 1.25 1.34 1.34 1.23 1.32 1.29 1.33 1.34 1.41 1.48 1.52 1.55 1.65 1.69 1.63 1.56 1.54 1.49
0.55 0.53 0.42 0.42 0.45 0.49 0.57 0.62 0.60 0.53 0.54 0.61 0.57 0.53 0.62 0.68 0.69 0.74 0.86 0.88 0.89 0.91 0.97 1.04 1.15 1.23 1.30 1.39 1.46 1.46 1.44 1.34 1.35 1.33 1.37 1.45 1.47 1.50 1.55 1.56 1.63 1.69 1.70 1.66
0.56 0.58 0.46 0.44 0.46 0.40 0.59 0.72 0.73 0.71 0.49 0.65 0.67 0.69 0.72 0.71 0.53 0.72 0.92 0.97 0.98 1.00 1.04 1.05 1.13 1.15 1.17 1.28 1.47 1.50 1.47 1.40 1.27 1.36 1.39 1.47 1.54 1.52 1.43 1.47 1.52 1.59 1.62 1.63
0.46 0.49 0.42 0.44 0.51 0.59 0.72 0.80 0.78 0.55 0.57 0.71 0.71 0.69 0.68 0.65 0.74 0.86 0.95 0.97 1.03 1.03 1.05 1.11 1.09 1.07 1.13 1.16 1.11 1.25 1.41 1.39 1.46 1.57 1.58 1.55 1.52 1.49 1.50 1.52 1.49 1.46 1.46 1.47
0.44 0.44 0.45 0.47 0.50 0.48 0.79 0.84 0.64 0.69 0.75 0.76 0.71 0.69 0.66 0.69 0.76 0.84 0.88 0.89 0.96 0.98 1.04 1.12 1.14 1.16 1.19 1.14 1.03 1.01 1.10 1.26 1.37 1.44 1.46 1.50 1.54 1.55 1.51 1.42 1.43 1.45 1.44 1.40
0.41 0.49 0.48 0.53 0.54 0.73 0.79 0.85 0.87 0.77 0.76 0.81 0.76 0.75 0.70 0.68 0.72 0.79 0.83 0.84 0.85 0.90 0.98 1.09 1.13 1.21 1.29 1.28 1.13 1.05 1.21 1.30 1.35 1.25 1.29 1.42 1.50 1.47 1.48 1.43 1.38 1.34 1.35 1.31
0.49 0.54 0.49 0.49 0.58 0.66 0.74 0.80 0.88 0.82 0.75 0.82 0.82 0.79 0.77 0.71 0.73 0.80 0.81 0.81 0.79 0.83 0.90 1.03 1.05 1.08 1.14 1.27 1.30 1.25 1.28 1.31 1.28 1.22 1.17 1.23 1.26 1.29 1.35 1.35 1.31 1.23 1.20 1.18
0.50 0.51 0.47 0.45 0.52 0.59 0.70 0.82 0.80 0.87 0.84 0.81 0.77 0.74 0.77 0.79 0.78 0.80 0.79 0.78 0.78 0.80 0.90 0.96 1.01 1.05 1.13 1.21 1.15 1.13 1.17 1.27 1.28 1.23 1.17 1.04 0.99 1.00 1.06 1.16 1.19 1.23 1.27 1.26
0.52 0.47 0.43 0.42 0.55 0.57 0.60 0.72 0.84 0.84 0.82 0.83 0.74 0.69 0.71 0.78 0.81 0.86 0.85 0.83 0.79 0.76 0.84 0.95 1.03 1.06 1.13 1.26 1.22 1.18 1.13 1.11 1.07 1.13 1.20 1.20 1.16 1.11 1.12 1.08 1.07 1.25 1.30 1.36

GFSCGP_prec_pwat_051.txt.gz
Precipitable_Water
0.31 0.21 0.15 0.11 0.20 0.38 0.45 0.52 0.60 0.66 0.77 0.83 0.82 0.90 1.04 1.16 1.19 1.21 1.23 1.12 1.14 1.16 1.17 1.16 1.26 1.33 1.32 1.36 1.24 1.24 1.23 1.30 1.34 1.33 1.30 1.32 1.30 1.41 1.46 1.49 1.56 1.59 1.65 1.70
0.30 0.20 0.20 0.21 0.19 0.28 0.40 0.41 0.51 0.65 0.77 0.79 0.84 0.84 0.99 1.07 1.05 1.13 1.18 1.13 1.17 1.16 1.22 1.08 1.11 1.20 1.22 1.25 1.22 1.22 1.21 1.25 1.33 1.34 1.35 1.32 1.30 1.37 1.42 1.48 1.52 1.56 1.61 1.71
0.29 0.29 0.28 0.24 0.18 0.20 0.30 0.38 0.46 0.52 0.71 0.76 0.80 0.80 0.86 1.06 1.18 1.27 1.29 1.29 1.29 1.21 1.21 1.10 1.03 1.06 1.15 1.13 1.17 1.20 1.22 1.27 1.34 1.37 1.38 1.38 1.36 1.34 1.32 1.34 1.39 1.45 1.58 1.61
0.38 0.36 0.36 0.24 0.20 0.20 0.20 0.34 0.43 0.54 0.56 0.51 0.67 0.48 0.72 0.89 0.99 1.13 1.19 1.26 1.31 1.32 1.32 1.23 1.13 1.00 1.02 1.06 1.19 1.26 1.25 1.27 1.33 1.40 1.34 1.25 1.10 1.00 1.15 1.21 1.30 1.39 1.54 1.56
0.31 0.35 0.35 0.33 0.23 0.24 0.20 0.29 0.38 0.49 0.50 0.52 0.56 0.48 0.57 0.82 0.90 0.95 1.07 1.16 1.27 1.37 1.37 1.25 1.18 1.08 0.98 1.07 1.15 1.25 1.31 1.30 1.31 1.35 1.33 1.20 1.12 1.05 1.09 1.16 1.17 1.31 1.45 1.51
0.36 0.37 0.42 0.36 0.42 0.32 0.30 0.28 0.33 0.47 0.47 0.39 0.49 0.53 0.47 0.65 0.79 0.87 0.96 1.08 1.20 1.30 1.36 1.34 1.25 1.23 1.14 1.08 1.17 1.21 1.27 1.30 1.34 1.31 1.34 1.24 1.14 1.06 0.99 1.00 1.02 1.17 1.31 1.38
0.39 0.38 0.38 0.47 0.39 0.46 0.33 0.26 0.18 0.28 0.35 0.30 0.48 0.50 0.49 0.64 0.74 0.81 0.84 0.94 1.10 1.24 1.30 1.33 1.28 1.18 1.18 1.11 1.11 1.20 1.24 1.24 1.34 1.31 1.32 1.29 1.20 1.14 1.04 0.97 0.98 1.06 1.16 1.26
0.34 0.29 0.38 0.41 0.43 0.37 0.42 0.32 0.22 0.17 0.27 0.31 0.43 0.38 0.47 0.64 0.69 0.86 0.93 0.94 1.07 1.17 1.24 1.29 1.27 1.24 1.17 1.15 1.08 1.16 1.20 1.22 1.29 1.31 1.27 1.30 1.26 1.18 1.10 1.06 1.04 1.09 1.13 1.22
0.36 0.33 0.44 0.46 0.46 0.49 0.41 0.34 0.38 0.27 0.35 0.33 0.33 0.43 0.50 0.60 0.68 0.81 0.86 0.94 1.01 1.10 1.19 1.23 1.36 1.28 1.17 1.13 1.11 1.10 1.16 1.23 1.25 1.24 1.27 1.24 1.24 1.18 1.11 1.09 1.09 1.04 1.16 1.24
0.48 0.32 0.44 0.41 0.50 0.52 0.50 0.52 0.35 0.32 0.21 0.22 0.25 0.32 0.33 0.47 0.56 0.69 0.70 0.79 0.91 1.04 1.17 1.24 1.31 1.30 1.19 1.13 1.16 1.20 1.20 1.18 1.20 1.21 1.24 1.21 1.18 1.19 1.18 1.14 1.04 1.02 1.08 1.17
0.51 0.43 0.39 0.44 0.42 0.40 0.45 0.44 0.43 0.39 0.32 0.23 0.19 0.21 0.35 0.45 0.57 0.60 0.60 0.63 0.73 0.91 1.06 1.15 1.21 1.28 1.29 1.23 1.17 1.21 1.23 1.23 1.25 1.23 1.19 1.19 1.21 1.21 1.20 1.11 1.07 1.05 1.04 1.06
0.49 0.46 0.37 0.37 0.48 0.56 0.54 0.47 0.49 0.35 0.28 0.30 0.27 0.23 0.33 0.38 0.50 0.59 0.65 0.67 0.67 0.76 0.89 1.08 1.16 1.25 1.29 1.26 1.25 1.23 1.22 1.26 1.23 1.21 1.17 1.18 1.20 1.19 1.16 1.11 1.07 1.07 1.02 1.08
0.49 0.44 0.32 0.33 0.43 0.51 0.47 0.48 0.48 0.45 0.42 0.30 0.24 0.20 0.35 0.33 0.36 0.50 0.51 0.54 0.62 0.70 0.82 1.02 1.11 1.20 1.26 1.27 1.23 1.28 1.27 1.22 1.28 1.22 1.20 1.19 1.15 1.12 1.11 1.13 1.13 1.10 1.04 1.04
0.46 0.44 0.39 0.31 0.39 0.51 0.45 0.46 0.47 0.44 0.37 0.31 0.29 0.28 0.29 0.26 0.30 0.40 0.43 0.45 0.51 0.61 0.70 0.91 0.98 1.09 1.23 1.26 1.24 1.25 1.21 1.24 1.28 1.26 1.18 1.12 1.11 1.08 1.09 1.10 1.14 1.15 1.11 1.05
0.38 0.33 0.40 0.42 0.46 0.50 0.48 0.46 0.44 0.43 0.38 0.31 0.28 0.24 0.26 0.27 0.29 0.34 0.39 0.42 0.43 0.45 0.56 0.79 0.90 1.00 1.15 1.25 1.25 1.18 1.10 1.13 1.20 1.15 1.10 1.03 1.06 1.12 1.14 1.14 1.13 1.12 1.13 1.09
0.39 0.35 0.40 0.37 0.43 0.48 0.46 0.49 0.49 0.45 0.44 0.39 0.29 0.25 0.30 0.39 0.43 0.43 0.46 0.45 0.44 0.42 0.53 0.72 0.86 0.96 1.08 1.22 1.22 1.09 1.00 0.97 1.13 1.08 0.96 1.00 1.02 1.06 1.10 1.13 1.14 1.11 1.08 1.09
0.32 0.42 0.38 0.31 0.43 0.48 0.45 0.53 0.52 0.52 0.49 0.43 0.31 0.33 0.44 0.45 0.49 0.56 0.60 0.59 0.46 0.48 0.56 0.73 0.80 0.93 1.04 1.16 1.22 1.06 1.05 1.14 1.21 1.23 1.29 1.23 1.18 1.13 1.12 1.17 1.22 1.20 1.12 1.12
0.35 0.44 0.41 0.37 0.43 0.37 0.57 0.68 0.60 0.52 0.50 0.50 0.48 0.51 0.59 0.58 0.69 0.74 0.88 0.75 0.64 0.61 0.68 0.78 0.87 0.99 1.06 1.22 1.28 1.17 1.21 1.22 1.28 1.35 1.41 1.46 1.47 1.44 1.46 1.46 1.42 1.40 1.41 1.33
0.46 0.47 0.39 0.39 0.40 0.54 0.60 0.66 0.60 0.51 0.47 0.53 0.53 0.61 0.71 0.73 0.72 0.77 0.97 0.96 0.90 0.89 0.90 0.94 1.01 1.06 1.15 1.23 1.33 1.25 1.21 1.28 1.31 1.33 1.44 1.54 1.56 1.55 1.62 1.61 1.58 1.59 1.56 1.52
0.52 0.52 0.45 0.45 0.43 0.41 0.61 0.71 0.73 0.66 0.44 0.59 0.60 0.62 0.66 0.71 0.54 0.75 1.02 1.11 1.08 1.07 1.07 1.04 1.09 1.14 1.21 1.34 1.42 1.33 1.20 1.29 1.15 1.33 1.39 1.55 1.62 1.61 1.58 1.63 1.64 1.70 1.74 1.72
0.40 0.42 0.40 0.44 0.45 0.57 0.75 0.75 0.76 0.49 0.50 0.64 0.65 0.65 0.66 0.68 0.75 0.89 1.04 1.10 1.15 1.16 1.14 1.18 1.18 1.20 1.26 1.34 1.40 1.35 1.37 1.33 1.33 1.26 1.44 1.60 1.65 1.64 1.70 1.73 1.72 1.66 1.63 1.66
0.40 0.40 0.42 0.47 0.46 0.47 0.79 0.76 0.61 0.66 0.71 0.67 0.67 0.67 0.66 0.73 0.82 0.87 0.95 1.03 1.11 1.15 1.19 1.25 1.26 1.30 1.32 1.39 1.46 1.44 1.47 1.55 1.61 1.56 1.41 1.55 1.61 1.64 1.66 1.62 1.61 1.59 1.54 1.46
0.39 0.48 0.45 0.50 0.50 0.75 0.80 0.77 0.79 0.79 0.71 0.69 0.70 0.70 0.69 0.74 0.79 0.83 0.88 0.94 1.00 1.08 1.17 1.29 1.31 1.34 1.37 1.40 1.41 1.40 1.53 1.60 1.53 1.51 1.50 1.56 1.63 1.64 1.64 1.61 1.62 1.53 1.53 1.45
0.53 0.59 0.51 0.51 0.59 0.67 0.73 0.77 0.85 0.86 0.76 0.76 0.76 0.74 0.72 0.72 0.79 0.82 0.84 0.88 0.93 1.05 1.13 1.21 1.26 1.24 1.29 1.40 1.40 1.42 1.53 1.60 1.58 1.52 1.46 1.47 1.45 1.51 1.60 1.61 1.56 1.54 1.48 1.41
0.52 0.57 0.53 0.55 0.63 0.65 0.72 0.80 0.84 0.88 0.89 0.80 0.78 0.73 0.72 0.75 0.77 0.82 0.83 0.84 0.89 0.96 1.14 1.22 1.21 1.22 1.28 1.41 1.34 1.34 1.33 1.31 1.27 1.34 1.38 1.39 1.40 1.35 1.37 1.48 1.51 1.49 1.53 1.48
0.55 0.51 0.49 0.51 0.68 0.69 0.71 0.85 0.90 0.90 0.95 0.90 0.77 0.69 0.72 0.75 0.75 0.82 0.82 0.85 0.83 0.88 0.98 1.10 1.18 1.17 1.16 1.23 1.32 1.33 1.29 1.20 1.10 1.05 1.09 1.18 1.23 1.31 1.30 1.26 1.21 1.29 1.30 1.34

GFSCGP_prec_pwat_054.txt.gz
Precipitable_Water
0.34 0.25 0.16 0.15 0.17 0.27 0.38 0.44 0.54 0.73 0.88 0.85 0.87 0.98 1.07 1.23 1.23 1.17 1.14 1.12 1.02 1.06 1.14 1.21 1.32 1.34 1.36 1.36 1.27 1.25 1.14 1.06 1.14 1.15 1.21 1.30 1.26 1.44 1.48 1.48 1.55 1.57 1.67 1.70
0.31 0.22 0.26 0.24 0.21 0.20 0.33 0.36 0.46 0.68 0.84 0.81 0.77 0.81 1.06 1.12 1.10 1.16 1.14 1.20 1.13 1.12 1.19 1.21 1.17 1.26 1.27 1.26 1.25 1.29 1.17 1.08 1.16 1.20 1.26 1.32 1.35 1.39 1.49 1.53 1.52 1.57 1.64 1.67
0.28 0.28 0.31 0.27 0.22 0.16 0.19 0.31 0.37 0.49 0.72 0.76 0.72 0.68 0.87 1.07 1.16 1.25 1.25 1.29 1.33 1.15 1.16 1.19 1.08 1.13 1.23 1.25 1.25 1.27 1.21 1.16 1.23 1.26 1.34 1.36 1.41 1.43 1.40 1.42 1.46 1.53 1.62 1.64
0.36 0.36 0.33 0.28 0.23 0.21 0.11 0.24 0.40 0.43 0.53 0.51 0.72 0.43 0.70 0.90 0.95 1.07 1.17 1.21 1.26 1.29 1.23 1.24 1.15 1.06 1.12 1.18 1.31 1.28 1.23 1.22 1.26 1.33 1.27 1.27 1.21 1.15 1.25 1.35 1.40 1.46 1.58 1.57
0.35 0.36 0.34 0.29 0.27 0.26 0.18 0.18 0.27 0.44 0.46 0.50 0.56 0.51 0.58 0.81 0.75 0.87 1.04 1.16 1.25 1.36 1.26 1.23 1.12 1.05 1.07 1.16 1.23 1.24 1.23 1.22 1.28 1.30 1.30 1.26 1.24 1.30 1.32 1.31 1.33 1.36 1.45 1.51
0.37 0.45 0.42 0.38 0.37 0.36 0.31 0.29 0.21 0.33 0.43 0.37 0.45 0.48 0.41 0.58 0.66 0.79 1.00 1.12 1.23 1.31 1.36 1.30 1.23 1.21 1.10 1.15 1.18 1.21 1.20 1.17 1.24 1.32 1.36 1.29 1.23 1.21 1.19 1.20 1.18 1.21 1.27 1.35
0.36 0.36 0.41 0.44 0.38 0.42 0.38 0.24 0.19 0.17 0.26 0.26 0.45 0.47 0.43 0.53 0.65 0.76 0.85 1.00 1.16 1.26 1.34 1.34 1.28 1.15 1.14 1.07 1.09 1.15 1.17 1.15 1.20 1.23 1.28 1.30 1.26 1.23 1.15 1.13 1.07 1.06 1.12 1.16
0.26 0.25 0.38 0.44 0.38 0.37 0.38 0.32 0.18 0.13 0.13 0.22 0.39 0.36 0.42 0.54 0.62 0.83 0.93 0.99 1.11 1.20 1.29 1.33 1.32 1.27 1.21 1.16 1.08 1.11 1.10 1.14 1.19 1.18 1.21 1.26 1.29 1.26 1.21 1.19 1.13 1.02 1.00 1.07
0.28 0.26 0.45 0.47 0.47 0.44 0.39 0.34 0.33 0.23 0.24 0.19 0.28 0.38 0.50 0.53 0.62 0.76 0.84 0.90 0.97 1.09 1.20 1.29 1.36 1.35 1.25 1.25 1.16 1.08 1.08 1.12 1.17 1.16 1.20 1.26 1.30 1.28 1.24 1.22 1.21 1.12 1.05 1.04
0.33 0.26 0.39 0.48 0.50 0.48 0.43 0.47 0.36 0.29 0.16 0.14 0.20 0.27 0.33 0.41 0.55 0.72 0.74 0.78 0.90 1.04 1.14 1.24 1.35 1.40 1.30 1.29 1.26 1.18 1.13 1.09 1.14 1.18 1.19 1.22 1.26 1.26 1.26 1.26 1.20 1.16 1.11 1.10
0.28 0.30 0.31 0.41 0.42 0.38 0.39 0.41 0.44 0.38 0.27 0.16 0.16 0.19 0.39 0.39 0.49 0.65 0.73 0.80 0.85 0.94 1.02 1.12 1.20 1.37 1.37 1.39 1.26 1.23 1.17 1.15 1.17 1.21 1.21 1.20 1.21 1.25 1.25 1.23 1.25 1.21 1.15 1.10
0.32 0.29 0.27 0.31 0.46 0.52 0.49 0.44 0.45 0.38 0.30 0.27 0.27 0.21 0.34 0.41 0.43 0.58 0.69 0.81 0.82 0.82 0.87 0.99 1.11 1.27 1.32 1.31 1.27 1.17 1.23 1.21 1.21 1.21 1.24 1.21 1.20 1.22 1.20 1.21 1.23 1.24 1.13 1.12
0.34 0.27 0.20 0.26 0.35 0.49 0.45 0.47 0.47 0.46 0.46 0.35 0.25 0.25 0.38 0.41 0.39 0.45 0.58 0.73 0.76 0.76 0.83 0.91 1.05 1.12 1.20 1.26 1.27 1.23 1.22 1.23 1.23 1.27 1.26 1.25 1.23 1.20 1.16 1.19 1.21 1.21 1.19 1.13
0.39 0.25 0.20 0.23 0.32 0.44 0.40 0.45 0.47 0.45 0.39 0.38 0.36 0.32 0.32 0.35 0.37 0.42 0.50 0.56 0.62 0.74 0.80 0.82 0.89 1.03 1.13 1.22 1.27 1.25 1.27 1.28 1.25 1.27 1.25 1.21 1.21 1.19 1.15 1.17 1.18 1.17 1.20 1.15
0.33 0.19 0.20 0.27 0.41 0.45 0.41 0.43 0.46 0.43 0.44 0.37 0.39 0.36 0.39 0.36 0.38 0.39 0.45 0.55 0.58 0.56 0.63 0.73 0.78 0.92 1.09 1.16 1.27 1.33 1.34 1.34 1.28 1.18 1.22 1.20 1.23 1.22 1.19 1.17 1.15 1.19 1.17 1.14
0.36 0.20 0.24 0.21 0.37 0.40 0.39 0.44 0.48 0.46 0.46 0.45 0.42 0.37 0.48 0.51 0.46 0.48 0.54 0.55 0.58 0.53 0.54 0.62 0.67 0.82 0.98 1.10 1.18 1.26 1.31 1.33 1.29 1.16 1.18 1.23 1.23 1.20 1.14 1.10 1.10 1.14 1.17 1.17
0.30 0.26 0.24 0.21 0.36 0.38 0.35 0.42 0.49 0.51 0.52 0.51 0.41 0.41 0.49 0.51 0.51 0.50 0.50 0.54 0.58 0.60 0.58 0.55 0.69 0.76 0.88 1.01 1.16 1.17 1.23 1.29 1.18 1.16 1.16 1.16 1.14 1.10 1.11 1.13 1.12 1.10 1.08 1.13
0.29 0.28 0.30 0.30 0.37 0.28 0.47 0.59 0.58 0.55 0.57 0.58 0.59 0.59 0.66 0.66 0.69 0.69 0.68 0.62 0.63 0.64 0.59 0.55 0.55 0.73 0.86 1.00 1.17 1.25 1.27 1.15 0.89 0.94 1.02 1.00 0.96 0.99 1.08 1.12 1.10 1.09 1.11 1.07
0.33 0.30 0.28 0.32 0.35 0.47 0.54 0.60 0.58 0.56 0.53 0.65 0.63 0.65 0.68 0.73 0.76 0.76 0.81 0.83 0.76 0.79 0.83 0.82 0.77 0.86 1.02 1.04 1.21 1.25 1.17 1.12 1.09 1.09 1.19 1.27 1.31 1.28 1.27 1.23 1.25 1.29 1.30 1.29
0.35 0.38 0.33 0.37 0.35 0.36 0.54 0.63 0.73 0.69 0.49 0.70 0.70 0.67 0.66 0.71 0.53 0.61 0.83 0.90 0.97 0.96 0.96 0.92 0.92 0.97 1.06 1.14 1.23 1.29 1.10 1.10 1.06 1.22 1.28 1.41 1.48 1.48 1.47 1.51 1.54 1.62 1.64 1.57
0.31 0.33 0.31 0.36 0.38 0.47 0.65 0.69 0.74 0.49 0.51 0.72 0.72 0.68 0.66 0.60 0.64 0.76 0.89 1.01 1.12 1.04 1.01 1.08 1.07 1.02 1.12 1.19 1.28 1.29 1.13 1.07 1.22 1.34 1.46 1.54 1.60 1.60 1.66 1.71 1.75 1.74 1.74 1.73
0.34 0.32 0.35 0.41 0.40 0.37 0.71 0.67 0.57 0.65 0.73 0.74 0.74 0.71 0.66 0.68 0.75 0.84 0.91 1.06 1.18 1.17 1.13 1.17 1.24 1.27 1.32 1.36 1.36 1.33 1.24 1.29 1.42 1.43 1.43 1.54 1.64 1.67 1.71 1.71 1.78 1.81 1.76 1.67
0.36 0.42 0.39 0.44 0.46 0.66 0.74 0.72 0.74 0.79 0.76 0.74 0.76 0.73 0.72 0.72 0.79 0.87 0.91 1.03 1.19 1.22 1.25 1.33 1.33 1.36 1.41 1.48 1.51 1.45 1.53 1.55 1.49 1.45 1.43 1.44 1.59 1.71 1.73 1.70 1.71 1.67 1.71 1.56
0.50 0.57 0.49 0.53 0.58 0.66 0.71 0.77 0.81 0.82 0.80 0.82 0.82 0.76 0.73 0.74 0.80 0.86 0.92 0.98 1.11 1.23 1.27 1.35 1.32 1.30 1.33 1.56 1.69 1.72 1.75 1.63 1.59 1.57 1.60 1.59 1.46 1.54 1.70 1.75 1.74 1.61 1.55 1.50
0.52 0.56 0.51 0.53 0.63 0.70 0.75 0.80 0.86 0.85 0.86 0.86 0.86 0.79 0.74 0.75 0.77 0.82 0.88 0.94 1.03 1.09 1.18 1.23 1.20 1.20 1.28 1.50 1.66 1.71 1.71 1.73 1.68 1.70 1.70 1.67 1.58 1.54 1.53 1.63 1.63 1.59 1.67 1.65
0.57 0.54 0.51 0.49 0.65 0.69 0.76 0.83 0.89 0.86 0.84 0.85 0.82 0.82 0.80 0.78 0.77 0.78 0.80 0.88 0.95 1.00 1.08 1.09 1.10 1.12 1.15 1.24 1.42 1.56 1.60 1.58 1.46 1.42 1.45 1.54 1.58 1.59 1.49 1.40 1.37 1.52 1.54 1.59

GFSCGP_prec_pwat_057.txt.gz
Precipitable_Water
0.31 0.24 0.21 0.21 0.21 0.21 0.30 0.38 0.44 0.79 0.98 0.89 0.85 0.89 1.06 1.22 1.20 1.13 1.17 1.16 1.05 1.00 1.17 1.32 1.35 1.37 1.39 1.39 1.28 1.18 1.08 1.08 1.15 1.16 1.18 1.29 1.29 1.42 1.55 1.58 1.63 1.66 1.71 1.76
0.28 0.20 0.26 0.29 0.24 0.20 0.21 0.31 0.40 0.62 0.86 0.91 0.84 0.84 1.03 1.16 1.15 1.15 1.17 1.18 1.15 1.04 1.12 1.15 1.29 1.32 1.34 1.36 1.33 1.23 1.14 1.08 1.10 1.13 1.22 1.31 1.32 1.41 1.53 1.57 1.55 1.65 1.66 1.71
0.26 0.27 0.31 0.28 0.25 0.20 0.17 0.21 0.32 0.45 0.68 0.81 0.83 0.78 0.90 1.11 1.19 1.23 1.22 1.28 1.28 1.20 1.03 1.13 1.15 1.22 1.30 1.31 1.35 1.27 1.22 1.18 1.09 1.15 1.23 1.31 1.37 1.40 1.42 1.46 1.46 1.59 1.67 1.67
0.32 0.37 0.32 0.29 0.25 0.25 0.17 0.19 0.29 0.39 0.48 0.48 0.78 0.52 0.73 0.90 0.98 1.06 1.13 1.20 1.22 1.23 1.24 1.14 1.17 1.12 1.21 1.29 1.38 1.37 1.31 1.28 1.17 1.16 1.14 1.18 1.14 1.14 1.28 1.38 1.47 1.58 1.65 1.64
0.30 0.30 0.32 0.29 0.29 0.30 0.23 0.22 0.16 0.32 0.41 0.47 0.54 0.57 0.61 0.75 0.83 0.91 1.05 1.16 1.23 1.30 1.32 1.24 1.12 1.08 1.13 1.31 1.32 1.34 1.36 1.36 1.22 1.16 1.18 1.22 1.21 1.24 1.31 1.36 1.40 1.50 1.54 1.58
0.35 0.45 0.39 0.36 0.37 0.36 0.33 0.28 0.23 0.16 0.29 0.31 0.42 0.47 0.47 0.59 0.68 0.86 1.05 1.13 1.19 1.29 1.38 1.44 1.31 1.19 1.10 1.22 1.32 1.33 1.34 1.35 1.28 1.23 1.24 1.23 1.23 1.25 1.28 1.29 1.26 1.34 1.42 1.47
0.27 0.31 0.40 0.44 0.36 0.39 0.35 0.28 0.20 0.16 0.12 0.16 0.35 0.42 0.42 0.57 0.72 0.87 0.90 1.03 1.12 1.27 1.34 1.39 1.38 1.16 1.07 1.05 1.15 1.26 1.30 1.28 1.29 1.26 1.24 1.27 1.26 1.28 1.26 1.28 1.24 1.22 1.26 1.32
0.17 0.15 0.31 0.41 0.39 0.36 0.33 0.33 0.21 0.16 0.11 0.10 0.25 0.28 0.36 0.58 0.64 0.82 0.93 1.00 1.11 1.20 1.31 1.34 1.38 1.33 1.12 1.04 1.01 1.10 1.19 1.22 1.23 1.24 1.25 1.29 1.32 1.29 1.28 1.30 1.27 1.22 1.21 1.23
0.20 0.18 0.35 0.40 0.46 0.43 0.38 0.30 0.33 0.25 0.25 0.16 0.14 0.25 0.39 0.51 0.58 0.71 0.79 0.95 0.99 1.12 1.21 1.25 1.34 1.41 1.34 1.20 1.05 1.01 1.06 1.14 1.20 1.19 1.23 1.27 1.32 1.30 1.25 1.26 1.29 1.25 1.27 1.26
0.23 0.14 0.27 0.35 0.44 0.46 0.41 0.42 0.34 0.33 0.18 0.14 0.18 0.17 0.17 0.31 0.45 0.58 0.73 0.81 0.93 1.07 1.13 1.21 1.26 1.32 1.40 1.32 1.29 1.19 1.08 1.06 1.12 1.19 1.20 1.23 1.25 1.28 1.27 1.29 1.24 1.24 1.25 1.26
0.28 0.20 0.17 0.30 0.32 0.33 0.39 0.39 0.40 0.39 0.30 0.18 0.16 0.19 0.27 0.27 0.38 0.47 0.61 0.75 0.88 0.98 1.03 1.12 1.19 1.23 1.32 1.41 1.34 1.29 1.22 1.12 1.16 1.20 1.20 1.20 1.22 1.28 1.31 1.29 1.28 1.25 1.27 1.28
0.33 0.25 0.15 0.17 0.37 0.47 0.47 0.44 0.40 0.35 0.31 0.31 0.27 0.21 0.32 0.33 0.34 0.42 0.54 0.74 0.89 0.94 0.99 1.08 1.17 1.27 1.30 1.33 1.38 1.31 1.28 1.22 1.18 1.21 1.22 1.21 1.24 1.26 1.27 1.26 1.27 1.29 1.23 1.28
0.36 0.27 0.16 0.11 0.21 0.39 0.41 0.46 0.46 0.42 0.44 0.35 0.29 0.24 0.33 0.38 0.39 0.48 0.54 0.71 0.85 0.94 0.99 1.03 1.08 1.15 1.27 1.26 1.33 1.36 1.30 1.22 1.19 1.26 1.24 1.23 1.24 1.24 1.23 1.24 1.26 1.28 1.26 1.23
0.40 0.27 0.19 0.14 0.20 0.37 0.38 0.43 0.46 0.42 0.35 0.37 0.39 0.38 0.33 0.30 0.36 0.42 0.56 0.61 0.67 0.81 0.93 1.00 1.06 1.08 1.14 1.24 1.29 1.28 1.34 1.33 1.28 1.21 1.23 1.20 1.19 1.20 1.21 1.24 1.24 1.24 1.24 1.19
0.38 0.22 0.22 0.19 0.22 0.29 0.33 0.38 0.42 0.39 0.40 0.35 0.39 0.42 0.44 0.42 0.37 0.41 0.55 0.58 0.59 0.69 0.77 0.86 0.93 0.98 1.02 1.12 1.28 1.32 1.32 1.40 1.37 1.28 1.21 1.21 1.22 1.23 1.26 1.27 1.25 1.23 1.21 1.16
0.40 0.25 0.24 0.16 0.18 0.25 0.26 0.36 0.40 0.41 0.41 0.41 0.42 0.42 0.52 0.54 0.54 0.50 0.55 0.61 0.64 0.69 0.79 0.75 0.88 0.91 0.94 1.03 1.08 1.28 1.30 1.31 1.39 1.33 1.26 1.22 1.24 1.24 1.24 1.28 1.26 1.21 1.15 1.16
0.32 0.27 0.22 0.13 0.25 0.26 0.23 0.32 0.37 0.42 0.46 0.43 0.38 0.46 0.58 0.57 0.58 0.52 0.53 0.59 0.65 0.71 0.78 0.79 0.76 0.83 0.85 0.95 1.05 1.13 1.28 1.37 1.38 1.38 1.35 1.28 1.22 1.22 1.22 1.24 1.21 1.15 1.12 1.17
0.31 0.28 0.27 0.16 0.23 0.15 0.27 0.46 0.47 0.48 0.51 0.54 0.53 0.57 0.64 0.68 0.72 0.67 0.68 0.65 0.66 0.74 0.78 0.82 0.85 0.81 0.89 0.95 1.11 1.21 1.34 1.36 1.39 1.37 1.38 1.33 1.23 1.25 1.21 1.17 1.12 1.12 1.17 1.16
0.35 0.30 0.22 0.18 0.25 0.33 0.40 0.46 0.52 0.50 0.49 0.59 0.56 0.61 0.68 0.74 0.80 0.71 0.74 0.75 0.72 0.78 0.88 0.89 0.93 0.87 0.78 0.94 1.07 1.12 1.27 1.31 1.34 1.28 1.26 1.23 1.24 1.18 1.15 1.08 1.06 1.11 1.13 1.13
0.36 0.36 0.25 0.23 0.23 0.23 0.42 0.55 0.68 0.67 0.46 0.63 0.65 0.66 0.73 0.79 0.60 0.64 0.82 0.83 0.87 0.93 1.00 0.95 1.00 0.90 0.75 0.96 1.08 1.06 1.20 1.25 1.18 0.94 0.96 1.05 1.00 0.94 0.93 0.99 1.04 1.11 1.14 1.11
0.26 0.28 0.22 0.26 0.25 0.33 0.56 0.66 0.71 0.46 0.48 0.68 0.71 0.72 0.77 0.70 0.70 0.86 0.96 0.95 0.99 1.01 1.04 1.10 0.95 0.88 0.88 0.97 1.06 1.06 1.22 1.22 1.12 1.16 1.18 1.21 1.28 1.29 1.33 1.35 1.37 1.39 1.41 1.45
0.24 0.23 0.25 0.29 0.27 0.27 0.63 0.66 0.55 0.65 0.70 0.73 0.76 0.77 0.79 0.79 0.81 0.91 0.96 1.00 1.01 1.01 1.11 1.18 1.12 1.10 1.15 1.11 1.14 1.15 1.26 1.35 1.28 1.30 1.33 1.36 1.46 1.52 1.56 1.54 1.58 1.62 1.63 1.61
0.34 0.38 0.37 0.41 0.42 0.61 0.68 0.68 0.73 0.77 0.74 0.76 0.77 0.81 0.84 0.82 0.82 0.90 0.95 1.02 1.04 1.05 1.16 1.20 1.25 1.26 1.35 1.36 1.36 1.34 1.47 1.45 1.36 1.37 1.38 1.48 1.57 1.61 1.63 1.62 1.63 1.67 1.74 1.68
0.48 0.55 0.45 0.47 0.56 0.61 0.69 0.75 0.77 0.81 0.78 0.82 0.85 0.84 0.86 0.83 0.84 0.87 0.94 1.03 1.06 1.13 1.15 1.16 1.26 1.26 1.34 1.49 1.53 1.58 1.65 1.52 1.43 1.42 1.47 1.52 1.54 1.57 1.68 1.74 1.74 1.71 1.70 1.74
0.49 0.53 0.49 0.51 0.60 0.65 0.70 0.75 0.80 0.83 0.86 0.88 0.89 0.87 0.86 0.87 0.84 0.87 0.91 1.00 1.04 1.12 1.19 1.14 1.15 1.17 1.29 1.47 1.63 1.69 1.79 1.73 1.54 1.55 1.59 1.61 1.63 1.60 1.66 1.76 1.80 1.70 1.73 1.84
0.55 0.52 0.47 0.46 0.63 0.65 0.67 0.77 0.83 0.82 0.84 0.89 0.89 0.89 0.93 0.91 0.85 0.87 0.90 0.98 0.97 1.03 1.20 1.17 1.14 1.15 1.21 1.34 1.49 1.65 1.79 1.88 1.73 1.62 1.68 1.72 1.83 1.83 1.72 1.72 1.71 1.80 1.85 1.88

GFSCGP_prec_pwat_060.txt.gz
Precipitable_Water
0.30 0.27 0.20 0.23 0.24 0.22 0.24 0.29 0.34 0.66 1.01 0.99 0.98 1.01 1.13 1.19 1.19 1.12 1.05 1.07 1.03 1.16 1.32 1.37 1.35 1.32 1.28 1.32 1.27 1.19 1.15 1.27 1.34 1.33 1.38 1.45 1.52 1.62 1.67 1.72 1.73 1.74 1.79 1.80
0.27 0.20 0.27 0.30 0.27 0.25 0.21 0.26 0.35 0.46 0.83 0.98 0.97 0.92 1.05 1.19 1.17 1.15 1.14 1.15 1.05 1.09 1.22 1.29 1.34 1.29 1.25 1.27 1.26 1.22 1.15 1.21 1.27 1.30 1.36 1.41 1.49 1.59 1.63 1.67 1.66 1.72 1.72 1.75
0.23 0.26 0.28 0.26 0.27 0.25 0.21 0.17 0.28 0.40 0.58 0.83 0.96 0.84 0.91 1.09 1.24 1.21 1.28 1.28 1.28 1.13 1.08 1.17 1.25 1.27 1.28 1.26 1.28 1.24 1.20 1.17 1.23 1.23 1.29 1.42 1.49 1.53 1.52 1.54 1.54 1.63 1.67 1.69
0.27 0.32 0.29 0.26 0.25 0.25 0.20 0.21 0.19 0.33 0.45 0.46 0.84 0.60 0.76 0.91 1.07 1.14 1.22 1.23 1.23 1.26 1.22 1.14 1.18 1.21 1.24 1.27 1.37 1.36 1.30 1.23 1.21 1.20 1.18 1.25 1.23 1.17 1.31 1.44 1.50 1.56 1.66 1.67
0.30 0.27 0.30 0.26 0.28 0.29 0.24 0.26 0.22 0.19 0.34 0.45 0.57 0.60 0.70 0.85 0.89 1.05 1.14 1.18 1.21 1.27 1.27 1.22 1.13 1.18 1.25 1.35 1.34 1.41 1.41 1.32 1.24 1.18 1.16 1.20 1.21 1.25 1.37 1.43 1.49 1.55 1.60 1.66
0.31 0.45 0.36 0.32 0.35 0.35 0.33 0.28 0.25 0.22 0.16 0.23 0.39 0.48 0.54 0.78 0.81 0.94 1.11 1.16 1.20 1.25 1.30 1.35 1.38 1.29 1.24 1.34 1.38 1.39 1.41 1.31 1.30 1.26 1.14 1.17 1.16 1.26 1.31 1.37 1.39 1.44 1.47 1.54
0.23 0.25 0.34 0.42 0.34 0.37 0.32 0.27 0.21 0.18 0.13 0.08 0.23 0.36 0.46 0.67 0.87 0.91 0.97 1.10 1.20 1.28 1.29 1.32 1.36 1.30 1.20 1.16 1.27 1.37 1.37 1.32 1.32 1.28 1.22 1.13 1.17 1.30 1.32 1.33 1.32 1.37 1.37 1.43
0.19 0.16 0.22 0.33 0.37 0.32 0.30 0.29 0.21 0.16 0.15 0.12 0.13 0.19 0.33 0.62 0.77 0.88 0.94 1.12 1.24 1.28 1.32 1.35 1.38 1.38 1.31 1.18 1.16 1.27 1.30 1.29 1.33 1.27 1.24 1.15 1.23 1.30 1.37 1.40 1.38 1.35 1.37 1.36
0.20 0.17 0.33 0.35 0.38 0.41 0.36 0.29 0.30 0.24 0.25 0.19 0.16 0.14 0.29 0.48 0.58 0.70 0.78 1.00 1.08 1.15 1.24 1.30 1.41 1.48 1.39 1.26 1.12 1.11 1.22 1.29 1.30 1.29 1.30 1.20 1.25 1.29 1.34 1.39 1.40 1.36 1.36 1.37
0.23 0.14 0.24 0.35 0.39 0.36 0.40 0.40 0.29 0.30 0.21 0.18 0.22 0.18 0.15 0.34 0.44 0.56 0.64 0.80 0.95 1.10 1.19 1.28 1.36 1.45 1.49 1.39 1.28 1.19 1.17 1.20 1.26 1.31 1.32 1.22 1.22 1.29 1.35 1.40 1.38 1.37 1.34 1.35
0.27 0.21 0.15 0.21 0.25 0.24 0.29 0.32 0.40 0.35 0.30 0.20 0.20 0.21 0.25 0.24 0.30 0.45 0.58 0.78 0.83 1.04 1.13 1.20 1.31 1.39 1.47 1.53 1.47 1.30 1.20 1.12 1.16 1.24 1.30 1.22 1.20 1.26 1.34 1.37 1.38 1.38 1.38 1.34
0.33 0.25 0.19 0.17 0.25 0.41 0.40 0.40 0.37 0.34 0.29 0.28 0.28 0.25 0.35 0.34 0.32 0.40 0.55 0.71 0.81 0.92 1.05 1.19 1.27 1.34 1.39 1.40 1.43 1.40 1.32 1.20 1.11 1.17 1.21 1.17 1.18 1.19 1.26 1.30 1.33 1.37 1.36 1.36
0.39 0.24 0.18 0.17 0.17 0.24 0.26 0.35 0.42 0.43 0.41 0.33 0.29 0.28 0.42 0.44 0.45 0.38 0.44 0.63 0.78 0.86 0.92 1.14 1.25 1.29 1.35 1.36 1.36 1.33 1.38 1.30 1.23 1.17 1.13 1.11 1.12 1.16 1.20 1.23 1.31 1.37 1.38 1.36
0.37 0.26 0.24 0.17 0.22 0.26 0.32 0.38 0.45 0.42 0.37 0.35 0.37 0.40 0.42 0.42 0.42 0.47 0.55 0.61 0.70 0.83 0.94 1.09 1.18 1.18 1.34 1.41 1.39 1.36 1.39 1.42 1.36 1.26 1.17 1.10 1.06 1.09 1.15 1.21 1.28 1.33 1.37 1.33
0.39 0.27 0.28 0.26 0.25 0.25 0.25 0.29 0.32 0.32 0.41 0.37 0.39 0.42 0.50 0.47 0.42 0.45 0.53 0.63 0.63 0.64 0.78 0.98 1.11 1.16 1.24 1.33 1.39 1.37 1.42 1.50 1.43 1.35 1.22 1.16 1.16 1.17 1.20 1.23 1.28 1.32 1.34 1.32
0.43 0.31 0.30 0.25 0.23 0.20 0.19 0.23 0.28 0.31 0.39 0.41 0.44 0.44 0.55 0.63 0.62 0.63 0.61 0.70 0.69 0.74 0.83 0.88 1.08 1.16 1.22 1.23 1.30 1.40 1.38 1.40 1.46 1.38 1.28 1.27 1.24 1.24 1.24 1.27 1.28 1.30 1.28 1.28
0.38 0.33 0.28 0.22 0.22 0.22 0.19 0.21 0.27 0.30 0.37 0.40 0.36 0.45 0.56 0.57 0.64 0.68 0.61 0.64 0.68 0.74 0.83 0.91 0.97 1.03 1.13 1.17 1.24 1.24 1.39 1.47 1.42 1.40 1.39 1.39 1.35 1.24 1.24 1.25 1.27 1.26 1.23 1.26
0.37 0.35 0.31 0.23 0.25 0.15 0.14 0.19 0.27 0.29 0.38 0.44 0.47 0.50 0.54 0.63 0.81 0.85 0.74 0.66 0.70 0.79 0.83 0.91 0.96 0.99 1.02 1.11 1.14 1.28 1.45 1.51 1.43 1.41 1.46 1.45 1.42 1.39 1.33 1.31 1.25 1.27 1.28 1.24
0.38 0.35 0.26 0.21 0.20 0.19 0.28 0.48 0.43 0.45 0.35 0.53 0.53 0.56 0.59 0.64 0.87 0.86 0.82 0.80 0.79 0.91 0.96 1.01 1.06 1.04 1.10 1.06 1.11 1.20 1.25 1.39 1.47 1.42 1.42 1.45 1.45 1.41 1.41 1.32 1.29 1.29 1.27 1.21
0.36 0.37 0.31 0.24 0.21 0.18 0.37 0.51 0.56 0.53 0.35 0.56 0.55 0.59 0.59 0.66 0.53 0.69 0.88 0.87 0.88 1.01 1.06 1.07 1.14 1.13 1.13 1.08 1.06 1.12 1.19 1.27 1.36 1.43 1.42 1.52 1.50 1.46 1.39 1.34 1.32 1.32 1.27 1.17
0.32 0.32 0.24 0.24 0.21 0.25 0.44 0.53 0.63 0.35 0.43 0.66 0.66 0.67 0.68 0.70 0.77 0.85 0.94 0.93 0.91 0.90 0.97 1.14 1.22 1.14 1.08 1.13 1.03 1.06 1.18 1.13 1.34 1.53 1.57 1.53 1.49 1.46 1.46 1.39 1.40 1.32 1.23 1.17
0.23 0.23 0.23 0.24 0.21 0.19 0.50 0.54 0.45 0.56 0.64 0.71 0.73 0.75 0.73 0.77 0.83 0.89 0.94 0.93 0.92 0.88 0.89 1.10 1.20 1.17 1.15 1.11 1.03 1.11 1.16 1.26 1.43 1.59 1.56 1.40 1.34 1.43 1.46 1.39 1.34 1.27 1.21 1.17
0.27 0.32 0.30 0.31 0.30 0.48 0.55 0.60 0.69 0.70 0.68 0.71 0.76 0.82 0.80 0.80 0.84 0.90 0.93 0.91 0.89 0.94 0.93 0.95 1.18 1.34 1.32 1.28 1.29 1.24 1.31 1.34 1.38 1.59 1.43 1.18 1.14 1.19 1.17 1.18 1.19 1.19 1.22 1.18
0.46 0.51 0.41 0.44 0.51 0.56 0.60 0.66 0.77 0.77 0.76 0.84 0.85 0.83 0.84 0.85 0.89 0.92 0.96 0.94 0.88 0.87 0.89 1.00 1.06 1.17 1.39 1.51 1.49 1.45 1.44 1.46 1.45 1.56 1.48 1.43 1.38 1.42 1.48 1.56 1.56 1.49 1.44 1.47
0.48 0.51 0.47 0.47 0.55 0.59 0.62 0.69 0.76 0.82 0.85 0.90 0.89 0.88 0.87 0.91 0.92 0.96 0.96 0.94 0.91 0.90 0.97 1.05 1.16 1.15 1.25 1.38 1.44 1.55 1.58 1.52 1.54 1.61 1.59 1.52 1.54 1.57 1.63 1.72 1.76 1.74 1.79 1.79
0.54 0.50 0.45 0.43 0.58 0.59 0.62 0.72 0.79 0.77 0.80 0.89 0.87 0.83 0.89 0.91 0.93 0.98 0.99 0.99 0.99 0.96 1.05 1.13 1.12 1.17 1.27 1.32 1.41 1.50 1.66 1.70 1.66 1.63 1.54 1.55 1.59 1.68 1.73 1.75 1.75 1.87 1.89 1.94

GFSCGP_prec_pwat_063.txt.gz
Precipitable_Water
0.42 0.31 0.22 0.30 0.34 0.27 0.23 0.23 0.32 0.47 0.91 0.97 0.91 1.07 1.17 1.31 1.25 1.18 1.14 1.08 1.13 1.21 1.37 1.37 1.35 1.34 1.30 1.29 1.25 1.19 1.28 1.42 1.46 1.50 1.44 1.52 1.62 1.65 1.76 1.85 1.84 1.73 1.86 1.83
0.28 0.22 0.29 0.30 0.30 0.27 0.23 0.23 0.27 0.40 0.63 0.88 0.90 0.93 1.12 1.19 1.09 1.12 1.11 1.09 1.09 1.21 1.31 1.30 1.31 1.30 1.27 1.28 1.28 1.20 1.22 1.36 1.41 1.44 1.48 1.58 1.63 1.67 1.71 1.69 1.71 1.77 1.78 1.82
0.27 0.27 0.30 0.30 0.28 0.25 0.24 0.22 0.25 0.35 0.46 0.80 0.89 0.83 1.02 1.42 1.14 1.20 1.25 1.22 1.13 1.13 1.20 1.26 1.25 1.23 1.26 1.27 1.29 1.24 1.18 1.26 1.35 1.40 1.46 1.53 1.62 1.74 1.59 1.70 1.64 1.69 1.73 1.74
0.29 0.33 0.29 0.27 0.25 0.28 0.23 0.27 0.24 0.28 0.39 0.39 0.70 0.63 0.92 1.03 1.12 1.11 1.20 1.22 1.19 1.11 1.19 1.26 1.29 1.25 1.22 1.25 1.34 1.33 1.25 1.19 1.27 1.32 1.35 1.38 1.38 1.36 1.47 1.53 1.57 1.63 1.67 1.68
0.31 0.30 0.28 0.27 0.26 0.28 0.26 0.30 0.24 0.21 0.22 0.39 0.49 0.52 0.89 1.04 1.08 1.02 1.17 1.24 1.27 1.27 1.20 1.14 1.13 1.22 1.28 1.30 1.33 1.34 1.34 1.26 1.21 1.20 1.29 1.30 1.36 1.38 1.43 1.47 1.62 1.59 1.61 1.68
0.33 0.45 0.36 0.30 0.35 0.32 0.33 0.28 0.27 0.24 0.20 0.16 0.32 0.45 0.57 0.89 0.91 0.98 1.10 1.24 1.28 1.33 1.31 1.30 1.28 1.30 1.29 1.33 1.37 1.39 1.37 1.29 1.27 1.20 1.11 1.23 1.22 1.35 1.30 1.36 1.55 1.46 1.63 1.59
0.18 0.22 0.37 0.43 0.32 0.34 0.33 0.28 0.21 0.19 0.17 0.13 0.16 0.31 0.46 0.73 0.91 1.17 1.01 1.14 1.27 1.32 1.33 1.34 1.35 1.30 1.27 1.21 1.25 1.37 1.39 1.34 1.30 1.24 1.11 1.15 1.20 1.19 1.33 1.44 1.42 1.44 1.43 1.47
0.18 0.18 0.23 0.29 0.33 0.33 0.31 0.29 0.23 0.17 0.16 0.14 0.17 0.13 0.29 0.63 0.88 0.94 1.20 1.19 1.21 1.25 1.30 1.35 1.38 1.40 1.41 1.31 1.21 1.26 1.38 1.38 1.39 1.28 1.19 1.11 1.16 1.18 1.24 1.39 1.42 1.41 1.44 1.44
0.14 0.16 0.34 0.34 0.32 0.34 0.33 0.30 0.29 0.26 0.28 0.21 0.19 0.17 0.17 0.38 0.61 0.83 1.16 1.18 1.35 1.24 1.25 1.31 1.39 1.43 1.48 1.49 1.35 1.18 1.24 1.38 1.43 1.35 1.30 1.25 1.16 1.10 1.19 1.36 1.38 1.51 1.48 1.50
0.21 0.17 0.29 0.31 0.38 0.39 0.37 0.41 0.28 0.27 0.22 0.19 0.22 0.22 0.18 0.18 0.33 0.56 0.79 0.97 1.06 1.54 1.21 1.35 1.40 1.42 1.49 1.54 1.52 1.39 1.25 1.31 1.41 1.43 1.37 1.30 1.23 1.18 1.18 1.34 1.43 1.39 1.48 1.44
0.24 0.21 0.19 0.19 0.25 0.27 0.29 0.32 0.40 0.38 0.28 0.24 0.22 0.23 0.31 0.26 0.25 0.42 0.57 0.79 0.95 1.14 1.16 1.31 1.40 1.50 1.50 1.55 1.52 1.45 1.38 1.26 1.33 1.42 1.42 1.33 1.28 1.25 1.13 1.30 1.36 1.41 1.44 1.47
0.33 0.24 0.19 0.19 0.21 0.23 0.25 0.26 0.25 0.35 0.33 0.30 0.26 0.28 0.39 0.37 0.32 0.42 0.55 0.66 0.79 0.91 1.15 1.25 1.36 1.46 1.52 1.59 1.55 1.43 1.42 1.31 1.19 1.31 1.38 1.36 1.37 1.28 1.21 1.18 1.29 1.40 1.40 1.43
0.36 0.28 0.22 0.20 0.22 0.24 0.20 0.27 0.36 0.34 0.33 0.35 0.27 0.28 0.43 0.43 0.40 0.37 0.40 0.54 0.73 0.85 1.04 1.24 1.32 1.38 1.45 1.55 1.58 1.49 1.46 1.36 1.31 1.23 1.28 1.32 1.35 1.32 1.19 1.23 1.23 1.32 1.36 1.37
0.40 0.34 0.29 0.21 0.24 0.29 0.24 0.23 0.32 0.34 0.31 0.33 0.37 0.36 0.40 0.47 0.49 0.50 0.49 0.52 0.65 0.79 0.93 1.07 1.21 1.32 1.43 1.50 1.53 1.52 1.42 1.42 1.45 1.33 1.22 1.19 1.20 1.27 1.24 1.23 1.23 1.26 1.32 1.31
0.36 0.28 0.29 0.27 0.29 0.31 0.26 0.28 0.30 0.29 0.39 0.39 0.39 0.45 0.46 0.48 0.52 0.58 0.65 0.65 0.69 0.81 0.91 0.97 1.05 1.27 1.40 1.47 1.53 1.58 1.58 1.53 1.46 1.38 1.29 1.16 1.19 1.21 1.25 1.16 1.20 1.23 1.29 1.28
0.36 0.27 0.32 0.33 0.35 0.29 0.26 0.25 0.27 0.34 0.34 0.43 0.49 0.49 0.60 0.63 0.71 0.59 0.61 0.77 0.88 0.87 0.86 0.98 1.17 1.28 1.38 1.46 1.48 1.58 1.59 1.56 1.57 1.45 1.30 1.30 1.26 1.19 1.14 1.16 1.18 1.22 1.25 1.28
0.37 0.38 0.30 0.25 0.30 0.28 0.23 0.24 0.22 0.21 0.24 0.26 0.34 0.46 0.64 0.65 0.75 0.84 0.77 0.87 0.90 0.90 1.00 1.08 1.11 1.23 1.33 1.45 1.53 1.48 1.54 1.61 1.55 1.50 1.51 1.43 1.36 1.19 1.14 1.14 1.16 1.17 1.21 1.28
0.35 0.34 0.35 0.30 0.29 0.21 0.26 0.23 0.25 0.26 0.24 0.27 0.26 0.37 0.58 0.65 0.75 0.91 1.16 0.97 0.88 0.89 0.91 0.94 1.01 1.10 1.25 1.38 1.52 1.58 1.64 1.56 1.56 1.48 1.52 1.50 1.45 1.39 1.28 1.22 1.17 1.19 1.23 1.24
0.34 0.30 0.30 0.27 0.24 0.25 0.26 0.42 0.44 0.42 0.37 0.30 0.34 0.33 0.44 0.62 0.67 0.71 1.18 1.06 0.94 0.96 1.00 1.01 1.05 1.11 1.15 1.22 1.36 1.48 1.51 1.60 1.50 1.56 1.45 1.49 1.48 1.45 1.44 1.34 1.24 1.28 1.30 1.30
0.35 0.37 0.28 0.26 0.22 0.19 0.27 0.51 0.53 0.54 0.28 0.62 0.42 0.46 0.52 0.63 0.62 0.67 0.97 1.05 1.04 0.99 1.02 1.06 1.12 1.18 1.19 1.19 1.26 1.35 1.38 1.39 1.42 1.50 1.54 1.60 1.62 1.59 1.53 1.50 1.46 1.40 1.34 1.28
0.34 0.36 0.26 0.24 0.23 0.27 0.36 0.53 0.50 0.33 0.41 0.65 0.70 0.65 0.64 0.59 0.83 0.94 0.95 0.96 0.99 0.98 0.97 0.96 1.09 1.24 1.26 1.31 1.30 1.16 1.23 1.26 1.35 1.56 1.72 1.73 1.71 1.67 1.70 1.69 1.68 1.60 1.43 1.37
0.32 0.31 0.28 0.27 0.24 0.20 0.51 0.46 0.36 0.54 0.70 0.71 0.71 0.70 0.65 0.68 0.73 0.76 0.86 0.88 0.90 0.94 0.99 0.99 1.03 1.25 1.48 1.46 1.37 1.25 1.11 1.30 1.43 1.52 1.59 1.71 1.76 1.76 1.76 1.70 1.67 1.63 1.50 1.41
0.30 0.38 0.33 0.34 0.29 0.46 0.55 0.51 0.60 0.62 0.65 0.67 0.70 0.72 0.72 0.70 0.65 0.73 0.80 0.84 0.90 0.98 1.02 1.03 1.04 1.15 1.39 1.47 1.46 1.32 1.23 1.50 1.43 1.43 1.49 1.65 1.79 1.83 1.78 1.70 1.62 1.57 1.49 1.37
0.45 0.48 0.39 0.37 0.38 0.46 0.50 0.57 0.65 0.72 0.71 0.71 0.72 0.74 0.80 0.75 0.78 0.79 0.83 0.83 0.91 0.98 1.03 1.08 1.08 1.10 1.22 1.39 1.47 1.51 1.58 1.62 1.54 1.41 1.46 1.62 1.71 1.78 1.80 1.71 1.62 1.54 1.44 1.36
0.47 0.49 0.45 0.44 0.45 0.48 0.56 0.62 0.69 0.74 0.80 0.77 0.76 0.75 0.83 0.85 0.86 0.89 0.90 0.91 0.98 1.04 1.05 1.07 1.08 1.07 1.15 1.35 1.45 1.50 1.57 1.69 1.58 1.52 1.51 1.58 1.73 1.74 1.60 1.57 1.45 1.37 1.38 1.33
0.53 0.47 0.42 0.41 0.54 0.55 0.58 0.64 0.68 0.70 0.72 0.76 0.72 0.73 0.85 0.87 0.87 0.93 0.97 1.01 1.05 1.08 1.09 1.02 1.01 1.09 1.15 1.24 1.35 1.44 1.58 1.67 1.68 1.58 1.62 1.66 1.65 1.56 1.45 1.45 1.26 1.37 1.45 1.49

GFSCGP_prec_pwat_066.txt.gz
Precipitable_Water
0.48 0.40 0.32 0.35 0.32 0.34 0.28 0.25 0.28 0.37 0.48 0.70 0.78 0.98 1.21 1.33 1.45 1.44 1.15 1.27 1.25 1.25 1.45 1.41 1.42 1.28 1.30 1.27 1.21 1.16 1.33 1.44 1.42 1.51 1.40 1.58 1.54 1.70 1.88 1.95 1.97 1.74 1.89 1.90
0.39 0.32 0.41 0.32 0.37 0.35 0.32 0.27 0.23 0.28 0.41 0.70 0.84 1.15 1.22 1.20 1.21 1.44 1.22 1.21 1.23 1.23 1.30 1.32 1.33 1.27 1.25 1.23 1.20 1.16 1.25 1.42 1.40 1.52 1.48 1.53 1.73 1.66 1.64 1.81 1.85 1.70 1.82 1.85
0.26 0.29 0.34 0.33 0.28 0.29 0.27 0.25 0.23 0.26 0.38 0.65 0.71 0.84 1.14 1.17 1.22 1.52 1.47 1.23 1.30 1.23 1.17 1.23 1.23 1.22 1.22 1.22 1.21 1.17 1.16 1.39 1.38 1.46 1.45 1.53 1.73 1.68 1.66 1.75 1.71 1.68 1.63 1.69
0.37 0.37 0.33 0.28 0.27 0.29 0.24 0.28 0.25 0.24 0.27 0.33 0.50 0.58 0.87 1.24 1.20 1.48 1.48 1.24 1.25 1.30 1.24 1.25 1.22 1.18 1.18 1.22 1.30 1.24 1.19 1.30 1.33 1.42 1.36 1.39 1.44 1.53 1.54 1.63 1.66 1.50 1.60 1.65
0.30 0.35 0.32 0.30 0.28 0.30 0.27 0.32 0.29 0.25 0.23 0.26 0.36 0.41 0.59 1.08 0.98 1.19 1.50 1.40 1.24 1.26 1.24 1.20 1.15 1.18 1.20 1.27 1.29 1.30 1.25 1.23 1.25 1.29 1.36 1.35 1.33 1.46 1.71 1.49 1.65 1.56 1.57 1.62
0.30 0.41 0.36 0.32 0.34 0.32 0.32 0.28 0.29 0.29 0.23 0.16 0.20 0.32 0.43 0.78 0.76 1.03 1.31 1.48 1.26 1.22 1.22 1.19 1.16 1.23 1.22 1.29 1.31 1.37 1.30 1.19 1.17 1.16 1.28 1.29 1.26 1.35 1.39 1.31 1.54 1.59 1.55 1.52
0.15 0.23 0.38 0.44 0.31 0.33 0.32 0.27 0.20 0.19 0.18 0.13 0.18 0.16 0.27 0.57 0.87 0.98 1.15 1.30 1.27 1.32 1.27 1.27 1.23 1.19 1.17 1.15 1.20 1.28 1.33 1.23 1.19 1.09 1.08 1.25 1.21 1.34 1.34 1.38 1.55 1.49 1.47 1.53
0.22 0.19 0.19 0.28 0.38 0.33 0.32 0.30 0.23 0.17 0.16 0.15 0.20 0.16 0.17 0.30 0.82 1.04 1.23 1.58 1.68 1.30 1.36 1.34 1.31 1.28 1.24 1.19 1.15 1.17 1.29 1.28 1.28 1.22 1.03 1.11 1.18 1.17 1.29 1.43 1.35 1.54 1.36 1.51
0.19 0.17 0.28 0.28 0.28 0.33 0.33 0.31 0.30 0.26 0.26 0.20 0.22 0.22 0.23 0.23 0.41 0.94 1.11 1.13 1.23 1.63 1.41 1.41 1.42 1.39 1.40 1.38 1.28 1.22 1.17 1.30 1.35 1.27 1.23 1.05 1.13 1.09 1.16 1.26 1.41 1.39 1.44 1.52
0.23 0.17 0.24 0.29 0.34 0.33 0.30 0.35 0.31 0.29 0.21 0.18 0.23 0.24 0.24 0.24 0.22 0.49 0.92 1.06 1.28 1.65 1.52 1.79 1.45 1.45 1.51 1.52 1.52 1.49 1.36 1.22 1.36 1.40 1.33 1.20 1.07 1.09 1.08 1.13 1.25 1.38 1.36 1.42
0.27 0.22 0.17 0.25 0.27 0.29 0.32 0.30 0.35 0.38 0.33 0.21 0.21 0.25 0.33 0.34 0.27 0.27 0.69 0.82 0.88 0.97 1.53 1.81 1.84 1.51 1.49 1.59 1.58 1.55 1.49 1.37 1.29 1.42 1.42 1.34 1.24 1.13 1.08 1.12 1.12 1.27 1.37 1.49
0.34 0.27 0.19 0.19 0.26 0.27 0.24 0.34 0.34 0.33 0.33 0.35 0.26 0.24 0.36 0.40 0.41 0.32 0.34 0.69 0.81 1.08 1.20 1.57 1.34 1.45 1.41 1.50 1.54 1.55 1.52 1.43 1.38 1.33 1.42 1.40 1.41 1.29 1.14 1.01 1.16 1.30 1.31 1.36
0.37 0.28 0.22 0.20 0.22 0.24 0.22 0.22 0.27 0.29 0.32 0.34 0.31 0.28 0.35 0.44 0.47 0.41 0.34 0.41 0.66 1.02 1.17 1.45 1.80 1.67 1.36 1.39 1.46 1.53 1.59 1.47 1.53 1.43 1.36 1.42 1.39 1.38 1.26 1.14 1.14 1.25 1.24 1.30
0.36 0.28 0.27 0.25 0.26 0.33 0.27 0.25 0.23 0.24 0.24 0.24 0.28 0.37 0.38 0.42 0.50 0.51 0.50 0.47 0.65 0.92 1.10 1.18 1.47 1.61 1.80 1.48 1.42 1.48 1.57 1.57 1.53 1.55 1.39 1.28 1.33 1.34 1.33 1.32 1.18 1.23 1.29 1.21
0.30 0.23 0.27 0.29 0.31 0.33 0.29 0.28 0.28 0.24 0.24 0.28 0.29 0.33 0.39 0.52 0.63 0.63 0.66 0.63 0.56 0.63 0.82 0.90 1.12 1.38 1.81 1.51 1.48 1.49 1.54 1.55 1.53 1.48 1.46 1.27 1.24 1.34 1.38 1.34 1.32 1.26 1.20 1.22
0.41 0.27 0.27 0.25 0.29 0.34 0.32 0.31 0.27 0.26 0.25 0.28 0.32 0.36 0.49 0.63 0.78 0.70 0.77 0.88 0.85 0.87 0.92 1.00 1.05 1.28 1.47 1.56 1.56 1.53 1.53 1.52 1.58 1.51 1.47 1.47 1.41 1.34 1.32 1.32 1.35 1.37 1.27 1.23
0.37 0.34 0.32 0.25 0.29 0.28 0.27 0.30 0.29 0.27 0.26 0.28 0.29 0.36 0.54 0.61 0.71 0.79 0.84 1.00 1.04 1.04 1.02 1.07 1.09 1.25 1.46 1.61 1.63 1.73 1.64 1.62 1.58 1.55 1.57 1.59 1.50 1.39 1.30 1.32 1.29 1.31 1.25 1.21
0.33 0.32 0.33 0.30 0.29 0.22 0.25 0.34 0.33 0.28 0.27 0.28 0.29 0.35 0.46 0.57 0.72 0.80 0.88 0.94 1.11 1.21 1.18 1.16 1.18 1.18 1.39 1.79 1.59 1.92 1.79 1.68 1.61 1.57 1.59 1.56 1.54 1.47 1.44 1.32 1.26 1.23 1.28 1.19
0.37 0.33 0.30 0.26 0.23 0.28 0.30 0.31 0.41 0.47 0.36 0.31 0.44 0.40 0.34 0.45 0.56 0.71 1.00 1.11 1.12 1.31 1.24 1.22 1.33 1.33 1.40 1.54 1.65 1.77 1.72 1.65 1.56 1.57 1.55 1.58 1.53 1.55 1.53 1.40 1.25 1.24 1.24 1.24
0.40 0.34 0.30 0.29 0.22 0.20 0.26 0.47 0.53 0.51 0.32 0.61 0.64 0.59 0.53 0.60 0.41 0.69 0.97 1.08 1.16 1.15 1.25 1.15 1.13 1.17 1.28 1.44 1.57 1.56 1.56 1.74 1.54 1.49 1.57 1.67 1.63 1.54 1.53 1.51 1.47 1.39 1.28 1.17
0.35 0.33 0.28 0.29 0.25 0.24 0.42 0.48 0.52 0.32 0.36 0.61 0.63 0.69 0.66 0.65 0.86 0.93 0.91 1.00 1.13 1.12 1.16 1.16 1.11 1.08 1.21 1.44 1.46 1.29 1.48 1.47 1.69 1.68 1.65 1.69 1.74 1.67 1.67 1.66 1.65 1.57 1.48 1.37
0.34 0.31 0.31 0.33 0.29 0.22 0.52 0.45 0.39 0.55 0.63 0.62 0.63 0.70 0.73 0.73 0.83 0.87 0.94 0.90 1.00 1.09 1.16 1.14 1.03 1.02 1.14 1.36 1.40 1.28 1.27 1.45 1.62 1.81 1.65 1.63 1.71 1.84 1.83 1.78 1.78 1.70 1.66 1.51
0.35 0.41 0.37 0.39 0.33 0.49 0.54 0.53 0.57 0.59 0.54 0.56 0.60 0.67 0.79 0.76 0.75 0.78 0.80 0.89 0.99 1.04 1.09 1.07 1.02 1.04 1.12 1.21 1.38 1.32 1.42 1.49 1.47 1.64 1.64 1.58 1.70 1.77 1.88 1.83 1.82 1.77 1.71 1.61
0.46 0.50 0.40 0.39 0.41 0.50 0.54 0.56 0.57 0.54 0.52 0.58 0.67 0.72 0.77 0.75 0.78 0.74 0.72 0.75 0.83 0.92 0.97 0.96 0.95 1.01 1.08 1.21 1.34 1.45 1.45 1.43 1.44 1.45 1.61 1.56 1.59 1.65 1.76 1.87 1.89 1.83 1.72 1.63
0.47 0.49 0.44 0.42 0.45 0.47 0.50 0.52 0.50 0.51 0.55 0.61 0.70 0.77 0.77 0.74 0.71 0.73 0.74 0.75 0.79 0.89 0.96 0.93 0.89 0.94 1.03 1.17 1.29 1.46 1.52 1.50 1.37 1.48 1.63 1.56 1.59 1.59 1.66 1.79 1.90 1.85 1.90 1.77
0.52 0.46 0.41 0.39 0.52 0.52 0.52 0.60 0.60 0.56 0.61 0.68 0.69 0.71 0.74 0.74 0.69 0.70 0.72 0.77 0.82 0.86 0.91 0.94 0.94 0.96 1.02 1.14 1.23 1.39 1.58 1.61 1.63 1.64 1.66 1.64 1.54 1.60 1.65 1.73 1.80 1.96 1.98 1.90

GFSCGP_prec_pwat_069.txt.gz
Precipitable_Water
0.43 0.37 0.35 0.41 0.38 0.31 0.32 0.32 0.32 0.34 0.44 0.53 0.78 0.98 1.10 1.29 1.20 1.42 1.68 1.36 1.30 1.38 1.52 1.52 1.43 1.35 1.27 1.25 1.19 1.16 1.15 1.24 1.36 1.36 1.33 1.51 1.52 1.56 1.67 1.87 1.80 1.71 1.76 1.78
0.43 0.30 0.40 0.44 0.40 0.36 0.30 0.29 0.29 0.33 0.34 0.45 0.66 0.83 0.98 1.10 1.26 1.49 1.76 1.57 1.24 1.27 1.34 1.35 1.38 1.30 1.24 1.21 1.18 1.15 1.14 1.26 1.35 1.44 1.34 1.50 1.54 1.62 1.75 1.90 1.73 1.71 1.73 1.81
0.28 0.36 0.41 0.40 0.37 0.29 0.30 0.29 0.27 0.28 0.31 0.48 0.76 0.78 0.88 1.08 1.17 1.40 1.62 1.81 1.45 1.21 1.27 1.37 1.33 1.28 1.26 1.21 1.17 1.11 1.13 1.24 1.34 1.41 1.43 1.56 1.68 1.64 1.61 1.66 1.71 1.72 1.75 1.77
0.35 0.35 0.34 0.36 0.32 0.32 0.24 0.31 0.29 0.25 0.25 0.24 0.53 0.49 0.83 0.95 1.06 1.25 1.43 1.62 1.49 1.36 1.27 1.33 1.32 1.26 1.24 1.22 1.24 1.20 1.13 1.22 1.32 1.34 1.28 1.38 1.44 1.41 1.58 1.66 1.67 1.60 1.55 1.59
0.32 0.32 0.35 0.32 0.32 0.30 0.26 0.31 0.29 0.29 0.26 0.24 0.29 0.28 0.53 0.96 0.95 0.94 1.16 1.45 1.40 1.42 1.31 1.23 1.38 1.24 1.26 1.28 1.26 1.23 1.16 1.16 1.26 1.33 1.25 1.30 1.38 1.48 1.58 1.55 1.65 1.56 1.54 1.55
0.30 0.38 0.34 0.35 0.37 0.36 0.33 0.29 0.28 0.28 0.27 0.20 0.25 0.25 0.43 0.63 0.69 0.90 1.05 1.13 1.33 1.41 1.44 1.31 1.32 1.36 1.27 1.31 1.31 1.30 1.20 1.10 1.16 1.24 1.27 1.22 1.30 1.41 1.50 1.50 1.62 1.48 1.61 1.62
0.23 0.25 0.31 0.35 0.32 0.33 0.32 0.27 0.19 0.18 0.18 0.15 0.23 0.23 0.23 0.49 0.80 0.85 0.92 1.07 1.27 1.39 1.38 1.35 1.27 1.30 1.30 1.25 1.26 1.29 1.24 1.13 1.06 1.11 1.19 1.18 1.20 1.34 1.37 1.44 1.28 1.48 1.48 1.50
0.19 0.17 0.22 0.33 0.35 0.34 0.29 0.28 0.22 0.14 0.14 0.16 0.24 0.17 0.18 0.36 0.55 0.77 1.01 1.05 1.34 1.44 1.48 1.56 1.23 1.26 1.29 1.24 1.23 1.24 1.25 1.20 1.14 0.98 1.03 1.16 1.16 1.22 1.30 1.34 1.37 1.44 1.45 1.34
0.22 0.21 0.27 0.27 0.28 0.34 0.34 0.28 0.32 0.25 0.22 0.22 0.25 0.26 0.28 0.29 0.42 0.59 0.80 0.98 1.25 1.39 1.45 1.64 1.73 1.27 1.32 1.31 1.25 1.20 1.24 1.28 1.24 1.06 0.96 1.02 1.12 1.14 1.18 1.28 1.41 1.43 1.49 1.41
0.29 0.18 0.28 0.29 0.29 0.29 0.27 0.32 0.30 0.30 0.18 0.17 0.21 0.22 0.24 0.32 0.38 0.54 0.70 0.88 1.22 1.45 1.34 1.73 1.83 1.73 1.55 1.43 1.43 1.40 1.33 1.25 1.32 1.27 1.07 0.99 1.01 1.02 1.13 1.19 1.26 1.35 1.39 1.46
0.27 0.24 0.18 0.27 0.27 0.28 0.29 0.27 0.31 0.33 0.29 0.23 0.19 0.19 0.29 0.40 0.42 0.49 0.64 0.78 1.01 1.17 1.20 1.38 1.61 1.83 1.80 1.71 1.64 1.53 1.51 1.35 1.28 1.34 1.29 1.06 1.02 1.06 0.99 1.11 1.15 1.26 1.28 1.40
0.31 0.25 0.18 0.17 0.27 0.32 0.31 0.28 0.27 0.27 0.26 0.30 0.31 0.26 0.35 0.41 0.45 0.55 0.71 0.82 0.96 1.14 1.29 1.18 1.19 1.46 1.60 1.66 1.67 1.60 1.59 1.52 1.36 1.29 1.37 1.31 1.09 1.07 1.03 0.96 1.07 1.17 1.21 1.29
0.33 0.26 0.20 0.18 0.18 0.27 0.28 0.29 0.29 0.29 0.30 0.26 0.26 0.26 0.43 0.50 0.56 0.65 0.87 1.15 1.17 0.96 1.19 1.25 1.34 1.22 1.20 1.56 1.60 1.69 1.65 1.60 1.55 1.42 1.28 1.38 1.34 1.12 1.04 1.00 0.99 1.06 1.10 1.18
0.31 0.26 0.22 0.17 0.21 0.28 0.27 0.29 0.28 0.28 0.23 0.23 0.26 0.27 0.31 0.46 0.51 0.61 0.72 0.89 0.90 1.07 1.06 1.14 1.16 1.20 1.16 1.50 1.61 1.69 1.73 1.73 1.71 1.58 1.40 1.25 1.30 1.31 1.17 1.08 1.01 1.05 1.02 1.13
0.32 0.20 0.21 0.21 0.22 0.25 0.29 0.27 0.28 0.27 0.26 0.23 0.25 0.26 0.33 0.51 0.56 0.63 0.75 0.92 1.08 1.12 1.28 1.39 1.39 1.47 1.37 1.60 1.61 1.79 1.85 1.76 1.79 1.63 1.48 1.37 1.33 1.39 1.42 1.30 1.19 1.04 1.11 1.06
0.40 0.28 0.30 0.24 0.25 0.23 0.26 0.30 0.30 0.30 0.27 0.25 0.25 0.26 0.44 0.47 0.63 0.61 0.73 0.80 1.03 1.19 1.38 1.65 1.57 1.52 1.57 1.47 1.53 1.77 1.83 1.86 1.81 1.64 1.61 1.54 1.45 1.33 1.32 1.37 1.32 1.23 1.10 1.19
0.34 0.33 0.30 0.23 0.30 0.29 0.21 0.28 0.29 0.30 0.29 0.27 0.22 0.27 0.42 0.41 0.47 0.60 0.81 0.87 0.95 1.18 1.37 1.42 1.54 1.67 1.70 1.78 1.80 1.69 1.89 1.93 1.83 1.71 1.71 1.64 1.58 1.41 1.27 1.32 1.33 1.29 1.24 1.19
0.31 0.31 0.30 0.25 0.31 0.18 0.22 0.31 0.36 0.33 0.33 0.43 0.40 0.40 0.54 0.60 0.59 0.66 0.89 0.88 0.95 1.04 1.22 1.28 1.40 1.59 1.75 1.95 1.90 1.91 1.85 1.98 1.91 1.81 1.70 1.71 1.69 1.60 1.50 1.34 1.28 1.30 1.30 1.26
0.38 0.34 0.28 0.26 0.26 0.26 0.24 0.25 0.36 0.42 0.41 0.55 0.56 0.53 0.56 0.64 0.59 0.64 0.84 0.97 0.93 1.01 1.10 1.27 1.29 1.34 1.56 1.78 1.84 2.10 1.71 2.03 1.93 1.82 1.81 1.81 1.74 1.64 1.59 1.48 1.38 1.31 1.30 1.27
0.42 0.41 0.33 0.30 0.26 0.19 0.28 0.41 0.49 0.48 0.37 0.60 0.59 0.60 0.55 0.62 0.47 0.62 0.84 0.94 0.93 0.97 1.04 1.13 1.22 1.24 1.24 1.44 1.71 1.72 1.53 1.57 1.66 1.85 1.91 1.87 1.78 1.68 1.59 1.60 1.57 1.53 1.35 1.22
0.33 0.34 0.30 0.30 0.28 0.29 0.39 0.44 0.48 0.30 0.36 0.62 0.62 0.62 0.62 0.59 0.68 0.77 0.85 0.87 0.96 0.99 1.01 1.11 1.19 1.15 1.22 1.27 1.35 1.74 1.67 1.35 1.54 1.93 2.13 1.96 1.80 1.67 1.66 1.64 1.69 1.63 1.54 1.38
0.36 0.35 0.32 0.32 0.29 0.26 0.52 0.47 0.36 0.50 0.57 0.58 0.60 0.62 0.58 0.60 0.72 0.75 0.80 0.84 0.89 0.94 1.01 1.07 1.07 1.12 1.12 1.25 1.32 1.40 1.57 1.77 1.94 2.00 1.96 1.94 1.84 1.78 1.72 1.63 1.64 1.65 1.58 1.48
0.35 0.42 0.36 0.39 0.40 0.57 0.60 0.54 0.58 0.58 0.54 0.52 0.52 0.60 0.63 0.60 0.63 0.74 0.79 0.83 0.87 0.94 1.00 1.09 1.10 1.12 1.07 1.11 1.19 1.21 1.37 1.74 1.80 1.80 1.80 1.87 1.94 1.87 1.78 1.70 1.68 1.68 1.69 1.56
0.45 0.50 0.40 0.40 0.44 0.50 0.56 0.59 0.59 0.59 0.53 0.55 0.55 0.55 0.59 0.61 0.64 0.72 0.75 0.79 0.87 0.90 0.91 1.02 1.05 1.01 0.98 1.00 1.09 1.16 1.27 1.44 1.40 1.42 1.67 1.82 1.89 1.88 1.78 1.79 1.77 1.72 1.69 1.64
0.43 0.45 0.40 0.41 0.48 0.50 0.54 0.54 0.55 0.54 0.55 0.53 0.56 0.56 0.56 0.59 0.62 0.72 0.75 0.77 0.82 0.89 0.93 0.94 0.96 1.00 0.98 0.93 1.01 1.09 1.17 1.28 1.33 1.30 1.41 1.65 1.71 1.77 1.76 1.79 1.78 1.72 1.82 1.79
0.44 0.40 0.36 0.34 0.48 0.50 0.51 0.59 0.62 0.57 0.57 0.57 0.54 0.53 0.58 0.61 0.66 0.73 0.76 0.81 0.81 0.84 0.93 0.90 0.87 0.90 0.98 0.95 0.96 1.03 1.17 1.19 1.30 1.33 1.46 1.56 1.59 1.76 1.76 1.70 1.67 1.82 1.88 1.97

GFSCGP_prec_pwat_072.txt.gz
Precipitable_Water
0.48 0.39 0.33 0.39 0.43 0.41 0.38 0.36 0.36 0.45 0.50 0.48 0.57 0.78 1.01 1.29 1.28 1.38 1.50 1.54 1.30 1.32 1.51 1.56 1.44 1.41 1.36 1.35 1.34 1.31 1.25 1.30 1.29 1.44 1.37 1.51 1.54 1.52 1.66 1.74 1.71 1.74 1.79 1.76
0.40 0.30 0.39 0.45 0.48 0.40 0.31 0.31 0.32 0.41 0.45 0.48 0.61 0.73 1.07 1.22 1.27 1.34 1.35 1.47 1.35 1.38 1.43 1.50 1.41 1.45 1.31 1.27 1.30 1.25 1.20 1.21 1.20 1.39 1.33 1.53 1.67 1.58 1.68 1.80 1.66 1.68 1.77 1.68
0.34 0.36 0.44 0.41 0.40 0.36 0.33 0.30 0.29 0.34 0.43 0.57 0.62 0.78 0.97 1.18 1.32 1.38 1.49 1.46 1.45 1.36 1.31 1.42 1.36 1.37 1.35 1.31 1.32 1.25 1.18 1.13 1.21 1.45 1.37 1.54 1.57 1.59 1.71 1.65 1.59 1.60 1.70 1.78
0.38 0.36 0.37 0.36 0.35 0.38 0.29 0.33 0.32 0.31 0.29 0.25 0.60 0.49 0.95 1.08 1.08 1.25 1.41 1.37 1.51 1.53 1.33 1.43 1.39 1.34 1.33 1.29 1.39 1.35 1.25 1.16 1.20 1.33 1.29 1.34 1.35 1.39 1.53 1.59 1.60 1.62 1.71 1.76
0.31 0.31 0.31 0.32 0.30 0.34 0.28 0.35 0.30 0.29 0.28 0.27 0.40 0.27 0.43 0.82 0.84 1.02 1.30 1.31 1.39 1.45 1.30 1.24 1.29 1.34 1.35 1.37 1.35 1.38 1.31 1.21 1.18 1.32 1.25 1.34 1.39 1.54 1.54 1.60 1.56 1.53 1.51 1.58
0.29 0.34 0.29 0.31 0.35 0.36 0.37 0.31 0.29 0.28 0.27 0.20 0.26 0.26 0.31 0.48 0.60 0.92 1.20 1.35 1.43 1.47 1.42 1.28 1.33 1.38 1.32 1.37 1.39 1.41 1.34 1.22 1.20 1.32 1.27 1.32 1.32 1.43 1.52 1.49 1.44 1.49 1.48 1.54
0.24 0.28 0.31 0.29 0.29 0.35 0.33 0.27 0.19 0.17 0.17 0.16 0.27 0.26 0.26 0.39 0.50 0.76 0.97 1.21 1.41 1.55 1.52 1.47 1.38 1.21 1.35 1.29 1.31 1.33 1.33 1.25 1.20 1.16 1.28 1.22 1.35 1.45 1.50 1.48 1.50 1.47 1.47 1.51
0.19 0.17 0.29 0.30 0.27 0.28 0.32 0.29 0.21 0.13 0.14 0.17 0.23 0.22 0.27 0.35 0.42 0.59 0.72 0.96 1.34 1.42 1.54 1.54 1.43 1.29 1.33 1.28 1.28 1.27 1.29 1.26 1.25 1.12 1.19 1.23 1.28 1.40 1.45 1.52 1.51 1.44 1.45 1.47
0.19 0.19 0.28 0.28 0.32 0.31 0.32 0.28 0.33 0.24 0.24 0.20 0.21 0.23 0.26 0.36 0.40 0.48 0.59 0.82 1.03 1.16 1.35 1.53 1.49 1.33 1.28 1.34 1.28 1.24 1.25 1.27 1.28 1.23 1.04 1.18 1.19 1.27 1.36 1.47 1.47 1.37 1.44 1.48
0.27 0.19 0.27 0.27 0.31 0.32 0.31 0.35 0.28 0.27 0.19 0.19 0.21 0.20 0.22 0.34 0.43 0.49 0.66 0.68 0.93 1.08 1.22 1.47 1.47 1.54 1.54 1.38 1.38 1.38 1.37 1.31 1.30 1.32 1.26 1.03 1.13 1.19 1.32 1.39 1.37 1.37 1.47 1.51
0.29 0.24 0.25 0.27 0.27 0.26 0.27 0.27 0.28 0.28 0.27 0.21 0.18 0.20 0.43 0.47 0.54 0.61 0.67 0.66 0.83 1.08 1.21 1.33 1.36 1.48 1.59 1.53 1.37 1.35 1.34 1.32 1.35 1.38 1.37 1.24 1.04 1.12 1.24 1.29 1.31 1.35 1.45 1.54
0.31 0.25 0.17 0.24 0.30 0.33 0.32 0.30 0.28 0.22 0.22 0.27 0.27 0.26 0.46 0.59 0.61 0.67 0.72 0.68 0.82 1.11 1.22 1.48 1.40 1.33 1.48 1.47 1.46 1.38 1.40 1.36 1.27 1.40 1.44 1.37 1.24 1.05 1.09 1.16 1.24 1.30 1.37 1.48
0.30 0.24 0.16 0.14 0.22 0.29 0.28 0.31 0.32 0.30 0.27 0.23 0.21 0.25 0.38 0.53 0.66 0.80 0.82 0.89 0.96 1.01 1.21 1.40 1.36 1.33 1.35 1.46 1.53 1.49 1.50 1.51 1.46 1.37 1.38 1.42 1.38 1.21 1.02 1.04 1.12 1.21 1.29 1.41
0.29 0.22 0.18 0.13 0.17 0.22 0.23 0.29 0.31 0.30 0.24 0.25 0.26 0.28 0.32 0.41 0.51 0.69 0.88 0.89 0.90 0.96 1.15 1.41 1.32 1.29 1.27 1.39 1.63 1.62 1.57 1.65 1.65 1.57 1.49 1.38 1.37 1.36 1.22 1.08 1.06 1.10 1.18 1.22
0.30 0.19 0.20 0.20 0.22 0.21 0.19 0.22 0.28 0.28 0.29 0.26 0.29 0.29 0.34 0.43 0.48 0.63 0.83 0.95 1.06 1.16 1.30 1.40 1.38 1.38 1.34 1.36 1.41 1.67 1.68 1.67 1.75 1.69 1.64 1.56 1.46 1.44 1.45 1.32 1.16 1.05 1.07 1.14
0.35 0.23 0.25 0.20 0.25 0.23 0.18 0.18 0.20 0.27 0.31 0.31 0.32 0.33 0.52 0.53 0.69 0.74 0.82 0.90 0.99 1.22 1.26 1.35 1.49 1.60 1.57 1.45 1.53 1.57 1.76 1.75 1.83 1.78 1.70 1.73 1.67 1.50 1.38 1.39 1.37 1.28 1.05 1.04
0.29 0.26 0.23 0.18 0.25 0.23 0.15 0.15 0.18 0.20 0.34 0.40 0.32 0.42 0.51 0.49 0.67 0.71 0.80 0.94 1.01 1.07 1.21 1.36 1.36 1.47 1.64 1.63 1.69 1.67 1.77 1.88 1.85 1.83 1.80 1.75 1.74 1.60 1.47 1.42 1.39 1.35 1.29 1.17
0.27 0.27 0.26 0.21 0.24 0.13 0.17 0.26 0.26 0.26 0.44 0.52 0.50 0.51 0.52 0.56 0.75 0.80 0.88 0.86 0.98 1.05 1.11 1.18 1.43 1.57 1.66 1.70 1.73 1.82 1.83 1.84 1.84 1.88 1.87 1.90 1.82 1.78 1.68 1.52 1.35 1.32 1.37 1.32
0.37 0.30 0.25 0.21 0.19 0.22 0.23 0.25 0.25 0.25 0.35 0.53 0.52 0.53 0.54 0.61 0.69 0.71 0.85 0.89 0.95 1.02 1.14 1.17 1.30 1.47 1.61 1.61 1.79 1.82 1.85 1.83 1.81 1.82 1.85 1.98 2.05 1.92 1.84 1.71 1.54 1.40 1.31 1.29
0.38 0.39 0.29 0.25 0.21 0.17 0.25 0.39 0.50 0.45 0.30 0.50 0.56 0.55 0.50 0.50 0.48 0.59 0.79 0.88 0.93 1.05 1.12 1.13 1.18 1.29 1.34 1.42 1.61 1.84 1.79 1.78 1.68 1.78 1.92 1.98 2.01 2.11 1.95 1.85 1.77 1.70 1.52 1.33
0.29 0.31 0.26 0.26 0.26 0.29 0.42 0.44 0.48 0.27 0.30 0.50 0.53 0.57 0.56 0.47 0.53 0.68 0.79 0.87 0.96 1.03 1.09 1.14 1.13 1.13 1.18 1.25 1.29 1.49 1.68 1.59 1.60 1.75 1.82 1.91 1.96 2.00 1.98 1.91 1.94 1.87 1.71 1.59
0.28 0.29 0.30 0.33 0.28 0.24 0.53 0.48 0.35 0.44 0.52 0.50 0.52 0.55 0.56 0.58 0.59 0.60 0.70 0.78 0.92 0.97 1.05 1.11 1.08 1.08 1.18 1.21 1.14 1.16 1.42 1.56 1.59 1.50 1.51 1.77 1.92 2.06 2.02 1.92 1.90 1.91 1.80 1.67
0.30 0.34 0.30 0.33 0.38 0.54 0.56 0.54 0.58 0.57 0.52 0.51 0.50 0.52 0.55 0.56 0.57 0.63 0.56 0.69 0.79 0.93 0.97 1.08 1.05 1.07 1.05 1.11 1.08 1.01 1.10 1.40 1.53 1.68 1.62 1.67 1.88 2.12 2.03 1.92 1.83 1.82 1.76 1.64
0.36 0.43 0.34 0.36 0.42 0.47 0.52 0.56 0.57 0.57 0.55 0.54 0.52 0.52 0.52 0.51 0.56 0.57 0.64 0.58 0.66 0.80 0.92 1.02 1.05 1.03 1.03 1.07 1.12 1.09 1.03 1.17 1.33 1.46 1.61 1.62 1.78 2.05 2.03 1.98 1.90 1.83 1.75 1.63
0.34 0.38 0.32 0.34 0.40 0.47 0.51 0.57 0.57 0.57 0.57 0.55 0.55 0.54 0.54 0.54 0.52 0.56 0.57 0.60 0.60 0.68 0.82 0.98 1.00 0.98 0.99 1.04 1.12 1.11 1.13 1.09 1.18 1.30 1.43 1.57 1.78 1.91 2.05 2.00 1.89 1.84 1.84 1.80
0.39 0.37 0.31 0.28 0.38 0.43 0.46 0.54 0.59 0.59 0.57 0.58 0.55 0.54 0.58 0.58 0.52 0.55 0.54 0.61 0.64 0.69 0.76 0.84 0.94 0.93 0.93 0.98 1.04 1.21 1.18 1.14 1.09 1.14 1.32 1.53 1.58 1.69 1.80 1.93 1.88 1.88 1.85 1.97

GFSCGP_prec_pwat_075.txt.gz
Precipitable_Water
0.42 0.44 0.39 0.44 0.46 0.47 0.48 0.47 0.47 0.53 0.49 0.46 0.52 0.64 0.92 1.16 1.36 1.41 1.45 1.41 1.31 1.26 1.49 1.56 1.54 1.42 1.37 1.40 1.42 1.39 1.34 1.39 1.51 1.45 1.50 1.54 1.50 1.59 1.69 1.79 1.83 1.82 1.82 1.76
0.38 0.37 0.48 0.52 0.52 0.45 0.41 0.38 0.40 0.46 0.54 0.52 0.62 0.56 0.91 1.07 1.23 1.35 1.42 1.45 1.41 1.32 1.35 1.43 1.50 1.46 1.33 1.33 1.37 1.41 1.41 1.39 1.41 1.36 1.42 1.55 1.58 1.61 1.76 1.80 1.76 1.83 1.81 1.72
0.32 0.41 0.53 0.46 0.42 0.40 0.36 0.29 0.40 0.42 0.44 0.65 0.61 0.61 0.82 1.03 1.28 1.29 1.42 1.52 1.50 1.44 1.32 1.36 1.38 1.43 1.36 1.30 1.32 1.37 1.40 1.35 1.35 1.37 1.38 1.49 1.71 1.70 1.73 1.68 1.62 1.73 1.80 1.66
0.39 0.46 0.41 0.39 0.37 0.39 0.30 0.35 0.43 0.40 0.33 0.26 0.61 0.41 0.73 0.91 1.02 1.15 1.30 1.43 1.48 1.49 1.47 1.41 1.33 1.35 1.34 1.32 1.33 1.39 1.44 1.38 1.30 1.29 1.30 1.30 1.39 1.42 1.59 1.62 1.60 1.63 1.78 1.82
0.36 0.31 0.36 0.33 0.33 0.40 0.31 0.37 0.34 0.39 0.32 0.29 0.34 0.41 0.49 0.99 0.97 1.00 1.15 1.39 1.53 1.55 1.52 1.38 1.35 1.33 1.34 1.35 1.32 1.38 1.41 1.43 1.31 1.19 1.21 1.28 1.30 1.43 1.55 1.68 1.59 1.63 1.71 1.79
0.33 0.34 0.31 0.34 0.39 0.39 0.39 0.34 0.33 0.31 0.29 0.22 0.26 0.26 0.28 0.51 0.58 0.71 1.04 1.31 1.51 1.52 1.52 1.43 1.37 1.39 1.35 1.39 1.34 1.38 1.36 1.38 1.37 1.22 1.16 1.25 1.22 1.34 1.48 1.51 1.56 1.54 1.49 1.56
0.28 0.30 0.30 0.29 0.26 0.32 0.33 0.29 0.20 0.18 0.19 0.19 0.28 0.25 0.26 0.39 0.52 0.58 0.66 1.03 1.38 1.52 1.47 1.46 1.38 1.25 1.29 1.28 1.25 1.34 1.35 1.34 1.38 1.27 1.13 1.15 1.19 1.34 1.51 1.54 1.58 1.50 1.46 1.47
0.22 0.21 0.27 0.31 0.27 0.28 0.29 0.29 0.20 0.13 0.15 0.20 0.28 0.23 0.28 0.40 0.50 0.53 0.67 0.81 1.24 1.44 1.47 1.48 1.45 1.36 1.25 1.26 1.27 1.32 1.36 1.30 1.34 1.29 1.17 1.14 1.16 1.31 1.45 1.56 1.55 1.56 1.55 1.55
0.20 0.21 0.31 0.31 0.31 0.33 0.32 0.29 0.32 0.23 0.24 0.20 0.23 0.29 0.36 0.48 0.52 0.59 0.61 0.71 0.85 1.20 1.39 1.42 1.53 1.43 1.26 1.25 1.25 1.28 1.34 1.38 1.36 1.32 1.22 1.09 1.13 1.27 1.35 1.50 1.57 1.63 1.64 1.59
0.26 0.19 0.28 0.30 0.32 0.33 0.32 0.35 0.27 0.26 0.18 0.17 0.21 0.27 0.33 0.45 0.52 0.64 0.66 0.72 0.77 1.01 1.24 1.35 1.54 1.48 1.34 1.24 1.24 1.31 1.34 1.36 1.43 1.40 1.34 1.20 1.05 1.14 1.23 1.42 1.43 1.51 1.56 1.58
0.31 0.25 0.25 0.27 0.27 0.26 0.30 0.29 0.30 0.30 0.29 0.21 0.19 0.26 0.44 0.52 0.61 0.61 0.69 0.75 0.75 0.83 1.00 1.24 1.52 1.56 1.54 1.59 1.49 1.33 1.29 1.31 1.33 1.39 1.39 1.34 1.19 1.05 1.12 1.22 1.36 1.40 1.50 1.53
0.32 0.27 0.23 0.26 0.32 0.32 0.29 0.29 0.30 0.26 0.25 0.28 0.29 0.24 0.36 0.41 0.50 0.63 0.66 0.70 0.80 0.88 0.98 1.21 1.45 1.59 1.60 1.62 1.67 1.53 1.41 1.28 1.30 1.36 1.37 1.35 1.31 1.21 1.00 1.06 1.20 1.35 1.34 1.44
0.32 0.25 0.20 0.24 0.29 0.31 0.27 0.30 0.29 0.31 0.31 0.27 0.25 0.25 0.35 0.43 0.46 0.62 0.71 0.74 0.79 0.90 1.00 1.18 1.39 1.59 1.69 1.58 1.67 1.74 1.66 1.51 1.38 1.38 1.37 1.37 1.33 1.28 1.18 0.99 0.99 1.19 1.29 1.31
0.32 0.26 0.21 0.17 0.22 0.28 0.26 0.29 0.30 0.28 0.26 0.26 0.26 0.28 0.36 0.45 0.50 0.60 0.74 0.88 0.93 1.03 1.13 1.22 1.37 1.58 1.69 1.63 1.62 1.69 1.73 1.77 1.64 1.54 1.43 1.33 1.35 1.33 1.29 1.25 1.07 0.94 1.08 1.21
0.28 0.18 0.21 0.22 0.23 0.23 0.23 0.23 0.26 0.27 0.29 0.27 0.27 0.28 0.41 0.55 0.59 0.64 0.76 0.92 0.99 1.06 1.17 1.24 1.36 1.54 1.65 1.64 1.60 1.62 1.72 1.82 1.81 1.70 1.57 1.44 1.39 1.39 1.40 1.34 1.30 1.19 0.96 0.99
0.31 0.22 0.24 0.19 0.22 0.19 0.16 0.19 0.21 0.21 0.24 0.27 0.32 0.31 0.51 0.62 0.73 0.64 0.70 0.80 0.92 1.06 1.17 1.23 1.34 1.56 1.63 1.68 1.59 1.62 1.62 1.69 1.83 1.76 1.67 1.69 1.59 1.55 1.44 1.41 1.35 1.35 1.26 1.01
0.27 0.24 0.20 0.14 0.20 0.16 0.11 0.15 0.17 0.19 0.24 0.22 0.21 0.37 0.52 0.55 0.61 0.64 0.68 0.75 0.81 0.93 1.09 1.17 1.22 1.36 1.62 1.70 1.73 1.68 1.68 1.71 1.74 1.79 1.79 1.75 1.74 1.69 1.63 1.58 1.49 1.39 1.34 1.33
0.26 0.24 0.22 0.17 0.19 0.09 0.18 0.25 0.24 0.26 0.32 0.37 0.36 0.39 0.52 0.60 0.65 0.69 0.73 0.72 0.79 0.90 1.04 1.13 1.18 1.22 1.40 1.57 1.76 1.83 1.83 1.73 1.68 1.76 1.84 1.81 1.79 1.74 1.71 1.65 1.55 1.48 1.43 1.36
0.33 0.27 0.21 0.17 0.16 0.19 0.21 0.24 0.25 0.26 0.27 0.39 0.38 0.45 0.43 0.56 0.69 0.65 0.75 0.76 0.79 0.89 1.00 1.11 1.18 1.20 1.26 1.34 1.47 1.71 1.80 1.82 1.73 1.74 1.78 1.86 1.89 1.80 1.78 1.66 1.56 1.55 1.56 1.47
0.37 0.35 0.26 0.23 0.17 0.13 0.23 0.36 0.44 0.41 0.21 0.41 0.42 0.41 0.44 0.48 0.49 0.61 0.71 0.76 0.79 0.88 0.94 1.02 1.13 1.16 1.14 1.23 1.32 1.48 1.66 1.75 1.74 1.76 1.89 1.97 1.93 1.90 1.84 1.77 1.67 1.59 1.62 1.59
0.26 0.28 0.22 0.23 0.21 0.24 0.37 0.42 0.45 0.21 0.23 0.46 0.51 0.50 0.46 0.41 0.52 0.65 0.70 0.71 0.78 0.83 0.92 0.98 1.04 1.06 1.15 1.14 1.26 1.38 1.49 1.63 1.76 1.84 1.88 1.95 1.93 1.94 1.94 1.90 1.87 1.81 1.72 1.70
0.23 0.22 0.23 0.27 0.23 0.19 0.46 0.44 0.34 0.42 0.50 0.49 0.51 0.52 0.48 0.50 0.53 0.58 0.64 0.68 0.71 0.72 0.81 0.94 0.95 1.00 1.09 1.17 1.10 1.17 1.36 1.55 1.78 1.82 1.84 1.83 1.91 1.91 2.00 2.00 1.96 1.91 1.81 1.73
0.23 0.28 0.24 0.27 0.27 0.43 0.49 0.47 0.54 0.55 0.50 0.51 0.51 0.54 0.52 0.48 0.48 0.53 0.56 0.61 0.63 0.68 0.73 0.84 0.94 0.98 1.02 1.12 1.16 1.08 1.10 1.22 1.47 1.63 1.67 1.66 1.67 1.75 1.83 1.91 1.92 1.89 1.87 1.74
0.29 0.35 0.24 0.23 0.25 0.31 0.40 0.48 0.52 0.55 0.54 0.55 0.55 0.53 0.53 0.49 0.50 0.51 0.53 0.58 0.61 0.63 0.67 0.72 0.84 0.92 0.98 1.01 1.12 1.17 1.14 1.17 1.22 1.26 1.41 1.56 1.58 1.61 1.72 1.79 1.90 1.89 1.75 1.72
0.31 0.35 0.29 0.27 0.30 0.32 0.34 0.40 0.50 0.54 0.58 0.58 0.59 0.56 0.54 0.53 0.50 0.53 0.51 0.53 0.58 0.60 0.63 0.69 0.72 0.83 0.88 1.00 1.00 1.10 1.18 1.10 1.12 1.16 1.16 1.29 1.39 1.56 1.59 1.72 1.79 1.88 1.80 1.84
0.34 0.29 0.27 0.25 0.34 0.35 0.36 0.42 0.47 0.47 0.53 0.59 0.59 0.58 0.59 0.57 0.54 0.56 0.54 0.55 0.56 0.56 0.62 0.63 0.72 0.77 0.84 0.95 0.96 1.00 1.08 1.12 1.08 1.03 1.02 1.06 1.21 1.39 1.60 1.66 1.80 2.00 1.97 1.96

GFSCGP_prec_pwat_078.txt.gz
Precipitable_Water
0.33 0.35 0.31 0.38 0.48 0.50 0.51 0.52 0.50 0.52 0.54 0.54 0.57 0.67 0.95 1.13 1.29 1.40 1.45 1.43 1.30 1.37 1.57 1.59 1.52 1.39 1.34 1.37 1.36 1.35 1.30 1.31 1.33 1.38 1.59 1.47 1.55 1.60 1.64 1.70 1.73 1.85 1.84 1.82
0.32 0.31 0.49 0.55 0.49 0.45 0.47 0.50 0.50 0.50 0.60 0.52 0.61 0.61 0.80 1.02 1.15 1.39 1.47 1.46 1.43 1.35 1.48 1.55 1.47 1.38 1.31 1.27 1.36 1.35 1.38 1.41 1.39 1.39 1.49 1.53 1.47 1.63 1.69 1.78 1.81 1.82 1.78 1.76
0.26 0.39 0.59 0.50 0.48 0.41 0.41 0.42 0.48 0.44 0.44 0.65 0.62 0.59 0.68 1.00 1.15 1.36 1.48 1.54 1.54 1.44 1.34 1.49 1.45 1.44 1.32 1.25 1.29 1.35 1.35 1.40 1.41 1.37 1.45 1.52 1.60 1.67 1.68 1.65 1.63 1.74 1.74 1.70
0.34 0.47 0.53 0.48 0.43 0.42 0.31 0.40 0.47 0.43 0.37 0.27 0.58 0.32 0.59 0.78 0.95 1.13 1.33 1.43 1.49 1.50 1.43 1.45 1.50 1.47 1.46 1.33 1.30 1.36 1.42 1.44 1.45 1.40 1.32 1.25 1.33 1.42 1.57 1.51 1.58 1.72 1.78 1.73
0.35 0.39 0.40 0.40 0.37 0.42 0.36 0.42 0.45 0.41 0.35 0.31 0.35 0.39 0.39 0.77 0.80 1.00 1.22 1.31 1.49 1.51 1.52 1.39 1.47 1.49 1.52 1.44 1.32 1.32 1.40 1.49 1.52 1.42 1.33 1.24 1.28 1.46 1.58 1.66 1.51 1.62 1.76 1.89
0.37 0.32 0.35 0.38 0.41 0.41 0.43 0.36 0.36 0.37 0.33 0.25 0.29 0.35 0.29 0.57 0.78 0.84 0.98 1.18 1.37 1.52 1.54 1.46 1.49 1.54 1.51 1.49 1.39 1.34 1.32 1.40 1.53 1.49 1.33 1.22 1.21 1.31 1.39 1.48 1.50 1.56 1.63 1.73
0.32 0.29 0.30 0.31 0.29 0.36 0.36 0.30 0.21 0.22 0.24 0.23 0.31 0.27 0.36 0.51 0.67 0.69 0.63 0.89 1.28 1.59 1.59 1.45 1.32 1.32 1.40 1.38 1.36 1.34 1.33 1.30 1.46 1.49 1.38 1.21 1.21 1.26 1.26 1.33 1.46 1.52 1.47 1.46
0.26 0.21 0.28 0.31 0.30 0.28 0.30 0.29 0.22 0.15 0.16 0.23 0.31 0.23 0.36 0.58 0.74 0.81 0.79 0.76 1.11 1.46 1.58 1.57 1.47 1.35 1.32 1.36 1.36 1.33 1.32 1.28 1.37 1.46 1.40 1.29 1.22 1.24 1.27 1.36 1.49 1.53 1.44 1.45
0.25 0.24 0.32 0.32 0.33 0.32 0.31 0.27 0.33 0.24 0.25 0.21 0.24 0.32 0.38 0.49 0.51 0.67 0.73 0.81 0.89 1.30 1.49 1.57 1.60 1.51 1.38 1.31 1.31 1.32 1.34 1.33 1.33 1.38 1.43 1.35 1.21 1.21 1.18 1.30 1.50 1.56 1.53 1.54
0.27 0.22 0.28 0.32 0.33 0.34 0.33 0.35 0.26 0.27 0.18 0.17 0.23 0.28 0.30 0.35 0.39 0.52 0.60 0.71 0.83 1.02 1.29 1.44 1.60 1.59 1.46 1.38 1.37 1.40 1.42 1.38 1.35 1.37 1.41 1.38 1.30 1.17 1.20 1.28 1.35 1.49 1.51 1.62
0.31 0.26 0.25 0.29 0.28 0.28 0.30 0.30 0.31 0.31 0.26 0.19 0.19 0.24 0.37 0.40 0.49 0.53 0.66 0.73 0.82 0.87 1.00 1.28 1.52 1.57 1.54 1.47 1.42 1.39 1.44 1.44 1.41 1.40 1.45 1.45 1.39 1.28 1.18 1.20 1.24 1.34 1.43 1.52
0.35 0.30 0.25 0.26 0.32 0.34 0.32 0.32 0.32 0.27 0.24 0.26 0.25 0.22 0.39 0.53 0.59 0.66 0.71 0.79 0.87 0.92 0.97 1.16 1.39 1.58 1.60 1.60 1.53 1.43 1.46 1.48 1.49 1.50 1.45 1.45 1.49 1.44 1.29 1.13 1.14 1.20 1.25 1.34
0.35 0.28 0.23 0.25 0.29 0.32 0.28 0.29 0.32 0.33 0.32 0.26 0.23 0.23 0.39 0.53 0.58 0.69 0.71 0.82 0.91 1.02 1.08 1.14 1.31 1.50 1.62 1.68 1.69 1.67 1.59 1.51 1.54 1.55 1.53 1.49 1.47 1.43 1.38 1.28 1.13 1.09 1.16 1.22
0.39 0.31 0.26 0.21 0.25 0.30 0.27 0.26 0.28 0.29 0.26 0.27 0.27 0.29 0.36 0.45 0.52 0.61 0.72 0.84 0.94 1.02 1.13 1.19 1.22 1.33 1.59 1.73 1.74 1.78 1.74 1.73 1.64 1.63 1.53 1.52 1.49 1.45 1.43 1.41 1.31 1.17 1.07 1.06
0.32 0.26 0.27 0.27 0.28 0.28 0.27 0.25 0.25 0.24 0.27 0.25 0.28 0.29 0.38 0.47 0.55 0.64 0.73 0.81 0.87 0.97 1.07 1.19 1.23 1.32 1.42 1.61 1.71 1.75 1.79 1.83 1.83 1.71 1.58 1.46 1.49 1.51 1.51 1.47 1.42 1.38 1.27 1.04
0.31 0.21 0.23 0.21 0.26 0.25 0.22 0.24 0.24 0.24 0.24 0.26 0.28 0.30 0.48 0.56 0.62 0.60 0.65 0.73 0.80 0.90 0.96 1.08 1.21 1.28 1.38 1.51 1.70 1.74 1.78 1.79 1.82 1.78 1.71 1.67 1.60 1.54 1.48 1.46 1.44 1.42 1.40 1.34
0.24 0.21 0.18 0.14 0.22 0.19 0.13 0.17 0.19 0.21 0.23 0.22 0.17 0.27 0.40 0.42 0.50 0.55 0.60 0.68 0.74 0.84 0.93 0.97 1.06 1.17 1.25 1.39 1.55 1.73 1.80 1.84 1.75 1.71 1.73 1.76 1.80 1.69 1.57 1.56 1.49 1.39 1.38 1.40
0.23 0.22 0.20 0.15 0.17 0.08 0.17 0.24 0.23 0.21 0.25 0.29 0.30 0.33 0.38 0.39 0.42 0.53 0.65 0.65 0.70 0.77 0.87 0.95 1.00 1.08 1.16 1.23 1.38 1.66 1.83 1.85 1.79 1.72 1.77 1.79 1.80 1.77 1.78 1.66 1.58 1.53 1.46 1.39
0.31 0.25 0.18 0.14 0.13 0.18 0.20 0.25 0.26 0.23 0.21 0.35 0.34 0.39 0.41 0.43 0.44 0.49 0.58 0.64 0.71 0.77 0.84 0.93 1.01 1.04 1.12 1.15 1.17 1.42 1.74 1.78 1.77 1.75 1.80 1.87 1.88 1.85 1.86 1.78 1.71 1.66 1.61 1.50
0.35 0.32 0.22 0.19 0.12 0.10 0.20 0.34 0.41 0.40 0.18 0.37 0.38 0.36 0.35 0.38 0.27 0.40 0.59 0.62 0.64 0.76 0.83 0.85 0.93 1.01 1.06 1.10 1.13 1.17 1.41 1.66 1.74 1.75 1.80 1.87 1.89 1.90 1.90 1.94 1.90 1.93 1.79 1.66
0.26 0.26 0.20 0.20 0.18 0.22 0.33 0.39 0.44 0.21 0.21 0.42 0.44 0.43 0.42 0.37 0.40 0.45 0.52 0.54 0.60 0.67 0.74 0.82 0.84 0.90 0.99 1.12 1.09 1.02 1.12 1.28 1.61 1.79 1.84 1.86 1.91 1.90 1.96 2.05 2.05 1.93 1.90 1.92
0.22 0.20 0.21 0.23 0.19 0.16 0.41 0.40 0.30 0.38 0.46 0.46 0.46 0.46 0.44 0.47 0.47 0.48 0.48 0.49 0.54 0.56 0.61 0.67 0.72 0.78 0.91 1.04 1.08 1.03 1.02 1.16 1.32 1.47 1.74 1.84 1.87 1.92 1.95 1.92 1.98 1.96 1.94 1.82
0.21 0.26 0.22 0.24 0.22 0.36 0.37 0.33 0.41 0.46 0.46 0.48 0.48 0.49 0.49 0.47 0.47 0.47 0.46 0.48 0.49 0.53 0.59 0.64 0.63 0.68 0.79 0.94 1.03 1.02 1.09 1.14 1.21 1.21 1.28 1.52 1.76 1.87 1.90 1.91 1.89 1.86 1.88 1.88
0.28 0.33 0.22 0.21 0.23 0.26 0.31 0.34 0.37 0.42 0.45 0.50 0.53 0.52 0.52 0.49 0.49 0.47 0.46 0.48 0.48 0.50 0.52 0.60 0.62 0.61 0.66 0.78 0.94 1.01 1.08 1.13 1.14 1.12 1.23 1.30 1.42 1.54 1.74 1.87 1.83 1.86 1.89 1.89
0.27 0.31 0.26 0.24 0.27 0.31 0.35 0.38 0.39 0.40 0.41 0.42 0.50 0.54 0.54 0.55 0.53 0.52 0.49 0.48 0.49 0.50 0.52 0.54 0.56 0.59 0.61 0.72 0.82 1.00 1.03 1.05 1.08 1.09 1.20 1.23 1.27 1.43 1.44 1.59 1.69 1.75 1.84 1.93
0.31 0.26 0.23 0.21 0.31 0.30 0.33 0.40 0.44 0.41 0.38 0.38 0.40 0.47 0.56 0.58 0.57 0.57 0.54 0.55 0.53 0.52 0.52 0.50 0.51 0.54 0.60 0.68 0.75 0.88 1.00 1.01 1.00 1.06 1.11 1.13 1.15 1.22 1.35 1.30 1.50 1.79 1.84 1.93

GFSCGP_prec_pwat_081.txt.gz
Precipitable_Water
0.30 0.30 0.21 0.34 0.46 0.49 0.53 0.55 0.51 0.56 0.67 0.66 0.66 0.71 0.96 1.20 1.34 1.40 1.46 1.39 1.40 1.35 1.54 1.63 1.59 1.47 1.24 1.22 1.18 1.22 1.18 1.17 1.26 1.35 1.33 1.46 1.61 1.66 1.74 1.77 1.88 1.85 1.83 1.78
0.26 0.25 0.36 0.46 0.53 0.47 0.49 0.54 0.47 0.51 0.66 0.58 0.71 0.74 0.93 1.05 1.17 1.36 1.44 1.48 1.41 1.45 1.45 1.54 1.57 1.46 1.29 1.19 1.25 1.29 1.26 1.27 1.32 1.45 1.65 1.52 1.60 1.70 1.69 1.72 1.77 1.80 1.81 1.76
0.23 0.30 0.47 0.50 0.45 0.42 0.43 0.48 0.49 0.43 0.48 0.73 0.70 0.66 0.78 0.99 1.19 1.38 1.51 1.57 1.54 1.44 1.45 1.50 1.47 1.45 1.38 1.26 1.26 1.30 1.32 1.38 1.42 1.50 1.56 1.53 1.57 1.69 1.65 1.68 1.70 1.76 1.76 1.78
0.28 0.44 0.48 0.46 0.44 0.45 0.34 0.51 0.55 0.45 0.37 0.30 0.60 0.35 0.70 0.85 0.99 1.18 1.41 1.49 1.52 1.50 1.51 1.51 1.48 1.43 1.36 1.33 1.34 1.37 1.41 1.43 1.45 1.48 1.45 1.39 1.38 1.44 1.57 1.58 1.60 1.67 1.74 1.72
0.32 0.35 0.47 0.47 0.46 0.50 0.41 0.47 0.49 0.46 0.36 0.32 0.39 0.40 0.42 0.87 0.86 1.03 1.23 1.41 1.53 1.58 1.50 1.49 1.50 1.49 1.48 1.39 1.37 1.38 1.43 1.48 1.51 1.45 1.40 1.35 1.38 1.54 1.65 1.60 1.52 1.65 1.77 1.82
0.35 0.43 0.47 0.48 0.56 0.52 0.49 0.39 0.39 0.40 0.33 0.25 0.31 0.38 0.41 0.53 0.68 0.85 1.10 1.30 1.37 1.54 1.60 1.58 1.60 1.60 1.55 1.54 1.46 1.42 1.39 1.42 1.51 1.52 1.43 1.34 1.33 1.45 1.49 1.58 1.52 1.54 1.71 1.77
0.32 0.28 0.32 0.38 0.40 0.44 0.42 0.34 0.24 0.26 0.23 0.22 0.30 0.34 0.47 0.65 0.78 0.88 0.84 0.85 1.11 1.43 1.61 1.61 1.54 1.51 1.54 1.47 1.47 1.46 1.40 1.35 1.47 1.50 1.51 1.40 1.39 1.39 1.40 1.45 1.55 1.54 1.56 1.60
0.27 0.22 0.28 0.31 0.30 0.31 0.37 0.34 0.23 0.19 0.19 0.22 0.30 0.28 0.41 0.53 0.70 0.86 0.94 0.94 1.07 1.29 1.55 1.60 1.59 1.54 1.49 1.51 1.50 1.47 1.40 1.33 1.43 1.50 1.54 1.53 1.44 1.37 1.38 1.43 1.44 1.53 1.60 1.47
0.28 0.24 0.33 0.32 0.32 0.33 0.31 0.28 0.33 0.23 0.26 0.23 0.27 0.36 0.48 0.51 0.59 0.76 0.83 0.91 0.94 1.23 1.51 1.54 1.59 1.51 1.47 1.48 1.48 1.48 1.44 1.37 1.35 1.43 1.52 1.54 1.48 1.37 1.28 1.36 1.50 1.52 1.60 1.55
0.33 0.24 0.31 0.32 0.34 0.35 0.34 0.36 0.27 0.25 0.18 0.17 0.25 0.28 0.30 0.42 0.50 0.65 0.74 0.84 0.91 1.06 1.31 1.58 1.66 1.63 1.53 1.47 1.52 1.50 1.50 1.47 1.39 1.41 1.46 1.52 1.52 1.47 1.33 1.37 1.34 1.47 1.65 1.64
0.32 0.29 0.27 0.32 0.30 0.30 0.30 0.30 0.31 0.30 0.26 0.20 0.19 0.23 0.43 0.51 0.61 0.62 0.77 0.91 0.97 0.99 1.09 1.34 1.62 1.74 1.74 1.59 1.51 1.46 1.46 1.48 1.50 1.50 1.47 1.50 1.53 1.51 1.44 1.26 1.33 1.35 1.54 1.67
0.34 0.30 0.25 0.26 0.33 0.36 0.33 0.31 0.33 0.26 0.24 0.26 0.25 0.23 0.52 0.60 0.67 0.69 0.73 0.84 0.97 1.08 1.17 1.27 1.49 1.66 1.72 1.67 1.58 1.50 1.50 1.49 1.51 1.55 1.56 1.49 1.55 1.56 1.51 1.43 1.24 1.32 1.41 1.53
0.36 0.28 0.23 0.24 0.28 0.31 0.30 0.32 0.32 0.32 0.31 0.26 0.22 0.23 0.52 0.62 0.65 0.71 0.71 0.80 0.90 1.01 1.14 1.22 1.37 1.52 1.64 1.64 1.62 1.53 1.51 1.50 1.57 1.61 1.59 1.59 1.55 1.56 1.52 1.50 1.48 1.28 1.26 1.36
0.40 0.31 0.26 0.21 0.25 0.29 0.25 0.28 0.32 0.31 0.27 0.28 0.28 0.29 0.39 0.49 0.56 0.63 0.72 0.79 0.83 0.90 0.98 1.14 1.22 1.32 1.57 1.67 1.67 1.65 1.63 1.63 1.60 1.62 1.58 1.55 1.56 1.57 1.57 1.57 1.56 1.50 1.32 1.20
0.39 0.32 0.33 0.32 0.31 0.30 0.29 0.25 0.27 0.28 0.31 0.28 0.31 0.33 0.43 0.52 0.56 0.61 0.70 0.79 0.82 0.84 0.90 0.96 1.10 1.19 1.32 1.56 1.70 1.81 1.86 1.85 1.81 1.70 1.65 1.54 1.59 1.60 1.59 1.62 1.58 1.57 1.54 1.40
0.39 0.30 0.32 0.26 0.28 0.27 0.25 0.28 0.28 0.28 0.28 0.30 0.32 0.35 0.53 0.61 0.65 0.64 0.63 0.69 0.73 0.80 0.87 0.91 0.96 1.08 1.18 1.30 1.53 1.71 1.80 1.86 1.94 1.83 1.71 1.75 1.77 1.64 1.61 1.57 1.54 1.54 1.51 1.50
0.29 0.25 0.21 0.17 0.24 0.22 0.17 0.21 0.24 0.26 0.31 0.30 0.25 0.36 0.48 0.49 0.53 0.55 0.60 0.64 0.68 0.74 0.80 0.88 0.93 0.96 1.03 1.18 1.29 1.51 1.71 1.85 1.86 1.88 1.87 1.78 1.81 1.75 1.64 1.59 1.56 1.51 1.47 1.48
0.24 0.23 0.22 0.17 0.18 0.10 0.19 0.26 0.26 0.24 0.30 0.35 0.36 0.39 0.43 0.45 0.48 0.55 0.57 0.59 0.64 0.71 0.77 0.82 0.89 0.95 1.01 1.07 1.15 1.31 1.57 1.67 1.86 1.89 1.88 1.90 1.87 1.79 1.80 1.70 1.60 1.55 1.53 1.49
0.30 0.25 0.19 0.15 0.14 0.16 0.19 0.24 0.24 0.21 0.23 0.35 0.34 0.37 0.40 0.42 0.42 0.46 0.55 0.53 0.51 0.56 0.69 0.79 0.87 0.92 0.98 1.03 1.07 1.08 1.27 1.47 1.64 1.77 1.83 1.84 1.90 1.88 1.87 1.85 1.82 1.68 1.65 1.60
0.33 0.31 0.22 0.18 0.13 0.10 0.19 0.30 0.35 0.34 0.16 0.35 0.37 0.36 0.37 0.38 0.26 0.40 0.50 0.52 0.52 0.54 0.56 0.61 0.73 0.81 0.86 0.95 1.04 1.02 1.03 1.16 1.37 1.58 1.77 1.88 1.93 1.90 1.85 1.92 1.95 1.94 1.88 1.70
0.27 0.27 0.22 0.20 0.17 0.18 0.27 0.34 0.40 0.16 0.21 0.38 0.40 0.40 0.39 0.35 0.38 0.41 0.46 0.47 0.50 0.49 0.50 0.55 0.62 0.67 0.73 0.83 0.94 0.94 0.95 0.98 1.14 1.31 1.60 1.80 1.87 1.91 1.96 1.96 1.98 2.04 1.99 1.97
0.24 0.23 0.22 0.23 0.18 0.14 0.37 0.36 0.26 0.35 0.41 0.41 0.41 0.41 0.39 0.41 0.43 0.44 0.45 0.45 0.46 0.47 0.50 0.51 0.50 0.57 0.67 0.71 0.77 0.85 0.90 0.99 1.08 1.16 1.24 1.47 1.73 1.84 1.88 1.95 1.95 1.96 2.02 1.97
0.21 0.26 0.24 0.25 0.23 0.36 0.38 0.31 0.35 0.35 0.34 0.36 0.38 0.43 0.44 0.43 0.43 0.45 0.44 0.44 0.45 0.47 0.47 0.50 0.50 0.51 0.60 0.67 0.70 0.71 0.84 0.96 1.00 1.08 1.10 1.19 1.32 1.52 1.68 1.83 1.86 1.87 1.93 1.94
0.27 0.31 0.22 0.21 0.25 0.28 0.29 0.30 0.31 0.33 0.33 0.36 0.37 0.39 0.41 0.40 0.44 0.45 0.47 0.48 0.48 0.48 0.48 0.50 0.48 0.48 0.50 0.61 0.68 0.69 0.78 0.89 0.96 1.00 1.07 1.11 1.15 1.24 1.42 1.55 1.65 1.77 1.82 1.85
0.29 0.32 0.26 0.22 0.23 0.27 0.29 0.33 0.36 0.36 0.39 0.39 0.38 0.36 0.38 0.39 0.40 0.44 0.47 0.50 0.51 0.50 0.52 0.52 0.49 0.48 0.48 0.53 0.60 0.70 0.77 0.81 0.84 0.93 1.00 1.06 1.09 1.18 1.26 1.34 1.42 1.57 1.80 1.87
0.32 0.28 0.23 0.20 0.29 0.30 0.32 0.36 0.40 0.40 0.41 0.42 0.39 0.38 0.43 0.44 0.42 0.43 0.42 0.49 0.53 0.53 0.55 0.56 0.56 0.54 0.52 0.52 0.52 0.60 0.77 0.80 0.77 0.82 0.90 0.97 1.00 1.07 1.16 1.23 1.26 1.48 1.59 1.72

GFSCGP_prec_pwat_084.txt.gz
Precipitable_Water
0.31 0.28 0.20 0.29 0.40 0.65 0.63 0.63 0.60 0.84 1.01 0.85 0.79 0.91 1.14 1.45 1.46 1.41 1.52 1.52 1.42 1.29 1.39 1.55 1.52 1.40 1.23 1.18 1.11 1.19 1.24 1.29 1.36 1.40 1.42 1.60 1.68 1.76 1.84 1.86 1.88 1.88 1.94 1.78
0.27 0.26 0.29 0.43 0.53 0.55 0.58 0.54 0.50 0.64 0.70 0.60 0.69 0.75 1.00 1.28 1.30 1.45 1.47 1.47 1.45 1.34 1.44 1.55 1.54 1.48 1.25 1.07 1.07 1.20 1.24 1.25 1.28 1.39 1.48 1.65 1.74 1.77 1.85 1.83 1.87 1.86 1.88 1.78
0.24 0.28 0.41 0.42 0.48 0.38 0.51 0.53 0.50 0.52 0.59 0.71 0.75 0.74 0.90 1.04 1.27 1.43 1.58 1.57 1.53 1.41 1.38 1.53 1.56 1.49 1.33 1.15 1.18 1.26 1.32 1.31 1.35 1.51 1.69 1.63 1.72 1.78 1.72 1.76 1.78 1.80 1.82 1.82
0.28 0.41 0.37 0.40 0.42 0.42 0.39 0.63 0.54 0.47 0.43 0.50 0.69 0.63 0.87 0.98 1.09 1.32 1.44 1.57 1.57 1.55 1.52 1.51 1.57 1.52 1.37 1.26 1.29 1.38 1.48 1.43 1.46 1.57 1.59 1.55 1.48 1.53 1.66 1.72 1.76 1.77 1.80 1.78
0.30 0.35 0.40 0.42 0.45 0.46 0.46 0.54 0.55 0.49 0.41 0.36 0.47 0.54 0.76 0.97 0.92 1.17 1.35 1.56 1.61 1.61 1.57 1.58 1.55 1.57 1.43 1.39 1.34 1.35 1.49 1.53 1.52 1.50 1.54 1.48 1.50 1.64 1.71 1.65 1.72 1.78 1.81 1.83
0.46 0.42 0.54 0.52 0.57 0.52 0.55 0.42 0.47 0.47 0.39 0.28 0.38 0.47 0.55 0.72 0.86 0.97 1.18 1.32 1.50 1.59 1.61 1.63 1.66 1.65 1.55 1.43 1.42 1.43 1.44 1.52 1.59 1.56 1.54 1.49 1.45 1.61 1.68 1.62 1.63 1.69 1.76 1.83
0.34 0.40 0.46 0.54 0.54 0.55 0.45 0.34 0.26 0.29 0.27 0.24 0.37 0.42 0.61 0.69 0.76 0.90 1.03 1.18 1.25 1.52 1.57 1.60 1.64 1.61 1.57 1.46 1.38 1.42 1.45 1.47 1.57 1.57 1.53 1.50 1.46 1.52 1.66 1.65 1.61 1.60 1.68 1.71
0.25 0.21 0.32 0.39 0.43 0.43 0.38 0.33 0.26 0.23 0.23 0.27 0.35 0.38 0.44 0.68 0.84 0.97 1.03 1.06 1.10 1.26 1.54 1.64 1.69 1.70 1.66 1.63 1.52 1.47 1.41 1.44 1.52 1.54 1.55 1.55 1.53 1.49 1.56 1.63 1.60 1.68 1.72 1.74
0.34 0.26 0.31 0.33 0.38 0.40 0.37 0.33 0.37 0.29 0.33 0.27 0.29 0.47 0.53 0.69 0.78 0.88 1.00 1.03 1.12 1.23 1.37 1.59 1.79 1.73 1.71 1.66 1.64 1.54 1.48 1.51 1.54 1.53 1.59 1.62 1.58 1.49 1.48 1.53 1.59 1.60 1.65 1.75
0.37 0.27 0.31 0.30 0.35 0.38 0.40 0.44 0.30 0.27 0.23 0.22 0.29 0.36 0.40 0.55 0.63 0.76 0.95 1.00 1.09 1.16 1.35 1.62 1.70 1.74 1.77 1.73 1.73 1.71 1.63 1.52 1.55 1.53 1.57 1.60 1.61 1.60 1.53 1.51 1.46 1.58 1.61 1.69
0.39 0.33 0.29 0.33 0.30 0.29 0.32 0.32 0.32 0.31 0.28 0.23 0.28 0.32 0.56 0.62 0.65 0.70 0.83 1.02 1.07 1.14 1.29 1.56 1.73 1.83 1.77 1.75 1.72 1.68 1.67 1.59 1.60 1.57 1.54 1.58 1.59 1.60 1.61 1.51 1.46 1.47 1.59 1.71
0.36 0.35 0.29 0.30 0.34 0.36 0.35 0.34 0.35 0.28 0.26 0.28 0.29 0.34 0.64 0.70 0.72 0.78 0.84 0.92 1.07 1.17 1.24 1.45 1.62 1.76 1.94 1.81 1.71 1.65 1.67 1.61 1.60 1.64 1.63 1.61 1.66 1.66 1.61 1.58 1.51 1.46 1.45 1.54
0.35 0.30 0.27 0.27 0.30 0.35 0.33 0.33 0.34 0.34 0.36 0.28 0.24 0.34 0.65 0.72 0.72 0.79 0.78 0.87 0.95 1.07 1.17 1.28 1.42 1.60 1.77 1.82 1.88 1.76 1.67 1.64 1.62 1.63 1.63 1.64 1.63 1.67 1.63 1.57 1.62 1.59 1.49 1.42
0.41 0.32 0.32 0.26 0.29 0.32 0.29 0.30 0.33 0.33 0.29 0.34 0.33 0.41 0.55 0.63 0.66 0.75 0.80 0.85 0.90 0.93 1.00 1.11 1.25 1.34 1.50 1.66 1.77 1.80 1.78 1.73 1.67 1.64 1.60 1.57 1.61 1.58 1.58 1.70 1.60 1.64 1.65 1.54
0.42 0.33 0.32 0.33 0.32 0.31 0.29 0.27 0.30 0.31 0.35 0.33 0.38 0.41 0.54 0.61 0.62 0.68 0.77 0.83 0.84 0.86 0.91 0.95 1.01 1.13 1.28 1.46 1.66 1.72 1.77 1.77 1.72 1.65 1.62 1.58 1.64 1.69 1.68 1.59 1.72 1.62 1.63 1.63
0.41 0.36 0.35 0.30 0.31 0.29 0.27 0.28 0.27 0.30 0.33 0.35 0.40 0.45 0.64 0.66 0.69 0.64 0.67 0.71 0.73 0.78 0.84 0.90 0.95 1.00 1.05 1.16 1.38 1.64 1.73 1.79 1.76 1.73 1.72 1.74 1.73 1.71 1.66 1.66 1.65 1.64 1.64 1.60
0.37 0.34 0.33 0.28 0.30 0.25 0.21 0.26 0.28 0.29 0.32 0.34 0.34 0.49 0.59 0.59 0.60 0.62 0.62 0.64 0.68 0.73 0.79 0.84 0.90 0.93 0.97 1.05 1.16 1.28 1.60 1.78 1.88 1.93 1.98 1.97 1.94 1.83 1.79 1.72 1.69 1.65 1.58 1.61
0.32 0.31 0.29 0.24 0.23 0.17 0.30 0.34 0.30 0.29 0.37 0.39 0.43 0.48 0.52 0.54 0.56 0.61 0.62 0.59 0.59 0.63 0.69 0.76 0.81 0.87 0.93 0.98 1.04 1.13 1.23 1.46 1.67 1.79 1.87 1.91 1.95 1.98 1.89 1.82 1.80 1.74 1.71 1.63
0.30 0.27 0.22 0.20 0.16 0.22 0.23 0.27 0.28 0.26 0.33 0.43 0.44 0.46 0.47 0.48 0.50 0.55 0.58 0.61 0.60 0.60 0.60 0.63 0.70 0.75 0.86 0.91 0.95 1.00 1.03 1.12 1.29 1.52 1.67 1.79 1.88 1.87 1.89 1.92 1.95 1.94 1.76 1.67
0.30 0.32 0.24 0.20 0.18 0.14 0.25 0.31 0.33 0.30 0.22 0.39 0.41 0.42 0.42 0.44 0.34 0.55 0.62 0.58 0.57 0.58 0.59 0.58 0.58 0.62 0.68 0.76 0.82 0.87 0.94 0.99 1.03 1.16 1.46 1.60 1.70 1.77 1.85 1.94 1.98 2.10 2.10 1.93
0.26 0.26 0.22 0.22 0.20 0.22 0.32 0.33 0.35 0.16 0.28 0.41 0.40 0.39 0.38 0.34 0.41 0.51 0.51 0.47 0.47 0.48 0.49 0.52 0.53 0.52 0.56 0.63 0.69 0.72 0.82 0.86 0.99 1.07 1.15 1.39 1.58 1.69 1.84 1.86 1.91 1.98 2.05 2.13
0.28 0.26 0.24 0.26 0.22 0.19 0.38 0.32 0.24 0.40 0.43 0.40 0.39 0.39 0.37 0.40 0.42 0.43 0.45 0.46 0.47 0.47 0.49 0.50 0.47 0.49 0.55 0.59 0.59 0.60 0.68 0.83 0.90 0.96 1.04 1.11 1.25 1.50 1.69 1.82 1.88 1.95 1.97 1.96
0.26 0.32 0.31 0.29 0.31 0.43 0.41 0.42 0.46 0.43 0.36 0.38 0.36 0.39 0.40 0.39 0.40 0.42 0.43 0.45 0.47 0.48 0.49 0.50 0.49 0.49 0.51 0.55 0.58 0.55 0.62 0.71 0.80 0.84 0.89 1.01 1.09 1.12 1.28 1.42 1.63 1.78 1.89 1.90
0.31 0.36 0.27 0.28 0.31 0.36 0.37 0.34 0.34 0.32 0.32 0.34 0.36 0.35 0.36 0.35 0.38 0.39 0.41 0.43 0.46 0.49 0.50 0.51 0.50 0.50 0.50 0.54 0.56 0.57 0.59 0.64 0.69 0.75 0.77 0.87 0.94 0.99 1.09 1.16 1.27 1.45 1.61 1.72
0.35 0.33 0.28 0.27 0.29 0.33 0.36 0.34 0.35 0.35 0.37 0.35 0.38 0.35 0.35 0.37 0.38 0.39 0.38 0.39 0.40 0.42 0.47 0.50 0.52 0.54 0.56 0.59 0.57 0.58 0.59 0.59 0.57 0.66 0.72 0.74 0.79 0.91 0.97 1.10 1.11 1.17 1.33 1.51
0.39 0.33 0.26 0.24 0.32 0.28 0.33 0.36 0.40 0.39 0.40 0.42 0.39 0.38 0.42 0.42 0.40 0.40 0.38 0.40 0.39 0.39 0.42 0.45 0.50 0.53 0.55 0.58 0.61 0.64 0.63 0.61 0.57 0.57 0.60 0.68 0.71 0.73 0.86 0.97 1.10 1.16 1.20 1.27

GFSCGP_prec_pwat_090.txt.gz
Precipitable_Water
0.39 0.26 0.24 0.33 0.52 0.69 0.71 0.70 0.80 0.94 1.24 1.16 1.07 1.13 1.19 1.37 1.44 1.39 1.44 1.38 1.29 1.26 1.34 1.28 1.20 1.20 1.25 1.32 1.31 1.38 1.35 1.33 1.45 1.39 1.56 1.66 1.70 1.73 1.80 2.04 1.88 1.83 1.74 1.86
0.30 0.21 0.30 0.37 0.44 0.57 0.65 0.65 0.85 0.97 1.06 1.05 1.11 1.06 1.19 1.31 1.33 1.45 1.45 1.44 1.37 1.36 1.35 1.28 1.22 1.16 1.25 1.28 1.27 1.31 1.36 1.30 1.43 1.37 1.68 1.73 1.87 1.77 1.79 1.92 1.86 1.79 1.71 1.72
0.27 0.25 0.30 0.31 0.33 0.38 0.53 0.57 0.75 0.65 0.87 1.26 1.14 1.27 1.14 1.25 1.43 1.46 1.53 1.56 1.54 1.46 1.41 1.31 1.36 1.26 1.23 1.27 1.21 1.25 1.32 1.26 1.33 1.46 1.78 2.04 2.22 1.74 2.01 1.70 1.75 1.74 1.75 1.70
0.30 0.31 0.29 0.30 0.27 0.33 0.36 0.63 0.75 0.86 0.74 0.70 0.99 0.69 1.11 1.17 1.23 1.35 1.45 1.55 1.52 1.52 1.46 1.41 1.40 1.35 1.26 1.26 1.28 1.26 1.30 1.26 1.25 1.49 1.45 1.64 1.57 1.54 1.76 1.77 1.86 1.73 1.72 1.70
0.28 0.31 0.29 0.29 0.29 0.37 0.40 0.69 0.79 0.86 0.66 0.55 0.66 0.61 0.97 1.08 1.05 1.20 1.39 1.47 1.54 1.58 1.46 1.40 1.46 1.50 1.45 1.35 1.22 1.26 1.27 1.29 1.18 1.31 1.48 1.67 1.60 1.87 1.92 1.87 1.83 1.77 1.66 1.69
0.34 0.36 0.35 0.36 0.38 0.53 0.55 0.53 0.63 0.70 0.64 0.39 0.69 0.63 0.84 1.01 1.12 1.23 1.24 1.37 1.51 1.51 1.42 1.48 1.54 1.59 1.68 1.42 1.25 1.20 1.24 1.24 1.26 1.23 1.66 1.69 1.66 1.93 1.96 1.71 1.73 1.70 1.61 1.60
0.33 0.33 0.35 0.39 0.38 0.48 0.48 0.46 0.45 0.42 0.36 0.33 0.55 0.58 0.93 1.11 1.20 1.36 1.44 1.38 1.55 1.58 1.62 1.48 1.50 1.53 1.55 1.47 1.38 1.24 1.30 1.23 1.30 1.35 1.44 1.61 1.73 1.78 1.83 1.69 1.73 1.91 1.90 1.76
0.28 0.34 0.34 0.41 0.40 0.43 0.43 0.49 0.42 0.32 0.32 0.32 0.47 0.59 0.74 1.04 1.23 1.63 1.40 1.43 1.43 1.61 1.72 1.62 1.55 1.60 1.60 1.63 1.51 1.35 1.30 1.33 1.36 1.39 1.36 1.47 1.47 1.56 1.79 1.95 1.81 1.70 1.85 1.88
0.34 0.36 0.41 0.51 0.57 0.66 0.43 0.43 0.53 0.44 0.40 0.35 0.50 0.69 0.89 1.24 1.12 1.19 1.18 1.37 1.62 1.76 1.80 1.69 1.66 1.64 1.69 1.64 1.57 1.48 1.33 1.35 1.40 1.44 1.49 1.45 1.53 1.49 1.38 1.64 1.66 1.69 1.85 2.07
0.51 0.38 0.46 0.48 0.53 0.62 0.58 0.50 0.40 0.43 0.34 0.29 0.51 0.57 0.65 0.87 0.85 0.95 0.98 1.11 1.40 1.55 1.64 1.79 1.82 1.94 1.79 1.97 1.77 1.77 1.60 1.40 1.46 1.53 1.55 1.53 1.51 1.49 1.50 1.68 1.67 1.72 1.89 1.89
0.54 0.47 0.40 0.38 0.39 0.43 0.47 0.42 0.44 0.45 0.39 0.34 0.49 0.61 0.93 0.97 0.89 0.83 0.88 1.02 1.19 1.31 1.38 1.58 1.83 2.16 2.00 2.00 1.93 2.14 2.06 1.59 1.54 1.59 1.63 1.60 1.61 1.61 1.57 1.50 1.44 1.51 1.66 1.75
0.52 0.46 0.40 0.32 0.32 0.41 0.51 0.47 0.43 0.39 0.35 0.49 0.55 0.70 1.10 1.06 1.03 0.97 0.93 1.00 1.11 1.15 1.29 1.46 1.62 1.88 1.94 1.98 1.92 1.96 2.21 1.94 1.84 1.75 1.71 1.64 1.63 1.69 1.68 1.62 1.56 1.59 1.45 1.45
0.50 0.40 0.37 0.33 0.32 0.32 0.33 0.38 0.43 0.46 0.48 0.47 0.47 0.60 1.10 1.18 1.00 0.97 0.93 0.97 1.05 1.09 1.17 1.30 1.46 1.48 1.54 1.61 1.81 1.89 2.21 2.09 2.23 1.97 1.81 1.68 1.65 1.65 1.64 1.69 1.72 1.68 1.65 1.60
0.50 0.42 0.43 0.40 0.38 0.36 0.28 0.33 0.38 0.42 0.39 0.44 0.59 0.69 0.92 1.00 0.94 0.97 0.91 0.94 1.00 1.05 1.11 1.22 1.30 1.36 1.44 1.56 1.76 1.92 1.93 1.95 2.24 2.20 2.09 1.92 1.73 1.63 1.63 1.70 1.77 1.77 1.74 1.69
0.44 0.37 0.42 0.47 0.42 0.37 0.33 0.29 0.34 0.34 0.37 0.61 0.79 0.73 0.85 0.93 0.95 0.96 0.96 0.92 0.93 0.96 1.03 1.09 1.19 1.24 1.34 1.48 1.66 1.86 1.94 2.00 2.01 1.85 1.98 1.84 2.45 1.95 1.77 1.84 1.78 1.78 1.73 1.78
0.38 0.38 0.43 0.39 0.41 0.35 0.34 0.35 0.33 0.32 0.36 0.53 0.65 0.82 0.98 1.00 0.98 0.91 0.89 0.83 0.82 0.86 0.91 0.96 1.00 1.08 1.17 1.30 1.39 1.53 1.70 1.82 1.98 1.98 1.98 2.06 1.78 2.22 1.75 1.72 1.79 1.81 1.74 1.69
0.43 0.37 0.37 0.37 0.40 0.36 0.29 0.32 0.31 0.30 0.35 0.62 0.54 0.83 0.99 0.92 0.89 0.86 0.86 0.84 0.77 0.79 0.80 0.81 0.85 0.89 0.90 0.96 1.11 1.20 1.37 1.53 1.62 1.79 1.90 1.99 1.99 1.95 1.85 1.82 1.80 1.84 1.79 1.79
0.44 0.43 0.45 0.38 0.37 0.29 0.38 0.38 0.35 0.32 0.35 0.63 0.71 0.78 0.87 0.91 0.89 0.88 0.83 0.76 0.72 0.72 0.73 0.74 0.77 0.82 0.86 0.86 0.89 1.00 1.11 1.22 1.35 1.48 1.59 1.75 1.84 1.87 1.86 1.75 1.71 1.74 1.76 1.79
0.40 0.41 0.36 0.35 0.37 0.40 0.40 0.40 0.32 0.32 0.35 0.62 0.74 0.81 0.86 0.83 0.80 0.74 0.80 0.77 0.72 0.71 0.71 0.71 0.73 0.76 0.81 0.82 0.85 0.86 0.90 0.96 1.00 1.03 1.19 1.43 1.58 1.66 1.77 1.75 1.70 1.75 1.79 1.80
0.30 0.31 0.35 0.35 0.30 0.30 0.41 0.45 0.43 0.35 0.33 0.50 0.68 0.74 0.73 0.76 0.58 0.61 0.67 0.65 0.63 0.63 0.64 0.63 0.65 0.68 0.71 0.71 0.75 0.76 0.78 0.83 0.86 0.90 0.94 1.01 1.11 1.31 1.48 1.61 1.70 1.80 1.81 1.84
0.25 0.27 0.24 0.28 0.30 0.38 0.50 0.48 0.44 0.28 0.35 0.52 0.61 0.62 0.61 0.58 0.65 0.72 0.72 0.69 0.68 0.65 0.62 0.60 0.59 0.60 0.63 0.64 0.62 0.60 0.64 0.68 0.74 0.78 0.81 0.87 0.92 0.96 1.10 1.31 1.46 1.55 1.67 1.77
0.33 0.29 0.27 0.27 0.28 0.28 0.52 0.46 0.38 0.53 0.58 0.58 0.64 0.65 0.64 0.63 0.64 0.67 0.68 0.66 0.65 0.63 0.62 0.60 0.56 0.56 0.59 0.61 0.60 0.57 0.55 0.61 0.61 0.61 0.63 0.68 0.78 0.84 0.86 0.94 1.05 1.21 1.39 1.46
0.36 0.44 0.42 0.44 0.41 0.56 0.58 0.57 0.60 0.58 0.53 0.55 0.58 0.62 0.62 0.57 0.55 0.57 0.57 0.59 0.59 0.59 0.58 0.57 0.55 0.54 0.58 0.62 0.60 0.54 0.58 0.60 0.60 0.56 0.53 0.55 0.59 0.65 0.75 0.77 0.76 0.90 1.03 1.22
0.42 0.50 0.45 0.51 0.58 0.61 0.61 0.66 0.63 0.57 0.55 0.52 0.52 0.53 0.51 0.48 0.49 0.51 0.52 0.52 0.53 0.53 0.52 0.56 0.53 0.50 0.49 0.53 0.53 0.54 0.58 0.60 0.60 0.57 0.58 0.57 0.53 0.52 0.56 0.64 0.70 0.75 0.80 0.92
0.47 0.46 0.38 0.44 0.53 0.57 0.58 0.58 0.54 0.46 0.48 0.46 0.45 0.44 0.43 0.45 0.45 0.50 0.48 0.48 0.47 0.47 0.49 0.49 0.48 0.48 0.49 0.50 0.49 0.52 0.54 0.54 0.51 0.54 0.58 0.58 0.59 0.56 0.55 0.58 0.60 0.64 0.70 0.76
0.50 0.40 0.41 0.32 0.42 0.47 0.49 0.52 0.48 0.44 0.42 0.43 0.41 0.41 0.42 0.43 0.44 0.44 0.46 0.48 0.48 0.45 0.46 0.45 0.45 0.45 0.46 0.48 0.49 0.50 0.53 0.52 0.49 0.48 0.50 0.54 0.56 0.58 0.59 0.57 0.57 0.61 0.57 0.64

GFSCGP_prec_pwat_093.txt.gz
Precipitable_Water
0.38 0.30 0.26 0.42 0.52 0.64 0.74 0.79 0.82 1.12 1.20 1.08 1.18 1.11 1.17 1.32 1.43 1.39 1.33 1.31 1.23 1.16 1.14 1.21 1.26 1.28 1.26 1.30 1.28 1.34 1.28 1.34 1.35 1.62 1.64 1.69 1.68 1.76 1.77 1.83 1.87 1.79 1.76 1.83
0.34 0.26 0.28 0.34 0.46 0.56 0.65 0.68 0.89 1.05 1.18 1.11 1.39 1.13 1.19 1.28 1.31 1.36 1.36 1.33 1.32 1.23 1.21 1.14 1.21 1.23 1.26 1.20 1.23 1.32 1.26 1.27 1.27 1.37 1.65 1.78 1.69 1.73 1.85 1.83 1.75 1.78 1.82 1.82
0.28 0.27 0.29 0.27 0.33 0.42 0.54 0.58 0.76 0.82 1.04 1.13 1.18 1.05 1.19 1.27 1.30 1.40 1.45 1.47 1.47 1.35 1.24 1.20 1.16 1.19 1.23 1.22 1.14 1.25 1.25 1.28 1.30 1.47 1.69 1.83 1.97 1.73 1.81 1.80 1.74 1.78 1.78 1.74
0.28 0.32 0.31 0.26 0.27 0.37 0.40 0.57 0.67 0.84 0.79 0.71 0.93 0.75 1.00 1.26 1.25 1.29 1.39 1.46 1.49 1.44 1.39 1.33 1.24 1.21 1.22 1.26 1.29 1.22 1.26 1.28 1.27 1.52 1.51 1.69 1.66 1.60 1.68 1.68 1.74 1.63 1.73 1.71
0.24 0.29 0.31 0.26 0.26 0.33 0.41 0.57 0.74 0.79 0.76 0.79 0.85 0.82 0.91 1.19 1.19 1.24 1.30 1.47 1.51 1.50 1.51 1.41 1.35 1.32 1.39 1.35 1.27 1.32 1.15 1.23 1.20 1.45 1.54 1.64 1.57 1.65 1.84 1.83 1.70 1.64 1.66 1.70
0.27 0.34 0.34 0.32 0.31 0.31 0.43 0.48 0.70 0.70 0.68 0.52 0.74 0.81 0.91 1.01 1.20 1.24 1.43 1.43 1.53 1.58 1.61 1.61 1.51 1.46 1.43 1.46 1.32 1.34 1.21 1.12 1.15 1.30 1.42 1.57 1.59 1.74 1.95 1.76 1.84 1.67 1.61 1.59
0.26 0.29 0.35 0.36 0.32 0.32 0.41 0.43 0.42 0.46 0.50 0.51 0.66 0.80 0.80 1.06 1.24 1.25 1.38 1.47 1.53 1.62 1.63 1.62 1.54 1.48 1.49 1.58 1.49 1.36 1.16 1.08 1.14 1.19 1.30 1.51 1.65 1.80 1.80 1.73 1.78 1.63 1.68 1.65
0.25 0.22 0.32 0.36 0.34 0.31 0.45 0.50 0.43 0.39 0.42 0.47 0.59 0.59 0.73 1.09 1.23 1.29 1.31 1.60 1.60 1.62 1.58 1.59 1.62 1.57 1.59 1.60 1.63 1.44 1.21 1.09 1.13 1.14 1.29 1.65 1.71 1.75 1.82 1.81 1.82 1.86 1.99 1.87
0.38 0.28 0.38 0.35 0.37 0.40 0.44 0.43 0.48 0.48 0.52 0.42 0.59 0.73 0.90 1.01 1.04 1.14 1.21 1.24 1.55 1.68 1.69 1.70 1.72 1.69 1.66 1.66 1.61 1.60 1.40 1.20 1.15 1.29 1.28 1.29 1.44 1.55 1.67 1.83 1.87 1.79 1.93 1.89
0.54 0.35 0.43 0.43 0.42 0.48 0.52 0.55 0.42 0.46 0.35 0.35 0.55 0.59 0.64 0.90 0.95 1.13 1.21 1.32 1.49 1.51 1.55 1.69 1.85 1.80 1.86 2.01 1.75 1.79 1.69 1.51 1.26 1.29 1.40 1.38 1.37 1.45 1.53 1.60 1.77 1.79 1.76 1.84
0.60 0.49 0.43 0.44 0.42 0.40 0.45 0.43 0.45 0.47 0.47 0.39 0.41 0.59 1.00 1.06 1.14 1.17 1.30 1.32 1.34 1.39 1.51 1.62 1.83 1.96 1.99 2.07 2.12 1.91 1.85 1.82 1.73 1.58 1.47 1.49 1.48 1.44 1.48 1.54 1.66 1.73 1.76 1.87
0.52 0.55 0.43 0.40 0.45 0.49 0.55 0.43 0.46 0.40 0.44 0.53 0.52 0.61 1.20 1.29 1.25 1.23 1.25 1.28 1.33 1.39 1.53 1.64 1.70 1.90 1.89 1.72 2.19 2.04 2.03 2.03 1.95 1.94 1.83 1.61 1.56 1.60 1.54 1.49 1.54 1.57 1.50 1.55
0.53 0.49 0.43 0.39 0.37 0.36 0.38 0.49 0.42 0.44 0.49 0.50 0.45 0.58 1.16 1.18 1.17 1.15 1.14 1.20 1.26 1.27 1.34 1.42 1.44 1.49 1.56 1.64 1.85 1.99 2.17 2.03 2.01 2.06 1.83 1.87 1.79 1.69 1.64 1.67 1.61 1.63 1.58 1.49
0.57 0.48 0.48 0.39 0.38 0.35 0.28 0.39 0.40 0.39 0.42 0.55 0.55 0.69 0.96 1.06 1.06 1.12 1.15 1.16 1.17 1.16 1.17 1.18 1.24 1.39 1.55 1.66 1.72 1.78 1.86 1.95 1.99 1.93 1.95 1.97 1.93 1.94 1.83 1.80 1.76 1.73 1.68 1.68
0.49 0.44 0.47 0.51 0.47 0.36 0.32 0.31 0.38 0.38 0.56 0.46 0.61 0.72 0.92 1.03 1.05 1.08 1.13 1.13 1.07 1.09 1.12 1.18 1.21 1.24 1.36 1.46 1.56 1.63 1.71 1.81 1.89 2.02 1.93 1.97 1.97 2.15 1.94 1.93 1.94 1.87 1.86 1.82
0.46 0.44 0.46 0.42 0.43 0.37 0.31 0.30 0.33 0.39 0.52 0.54 0.58 0.75 1.06 1.11 1.12 1.08 1.10 1.08 0.99 0.98 1.04 1.10 1.17 1.20 1.18 1.25 1.33 1.43 1.57 1.80 1.86 1.86 1.89 1.94 1.95 2.19 1.93 1.58 2.02 1.89 1.89 1.88
0.40 0.41 0.45 0.38 0.43 0.40 0.31 0.34 0.31 0.33 0.48 0.52 0.54 0.80 1.12 1.10 1.05 1.00 1.04 1.00 0.93 0.91 0.91 0.93 0.94 0.98 1.04 1.14 1.21 1.27 1.42 1.57 1.72 1.82 1.86 1.93 2.08 2.05 1.93 1.87 1.99 1.96 1.87 1.90
0.44 0.41 0.41 0.39 0.42 0.30 0.39 0.41 0.38 0.35 0.54 0.64 0.73 0.90 0.99 1.08 1.06 1.02 0.96 0.90 0.88 0.85 0.82 0.84 0.87 0.88 0.89 0.97 1.00 1.16 1.20 1.27 1.41 1.56 1.67 1.74 1.83 1.87 1.89 1.87 1.91 1.87 1.85 1.81
0.43 0.39 0.37 0.32 0.35 0.40 0.44 0.45 0.38 0.41 0.51 0.62 0.70 0.89 0.90 0.90 0.94 0.95 0.98 0.91 0.87 0.84 0.82 0.81 0.84 0.82 0.83 0.85 0.89 0.92 0.98 1.02 1.02 1.06 1.18 1.40 1.52 1.58 1.70 1.73 1.81 1.84 1.75 1.75
0.30 0.37 0.35 0.35 0.33 0.32 0.44 0.49 0.49 0.47 0.45 0.70 0.72 0.74 0.79 0.83 0.65 0.73 0.87 0.88 0.82 0.79 0.76 0.72 0.75 0.76 0.73 0.74 0.80 0.80 0.81 0.82 0.82 0.85 0.90 0.96 0.99 1.07 1.21 1.39 1.49 1.64 1.80 1.78
0.27 0.28 0.23 0.28 0.35 0.43 0.51 0.53 0.50 0.32 0.50 0.84 0.77 0.75 0.76 0.70 0.78 0.85 0.83 0.79 0.77 0.72 0.68 0.68 0.68 0.66 0.67 0.67 0.65 0.63 0.66 0.64 0.68 0.69 0.70 0.75 0.80 0.84 0.91 0.94 1.04 1.14 1.33 1.50
0.35 0.29 0.25 0.25 0.27 0.31 0.57 0.52 0.42 0.56 0.65 0.72 0.82 0.81 0.74 0.72 0.72 0.73 0.72 0.70 0.70 0.70 0.71 0.72 0.68 0.67 0.67 0.67 0.63 0.58 0.54 0.62 0.64 0.63 0.59 0.55 0.57 0.59 0.64 0.72 0.80 0.82 0.92 1.03
0.36 0.41 0.38 0.42 0.40 0.55 0.59 0.59 0.68 0.69 0.63 0.66 0.69 0.72 0.72 0.70 0.69 0.69 0.67 0.68 0.67 0.68 0.69 0.69 0.64 0.59 0.60 0.60 0.60 0.55 0.59 0.59 0.57 0.57 0.56 0.58 0.59 0.54 0.51 0.52 0.55 0.61 0.72 0.75
0.46 0.50 0.44 0.48 0.59 0.59 0.63 0.65 0.63 0.63 0.61 0.64 0.66 0.66 0.68 0.63 0.64 0.64 0.64 0.63 0.61 0.61 0.58 0.57 0.54 0.51 0.50 0.51 0.50 0.51 0.52 0.53 0.51 0.50 0.54 0.57 0.58 0.58 0.58 0.57 0.57 0.57 0.58 0.59
0.48 0.54 0.43 0.46 0.58 0.63 0.65 0.66 0.65 0.62 0.64 0.60 0.59 0.58 0.61 0.60 0.60 0.60 0.56 0.56 0.56 0.54 0.53 0.51 0.47 0.46 0.46 0.47 0.46 0.46 0.45 0.45 0.41 0.41 0.43 0.47 0.51 0.54 0.56 0.58 0.58 0.60 0.63 0.60
0.58 0.51 0.44 0.38 0.53 0.54 0.58 0.62 0.61 0.55 0.51 0.53 0.50 0.43 0.48 0.50 0.49 0.51 0.50 0.49 0.48 0.48 0.49 0.46 0.44 0.44 0.45 0.45 0.44 0.46 0.45 0.45 0.42 0.38 0.39 0.40 0.40 0.43 0.45 0.47 0.50 0.61 0.64 0.64

GFSCGP_prec_pwat_096.txt.gz
Precipitable_Water
0.43 0.33 0.41 0.57 0.63 0.67 0.68 0.66 0.89 1.13 1.31 1.11 1.26 1.21 1.29 1.39 1.47 1.43 1.37 1.28 1.26 1.28 1.29 1.30 1.33 1.36 1.42 1.36 1.32 1.25 1.25 1.35 1.48 1.62 1.65 1.61 1.60 1.70 1.77 1.83 1.80 1.83 1.80 1.68
0.33 0.23 0.35 0.55 0.58 0.64 0.68 0.65 0.83 1.15 1.30 1.25 1.20 1.19 1.37 1.34 1.43 1.45 1.39 1.31 1.32 1.30 1.28 1.30 1.28 1.35 1.29 1.27 1.29 1.26 1.28 1.30 1.34 1.60 1.69 1.80 1.80 1.83 1.84 1.82 1.74 1.91 1.74 1.69
0.26 0.24 0.31 0.35 0.48 0.54 0.60 0.57 0.70 0.81 1.07 1.18 1.06 1.00 1.16 1.35 1.41 1.43 1.44 1.39 1.38 1.35 1.28 1.32 1.30 1.26 1.28 1.23 1.23 1.25 1.25 1.31 1.24 1.52 1.70 1.95 1.78 1.81 1.80 1.78 1.65 1.74 1.86 1.88
0.28 0.31 0.30 0.25 0.35 0.47 0.49 0.57 0.64 0.78 0.79 0.73 1.06 0.72 1.04 1.19 1.28 1.30 1.35 1.40 1.40 1.41 1.38 1.37 1.35 1.30 1.27 1.28 1.31 1.23 1.23 1.24 1.23 1.44 1.62 1.74 1.70 1.57 1.72 1.64 1.64 1.73 1.76 1.77
0.23 0.25 0.27 0.26 0.25 0.37 0.45 0.53 0.61 0.72 0.78 0.82 0.87 0.75 0.89 1.18 1.23 1.26 1.30 1.44 1.48 1.51 1.49 1.42 1.42 1.43 1.39 1.36 1.36 1.31 1.19 1.22 1.24 1.36 1.54 1.64 1.67 1.70 1.79 1.75 1.66 1.66 1.70 1.69
0.27 0.32 0.31 0.29 0.30 0.32 0.45 0.50 0.67 0.83 0.80 0.62 0.74 0.76 0.80 0.92 1.13 1.30 1.35 1.44 1.51 1.57 1.55 1.52 1.55 1.52 1.51 1.50 1.48 1.36 1.30 1.11 1.21 1.25 1.45 1.58 1.64 1.66 1.72 1.72 1.65 1.57 1.59 1.65
0.28 0.29 0.33 0.32 0.27 0.31 0.41 0.39 0.46 0.54 0.55 0.49 0.75 0.71 0.77 0.97 1.17 1.25 1.35 1.37 1.48 1.62 1.63 1.59 1.57 1.54 1.52 1.54 1.54 1.43 1.36 1.16 1.15 1.21 1.28 1.41 1.64 1.72 1.92 1.78 1.82 1.60 1.54 1.55
0.27 0.21 0.29 0.32 0.30 0.27 0.36 0.36 0.37 0.34 0.43 0.47 0.71 0.64 0.73 1.15 1.32 1.36 1.41 1.45 1.51 1.55 1.64 1.72 1.72 1.66 1.52 1.57 1.62 1.62 1.38 1.25 1.13 1.12 1.21 1.33 1.65 1.70 1.80 1.84 1.86 1.68 1.71 1.68
0.35 0.28 0.34 0.34 0.35 0.34 0.35 0.35 0.50 0.43 0.51 0.48 0.60 0.78 0.99 1.19 1.28 1.33 1.36 1.44 1.47 1.60 1.63 1.70 1.76 1.72 1.59 1.59 1.71 1.72 1.60 1.34 1.09 1.09 1.15 1.34 1.61 1.67 1.71 1.87 1.85 1.77 2.03 1.84
0.45 0.30 0.37 0.36 0.37 0.34 0.34 0.48 0.40 0.45 0.34 0.42 0.56 0.67 0.72 0.94 1.08 1.25 1.26 1.26 1.34 1.55 1.65 1.71 1.73 1.77 1.81 1.74 1.81 1.89 1.75 1.52 1.32 1.26 1.18 1.24 1.51 1.49 1.62 1.77 1.87 1.78 1.83 1.86
0.51 0.40 0.36 0.41 0.34 0.29 0.36 0.41 0.48 0.49 0.47 0.48 0.46 0.64 1.06 1.01 1.10 1.16 1.22 1.25 1.29 1.41 1.58 1.74 1.81 1.90 1.93 1.90 1.85 1.90 1.90 1.84 1.55 1.46 1.44 1.42 1.30 1.37 1.44 1.51 1.69 1.86 1.81 1.80
0.51 0.46 0.36 0.39 0.44 0.46 0.42 0.43 0.51 0.43 0.41 0.57 0.60 0.65 1.20 1.17 1.22 1.23 1.23 1.33 1.41 1.52 1.58 1.66 1.75 1.87 1.94 1.96 2.01 2.17 2.01 1.95 1.87 1.72 1.63 1.61 1.57 1.54 1.46 1.43 1.56 1.75 1.74 1.79
0.49 0.45 0.38 0.38 0.41 0.39 0.36 0.43 0.50 0.52 0.49 0.47 0.45 0.60 1.14 1.17 1.12 1.21 1.31 1.36 1.39 1.47 1.52 1.57 1.66 1.72 1.85 1.62 1.77 1.89 2.01 2.06 2.03 1.99 1.78 1.75 1.70 1.66 1.56 1.55 1.52 1.66 1.63 1.59
0.54 0.44 0.45 0.39 0.40 0.40 0.31 0.34 0.45 0.46 0.42 0.48 0.52 0.66 0.86 0.99 1.02 1.14 1.19 1.27 1.37 1.42 1.47 1.50 1.48 1.54 1.67 1.69 1.64 1.78 1.84 2.01 2.10 2.14 1.96 1.85 1.84 1.83 1.78 1.78 1.76 1.70 1.73 1.63
0.50 0.40 0.45 0.50 0.47 0.42 0.33 0.32 0.39 0.43 0.46 0.43 0.61 0.64 0.81 0.94 1.00 1.12 1.24 1.24 1.22 1.21 1.21 1.26 1.33 1.41 1.45 1.58 1.60 1.70 1.82 1.88 2.04 1.95 1.95 1.90 1.94 1.93 1.91 1.83 1.79 1.83 1.83 1.78
0.47 0.44 0.46 0.44 0.45 0.41 0.34 0.34 0.39 0.48 0.58 0.55 0.64 0.67 0.99 1.07 1.10 1.11 1.17 1.20 1.15 1.15 1.18 1.22 1.26 1.31 1.34 1.41 1.48 1.60 1.70 1.71 1.81 1.78 1.83 1.92 1.89 1.92 1.95 1.95 1.88 1.94 1.99 1.95
0.42 0.41 0.48 0.46 0.47 0.41 0.33 0.35 0.41 0.52 0.60 0.61 0.51 0.66 0.88 0.95 1.02 1.06 1.13 1.15 1.12 1.10 1.10 1.13 1.24 1.29 1.28 1.26 1.31 1.37 1.52 1.66 1.72 1.69 1.73 1.82 1.80 1.84 1.92 2.02 1.95 1.92 1.86 1.89
0.42 0.41 0.41 0.43 0.47 0.31 0.41 0.45 0.47 0.52 0.60 0.66 0.68 0.76 0.86 0.95 1.07 1.08 1.11 1.10 1.06 1.07 1.07 1.07 1.10 1.08 1.10 1.20 1.20 1.23 1.26 1.37 1.49 1.58 1.66 1.74 1.85 1.86 1.76 1.90 1.86 1.83 1.87 1.89
0.44 0.38 0.35 0.32 0.38 0.44 0.45 0.46 0.44 0.52 0.57 0.72 0.75 0.92 0.92 0.92 0.98 0.97 1.04 1.03 0.98 0.97 1.00 1.00 0.99 1.00 0.98 1.03 1.05 1.03 1.01 1.02 1.07 1.14 1.28 1.45 1.55 1.71 1.81 1.75 1.72 1.76 1.80 1.79
0.36 0.40 0.35 0.35 0.30 0.29 0.48 0.54 0.52 0.70 0.47 0.90 0.84 0.77 0.75 0.82 0.67 0.80 1.00 1.02 0.95 0.95 0.97 0.93 0.94 0.94 0.94 0.96 0.97 0.92 0.90 0.89 0.84 0.85 0.90 1.02 1.10 1.18 1.29 1.46 1.55 1.63 1.70 1.74
0.26 0.26 0.27 0.30 0.31 0.38 0.52 0.55 0.59 0.41 0.49 0.87 0.89 0.87 0.83 0.73 0.77 0.89 0.95 0.97 0.95 0.92 0.88 0.87 0.84 0.80 0.80 0.80 0.78 0.74 0.72 0.69 0.78 0.82 0.81 0.82 0.85 0.85 0.90 0.95 1.02 1.10 1.23 1.40
0.36 0.27 0.24 0.25 0.22 0.26 0.55 0.53 0.46 0.53 0.70 0.84 0.88 0.91 0.92 0.93 0.89 0.85 0.82 0.83 0.89 0.84 0.81 0.77 0.71 0.71 0.75 0.75 0.69 0.63 0.62 0.67 0.66 0.63 0.59 0.60 0.63 0.67 0.69 0.72 0.76 0.80 0.88 0.96
0.35 0.42 0.35 0.37 0.34 0.55 0.60 0.60 0.70 0.70 0.68 0.77 0.82 0.93 0.98 0.95 0.88 0.85 0.82 0.78 0.74 0.74 0.76 0.79 0.78 0.76 0.74 0.70 0.64 0.57 0.58 0.60 0.59 0.58 0.58 0.57 0.57 0.57 0.57 0.53 0.53 0.59 0.66 0.69
0.43 0.48 0.45 0.45 0.53 0.55 0.57 0.62 0.67 0.72 0.76 0.87 0.91 0.89 0.89 0.83 0.83 0.80 0.78 0.74 0.72 0.74 0.70 0.70 0.67 0.62 0.55 0.57 0.54 0.51 0.50 0.50 0.48 0.46 0.48 0.53 0.53 0.55 0.57 0.58 0.56 0.54 0.54 0.53
0.48 0.49 0.43 0.46 0.54 0.59 0.63 0.63 0.64 0.65 0.69 0.71 0.78 0.82 0.83 0.81 0.79 0.78 0.75 0.75 0.74 0.70 0.63 0.60 0.54 0.50 0.47 0.48 0.47 0.48 0.47 0.47 0.41 0.40 0.40 0.39 0.40 0.43 0.45 0.51 0.55 0.56 0.61 0.59
0.57 0.49 0.43 0.41 0.56 0.55 0.58 0.64 0.67 0.64 0.63 0.63 0.65 0.67 0.70 0.69 0.67 0.69 0.69 0.71 0.66 0.57 0.53 0.48 0.46 0.44 0.43 0.43 0.42 0.43 0.44 0.42 0.40 0.37 0.37 0.37 0.36 0.35 0.36 0.35 0.36 0.46 0.49 0.55

GFSCGP_prec_pwat_099.txt.gz
Precipitable_Water
0.50 0.48 0.57 0.67 0.70 0.72 0.68 0.68 0.87 1.16 1.34 1.30 1.21 1.25 1.24 1.35 1.45 1.41 1.39 1.31 1.16 1.19 1.32 1.54 1.54 1.57 1.54 1.50 1.39 1.37 1.33 1.42 1.60 1.60 1.61 1.62 1.54 1.65 1.72 1.80 1.85 1.81 1.76 1.71
0.38 0.29 0.54 0.65 0.68 0.68 0.67 0.67 0.81 1.11 1.35 1.26 1.16 1.17 1.39 1.35 1.39 1.38 1.40 1.36 1.24 1.22 1.27 1.27 1.39 1.40 1.42 1.39 1.36 1.35 1.29 1.34 1.46 1.63 1.67 1.70 1.70 1.71 1.81 1.81 1.78 1.80 1.66 1.62
0.30 0.29 0.36 0.52 0.59 0.61 0.62 0.62 0.72 0.85 1.10 1.24 1.11 1.06 1.23 1.42 1.43 1.49 1.46 1.44 1.40 1.32 1.32 1.34 1.34 1.33 1.37 1.29 1.30 1.28 1.30 1.31 1.38 1.59 1.76 1.87 1.82 1.82 1.67 1.64 1.70 1.80 1.75 1.63
0.31 0.37 0.32 0.31 0.47 0.58 0.56 0.67 0.64 0.72 0.81 0.71 1.03 0.75 1.01 1.25 1.30 1.44 1.39 1.43 1.41 1.41 1.39 1.36 1.35 1.35 1.34 1.31 1.33 1.30 1.27 1.25 1.28 1.45 1.67 1.78 1.63 1.56 1.62 1.63 1.64 1.75 1.84 1.76
0.26 0.28 0.29 0.26 0.31 0.53 0.56 0.63 0.57 0.72 0.75 0.76 0.83 0.75 0.88 1.09 1.10 1.22 1.39 1.42 1.41 1.45 1.51 1.43 1.39 1.36 1.37 1.39 1.34 1.33 1.30 1.25 1.23 1.26 1.49 1.72 1.68 1.69 1.80 1.63 1.54 1.61 1.72 1.77
0.29 0.34 0.32 0.29 0.29 0.44 0.58 0.61 0.73 0.80 0.76 0.61 0.76 0.73 0.74 0.92 1.05 1.23 1.35 1.39 1.44 1.45 1.58 1.59 1.53 1.48 1.44 1.48 1.44 1.44 1.33 1.20 1.23 1.18 1.39 1.56 1.66 1.67 1.67 1.64 1.55 1.51 1.58 1.63
0.28 0.27 0.31 0.33 0.26 0.34 0.44 0.48 0.46 0.45 0.55 0.52 0.74 0.71 0.76 0.98 1.12 1.24 1.34 1.33 1.43 1.51 1.56 1.62 1.60 1.56 1.49 1.54 1.50 1.46 1.34 1.29 1.19 1.16 1.24 1.42 1.62 1.71 1.70 1.67 1.67 1.52 1.45 1.55
0.26 0.19 0.29 0.32 0.27 0.25 0.32 0.39 0.42 0.38 0.43 0.50 0.75 0.62 0.76 1.09 1.18 1.24 1.44 1.49 1.52 1.54 1.60 1.61 1.63 1.65 1.66 1.56 1.58 1.57 1.51 1.33 1.29 1.13 1.14 1.31 1.60 1.67 1.88 1.86 1.80 1.64 1.56 1.52
0.30 0.26 0.37 0.33 0.32 0.31 0.30 0.31 0.39 0.42 0.54 0.49 0.66 0.76 0.94 1.14 1.15 1.26 1.30 1.44 1.48 1.51 1.59 1.66 1.67 1.71 1.78 1.73 1.60 1.62 1.61 1.54 1.33 1.11 1.14 1.20 1.33 1.64 1.79 1.86 1.88 1.77 1.77 1.75
0.40 0.27 0.38 0.37 0.36 0.37 0.31 0.40 0.33 0.40 0.34 0.35 0.55 0.58 0.63 0.93 1.07 1.23 1.27 1.31 1.46 1.58 1.64 1.73 1.78 1.79 1.85 1.83 1.76 1.76 1.88 1.63 1.54 1.20 1.15 1.16 1.28 1.58 1.71 1.87 1.83 1.81 1.88 1.96
0.49 0.40 0.36 0.38 0.32 0.30 0.32 0.32 0.37 0.44 0.45 0.35 0.37 0.50 0.89 0.94 1.13 1.17 1.30 1.39 1.44 1.49 1.64 1.78 1.88 1.87 1.91 1.90 1.89 1.83 1.86 2.06 1.71 1.42 1.28 1.23 1.35 1.70 1.69 1.69 1.83 1.90 1.85 1.90
0.51 0.45 0.35 0.37 0.42 0.40 0.42 0.34 0.38 0.37 0.39 0.47 0.48 0.52 1.05 1.09 1.21 1.28 1.33 1.39 1.44 1.47 1.53 1.67 1.86 1.92 1.93 1.93 1.96 1.94 1.92 1.94 1.96 1.79 1.41 1.32 1.40 1.41 1.47 1.55 1.54 1.85 1.83 1.87
0.50 0.44 0.36 0.38 0.38 0.41 0.37 0.39 0.42 0.47 0.50 0.46 0.37 0.51 1.08 1.14 1.19 1.28 1.25 1.30 1.38 1.39 1.47 1.59 1.73 1.85 1.95 1.96 1.96 1.95 1.97 1.93 2.05 2.07 1.79 1.52 1.53 1.53 1.48 1.57 1.67 1.63 1.78 1.78
0.53 0.43 0.42 0.37 0.39 0.41 0.32 0.34 0.38 0.40 0.39 0.45 0.49 0.59 0.87 0.98 1.03 1.10 1.16 1.27 1.31 1.36 1.49 1.59 1.63 1.76 1.80 1.80 1.77 1.72 1.83 1.96 2.08 2.10 2.01 1.79 1.68 1.72 1.69 1.64 1.63 1.66 1.71 1.76
0.49 0.39 0.46 0.48 0.47 0.42 0.35 0.34 0.36 0.35 0.42 0.40 0.52 0.54 0.71 0.90 0.96 0.99 1.08 1.22 1.21 1.28 1.40 1.48 1.55 1.61 1.66 1.74 1.77 1.73 1.76 1.85 2.00 2.04 2.06 2.00 1.91 1.85 1.84 1.82 1.73 1.72 1.71 1.72
0.47 0.42 0.46 0.48 0.47 0.40 0.36 0.37 0.36 0.42 0.49 0.49 0.58 0.66 0.90 0.99 1.06 1.01 1.03 1.17 1.17 1.18 1.28 1.38 1.46 1.48 1.49 1.58 1.63 1.62 1.67 1.72 1.91 1.91 1.84 1.77 1.88 1.90 1.89 1.91 1.94 1.79 1.79 1.79
0.46 0.44 0.44 0.39 0.49 0.43 0.35 0.40 0.42 0.48 0.56 0.56 0.51 0.61 0.87 0.89 0.94 1.00 1.05 1.12 1.17 1.18 1.20 1.21 1.28 1.39 1.48 1.52 1.56 1.50 1.56 1.65 1.68 1.71 1.78 1.80 1.86 1.98 1.86 1.91 1.93 1.89 1.77 1.80
0.44 0.43 0.45 0.43 0.45 0.31 0.44 0.53 0.64 0.62 0.70 0.73 0.66 0.72 0.83 0.88 1.02 1.10 1.16 1.11 1.12 1.18 1.15 1.16 1.26 1.35 1.44 1.47 1.44 1.43 1.43 1.45 1.51 1.56 1.61 1.70 1.72 1.71 1.74 1.74 1.82 1.86 1.82 1.80
0.46 0.42 0.36 0.35 0.42 0.50 0.45 0.46 0.49 0.58 0.63 0.82 0.78 0.83 0.92 0.97 0.97 0.97 1.12 1.14 1.11 1.11 1.13 1.18 1.28 1.34 1.30 1.24 1.21 1.18 1.18 1.20 1.25 1.32 1.35 1.40 1.51 1.57 1.65 1.61 1.60 1.65 1.75 1.77
0.43 0.43 0.37 0.34 0.32 0.34 0.53 0.57 0.59 0.67 0.49 0.87 0.89 0.84 0.85 0.88 0.69 0.82 0.98 1.04 1.08 1.11 1.11 1.11 1.16 1.17 1.13 1.11 1.09 1.03 0.99 0.98 0.97 1.02 1.08 1.17 1.29 1.32 1.38 1.51 1.56 1.59 1.59 1.61
0.26 0.27 0.26 0.29 0.29 0.38 0.53 0.59 0.61 0.39 0.44 0.87 0.95 0.91 0.86 0.81 0.87 0.96 0.99 0.94 0.94 0.98 0.99 1.01 1.03 0.98 0.97 0.98 0.95 0.88 0.87 0.85 0.91 0.90 0.86 0.85 0.87 0.89 0.96 1.03 1.13 1.30 1.47 1.51
0.35 0.28 0.25 0.26 0.23 0.26 0.55 0.52 0.41 0.54 0.71 0.81 0.91 0.96 0.98 0.99 0.99 0.98 0.99 0.98 0.96 0.95 0.94 0.92 0.86 0.81 0.80 0.79 0.75 0.69 0.65 0.68 0.69 0.69 0.70 0.72 0.73 0.74 0.75 0.76 0.82 0.87 0.94 0.97
0.32 0.39 0.34 0.34 0.32 0.48 0.53 0.55 0.64 0.65 0.73 0.81 0.87 0.93 0.96 0.98 0.98 0.99 0.94 0.93 0.95 0.96 0.89 0.85 0.80 0.81 0.85 0.81 0.76 0.67 0.67 0.67 0.63 0.61 0.60 0.59 0.60 0.59 0.58 0.56 0.60 0.64 0.70 0.72
0.41 0.49 0.43 0.41 0.48 0.49 0.51 0.59 0.67 0.72 0.74 0.83 0.91 0.92 0.93 0.93 1.00 0.97 0.94 0.92 0.90 0.84 0.80 0.82 0.79 0.74 0.73 0.74 0.71 0.64 0.59 0.56 0.53 0.49 0.50 0.53 0.54 0.55 0.56 0.57 0.56 0.54 0.53 0.54
0.46 0.49 0.44 0.44 0.52 0.54 0.55 0.59 0.61 0.68 0.82 0.90 0.94 0.95 0.94 0.96 0.96 0.96 0.95 0.91 0.88 0.87 0.85 0.80 0.72 0.63 0.57 0.55 0.50 0.50 0.50 0.49 0.46 0.46 0.46 0.45 0.44 0.44 0.44 0.46 0.50 0.51 0.54 0.55
0.54 0.48 0.41 0.40 0.56 0.56 0.55 0.59 0.63 0.64 0.65 0.70 0.76 0.84 0.91 0.92 0.90 0.90 0.88 0.89 0.87 0.83 0.81 0.75 0.67 0.55 0.48 0.47 0.45 0.45 0.45 0.44 0.40 0.38 0.37 0.37 0.36 0.35 0.36 0.35 0.35 0.41 0.42 0.44

GFSCGP_prec_pwat_102.txt.gz
Precipitable_Water
0.41 0.57 0.63 0.71 0.68 0.69 0.70 0.79 0.92 1.16 1.37 1.28 1.27 1.24 1.27 1.45 1.44 1.41 1.34 1.23 1.17 1.35 1.42 1.45 1.47 1.63 1.49 1.51 1.45 1.37 1.32 1.59 1.67 1.62 1.59 1.51 1.52 1.69 1.70 1.84 1.80 1.77 1.78 1.75
0.43 0.43 0.68 0.75 0.70 0.69 0.70 0.77 0.89 1.14 1.28 1.22 1.23 1.19 1.32 1.34 1.43 1.45 1.37 1.30 1.16 1.26 1.25 1.38 1.67 1.56 1.48 1.43 1.38 1.35 1.29 1.37 1.58 1.65 1.65 1.64 1.63 1.75 1.81 1.83 1.85 1.78 1.73 1.67
0.39 0.40 0.60 0.60 0.63 0.65 0.69 0.67 0.85 0.94 1.14 1.22 1.19 1.11 1.24 1.37 1.41 1.47 1.48 1.44 1.35 1.17 1.16 1.29 1.27 1.38 1.40 1.36 1.26 1.29 1.30 1.33 1.42 1.64 1.73 1.73 1.71 1.70 1.71 1.73 1.75 1.76 1.70 1.64
0.39 0.43 0.45 0.49 0.55 0.65 0.59 0.72 0.81 0.83 0.84 0.75 1.09 0.76 1.08 1.25 1.32 1.40 1.43 1.43 1.43 1.26 1.22 1.28 1.30 1.32 1.33 1.33 1.34 1.32 1.31 1.34 1.36 1.46 1.75 1.68 1.60 1.51 1.58 1.64 1.75 1.74 1.80 1.72
0.32 0.36 0.33 0.37 0.46 0.58 0.60 0.64 0.72 0.80 0.75 0.80 0.85 0.76 0.90 1.18 1.16 1.29 1.29 1.44 1.45 1.44 1.35 1.32 1.29 1.35 1.36 1.37 1.29 1.33 1.31 1.30 1.37 1.35 1.54 1.69 1.63 1.64 1.64 1.63 1.59 1.70 1.73 1.78
0.34 0.37 0.35 0.31 0.35 0.46 0.61 0.70 0.78 0.79 0.76 0.59 0.73 0.74 0.75 0.90 1.02 1.21 1.33 1.39 1.46 1.50 1.47 1.47 1.41 1.43 1.42 1.43 1.37 1.37 1.29 1.25 1.29 1.26 1.33 1.60 1.69 1.66 1.67 1.58 1.51 1.54 1.68 1.68
0.30 0.30 0.33 0.35 0.28 0.35 0.46 0.56 0.49 0.50 0.56 0.50 0.74 0.75 0.75 1.00 1.10 1.27 1.32 1.35 1.45 1.52 1.51 1.56 1.53 1.49 1.46 1.42 1.39 1.41 1.31 1.25 1.23 1.18 1.15 1.40 1.62 1.69 1.64 1.63 1.57 1.50 1.51 1.52
0.22 0.17 0.26 0.32 0.29 0.27 0.32 0.43 0.41 0.34 0.42 0.50 0.75 0.60 0.73 1.05 1.20 1.28 1.40 1.45 1.40 1.48 1.52 1.58 1.59 1.60 1.54 1.52 1.54 1.45 1.37 1.40 1.35 1.23 1.11 1.21 1.45 1.80 1.78 1.76 1.77 1.63 1.54 1.58
0.27 0.25 0.34 0.32 0.32 0.32 0.29 0.32 0.51 0.48 0.54 0.51 0.63 0.74 0.94 1.05 1.07 1.17 1.30 1.44 1.44 1.44 1.50 1.55 1.62 1.68 1.64 1.71 1.67 1.61 1.57 1.55 1.47 1.38 1.25 1.18 1.33 1.56 1.74 1.90 1.87 1.81 1.66 1.65
0.37 0.25 0.36 0.38 0.37 0.37 0.34 0.38 0.31 0.35 0.32 0.37 0.53 0.58 0.61 0.85 0.98 1.12 1.21 1.37 1.48 1.46 1.48 1.57 1.64 1.71 1.75 1.81 1.82 1.79 1.66 1.65 1.68 1.55 1.33 1.26 1.25 1.41 1.72 1.87 1.88 1.83 1.80 1.80
0.47 0.38 0.36 0.40 0.34 0.31 0.32 0.33 0.35 0.35 0.35 0.35 0.38 0.47 0.88 0.88 1.04 1.10 1.24 1.34 1.40 1.46 1.55 1.62 1.67 1.75 1.84 1.88 1.84 1.91 1.84 1.76 1.92 1.66 1.41 1.24 1.24 1.30 1.62 1.75 1.87 1.89 1.91 1.95
0.50 0.46 0.36 0.39 0.45 0.43 0.40 0.33 0.34 0.27 0.29 0.40 0.40 0.43 0.97 1.02 1.13 1.18 1.29 1.40 1.50 1.57 1.59 1.71 1.77 1.81 1.85 1.84 1.89 1.94 1.88 1.88 1.92 1.99 1.70 1.34 1.34 1.38 1.55 1.76 1.74 1.88 1.90 1.96
0.47 0.45 0.36 0.38 0.37 0.41 0.37 0.35 0.37 0.37 0.43 0.38 0.32 0.38 0.92 1.02 1.09 1.20 1.26 1.41 1.48 1.53 1.58 1.63 1.77 1.82 1.87 1.96 2.00 1.98 2.05 2.04 2.02 2.01 1.98 1.63 1.44 1.37 1.48 1.63 1.66 1.72 1.75 1.90
0.51 0.44 0.41 0.35 0.37 0.40 0.34 0.35 0.39 0.37 0.31 0.38 0.42 0.48 0.68 0.85 0.97 1.11 1.24 1.36 1.42 1.47 1.52 1.48 1.57 1.66 1.89 1.92 1.93 1.96 1.96 2.08 2.15 2.02 2.06 1.97 1.66 1.48 1.48 1.48 1.56 1.65 1.72 1.67
0.47 0.39 0.44 0.45 0.46 0.41 0.39 0.37 0.37 0.34 0.36 0.35 0.47 0.49 0.60 0.78 0.96 1.09 1.16 1.22 1.28 1.33 1.40 1.46 1.54 1.67 1.83 1.73 1.64 1.72 1.83 1.90 2.01 2.06 1.98 2.02 1.96 1.71 1.60 1.62 1.60 1.61 1.70 1.70
0.49 0.41 0.45 0.43 0.46 0.44 0.38 0.42 0.41 0.42 0.42 0.44 0.51 0.53 0.79 0.93 1.01 1.03 1.04 1.09 1.11 1.15 1.33 1.43 1.52 1.64 1.73 1.69 1.63 1.73 1.75 1.81 1.88 1.93 1.95 1.98 2.01 1.95 1.78 1.74 1.77 1.70 1.64 1.70
0.47 0.45 0.41 0.38 0.48 0.45 0.36 0.42 0.51 0.47 0.56 0.53 0.40 0.54 0.74 0.81 0.87 0.97 1.05 1.08 1.09 1.14 1.21 1.40 1.49 1.55 1.62 1.63 1.66 1.67 1.69 1.71 1.61 1.71 1.83 1.85 1.80 1.75 1.85 1.78 1.72 1.77 1.69 1.71
0.48 0.46 0.45 0.39 0.42 0.35 0.48 0.50 0.63 0.62 0.63 0.67 0.66 0.73 0.78 0.84 0.94 1.04 1.13 1.10 1.12 1.18 1.26 1.32 1.44 1.50 1.54 1.56 1.61 1.62 1.61 1.60 1.57 1.55 1.59 1.68 1.77 1.75 1.83 1.88 1.70 1.69 1.73 1.77
0.51 0.51 0.43 0.37 0.40 0.43 0.46 0.54 0.56 0.54 0.62 0.81 0.75 0.80 0.86 0.93 0.96 0.94 1.11 1.17 1.15 1.19 1.26 1.31 1.36 1.41 1.45 1.49 1.54 1.56 1.50 1.47 1.46 1.42 1.50 1.49 1.53 1.53 1.53 1.59 1.55 1.64 1.67 1.75
0.48 0.46 0.39 0.38 0.34 0.36 0.46 0.55 0.63 0.67 0.47 0.87 0.89 0.86 0.80 0.85 0.64 0.80 1.05 1.15 1.15 1.20 1.29 1.29 1.30 1.29 1.28 1.31 1.30 1.24 1.23 1.23 1.23 1.26 1.29 1.32 1.31 1.35 1.38 1.45 1.46 1.56 1.57 1.65
0.32 0.33 0.32 0.34 0.30 0.36 0.52 0.62 0.62 0.39 0.45 0.80 0.89 0.91 0.94 0.84 0.91 1.00 1.09 1.07 1.13 1.19 1.23 1.29 1.26 1.17 1.14 1.13 1.09 1.01 0.98 0.95 0.98 0.99 1.01 1.04 1.07 1.08 1.13 1.14 1.21 1.24 1.44 1.55
0.31 0.26 0.23 0.25 0.25 0.28 0.55 0.53 0.46 0.56 0.69 0.83 0.84 0.83 0.91 0.96 1.00 1.06 1.04 1.05 1.05 1.02 1.03 1.03 1.00 0.93 0.90 0.87 0.79 0.74 0.72 0.78 0.81 0.83 0.84 0.85 0.86 0.86 0.84 0.82 0.83 0.89 0.90 0.99
0.30 0.37 0.33 0.33 0.29 0.46 0.53 0.55 0.65 0.68 0.65 0.79 0.88 0.92 0.95 0.96 1.01 1.10 1.10 1.05 1.00 0.95 0.93 0.90 0.79 0.74 0.80 0.81 0.77 0.71 0.73 0.72 0.68 0.66 0.65 0.65 0.66 0.66 0.68 0.67 0.68 0.68 0.73 0.77
0.40 0.49 0.40 0.37 0.42 0.45 0.48 0.54 0.60 0.67 0.69 0.82 0.93 0.99 0.99 0.95 1.01 1.09 1.14 1.09 1.06 1.02 0.93 0.88 0.84 0.79 0.76 0.75 0.74 0.71 0.72 0.69 0.63 0.59 0.58 0.60 0.60 0.60 0.61 0.61 0.60 0.57 0.55 0.51
0.44 0.48 0.44 0.43 0.47 0.49 0.51 0.56 0.60 0.64 0.76 0.83 0.93 0.99 0.99 0.99 1.00 1.09 1.08 1.04 1.05 1.00 0.96 0.92 0.87 0.82 0.76 0.74 0.67 0.65 0.60 0.56 0.53 0.53 0.51 0.48 0.46 0.46 0.47 0.50 0.50 0.51 0.55 0.56
0.49 0.43 0.39 0.38 0.52 0.51 0.49 0.56 0.60 0.61 0.64 0.72 0.81 0.93 1.02 1.04 1.01 1.07 1.07 1.08 1.02 0.97 0.95 0.91 0.87 0.80 0.74 0.66 0.58 0.54 0.52 0.49 0.44 0.40 0.39 0.39 0.38 0.38 0.38 0.38 0.38 0.43 0.43 0.43

GFSCGP_prec_pwat_105.txt.gz
Precipitable_Water
0.34 0.52 0.60 0.75 0.72 0.72 0.86 0.83 0.92 1.17 1.31 1.29 1.28 1.27 1.43 1.57 1.41 1.35 1.20 1.11 1.15 1.14 1.36 1.41 1.43 1.47 1.45 1.45 1.43 1.46 1.58 1.69 1.72 1.60 1.52 1.57 1.58 1.67 1.66 1.74 1.76 1.76 1.82 1.78
0.27 0.39 0.73 0.82 0.71 0.70 0.84 0.86 0.93 1.16 1.34 1.21 1.24 1.19 1.42 1.53 1.37 1.41 1.32 1.20 1.13 1.26 1.33 1.38 1.39 1.47 1.39 1.39 1.42 1.42 1.43 1.65 1.70 1.73 1.68 1.64 1.68 1.77 1.78 1.82 1.81 1.81 1.78 1.71
0.23 0.36 0.70 0.70 0.64 0.66 0.69 0.75 0.92 0.94 1.16 1.26 1.11 1.09 1.21 1.43 1.42 1.48 1.46 1.38 1.26 1.31 1.33 1.32 1.40 1.45 1.38 1.32 1.31 1.37 1.33 1.48 1.64 1.76 1.73 1.69 1.76 1.82 1.79 1.73 1.72 1.73 1.72 1.66
0.37 0.40 0.57 0.58 0.59 0.66 0.66 0.73 0.88 0.96 0.90 0.75 1.08 0.78 1.06 1.23 1.35 1.37 1.42 1.35 1.24 1.25 1.27 1.32 1.38 1.35 1.29 1.28 1.32 1.36 1.38 1.41 1.55 1.74 1.73 1.69 1.58 1.54 1.66 1.68 1.74 1.74 1.77 1.68
0.35 0.40 0.44 0.46 0.54 0.63 0.64 0.77 0.85 0.87 0.80 0.85 0.91 0.84 0.97 1.16 1.16 1.25 1.38 1.38 1.33 1.25 1.21 1.23 1.23 1.31 1.35 1.38 1.30 1.31 1.35 1.39 1.44 1.57 1.76 1.69 1.67 1.67 1.70 1.70 1.73 1.74 1.78 1.76
0.39 0.46 0.43 0.44 0.57 0.59 0.77 0.80 0.83 0.86 0.81 0.62 0.77 0.80 0.81 0.95 1.03 1.23 1.38 1.38 1.41 1.32 1.25 1.31 1.36 1.45 1.39 1.44 1.36 1.33 1.28 1.28 1.39 1.43 1.57 1.70 1.69 1.64 1.62 1.59 1.58 1.65 1.70 1.72
0.36 0.35 0.40 0.38 0.36 0.52 0.60 0.61 0.54 0.54 0.58 0.56 0.78 0.75 0.79 1.02 1.14 1.23 1.28 1.32 1.46 1.46 1.39 1.39 1.37 1.36 1.41 1.37 1.37 1.36 1.29 1.19 1.28 1.35 1.40 1.56 1.74 1.76 1.71 1.66 1.58 1.55 1.56 1.64
0.26 0.23 0.33 0.37 0.32 0.33 0.51 0.54 0.46 0.41 0.46 0.56 0.80 0.66 0.76 1.05 1.18 1.26 1.37 1.43 1.47 1.49 1.47 1.48 1.50 1.47 1.44 1.42 1.40 1.42 1.36 1.38 1.37 1.32 1.34 1.40 1.64 1.73 1.77 1.71 1.67 1.65 1.61 1.64
0.26 0.24 0.36 0.33 0.35 0.33 0.30 0.35 0.52 0.47 0.54 0.53 0.65 0.75 0.90 1.05 1.09 1.15 1.22 1.37 1.40 1.47 1.53 1.54 1.62 1.61 1.62 1.52 1.50 1.49 1.46 1.48 1.46 1.44 1.39 1.35 1.41 1.62 1.85 1.81 1.85 1.78 1.73 1.66
0.37 0.25 0.36 0.33 0.35 0.36 0.31 0.34 0.33 0.44 0.36 0.36 0.51 0.58 0.61 0.82 0.91 1.07 1.12 1.23 1.38 1.50 1.54 1.60 1.63 1.71 1.74 1.71 1.72 1.65 1.63 1.62 1.54 1.51 1.48 1.39 1.34 1.50 1.73 1.84 1.87 1.88 1.83 1.75
0.43 0.36 0.37 0.39 0.30 0.28 0.30 0.29 0.32 0.43 0.41 0.36 0.37 0.46 0.82 0.85 0.97 1.06 1.19 1.31 1.42 1.47 1.53 1.59 1.64 1.74 1.79 1.88 1.87 1.89 1.87 1.69 1.64 1.75 1.60 1.43 1.39 1.37 1.53 1.76 1.93 1.96 1.88 1.87
0.48 0.44 0.34 0.38 0.43 0.42 0.38 0.32 0.34 0.27 0.32 0.39 0.43 0.42 0.89 0.97 1.04 1.11 1.20 1.32 1.47 1.54 1.59 1.64 1.69 1.71 1.80 1.84 1.87 1.92 1.95 1.90 1.81 1.81 1.78 1.63 1.49 1.44 1.36 1.58 1.88 1.98 1.90 1.97
0.48 0.42 0.34 0.36 0.39 0.41 0.36 0.35 0.39 0.39 0.40 0.33 0.31 0.38 0.84 0.99 1.05 1.15 1.19 1.31 1.42 1.52 1.57 1.63 1.70 1.73 1.76 1.85 1.89 1.92 1.94 2.00 1.98 2.00 1.93 1.89 1.62 1.45 1.39 1.40 1.66 1.87 1.86 1.96
0.51 0.42 0.41 0.34 0.39 0.39 0.34 0.35 0.38 0.38 0.31 0.35 0.34 0.44 0.61 0.75 0.86 1.03 1.15 1.27 1.40 1.46 1.51 1.57 1.67 1.76 1.82 1.88 1.95 2.00 2.03 2.08 2.10 2.06 2.00 2.00 1.99 1.71 1.50 1.45 1.59 1.75 1.79 1.81
0.48 0.40 0.42 0.44 0.44 0.42 0.40 0.41 0.38 0.36 0.37 0.33 0.40 0.43 0.56 0.70 0.81 0.98 1.17 1.27 1.36 1.39 1.47 1.52 1.60 1.66 1.76 1.82 1.80 1.81 1.87 2.01 2.03 2.02 2.08 2.01 2.07 1.99 1.61 1.47 1.52 1.58 1.66 1.72
0.48 0.40 0.43 0.41 0.45 0.43 0.38 0.45 0.45 0.46 0.44 0.46 0.46 0.51 0.77 0.84 0.95 1.01 1.11 1.19 1.21 1.28 1.38 1.45 1.57 1.63 1.62 1.67 1.73 1.62 1.66 1.82 1.90 2.00 2.02 2.04 2.07 2.05 1.90 1.77 1.57 1.57 1.57 1.65
0.45 0.46 0.43 0.36 0.46 0.45 0.37 0.42 0.52 0.52 0.55 0.53 0.43 0.60 0.81 0.74 0.79 0.93 1.07 1.13 1.13 1.20 1.27 1.34 1.49 1.61 1.63 1.63 1.56 1.54 1.68 1.79 1.80 1.78 1.93 2.00 1.99 2.01 1.95 1.88 1.73 1.63 1.67 1.69
0.45 0.45 0.45 0.40 0.43 0.33 0.46 0.53 0.58 0.61 0.64 0.66 0.65 0.70 0.80 0.85 0.94 1.01 1.08 1.09 1.16 1.22 1.26 1.33 1.48 1.59 1.69 1.73 1.70 1.69 1.73 1.71 1.73 1.69 1.66 1.77 1.80 1.75 1.78 1.76 1.81 1.79 1.69 1.68
0.53 0.46 0.41 0.38 0.39 0.44 0.47 0.52 0.51 0.51 0.52 0.74 0.71 0.79 0.87 0.94 0.95 0.96 1.10 1.17 1.21 1.26 1.32 1.38 1.42 1.52 1.61 1.66 1.71 1.66 1.64 1.68 1.63 1.59 1.59 1.62 1.59 1.60 1.62 1.59 1.70 1.78 1.81 1.70
0.49 0.52 0.44 0.42 0.35 0.33 0.47 0.54 0.65 0.67 0.46 0.83 0.86 0.85 0.88 0.93 0.73 0.80 1.06 1.16 1.19 1.26 1.33 1.36 1.41 1.43 1.44 1.53 1.56 1.53 1.50 1.52 1.46 1.48 1.51 1.51 1.51 1.52 1.38 1.43 1.48 1.54 1.61 1.70
0.37 0.39 0.38 0.38 0.37 0.40 0.52 0.60 0.63 0.43 0.49 0.79 0.91 0.95 0.95 0.86 0.96 1.06 1.14 1.18 1.26 1.24 1.24 1.29 1.27 1.24 1.27 1.32 1.32 1.31 1.32 1.29 1.31 1.32 1.34 1.33 1.31 1.25 1.32 1.30 1.30 1.41 1.46 1.49
0.30 0.27 0.27 0.30 0.31 0.30 0.59 0.58 0.50 0.59 0.69 0.76 0.91 0.94 0.99 1.03 1.03 1.07 1.16 1.19 1.23 1.20 1.24 1.23 1.20 1.15 1.16 1.15 1.10 1.03 1.00 1.05 1.04 1.01 0.98 1.01 1.02 1.02 1.02 1.03 1.05 1.06 1.14 1.13
0.28 0.35 0.33 0.34 0.32 0.47 0.56 0.61 0.68 0.73 0.71 0.76 0.88 0.94 0.96 1.02 1.07 1.11 1.15 1.20 1.22 1.23 1.20 1.20 1.10 0.96 0.84 0.81 0.79 0.72 0.76 0.78 0.76 0.72 0.72 0.72 0.75 0.77 0.80 0.79 0.81 0.84 0.86 0.86
0.38 0.47 0.40 0.39 0.44 0.47 0.51 0.56 0.61 0.69 0.73 0.79 0.90 0.98 0.97 0.98 1.09 1.11 1.12 1.15 1.13 1.12 1.05 0.99 0.89 0.82 0.82 0.84 0.81 0.78 0.76 0.77 0.75 0.71 0.70 0.70 0.69 0.69 0.70 0.69 0.67 0.64 0.62 0.61
0.40 0.43 0.40 0.39 0.44 0.48 0.52 0.58 0.59 0.62 0.69 0.77 0.88 0.91 0.96 1.04 1.06 1.09 1.11 1.10 1.08 1.05 1.02 0.95 0.90 0.88 0.82 0.77 0.70 0.65 0.62 0.60 0.57 0.56 0.57 0.59 0.61 0.61 0.60 0.62 0.62 0.60 0.59 0.58
0.45 0.40 0.36 0.36 0.49 0.49 0.50 0.56 0.60 0.59 0.63 0.72 0.79 0.84 0.98 1.06 1.06 1.10 1.14 1.15 1.15 1.13 1.06 1.00 0.98 0.92 0.85 0.77 0.70 0.66 0.63 0.61 0.55 0.50 0.51 0.51 0.49 0.49 0.49 0.47 0.46 0.47 0.43 0.43

GFSCGP_prec_pwat_108.txt.gz
Precipitable_Water
0.33 0.39 0.58 0.77 0.73 0.78 0.97 0.95 1.03 1.20 1.36 1.35 1.37 1.34 1.40 1.41 1.38 1.13 1.12 1.14 1.17 1.22 1.35 1.40 1.46 1.39 1.44 1.45 1.51 1.71 1.74 1.62 1.58 1.58 1.55 1.56 1.59 1.65 1.71 1.76 1.76 1.77 1.84 1.81
0.31 0.31 0.56 0.91 0.76 0.70 0.87 0.86 0.98 1.20 1.34 1.24 1.24 1.28 1.35 1.39 1.34 1.29 1.11 1.11 1.14 1.22 1.27 1.34 1.40 1.42 1.40 1.38 1.44 1.58 1.74 1.77 1.71 1.62 1.65 1.70 1.68 1.71 1.73 1.80 1.77 1.85 1.81 1.79
0.26 0.30 0.71 0.74 0.67 0.66 0.89 0.88 0.96 1.03 1.22 1.23 1.14 1.10 1.28 1.41 1.45 1.45 1.30 1.21 1.19 1.23 1.25 1.29 1.30 1.38 1.42 1.39 1.42 1.43 1.63 1.82 1.76 1.78 1.79 1.75 1.86 1.84 1.78 1.79 1.75 1.76 1.79 1.70
0.31 0.39 0.51 0.67 0.64 0.68 0.64 0.88 1.01 1.01 1.01 0.84 1.10 0.80 1.15 1.29 1.33 1.43 1.39 1.34 1.22 1.19 1.33 1.34 1.35 1.40 1.40 1.38 1.48 1.48 1.50 1.63 1.78 1.85 1.71 1.66 1.71 1.67 1.73 1.72 1.78 1.78 1.76 1.67
0.34 0.37 0.44 0.53 0.67 0.70 0.65 0.80 0.91 0.95 0.89 0.89 0.90 0.83 0.96 1.18 1.18 1.27 1.40 1.33 1.27 1.33 1.34 1.37 1.39 1.41 1.43 1.41 1.40 1.46 1.46 1.56 1.64 1.81 1.91 1.78 1.67 1.69 1.74 1.74 1.76 1.78 1.78 1.73
0.45 0.50 0.49 0.47 0.59 0.67 0.75 0.81 0.89 0.97 0.86 0.65 0.82 0.84 0.85 0.97 1.11 1.17 1.40 1.44 1.32 1.29 1.38 1.32 1.39 1.51 1.44 1.44 1.39 1.40 1.40 1.48 1.54 1.68 1.86 1.81 1.81 1.73 1.71 1.69 1.72 1.68 1.71 1.73
0.39 0.38 0.47 0.49 0.46 0.62 0.73 0.77 0.63 0.63 0.63 0.61 0.79 0.77 0.82 0.99 1.14 1.25 1.24 1.37 1.43 1.36 1.31 1.28 1.32 1.33 1.36 1.38 1.34 1.37 1.35 1.34 1.50 1.49 1.63 1.85 1.87 1.83 1.78 1.73 1.63 1.68 1.65 1.69
0.30 0.27 0.37 0.40 0.39 0.40 0.57 0.69 0.54 0.48 0.54 0.60 0.81 0.68 0.82 1.06 1.22 1.31 1.38 1.41 1.47 1.45 1.38 1.24 1.29 1.39 1.36 1.37 1.41 1.40 1.33 1.30 1.37 1.42 1.48 1.66 1.87 1.89 1.87 1.86 1.71 1.66 1.74 1.71
0.31 0.31 0.41 0.40 0.38 0.37 0.44 0.50 0.66 0.55 0.64 0.62 0.69 0.81 0.98 1.06 1.13 1.22 1.30 1.41 1.40 1.48 1.44 1.38 1.42 1.43 1.47 1.43 1.44 1.43 1.43 1.42 1.41 1.39 1.44 1.49 1.59 1.80 1.88 1.90 1.87 1.76 1.76 1.76
0.38 0.30 0.36 0.36 0.37 0.36 0.37 0.48 0.45 0.48 0.39 0.42 0.63 0.66 0.69 0.85 0.94 1.10 1.13 1.28 1.38 1.47 1.47 1.51 1.58 1.62 1.64 1.62 1.59 1.60 1.57 1.54 1.51 1.48 1.47 1.42 1.40 1.53 1.71 1.97 1.92 1.93 1.88 1.76
0.43 0.33 0.38 0.35 0.27 0.27 0.30 0.29 0.34 0.38 0.39 0.38 0.44 0.57 0.84 0.90 1.00 1.05 1.13 1.24 1.40 1.49 1.51 1.50 1.61 1.74 1.79 1.83 1.76 1.69 1.68 1.66 1.63 1.61 1.54 1.50 1.47 1.40 1.55 1.84 1.90 1.98 2.07 1.97
0.50 0.42 0.37 0.34 0.38 0.34 0.35 0.29 0.32 0.25 0.31 0.42 0.46 0.62 0.96 0.95 1.09 1.17 1.23 1.31 1.43 1.51 1.57 1.61 1.65 1.72 1.76 1.83 1.87 1.80 1.86 1.76 1.82 1.70 1.72 1.67 1.57 1.49 1.39 1.52 1.78 2.05 2.10 2.06
0.52 0.40 0.36 0.38 0.42 0.39 0.31 0.35 0.34 0.34 0.32 0.33 0.33 0.40 0.90 0.91 1.04 1.17 1.21 1.35 1.43 1.50 1.60 1.68 1.68 1.70 1.78 1.83 1.90 1.92 1.97 2.01 2.07 1.95 1.75 1.89 1.75 1.65 1.47 1.42 1.53 1.89 2.07 2.03
0.51 0.45 0.42 0.37 0.42 0.40 0.34 0.35 0.36 0.36 0.33 0.35 0.39 0.47 0.69 0.74 0.91 1.07 1.21 1.36 1.46 1.49 1.60 1.69 1.73 1.71 1.78 1.82 1.85 1.90 1.94 2.04 2.06 2.05 2.00 1.90 1.91 1.87 1.78 1.54 1.45 1.46 1.80 1.92
0.48 0.40 0.45 0.47 0.52 0.47 0.43 0.37 0.34 0.32 0.35 0.34 0.39 0.44 0.59 0.71 0.83 1.00 1.15 1.27 1.35 1.41 1.47 1.58 1.65 1.69 1.72 1.82 1.85 1.90 1.93 1.96 2.03 1.98 2.03 2.00 2.06 2.10 2.10 1.82 1.56 1.51 1.63 1.78
0.48 0.43 0.46 0.41 0.44 0.45 0.42 0.46 0.40 0.37 0.39 0.41 0.47 0.55 0.80 0.84 0.87 0.88 1.01 1.12 1.22 1.32 1.37 1.44 1.55 1.69 1.75 1.79 1.78 1.78 1.80 1.86 1.97 1.96 1.99 2.08 2.08 2.08 2.08 2.08 1.76 1.53 1.61 1.70
0.46 0.47 0.44 0.37 0.43 0.45 0.38 0.47 0.52 0.52 0.55 0.52 0.44 0.65 0.84 0.78 0.83 0.87 0.97 1.13 1.22 1.33 1.37 1.43 1.50 1.60 1.73 1.82 1.76 1.75 1.78 1.81 1.85 1.90 2.00 2.04 2.03 2.06 2.06 2.00 1.96 1.74 1.65 1.70
0.48 0.46 0.45 0.40 0.48 0.32 0.51 0.58 0.57 0.63 0.65 0.67 0.69 0.74 0.80 0.84 0.96 0.99 1.04 1.11 1.20 1.28 1.30 1.35 1.45 1.58 1.65 1.74 1.76 1.71 1.66 1.69 1.74 1.75 1.84 1.85 1.92 1.90 2.04 1.99 1.90 1.90 1.89 1.84
0.51 0.46 0.42 0.35 0.37 0.46 0.53 0.56 0.55 0.56 0.60 0.74 0.75 0.78 0.81 0.85 0.90 0.92 1.10 1.15 1.17 1.23 1.29 1.31 1.41 1.52 1.68 1.58 1.57 1.56 1.60 1.66 1.68 1.66 1.65 1.73 1.74 1.84 1.74 1.82 1.77 1.79 1.81 1.89
0.51 0.52 0.45 0.44 0.34 0.37 0.60 0.60 0.64 0.65 0.55 0.85 0.89 0.85 0.83 0.84 0.64 0.78 1.07 1.12 1.18 1.23 1.26 1.29 1.40 1.46 1.57 1.66 1.72 1.64 1.66 1.70 1.67 1.67 1.67 1.67 1.66 1.65 1.69 1.76 1.73 1.76 1.79 1.81
0.43 0.43 0.42 0.42 0.40 0.46 0.59 0.62 0.64 0.44 0.56 0.72 0.90 0.93 0.91 0.83 0.93 1.02 1.16 1.20 1.25 1.25 1.24 1.30 1.33 1.33 1.43 1.51 1.55 1.54 1.57 1.54 1.58 1.63 1.62 1.64 1.63 1.60 1.57 1.53 1.61 1.59 1.55 1.55
0.39 0.37 0.33 0.38 0.37 0.37 0.63 0.62 0.55 0.71 0.76 0.76 0.93 0.97 0.95 1.02 1.06 1.12 1.16 1.23 1.28 1.24 1.24 1.27 1.28 1.30 1.32 1.33 1.36 1.34 1.39 1.44 1.48 1.48 1.45 1.45 1.46 1.41 1.37 1.29 1.33 1.35 1.39 1.39
0.30 0.36 0.40 0.38 0.44 0.57 0.62 0.63 0.74 0.77 0.77 0.78 0.91 1.02 1.02 1.02 1.08 1.15 1.16 1.22 1.25 1.25 1.23 1.23 1.19 1.19 1.21 1.18 1.17 1.10 1.11 1.22 1.26 1.25 1.21 1.20 1.19 1.13 1.12 1.07 1.05 1.04 1.04 0.98
0.40 0.46 0.42 0.43 0.53 0.55 0.60 0.65 0.66 0.75 0.78 0.88 0.95 1.00 1.01 1.01 1.08 1.13 1.21 1.23 1.25 1.25 1.21 1.18 1.09 1.02 0.93 0.97 0.96 0.95 0.94 0.92 0.88 0.82 0.80 0.83 0.83 0.79 0.78 0.77 0.78 0.78 0.77 0.75
0.46 0.45 0.43 0.43 0.51 0.52 0.56 0.61 0.64 0.66 0.73 0.84 0.94 0.97 0.99 1.03 1.07 1.12 1.19 1.23 1.24 1.24 1.21 1.14 1.03 0.95 0.96 0.94 0.86 0.82 0.79 0.79 0.74 0.73 0.73 0.72 0.74 0.74 0.74 0.71 0.70 0.65 0.68 0.68
0.46 0.43 0.40 0.42 0.58 0.54 0.59 0.60 0.62 0.61 0.63 0.73 0.79 0.85 0.95 1.01 1.04 1.11 1.13 1.18 1.17 1.15 1.12 1.03 0.98 1.02 0.96 0.88 0.83 0.81 0.78 0.70 0.64 0.60 0.59 0.57 0.57 0.57 0.57 0.55 0.53 0.55 0.54 0.51

GFSCGP_prec_pwat_111.txt.gz
Precipitable_Water
0.32 0.35 0.48 0.74 0.81 0.79 0.99 0.98 1.01 1.16 1.41 1.32 1.30 1.34 1.31 1.43 1.41 1.17 1.11 1.13 1.27 1.24 1.34 1.36 1.38 1.38 1.44 1.50 1.59 1.61 1.59 1.56 1.66 1.63 1.57 1.60 1.59 1.72 1.78 1.90 1.81 1.79 1.79 1.68
0.30 0.28 0.47 0.84 0.87 0.75 0.82 0.93 1.09 1.23 1.39 1.28 1.20 1.27 1.39 1.40 1.49 1.40 1.15 1.16 1.24 1.26 1.31 1.33 1.37 1.38 1.38 1.45 1.64 1.71 1.70 1.59 1.61 1.65 1.75 1.73 1.71 1.65 1.80 1.83 1.75 1.84 1.90 1.78
0.30 0.30 0.43 0.69 0.87 0.66 0.75 0.98 1.15 1.02 1.25 1.28 1.15 1.09 1.29 1.35 1.41 1.30 1.25 1.23 1.18 1.21 1.28 1.23 1.35 1.35 1.40 1.36 1.49 1.66 1.79 1.72 1.71 1.81 1.78 1.87 1.91 1.80 1.69 1.87 1.71 1.78 1.83 1.83
0.32 0.35 0.37 0.55 0.71 0.69 0.64 0.99 1.04 1.17 0.99 0.88 1.12 0.80 1.13 1.26 1.27 1.33 1.31 1.33 1.20 1.40 1.30 1.28 1.33 1.50 1.38 1.39 1.45 1.58 1.78 1.86 1.76 1.88 1.87 1.71 1.70 1.62 1.76 1.72 1.75 1.84 1.74 1.79
0.28 0.33 0.37 0.53 0.65 0.70 0.69 0.80 1.14 1.09 0.94 0.90 0.96 0.87 1.02 1.25 1.11 1.27 1.17 1.25 1.30 1.22 1.40 1.42 1.26 1.31 1.45 1.51 1.43 1.49 1.55 1.77 1.89 1.83 1.86 1.80 1.80 1.83 1.79 1.80 1.85 1.85 1.74 1.77
0.39 0.44 0.44 0.50 0.70 0.71 0.75 0.75 0.93 0.95 0.90 0.70 0.81 0.86 0.91 1.02 1.11 1.22 1.42 1.40 1.24 1.31 1.28 1.59 1.34 1.64 1.67 1.45 1.42 1.46 1.42 1.54 1.76 1.88 1.95 1.88 1.75 2.01 1.91 1.76 1.77 1.71 1.79 1.72
0.40 0.44 0.47 0.53 0.52 0.59 0.64 0.68 0.64 0.64 0.64 0.64 0.91 0.80 0.86 1.03 1.11 1.22 1.32 1.40 1.37 1.60 1.18 1.29 1.46 1.53 1.30 1.51 1.37 1.42 1.40 1.46 1.51 1.74 1.92 1.92 1.94 1.82 1.77 1.76 1.74 1.81 1.68 1.79
0.29 0.31 0.43 0.46 0.50 0.45 0.55 0.64 0.65 0.52 0.56 0.67 0.81 0.72 0.92 1.03 1.17 1.32 1.36 1.42 1.39 1.38 1.45 1.40 1.41 1.52 1.56 1.51 1.40 1.37 1.36 1.39 1.46 1.50 1.63 1.92 1.97 1.87 1.87 1.83 1.87 1.64 1.77 1.68
0.31 0.32 0.44 0.42 0.40 0.48 0.44 0.52 0.73 0.74 0.69 0.66 0.80 0.82 1.06 1.15 1.13 1.28 1.35 1.35 1.39 1.55 1.34 1.37 1.35 1.61 1.30 1.42 1.43 1.45 1.44 1.41 1.42 1.43 1.46 1.59 1.84 1.95 1.95 2.12 1.96 1.86 1.77 1.77
0.43 0.34 0.43 0.43 0.40 0.37 0.38 0.52 0.47 0.59 0.49 0.50 0.66 0.73 0.70 0.91 1.02 1.16 1.28 1.28 1.37 1.47 1.47 1.49 1.37 1.38 1.68 1.42 1.54 1.55 1.52 1.44 1.44 1.43 1.43 1.45 1.51 1.72 1.88 1.94 1.85 1.89 2.05 1.88
0.44 0.38 0.38 0.39 0.34 0.31 0.30 0.31 0.43 0.52 0.52 0.49 0.53 0.66 1.08 0.84 0.97 1.06 1.22 1.37 1.43 1.47 1.46 1.61 1.47 1.56 1.49 1.70 1.61 1.62 1.58 1.65 1.63 1.59 1.55 1.45 1.41 1.45 1.55 1.67 1.97 2.00 1.95 1.94
0.39 0.41 0.32 0.40 0.40 0.36 0.33 0.30 0.32 0.30 0.38 0.43 0.46 0.55 1.04 1.14 1.06 1.12 1.22 1.30 1.42 1.50 1.51 1.59 1.49 1.82 1.74 1.84 1.79 1.72 1.74 1.74 1.76 1.75 1.76 1.64 1.60 1.47 1.41 1.42 1.71 1.98 1.97 2.12
0.55 0.37 0.34 0.37 0.41 0.36 0.27 0.30 0.32 0.31 0.34 0.33 0.36 0.59 0.96 0.99 1.14 1.19 1.25 1.32 1.43 1.51 1.59 1.61 1.65 1.73 1.79 1.85 1.90 1.92 1.92 1.89 1.91 1.85 1.85 1.78 1.83 1.70 1.53 1.46 1.48 1.72 2.01 2.16
0.49 0.43 0.44 0.40 0.53 0.55 0.41 0.31 0.36 0.32 0.27 0.29 0.33 0.69 0.82 0.91 0.94 1.13 1.22 1.32 1.44 1.59 1.62 1.61 1.65 1.73 1.79 1.88 1.90 1.95 2.01 2.05 2.03 2.08 2.14 2.07 1.98 1.87 1.86 1.72 1.50 1.53 1.66 1.96
0.44 0.37 0.44 0.50 0.54 0.57 0.50 0.37 0.30 0.32 0.34 0.36 0.37 0.43 0.80 0.83 0.83 0.92 1.15 1.31 1.44 1.50 1.57 1.62 1.71 1.79 1.77 1.82 1.82 1.87 1.94 1.98 1.91 1.89 1.97 2.10 2.24 2.10 2.02 1.91 1.88 1.69 1.49 1.57
0.47 0.36 0.43 0.45 0.54 0.54 0.45 0.48 0.44 0.36 0.34 0.34 0.41 0.49 0.66 1.29 1.02 0.90 1.06 1.18 1.27 1.41 1.53 1.62 1.81 1.75 1.76 1.83 1.79 1.84 1.91 1.94 1.88 1.84 1.97 2.12 2.17 2.19 2.26 2.12 2.12 2.11 1.72 1.54
0.47 0.44 0.40 0.34 0.43 0.44 0.44 0.45 0.45 0.44 0.42 0.37 0.39 0.68 0.67 1.14 1.03 0.91 0.97 1.12 1.23 1.37 1.44 1.52 1.65 1.75 1.75 1.75 1.81 1.86 1.92 1.96 1.86 1.79 1.90 1.97 2.09 2.09 2.14 2.13 2.24 2.18 1.99 1.76
0.47 0.45 0.47 0.43 0.46 0.33 0.46 0.58 0.62 0.59 0.72 0.66 0.72 0.74 1.17 1.07 1.03 0.95 1.04 1.08 1.18 1.35 1.41 1.47 1.54 1.67 1.75 1.83 1.86 1.97 2.04 1.95 1.87 1.76 1.83 1.88 2.01 2.05 2.09 2.07 2.11 2.08 2.06 1.93
0.51 0.52 0.43 0.35 0.50 0.52 0.61 0.59 0.59 0.55 0.61 0.82 0.65 0.94 1.14 0.98 0.93 0.89 1.05 1.15 1.18 1.25 1.38 1.44 1.52 1.60 1.63 1.69 1.79 1.87 1.87 1.79 1.72 1.67 1.73 1.79 1.83 1.81 1.86 1.92 1.98 1.97 1.96 1.90
0.51 0.50 0.42 0.49 0.35 0.41 0.61 0.79 0.70 0.65 0.54 0.92 1.01 0.96 0.86 0.81 0.56 0.71 1.01 1.13 1.15 1.19 1.22 1.30 1.39 1.49 1.54 1.61 1.66 1.62 1.60 1.57 1.54 1.63 1.68 1.75 1.78 1.76 1.81 1.78 1.89 1.85 1.89 1.84
0.43 0.46 0.37 0.35 0.39 0.54 0.76 0.72 0.73 0.48 0.62 0.82 0.94 1.00 0.93 0.84 0.95 1.05 1.08 1.10 1.15 1.14 1.18 1.28 1.35 1.36 1.39 1.51 1.58 1.50 1.48 1.52 1.63 1.72 1.77 1.76 1.76 1.73 1.70 1.73 1.80 1.76 1.71 1.71
0.43 0.46 0.43 0.41 0.35 0.38 0.72 0.67 0.57 0.82 0.90 0.86 0.95 1.11 0.97 1.03 1.12 1.10 1.07 1.09 1.13 1.14 1.17 1.21 1.23 1.25 1.35 1.45 1.49 1.49 1.43 1.50 1.59 1.68 1.70 1.69 1.67 1.67 1.68 1.63 1.58 1.54 1.55 1.55
0.27 0.36 0.42 0.46 0.53 0.71 0.65 0.66 0.70 0.81 0.82 0.88 0.83 1.15 1.08 1.02 1.07 1.08 1.07 1.09 1.14 1.17 1.19 1.21 1.19 1.19 1.24 1.27 1.31 1.31 1.42 1.51 1.53 1.52 1.50 1.54 1.60 1.58 1.61 1.56 1.45 1.35 1.36 1.31
0.45 0.46 0.33 0.46 0.54 0.55 0.57 0.64 0.68 0.66 0.69 0.86 0.93 1.03 1.05 0.98 1.05 1.11 1.12 1.13 1.15 1.21 1.19 1.20 1.19 1.10 1.12 1.19 1.18 1.20 1.24 1.29 1.30 1.29 1.31 1.33 1.32 1.33 1.35 1.34 1.26 1.12 1.05 1.02
0.52 0.57 0.40 0.45 0.61 0.61 0.62 0.65 0.64 0.71 0.72 0.73 0.91 0.94 0.99 1.03 1.05 1.09 1.12 1.17 1.19 1.21 1.22 1.20 1.10 1.02 0.99 1.06 1.06 1.10 1.12 1.10 1.09 1.07 1.03 1.03 1.02 1.04 0.89 0.83 0.82 0.79 0.78 0.74
0.49 0.42 0.43 0.44 0.67 0.65 0.69 0.72 0.66 0.65 0.69 0.73 0.76 0.88 1.01 1.04 1.03 1.10 1.11 1.19 1.20 1.19 1.20 1.13 1.04 1.03 1.00 0.97 0.90 0.90 0.91 0.89 0.88 0.87 0.85 0.83 0.81 0.77 0.73 0.68 0.64 0.64 0.63 0.66

GFSCGP_prec_pwat_114.txt.gz
Precipitable_Water
0.40 0.36 0.38 0.51 0.79 0.87 0.87 0.94 1.06 1.22 1.38 1.25 1.28 1.28 1.32 1.41 1.45 1.28 1.04 1.04 1.12 1.21 1.21 1.26 1.37 1.48 1.38 1.38 1.61 1.41 1.53 1.58 1.51 1.57 1.61 1.65 1.55 1.70 1.77 1.74 1.75 1.72 1.57 1.61
0.31 0.26 0.40 0.57 0.82 0.95 0.85 0.86 1.02 1.25 1.34 1.25 1.20 1.20 1.33 1.42 1.45 1.41 1.11 1.13 1.14 1.10 1.28 1.21 1.40 1.39 1.33 1.36 1.54 1.56 1.59 1.50 1.58 1.59 1.62 1.69 1.72 1.70 1.75 1.74 1.68 1.96 1.73 1.56
0.31 0.28 0.38 0.47 0.72 0.78 0.87 0.80 0.95 1.03 1.26 1.32 1.16 1.09 1.20 1.35 1.48 1.39 1.30 1.27 1.18 1.24 1.48 1.21 1.28 1.38 1.39 1.36 1.55 1.68 1.66 1.45 1.69 1.82 1.83 1.74 1.75 1.65 1.69 1.66 1.62 1.67 1.77 1.70
0.31 0.36 0.33 0.40 0.56 0.85 0.71 0.95 1.05 1.14 1.08 0.89 1.16 0.81 1.12 1.26 1.31 1.40 1.37 1.26 1.37 1.27 1.26 1.25 1.35 1.31 1.32 1.37 1.51 1.70 1.79 1.56 1.66 1.83 1.86 1.81 1.69 1.56 1.59 1.69 1.69 1.75 1.71 1.75
0.24 0.32 0.33 0.33 0.45 0.79 0.83 0.96 1.05 1.14 1.02 0.93 1.01 0.84 1.00 1.21 1.18 1.33 1.45 1.18 1.45 1.46 1.30 1.41 1.20 1.38 1.50 1.52 1.38 1.50 1.66 1.80 1.79 1.79 1.73 1.73 1.68 1.71 1.79 1.70 1.73 1.70 1.61 1.69
0.30 0.36 0.36 0.36 0.61 0.73 0.91 0.86 0.99 0.96 0.99 0.81 0.90 0.86 0.83 0.97 1.02 1.21 1.22 1.27 1.26 1.26 1.37 1.51 1.69 1.19 1.41 1.37 1.44 1.34 1.41 1.68 1.82 1.80 1.88 1.88 1.82 1.81 1.84 1.75 1.66 1.66 1.62 1.61
0.28 0.39 0.43 0.44 0.44 0.71 0.78 0.65 0.64 0.69 0.75 0.70 0.92 0.86 0.88 1.03 1.16 1.17 1.18 1.24 1.40 1.37 1.35 1.37 1.67 1.36 1.42 1.72 1.63 1.39 1.32 1.29 1.62 1.83 1.82 1.89 1.94 1.85 1.96 1.77 1.63 1.71 1.67 1.70
0.27 0.28 0.39 0.44 0.45 0.61 0.52 0.53 0.58 0.53 0.61 0.71 0.95 0.74 0.88 1.02 1.13 1.18 1.25 1.32 1.33 1.42 1.47 1.51 1.45 1.51 1.63 1.64 1.79 1.43 1.29 1.20 1.32 1.59 1.74 1.93 2.04 1.92 1.86 1.74 1.77 2.08 1.88 1.89
0.37 0.26 0.45 0.47 0.47 0.54 0.51 0.43 0.62 0.70 0.81 0.72 0.75 1.02 1.06 1.04 1.07 1.16 1.23 1.31 1.34 1.42 1.51 1.57 1.45 1.54 1.59 1.71 1.66 1.60 1.30 1.20 1.28 1.35 1.46 1.69 1.89 1.88 1.90 1.95 1.73 1.68 1.94 1.93
0.45 0.38 0.35 0.46 0.43 0.42 0.45 0.52 0.43 0.60 0.50 0.54 0.69 0.80 0.93 1.02 1.04 1.20 1.23 1.27 1.30 1.47 1.55 1.46 1.45 1.56 1.61 1.66 1.72 1.71 1.32 1.29 1.23 1.34 1.33 1.34 1.60 1.78 1.94 2.00 1.97 1.96 1.89 1.67
0.48 0.42 0.39 0.44 0.39 0.32 0.30 0.32 0.38 0.45 0.57 0.54 0.58 0.69 0.97 1.10 1.21 1.13 1.22 1.29 1.32 1.26 1.41 1.55 1.57 1.75 1.53 1.73 1.59 1.62 1.50 1.33 1.25 1.37 1.26 1.28 1.26 1.42 1.68 1.71 1.83 1.93 1.98 1.87
0.42 0.40 0.38 0.42 0.43 0.42 0.36 0.32 0.27 0.29 0.37 0.52 0.57 0.57 0.88 0.94 1.26 1.27 1.36 1.33 1.42 1.40 1.44 1.52 1.59 1.72 1.66 1.54 1.66 1.77 1.55 1.34 1.35 1.41 1.37 1.36 1.25 1.30 1.32 1.39 1.51 1.87 2.02 2.11
0.52 0.37 0.29 0.36 0.43 0.47 0.37 0.33 0.33 0.28 0.31 0.34 0.38 0.60 0.93 0.92 0.99 1.14 1.20 1.39 1.40 1.42 1.46 1.50 1.47 1.88 1.78 1.77 1.72 1.90 1.64 1.85 1.72 1.91 1.78 1.61 1.73 1.50 1.40 1.34 1.34 1.41 1.74 1.92
0.48 0.44 0.39 0.40 0.45 0.57 0.48 0.43 0.29 0.29 0.25 0.25 0.31 0.58 0.67 0.72 0.94 1.03 1.21 1.32 1.37 1.43 1.45 1.56 1.72 1.72 1.73 1.73 1.98 1.89 1.97 2.09 2.21 1.87 1.80 1.82 1.87 1.81 1.93 1.73 1.66 1.51 1.47 1.61
0.38 0.35 0.41 0.46 0.52 0.54 0.52 0.53 0.47 0.29 0.33 0.26 0.30 0.62 0.81 0.88 1.03 1.09 1.21 1.25 1.38 1.40 1.50 1.54 1.62 1.85 1.84 1.98 1.90 1.98 1.97 2.05 2.10 2.08 1.99 1.99 2.05 2.05 2.13 2.15 1.94 1.80 1.63 1.46
0.44 0.33 0.37 0.41 0.48 0.53 0.51 0.55 0.54 0.41 0.30 0.32 0.34 0.43 0.63 1.04 1.08 1.32 1.28 1.41 1.30 1.38 1.53 1.65 1.77 1.78 1.82 1.74 1.74 1.80 1.88 1.86 1.90 1.88 1.83 1.92 1.95 2.00 2.10 2.16 2.20 2.23 1.96 1.90
0.47 0.45 0.42 0.35 0.47 0.53 0.42 0.53 0.57 0.50 0.41 0.39 0.35 0.75 0.90 0.78 0.82 1.13 1.38 1.36 1.36 1.44 1.57 1.71 1.78 1.82 1.85 1.79 1.77 1.74 1.74 1.88 1.85 1.88 1.94 1.85 1.91 1.92 2.02 2.12 2.22 2.34 2.19 2.19
0.45 0.43 0.42 0.42 0.42 0.44 0.60 0.65 0.69 0.69 0.80 0.76 0.84 1.05 0.96 0.93 0.92 1.16 1.29 1.32 1.31 1.27 1.41 1.60 1.67 1.82 1.90 1.98 1.91 1.85 1.84 1.86 1.90 1.86 1.89 1.88 1.84 1.91 2.05 2.11 2.16 2.16 2.21 2.17
0.48 0.43 0.37 0.42 0.38 0.45 0.58 0.66 0.65 0.64 0.61 0.84 0.86 1.00 0.92 1.04 1.09 1.18 1.35 1.40 1.32 1.36 1.34 1.51 1.63 1.76 1.83 1.90 1.95 1.90 1.86 1.90 1.92 1.91 1.88 1.78 1.76 1.80 1.86 1.97 2.10 2.15 2.12 2.09
0.51 0.53 0.42 0.43 0.41 0.39 0.62 0.70 0.79 0.72 0.59 0.86 0.88 0.94 1.03 1.16 0.67 0.85 1.34 1.31 1.26 1.30 1.31 1.37 1.54 1.62 1.65 1.77 1.80 1.72 1.71 1.75 1.74 1.82 1.82 1.77 1.78 1.74 1.72 1.69 1.76 1.92 2.00 1.93
0.49 0.43 0.33 0.37 0.42 0.51 0.71 0.75 0.76 0.48 0.63 0.84 0.88 1.06 0.94 0.95 1.04 1.40 1.30 1.23 1.18 1.24 1.25 1.30 1.33 1.39 1.47 1.57 1.61 1.55 1.57 1.55 1.68 1.78 1.76 1.72 1.74 1.75 1.76 1.76 1.75 1.69 1.67 1.78
0.34 0.46 0.50 0.46 0.40 0.37 0.69 0.76 0.67 0.78 0.88 0.91 0.89 0.98 1.17 1.10 1.29 1.29 1.20 1.18 1.13 1.12 1.11 1.17 1.19 1.23 1.33 1.42 1.47 1.43 1.48 1.59 1.64 1.69 1.68 1.70 1.73 1.78 1.79 1.74 1.69 1.65 1.57 1.54
0.33 0.40 0.45 0.58 0.63 0.73 0.72 0.73 0.80 0.79 0.85 0.85 0.79 1.10 1.16 1.09 1.12 1.22 1.16 1.13 1.12 1.12 1.13 1.18 1.18 1.18 1.21 1.28 1.35 1.34 1.40 1.44 1.49 1.52 1.55 1.63 1.71 1.74 1.76 1.73 1.67 1.58 1.50 1.41
0.44 0.47 0.33 0.37 0.62 0.61 0.63 0.68 0.69 0.66 0.67 0.76 0.94 1.12 1.23 1.02 1.06 1.05 1.17 1.17 1.12 1.12 1.12 1.14 1.11 1.10 1.11 1.17 1.18 1.27 1.35 1.38 1.37 1.37 1.39 1.48 1.52 1.54 1.57 1.58 1.59 1.51 1.43 1.33
0.52 0.55 0.48 0.39 0.53 0.62 0.63 0.66 0.63 0.65 0.71 0.72 0.83 0.86 0.98 0.98 0.96 1.03 1.07 1.10 1.16 1.14 1.14 1.15 1.08 1.05 1.05 1.09 1.12 1.17 1.20 1.22 1.20 1.20 1.25 1.27 1.32 1.36 1.34 1.35 1.38 1.33 1.30 1.20
0.50 0.45 0.40 0.43 0.65 0.64 0.70 0.74 0.68 0.66 0.67 0.68 0.72 0.81 0.90 0.99 0.98 1.00 1.02 1.09 1.12 1.15 1.18 1.10 1.06 1.04 1.02 1.01 0.99 1.06 1.15 1.15 1.12 1.13 1.22 1.24 1.23 1.16 1.15 1.11 1.02 0.98 1.00 0.91

GFSCGP_prec_pwat_117.txt.gz
Precipitable_Water
0.40 0.34 0.34 0.49 0.63 0.69 0.97 0.93 1.03 1.20 1.36 1.24 1.23 1.28 1.28 1.31 1.30 1.11 1.16 1.03 1.03 1.05 1.22 1.23 1.36 1.41 1.41 1.44 1.42 1.39 1.40 1.43 1.55 1.61 1.56 1.65 1.54 1.61 1.65 1.69 1.67 1.52 1.54 1.62
0.35 0.29 0.39 0.54 0.66 0.78 0.93 0.90 0.88 1.15 1.30 1.26 1.20 1.20 1.33 1.35 1.35 1.33 1.25 1.05 1.02 1.09 1.22 1.25 1.29 1.34 1.41 1.36 1.59 1.44 1.47 1.42 1.55 1.68 1.63 1.63 1.66 1.70 1.72 1.74 1.66 1.63 1.61 1.68
0.28 0.29 0.36 0.47 0.49 0.60 0.93 0.83 0.91 0.97 1.17 1.29 1.15 1.06 1.17 1.33 1.38 1.46 1.49 1.43 1.12 1.15 1.15 1.22 1.31 1.33 1.33 1.34 1.47 1.47 1.51 1.49 1.55 1.59 1.61 1.66 1.71 1.75 1.64 1.63 1.61 1.64 1.62 1.62
0.30 0.36 0.34 0.41 0.45 0.56 0.78 1.02 1.14 1.03 0.99 0.88 1.14 0.80 1.09 1.25 1.26 1.39 1.48 1.52 1.21 1.17 1.23 1.31 1.29 1.31 1.29 1.30 1.42 1.57 1.58 1.55 1.73 1.80 1.67 1.69 1.52 1.45 1.56 1.67 1.65 1.64 1.65 1.65
0.24 0.31 0.32 0.33 0.40 0.68 0.74 1.08 1.09 0.97 0.90 0.96 0.98 0.88 0.98 1.23 1.17 1.30 1.45 1.52 1.25 1.19 1.24 1.36 1.33 1.36 1.36 1.39 1.36 1.55 1.59 1.49 1.65 1.87 1.83 1.70 1.61 1.65 1.71 1.65 1.62 1.63 1.66 1.67
0.25 0.31 0.37 0.36 0.45 0.77 1.04 1.00 1.06 0.97 0.89 0.72 0.87 0.87 0.89 1.00 1.08 1.24 1.40 1.50 1.41 1.37 1.35 1.37 1.39 1.46 1.45 1.48 1.48 1.38 1.48 1.55 1.74 1.72 1.72 1.73 1.69 1.67 1.68 1.64 1.67 1.59 1.55 1.57
0.26 0.29 0.38 0.38 0.60 0.75 0.79 0.77 0.67 0.59 0.63 0.70 0.99 0.90 0.92 1.15 1.20 1.23 1.24 1.41 1.51 1.42 1.51 1.47 1.40 1.34 1.39 1.43 1.39 1.38 1.37 1.42 1.65 1.77 1.83 1.87 1.79 1.85 1.78 1.74 1.66 1.62 1.61 1.59
0.26 0.25 0.38 0.41 0.38 0.58 0.69 0.69 0.53 0.48 0.55 0.66 0.94 0.84 0.92 1.22 1.31 1.30 1.37 1.39 1.42 1.47 1.49 1.37 1.49 1.53 1.40 1.46 1.65 1.53 1.34 1.25 1.45 1.65 1.73 1.84 1.85 1.71 1.86 1.88 1.67 1.79 1.67 1.71
0.35 0.31 0.38 0.45 0.42 0.51 0.55 0.56 0.57 0.61 0.75 0.66 0.76 0.94 1.09 1.16 1.19 1.21 1.27 1.29 1.32 1.34 1.30 1.40 1.42 1.54 1.60 1.50 1.81 1.69 1.51 1.31 1.16 1.41 1.66 1.75 1.85 1.89 1.82 1.80 1.73 1.72 1.87 1.90
0.43 0.36 0.41 0.43 0.48 0.50 0.46 0.57 0.47 0.61 0.46 0.47 0.68 0.75 0.80 1.00 1.11 1.22 1.19 1.28 1.34 1.36 1.40 1.44 1.44 1.58 1.65 1.68 1.68 1.90 1.85 1.47 1.23 1.16 1.31 1.53 1.76 1.84 1.84 1.99 1.86 1.80 1.86 1.83
0.46 0.44 0.39 0.43 0.42 0.38 0.41 0.38 0.40 0.45 0.54 0.46 0.50 0.66 0.88 0.91 1.01 1.18 1.28 1.29 1.32 1.42 1.42 1.45 1.58 1.70 1.61 1.63 1.70 1.75 1.78 1.53 1.32 1.19 1.20 1.25 1.31 1.57 1.72 1.79 1.91 1.90 1.88 1.85
0.49 0.45 0.36 0.39 0.47 0.46 0.40 0.36 0.35 0.29 0.30 0.44 0.51 0.56 0.91 0.94 1.00 1.06 1.25 1.37 1.39 1.43 1.47 1.50 1.55 1.63 1.57 1.60 1.66 1.77 1.80 1.54 1.41 1.23 1.20 1.18 1.28 1.31 1.44 1.54 1.60 1.73 1.84 1.88
0.49 0.44 0.36 0.38 0.47 0.53 0.45 0.43 0.38 0.34 0.29 0.27 0.31 0.43 0.83 0.95 0.96 0.98 1.14 1.35 1.44 1.44 1.47 1.44 1.46 1.59 1.72 1.69 1.64 1.82 1.82 1.71 1.60 1.35 1.31 1.34 1.29 1.23 1.24 1.29 1.34 1.36 1.48 1.85
0.47 0.42 0.42 0.38 0.44 0.52 0.47 0.47 0.47 0.43 0.29 0.25 0.29 0.46 0.67 0.80 0.83 1.00 1.14 1.27 1.35 1.44 1.42 1.44 1.58 1.71 1.75 1.78 1.87 2.08 1.85 1.76 1.72 1.61 1.77 1.76 1.72 1.77 1.77 1.70 1.54 1.47 1.46 1.45
0.36 0.33 0.41 0.43 0.47 0.49 0.51 0.50 0.48 0.49 0.48 0.35 0.34 0.54 0.74 0.81 0.92 1.18 1.28 1.34 1.37 1.43 1.48 1.49 1.59 1.71 1.72 1.71 1.97 1.96 1.90 1.79 1.91 1.78 1.84 2.00 1.99 1.95 2.00 1.94 2.04 2.03 1.81 1.65
0.43 0.32 0.45 0.40 0.45 0.46 0.49 0.56 0.55 0.60 0.56 0.49 0.52 0.60 0.96 1.03 1.05 1.07 1.25 1.40 1.39 1.44 1.53 1.61 1.65 1.70 1.74 1.74 1.83 1.73 1.89 2.09 2.09 2.00 2.08 2.12 2.11 2.10 2.07 2.10 2.12 2.21 2.08 2.08
0.43 0.38 0.41 0.38 0.49 0.48 0.47 0.59 0.60 0.65 0.67 0.69 0.63 0.77 0.87 0.77 0.76 0.85 1.16 1.34 1.65 1.56 1.65 1.63 1.71 1.76 1.81 1.81 1.90 1.79 1.93 2.08 2.05 1.99 1.99 1.97 1.94 1.88 1.85 1.96 2.02 2.04 2.10 2.20
0.42 0.44 0.43 0.33 0.40 0.32 0.61 0.75 0.73 0.74 0.78 0.84 0.96 1.01 0.87 0.88 0.92 0.93 1.10 1.20 1.39 1.55 1.66 1.72 1.80 1.92 2.01 2.00 2.01 1.95 1.92 1.94 1.87 1.87 1.85 1.86 1.89 1.84 1.86 1.86 1.89 2.00 2.10 2.21
0.54 0.50 0.37 0.36 0.37 0.44 0.53 0.69 0.68 0.68 0.72 0.89 0.91 1.00 1.14 1.17 1.10 1.07 1.25 1.25 1.36 1.46 1.53 1.61 1.74 1.87 1.95 2.05 2.08 1.99 1.94 1.91 1.85 1.80 1.83 1.86 1.88 1.81 1.72 1.81 2.00 2.09 2.00 2.09
0.56 0.55 0.45 0.38 0.34 0.31 0.46 0.61 0.80 0.78 0.66 0.94 0.99 1.04 0.95 0.99 0.84 0.97 1.27 1.30 1.27 1.38 1.42 1.47 1.61 1.75 1.82 1.94 1.97 1.86 1.84 1.83 1.78 1.84 1.93 1.95 1.87 1.73 1.67 1.66 1.73 1.92 2.08 2.05
0.39 0.41 0.35 0.39 0.37 0.44 0.62 0.65 0.70 0.48 0.66 0.93 0.99 1.00 1.01 0.89 0.97 1.13 1.18 1.10 1.23 1.27 1.34 1.41 1.50 1.60 1.79 1.86 1.87 1.75 1.71 1.68 1.78 1.83 1.89 1.82 1.85 1.75 1.71 1.70 1.70 1.63 1.65 1.62
0.28 0.25 0.44 0.46 0.39 0.37 0.75 0.67 0.48 0.67 0.83 0.90 0.92 0.99 1.03 1.12 1.17 1.14 1.14 1.12 1.13 1.13 1.22 1.32 1.38 1.45 1.58 1.64 1.68 1.65 1.61 1.64 1.70 1.73 1.76 1.80 1.82 1.74 1.73 1.69 1.69 1.68 1.57 1.47
0.37 0.42 0.40 0.45 0.40 0.64 0.78 0.70 0.71 0.71 0.79 0.81 0.92 1.01 1.04 0.99 0.99 1.06 1.09 1.11 1.19 1.18 1.21 1.32 1.32 1.31 1.38 1.46 1.46 1.44 1.52 1.59 1.58 1.60 1.66 1.72 1.72 1.70 1.71 1.66 1.65 1.63 1.62 1.50
0.55 0.52 0.41 0.45 0.52 0.69 0.77 0.71 0.65 0.66 0.61 0.73 0.90 0.97 1.03 0.96 1.01 1.00 1.06 1.12 1.14 1.23 1.27 1.30 1.27 1.25 1.26 1.34 1.34 1.34 1.39 1.45 1.44 1.42 1.46 1.54 1.54 1.58 1.61 1.61 1.59 1.55 1.49 1.46
0.51 0.53 0.45 0.40 0.57 0.61 0.67 0.67 0.65 0.67 0.67 0.68 0.81 0.85 0.90 0.88 0.89 0.94 0.94 1.02 1.08 1.14 1.19 1.23 1.21 1.17 1.16 1.19 1.21 1.27 1.29 1.34 1.30 1.28 1.32 1.34 1.33 1.35 1.38 1.44 1.47 1.46 1.44 1.43
0.53 0.49 0.39 0.42 0.64 0.63 0.63 0.71 0.69 0.66 0.60 0.62 0.72 0.78 0.86 0.90 0.87 0.89 0.94 1.03 1.06 1.09 1.18 1.17 1.13 1.07 1.09 1.09 1.09 1.13 1.17 1.17 1.16 1.12 1.14 1.19 1.18 1.25 1.27 1.25 1.29 1.33 1.34 1.35

GFSCGP_prec_pwat_120.txt.gz
Precipitable_Water
0.39 0.38 0.37 0.45 0.53 0.55 0.72 0.80 1.02 1.09 1.29 1.22 1.11 1.28 1.34 1.30 1.31 1.19 1.00 1.03 1.11 1.11 1.23 1.40 1.41 1.40 1.45 1.53 1.44 1.31 1.37 1.59 1.61 1.60 1.50 1.46 1.46 1.47 1.55 1.54 1.44 1.49 1.76 1.75
0.34 0.29 0.40 0.50 0.60 0.61 0.81 0.91 1.02 1.14 1.26 1.19 1.17 1.15 1.36 1.42 1.32 1.31 1.08 1.01 1.01 1.10 1.21 1.29 1.35 1.38 1.38 1.52 1.43 1.31 1.40 1.48 1.57 1.63 1.71 1.59 1.54 1.58 1.60 1.66 1.58 1.50 1.66 1.71
0.30 0.27 0.39 0.47 0.55 0.65 0.69 0.67 0.98 0.97 1.16 1.26 1.13 1.05 1.23 1.37 1.44 1.37 1.27 1.22 1.17 1.11 1.14 1.26 1.27 1.30 1.41 1.44 1.42 1.38 1.41 1.49 1.63 1.66 1.70 1.68 1.67 1.68 1.66 1.61 1.60 1.49 1.61 1.73
0.32 0.36 0.35 0.41 0.49 0.56 0.49 0.87 0.96 1.07 0.99 0.84 1.13 0.79 1.05 1.22 1.28 1.32 1.37 1.30 1.17 1.16 1.21 1.28 1.28 1.26 1.42 1.37 1.48 1.43 1.48 1.49 1.58 1.65 1.61 1.61 1.54 1.47 1.51 1.53 1.52 1.60 1.64 1.60
0.29 0.32 0.33 0.36 0.49 0.57 0.66 0.95 0.90 1.03 0.98 0.95 0.96 0.85 0.95 1.19 1.12 1.24 1.37 1.42 1.39 1.30 1.20 1.30 1.30 1.35 1.44 1.40 1.41 1.54 1.50 1.50 1.64 1.79 1.77 1.64 1.57 1.58 1.60 1.64 1.56 1.61 1.68 1.71
0.33 0.35 0.31 0.37 0.48 0.60 0.87 0.89 0.91 1.01 0.92 0.72 0.91 0.87 0.85 1.01 1.11 1.23 1.37 1.44 1.50 1.43 1.36 1.30 1.41 1.42 1.40 1.44 1.46 1.49 1.61 1.48 1.62 1.82 1.78 1.78 1.61 1.62 1.60 1.55 1.54 1.56 1.54 1.64
0.32 0.30 0.43 0.63 0.66 0.91 0.74 0.68 0.64 0.64 0.64 0.62 0.92 0.89 0.91 1.15 1.26 1.30 1.33 1.42 1.56 1.59 1.36 1.31 1.39 1.39 1.40 1.36 1.42 1.43 1.48 1.50 1.53 1.64 1.80 1.76 1.76 1.71 1.67 1.62 1.67 1.58 1.49 1.48
0.28 0.26 0.37 0.62 0.51 0.54 0.60 0.65 0.56 0.44 0.52 0.63 0.93 0.74 0.85 1.16 1.24 1.34 1.41 1.49 1.60 1.58 1.41 1.33 1.47 1.39 1.39 1.38 1.44 1.40 1.31 1.37 1.59 1.64 1.71 1.83 1.82 1.80 1.80 1.86 1.78 1.65 1.63 1.60
0.35 0.34 0.40 0.53 0.58 0.52 0.57 0.56 0.71 0.62 0.69 0.61 0.72 0.80 0.93 1.10 1.12 1.26 1.31 1.45 1.54 1.59 1.53 1.38 1.52 1.51 1.44 1.39 1.40 1.49 1.40 1.31 1.41 1.64 1.68 1.81 1.84 1.80 1.74 1.86 1.81 1.86 1.88 1.83
0.41 0.34 0.42 0.42 0.49 0.55 0.52 0.60 0.48 0.61 0.47 0.45 0.60 0.64 0.65 0.87 0.90 1.12 1.21 1.33 1.44 1.50 1.58 1.55 1.55 1.50 1.60 1.55 1.56 1.63 1.49 1.32 1.21 1.30 1.55 1.63 1.72 1.85 1.91 1.89 1.80 1.77 1.80 1.99
0.46 0.42 0.41 0.43 0.41 0.42 0.40 0.41 0.47 0.49 0.55 0.48 0.48 0.54 0.74 0.75 0.90 1.05 1.14 1.29 1.35 1.39 1.48 1.47 1.55 1.53 1.66 1.71 1.65 1.77 1.79 1.71 1.46 1.21 1.28 1.32 1.54 1.80 1.89 1.86 1.94 1.92 1.91 1.86
0.49 0.48 0.38 0.40 0.52 0.50 0.43 0.45 0.44 0.32 0.30 0.41 0.41 0.41 0.69 0.79 0.92 1.07 1.18 1.23 1.30 1.34 1.43 1.50 1.51 1.54 1.61 1.66 1.67 1.79 1.84 1.85 1.71 1.35 1.28 1.21 1.25 1.40 1.57 1.67 1.79 1.86 1.84 1.91
0.46 0.46 0.37 0.40 0.48 0.52 0.48 0.51 0.52 0.43 0.37 0.30 0.29 0.33 0.66 0.83 0.90 1.04 1.18 1.30 1.37 1.36 1.44 1.56 1.59 1.46 1.51 1.61 1.70 1.80 1.86 1.81 1.78 1.51 1.28 1.21 1.18 1.15 1.22 1.41 1.51 1.57 1.60 1.79
0.47 0.45 0.43 0.39 0.45 0.50 0.49 0.53 0.54 0.47 0.37 0.34 0.31 0.36 0.52 0.72 0.82 0.98 1.18 1.28 1.39 1.42 1.45 1.48 1.57 1.56 1.63 1.64 1.68 1.74 1.86 1.90 1.91 1.71 1.44 1.22 1.16 1.25 1.23 1.32 1.39 1.36 1.38 1.33
0.45 0.37 0.47 0.50 0.53 0.56 0.57 0.56 0.57 0.49 0.50 0.40 0.39 0.52 0.66 0.88 0.93 1.02 1.16 1.18 1.34 1.42 1.46 1.45 1.51 1.63 1.67 1.72 1.75 1.84 1.91 1.96 1.97 1.89 1.79 1.62 1.63 1.73 1.79 1.83 1.88 1.82 1.67 1.63
0.45 0.34 0.44 0.45 0.53 0.54 0.53 0.61 0.62 0.57 0.55 0.55 0.60 0.57 0.91 1.04 1.07 1.11 1.25 1.28 1.31 1.42 1.51 1.55 1.52 1.61 1.65 1.74 1.83 1.86 1.87 1.90 2.02 1.98 1.88 1.98 1.88 2.00 2.03 1.98 2.03 2.07 1.97 2.11
0.38 0.34 0.36 0.37 0.47 0.47 0.42 0.56 0.62 0.64 0.68 0.66 0.55 0.77 0.92 0.92 1.02 1.10 1.19 1.39 1.43 1.51 1.53 1.57 1.66 1.67 1.69 1.83 2.07 1.84 1.85 1.87 1.97 1.98 1.98 1.99 2.02 1.98 2.04 2.12 2.03 2.00 2.05 2.12
0.39 0.40 0.39 0.33 0.40 0.30 0.54 0.69 0.71 0.66 0.73 0.77 0.76 0.90 0.97 1.04 1.18 1.23 1.34 1.21 1.29 1.38 1.47 1.65 1.73 1.90 1.89 1.95 2.07 1.99 2.02 2.01 2.09 1.97 1.87 2.00 1.89 1.93 2.01 2.00 1.92 1.89 1.93 1.94
0.49 0.42 0.37 0.37 0.33 0.41 0.50 0.58 0.61 0.61 0.64 0.82 0.76 0.84 0.95 1.01 1.16 1.17 1.37 1.38 1.37 1.35 1.42 1.55 1.82 1.90 2.06 1.96 1.97 2.05 2.04 2.02 1.97 1.89 1.91 1.95 1.95 1.96 1.95 1.88 1.81 1.76 1.87 1.89
0.50 0.49 0.41 0.42 0.33 0.26 0.46 0.57 0.67 0.70 0.50 0.81 0.83 0.84 0.88 0.92 0.76 0.99 1.29 1.37 1.31 1.35 1.43 1.57 1.68 1.72 1.79 2.00 2.02 1.87 1.91 1.99 1.95 1.95 1.98 2.03 2.03 1.99 1.94 1.82 1.71 1.73 1.89 2.01
0.38 0.42 0.36 0.37 0.36 0.45 0.59 0.61 0.68 0.39 0.49 0.76 0.87 0.89 0.86 0.82 0.95 1.10 1.28 1.22 1.24 1.26 1.28 1.41 1.49 1.53 1.62 1.83 1.97 1.84 1.91 1.91 2.01 2.02 2.02 2.04 2.00 1.90 1.88 1.77 1.66 1.64 1.61 1.78
0.31 0.28 0.32 0.38 0.36 0.31 0.68 0.63 0.50 0.64 0.76 0.79 0.85 0.93 0.93 0.99 1.05 1.16 1.14 1.19 1.21 1.17 1.19 1.31 1.35 1.45 1.61 1.72 1.80 1.85 1.82 1.90 1.94 1.93 1.90 1.88 1.89 1.88 1.85 1.79 1.65 1.64 1.55 1.49
0.34 0.40 0.36 0.34 0.33 0.59 0.68 0.67 0.72 0.75 0.75 0.81 0.86 0.91 0.97 0.93 0.99 1.07 1.08 1.11 1.12 1.18 1.19 1.22 1.25 1.33 1.44 1.59 1.66 1.65 1.67 1.75 1.77 1.76 1.72 1.73 1.77 1.80 1.83 1.79 1.64 1.60 1.59 1.53
0.51 0.55 0.43 0.41 0.47 0.51 0.62 0.74 0.65 0.70 0.72 0.70 0.73 0.77 0.81 0.85 0.94 0.99 1.04 1.03 1.06 1.14 1.16 1.21 1.21 1.20 1.29 1.42 1.49 1.52 1.57 1.60 1.59 1.53 1.56 1.61 1.61 1.63 1.66 1.68 1.62 1.58 1.55 1.53
0.48 0.51 0.46 0.47 0.53 0.54 0.61 0.67 0.68 0.67 0.78 0.76 0.73 0.69 0.76 0.85 0.84 0.88 0.90 0.99 1.08 1.11 1.13 1.17 1.16 1.15 1.23 1.30 1.32 1.39 1.43 1.48 1.42 1.37 1.39 1.43 1.43 1.45 1.46 1.52 1.52 1.48 1.48 1.48
0.51 0.42 0.35 0.36 0.48 0.53 0.57 0.66 0.67 0.63 0.68 0.69 0.70 0.69 0.73 0.73 0.72 0.82 0.80 0.89 0.97 1.03 1.10 1.10 1.11 1.10 1.15 1.22 1.25 1.28 1.32 1.33 1.31 1.29 1.29 1.29 1.30 1.32 1.33 1.33 1.34 1.44 1.40 1.38